<?xml version="1.0" encoding="UTF-8" standalone="no" ?>
<gpx xmlns="http://www.topografix.com/GPX/1/1" xmlns:xsi="http://www.w3.org/2001/XMLSchema-instance" xsi:schemaLocation="http://www.topografix.com/GPX/1/1 http://www.topografix.com/GPX/1/1/gpx.xsd" version="1.1" creator="VisuGPX - https://www.visugpx.com">
  <metadata>
    <name>Sortie VTT Scorbé-Clairvaux(marrons) 2022</name>
    <desc><![CDATA[Rando plutôt sympathique.... ]]></desc>
  </metadata>
  <trk>
    <name><![CDATA[Sortie VTT Scorbé-Clairvaux(marrons) 2022_1]]></name>
    <trkseg>
      <trkpt lat="46.81045" lon="0.41261">
        <ele>91.6</ele>
        <time>2022-10-16T06:19:16Z</time>
      </trkpt>
      <trkpt lat="46.8104" lon="0.4125">
        <ele>91.6</ele>
        <time>2022-10-16T06:19:24Z</time>
      </trkpt>
      <trkpt lat="46.81041" lon="0.41241">
        <ele>92</ele>
        <time>2022-10-16T06:19:31Z</time>
      </trkpt>
      <trkpt lat="46.81041" lon="0.4124">
        <ele>92</ele>
        <time>2022-10-16T06:19:34Z</time>
      </trkpt>
      <trkpt lat="46.81044" lon="0.41235">
        <ele>92.2</ele>
        <time>2022-10-16T06:19:39Z</time>
      </trkpt>
      <trkpt lat="46.81044" lon="0.41232">
        <ele>92.2</ele>
        <time>2022-10-16T06:19:42Z</time>
      </trkpt>
      <trkpt lat="46.81043" lon="0.41231">
        <ele>92.2</ele>
        <time>2022-10-16T06:19:43Z</time>
      </trkpt>
      <trkpt lat="46.81041" lon="0.41231">
        <ele>92.2</ele>
        <time>2022-10-16T06:19:45Z</time>
      </trkpt>
      <trkpt lat="46.8104" lon="0.41233">
        <ele>92.2</ele>
        <time>2022-10-16T06:19:46Z</time>
      </trkpt>
      <trkpt lat="46.8103" lon="0.41241">
        <ele>92.4</ele>
        <time>2022-10-16T06:19:51Z</time>
      </trkpt>
      <trkpt lat="46.81017" lon="0.41247">
        <ele>92.2</ele>
        <time>2022-10-16T06:19:57Z</time>
      </trkpt>
      <trkpt lat="46.81006" lon="0.4124">
        <ele>92.2</ele>
        <time>2022-10-16T06:20:02Z</time>
      </trkpt>
      <trkpt lat="46.80993" lon="0.41221">
        <ele>92.4</ele>
        <time>2022-10-16T06:20:09Z</time>
      </trkpt>
      <trkpt lat="46.80977" lon="0.41216">
        <ele>92.6</ele>
        <time>2022-10-16T06:20:14Z</time>
      </trkpt>
      <trkpt lat="46.80964" lon="0.41214">
        <ele>92.4</ele>
        <time>2022-10-16T06:20:18Z</time>
      </trkpt>
      <trkpt lat="46.80962" lon="0.41212">
        <ele>92.4</ele>
        <time>2022-10-16T06:20:19Z</time>
      </trkpt>
      <trkpt lat="46.80961" lon="0.41208">
        <ele>92.6</ele>
        <time>2022-10-16T06:20:20Z</time>
      </trkpt>
      <trkpt lat="46.80961" lon="0.41199">
        <ele>92.6</ele>
        <time>2022-10-16T06:20:22Z</time>
      </trkpt>
      <trkpt lat="46.80962" lon="0.41194">
        <ele>92.6</ele>
        <time>2022-10-16T06:20:23Z</time>
      </trkpt>
      <trkpt lat="46.80962" lon="0.41174">
        <ele>92.8</ele>
        <time>2022-10-16T06:20:27Z</time>
      </trkpt>
      <trkpt lat="46.8096" lon="0.41169">
        <ele>92.8</ele>
        <time>2022-10-16T06:20:28Z</time>
      </trkpt>
      <trkpt lat="46.80955" lon="0.4116">
        <ele>92.6</ele>
        <time>2022-10-16T06:20:30Z</time>
      </trkpt>
      <trkpt lat="46.80951" lon="0.41148">
        <ele>92.6</ele>
        <time>2022-10-16T06:20:32Z</time>
      </trkpt>
      <trkpt lat="46.80949" lon="0.41142">
        <ele>92.6</ele>
        <time>2022-10-16T06:20:33Z</time>
      </trkpt>
      <trkpt lat="46.80935" lon="0.41076">
        <ele>92.6</ele>
        <time>2022-10-16T06:20:43Z</time>
      </trkpt>
      <trkpt lat="46.80922" lon="0.41016">
        <ele>92.4</ele>
        <time>2022-10-16T06:20:52Z</time>
      </trkpt>
      <trkpt lat="46.80914" lon="0.40992">
        <ele>92</ele>
        <time>2022-10-16T06:20:56Z</time>
      </trkpt>
      <trkpt lat="46.80906" lon="0.40984">
        <ele>91.8</ele>
        <time>2022-10-16T06:20:58Z</time>
      </trkpt>
      <trkpt lat="46.80896" lon="0.40981">
        <ele>91.8</ele>
        <time>2022-10-16T06:21:00Z</time>
      </trkpt>
      <trkpt lat="46.80885" lon="0.40981">
        <ele>91.6</ele>
        <time>2022-10-16T06:21:02Z</time>
      </trkpt>
      <trkpt lat="46.80851" lon="0.40982">
        <ele>91.4</ele>
        <time>2022-10-16T06:21:08Z</time>
      </trkpt>
      <trkpt lat="46.80828" lon="0.40983">
        <ele>91</ele>
        <time>2022-10-16T06:21:12Z</time>
      </trkpt>
      <trkpt lat="46.80782" lon="0.40985">
        <ele>90.8</ele>
        <time>2022-10-16T06:21:20Z</time>
      </trkpt>
      <trkpt lat="46.8075" lon="0.40987">
        <ele>90.6</ele>
        <time>2022-10-16T06:21:26Z</time>
      </trkpt>
      <trkpt lat="46.8074" lon="0.40985">
        <ele>90.8</ele>
        <time>2022-10-16T06:21:28Z</time>
      </trkpt>
      <trkpt lat="46.80732" lon="0.40979">
        <ele>90.6</ele>
        <time>2022-10-16T06:21:30Z</time>
      </trkpt>
      <trkpt lat="46.80729" lon="0.40974">
        <ele>90.8</ele>
        <time>2022-10-16T06:21:31Z</time>
      </trkpt>
      <trkpt lat="46.80727" lon="0.40968">
        <ele>90.8</ele>
        <time>2022-10-16T06:21:32Z</time>
      </trkpt>
      <trkpt lat="46.80724" lon="0.40946">
        <ele>90.8</ele>
        <time>2022-10-16T06:21:35Z</time>
      </trkpt>
      <trkpt lat="46.80727" lon="0.40889">
        <ele>90.6</ele>
        <time>2022-10-16T06:21:42Z</time>
      </trkpt>
      <trkpt lat="46.80728" lon="0.40816">
        <ele>90.8</ele>
        <time>2022-10-16T06:21:51Z</time>
      </trkpt>
      <trkpt lat="46.80729" lon="0.40745">
        <ele>90.4</ele>
        <time>2022-10-16T06:22:00Z</time>
      </trkpt>
      <trkpt lat="46.80729" lon="0.40737">
        <ele>90</ele>
        <time>2022-10-16T06:22:01Z</time>
      </trkpt>
      <trkpt lat="46.80729" lon="0.40704">
        <ele>89.8</ele>
        <time>2022-10-16T06:22:05Z</time>
      </trkpt>
      <trkpt lat="46.8073" lon="0.40681">
        <ele>89.6</ele>
        <time>2022-10-16T06:22:08Z</time>
      </trkpt>
      <trkpt lat="46.8073" lon="0.40642">
        <ele>89</ele>
        <time>2022-10-16T06:22:13Z</time>
      </trkpt>
      <trkpt lat="46.8073" lon="0.40635">
        <ele>89.2</ele>
        <time>2022-10-16T06:22:14Z</time>
      </trkpt>
      <trkpt lat="46.8073" lon="0.40619">
        <ele>89.2</ele>
        <time>2022-10-16T06:22:16Z</time>
      </trkpt>
      <trkpt lat="46.80731" lon="0.40598">
        <ele>89.2</ele>
        <time>2022-10-16T06:22:20Z</time>
      </trkpt>
      <trkpt lat="46.80733" lon="0.40594">
        <ele>88.6</ele>
        <time>2022-10-16T06:22:23Z</time>
      </trkpt>
      <trkpt lat="46.80732" lon="0.40593">
        <ele>88.6</ele>
        <time>2022-10-16T06:22:25Z</time>
      </trkpt>
      <trkpt lat="46.80731" lon="0.40595">
        <ele>88.6</ele>
        <time>2022-10-16T06:22:27Z</time>
      </trkpt>
      <trkpt lat="46.80731" lon="0.40599">
        <ele>88.6</ele>
        <time>2022-10-16T06:22:29Z</time>
      </trkpt>
      <trkpt lat="46.80731" lon="0.40612">
        <ele>89.2</ele>
        <time>2022-10-16T06:22:34Z</time>
      </trkpt>
      <trkpt lat="46.80733" lon="0.40613">
        <ele>89.2</ele>
        <time>2022-10-16T06:22:36Z</time>
      </trkpt>
      <trkpt lat="46.80733" lon="0.40611">
        <ele>89.2</ele>
        <time>2022-10-16T06:22:39Z</time>
      </trkpt>
      <trkpt lat="46.80733" lon="0.4061">
        <ele>89.2</ele>
        <time>2022-10-16T06:22:40Z</time>
      </trkpt>
      <trkpt lat="46.80733" lon="0.40609">
        <ele>89.2</ele>
        <time>2022-10-16T06:22:41Z</time>
      </trkpt>
      <trkpt lat="46.80732" lon="0.40605">
        <ele>89.2</ele>
        <time>2022-10-16T06:22:44Z</time>
      </trkpt>
      <trkpt lat="46.80732" lon="0.40595">
        <ele>88.6</ele>
        <time>2022-10-16T06:22:48Z</time>
      </trkpt>
      <trkpt lat="46.80732" lon="0.40574">
        <ele>88.6</ele>
        <time>2022-10-16T06:22:53Z</time>
      </trkpt>
      <trkpt lat="46.80732" lon="0.4054">
        <ele>88.6</ele>
        <time>2022-10-16T06:22:59Z</time>
      </trkpt>
      <trkpt lat="46.80732" lon="0.40502">
        <ele>89.2</ele>
        <time>2022-10-16T06:23:05Z</time>
      </trkpt>
      <trkpt lat="46.80731" lon="0.40496">
        <ele>89.2</ele>
        <time>2022-10-16T06:23:06Z</time>
      </trkpt>
      <trkpt lat="46.80727" lon="0.40455">
        <ele>89.2</ele>
        <time>2022-10-16T06:23:13Z</time>
      </trkpt>
      <trkpt lat="46.80727" lon="0.40448">
        <ele>89.2</ele>
        <time>2022-10-16T06:23:14Z</time>
      </trkpt>
      <trkpt lat="46.80728" lon="0.40406">
        <ele>88.8</ele>
        <time>2022-10-16T06:23:20Z</time>
      </trkpt>
      <trkpt lat="46.8073" lon="0.40348">
        <ele>88.6</ele>
        <time>2022-10-16T06:23:27Z</time>
      </trkpt>
      <trkpt lat="46.80731" lon="0.40281">
        <ele>88.4</ele>
        <time>2022-10-16T06:23:35Z</time>
      </trkpt>
      <trkpt lat="46.80735" lon="0.40225">
        <ele>88.2</ele>
        <time>2022-10-16T06:23:42Z</time>
      </trkpt>
      <trkpt lat="46.80737" lon="0.40207">
        <ele>88.6</ele>
        <time>2022-10-16T06:23:45Z</time>
      </trkpt>
      <trkpt lat="46.80737" lon="0.40195">
        <ele>88.4</ele>
        <time>2022-10-16T06:23:47Z</time>
      </trkpt>
      <trkpt lat="46.80739" lon="0.40167">
        <ele>88.2</ele>
        <time>2022-10-16T06:23:51Z</time>
      </trkpt>
      <trkpt lat="46.80741" lon="0.40153">
        <ele>88</ele>
        <time>2022-10-16T06:23:53Z</time>
      </trkpt>
      <trkpt lat="46.8074" lon="0.40138">
        <ele>87.8</ele>
        <time>2022-10-16T06:23:55Z</time>
      </trkpt>
      <trkpt lat="46.8074" lon="0.40122">
        <ele>87.8</ele>
        <time>2022-10-16T06:23:57Z</time>
      </trkpt>
      <trkpt lat="46.8074" lon="0.40114">
        <ele>87.8</ele>
        <time>2022-10-16T06:23:58Z</time>
      </trkpt>
      <trkpt lat="46.80742" lon="0.4005">
        <ele>87.6</ele>
        <time>2022-10-16T06:24:06Z</time>
      </trkpt>
      <trkpt lat="46.80742" lon="0.39986">
        <ele>87.2</ele>
        <time>2022-10-16T06:24:13Z</time>
      </trkpt>
      <trkpt lat="46.80742" lon="0.39945">
        <ele>87</ele>
        <time>2022-10-16T06:24:17Z</time>
      </trkpt>
      <trkpt lat="46.80741" lon="0.39905">
        <ele>86.2</ele>
        <time>2022-10-16T06:24:21Z</time>
      </trkpt>
      <trkpt lat="46.80741" lon="0.39895">
        <ele>86</ele>
        <time>2022-10-16T06:24:22Z</time>
      </trkpt>
      <trkpt lat="46.80742" lon="0.39836">
        <ele>85.2</ele>
        <time>2022-10-16T06:24:28Z</time>
      </trkpt>
      <trkpt lat="46.80742" lon="0.39816">
        <ele>84.8</ele>
        <time>2022-10-16T06:24:30Z</time>
      </trkpt>
      <trkpt lat="46.80743" lon="0.39752">
        <ele>84.2</ele>
        <time>2022-10-16T06:24:37Z</time>
      </trkpt>
      <trkpt lat="46.80744" lon="0.39669">
        <ele>84.4</ele>
        <time>2022-10-16T06:24:47Z</time>
      </trkpt>
      <trkpt lat="46.80747" lon="0.39616">
        <ele>84.4</ele>
        <time>2022-10-16T06:24:54Z</time>
      </trkpt>
      <trkpt lat="46.80748" lon="0.39609">
        <ele>84.4</ele>
        <time>2022-10-16T06:24:55Z</time>
      </trkpt>
      <trkpt lat="46.8075" lon="0.39603">
        <ele>84.4</ele>
        <time>2022-10-16T06:24:56Z</time>
      </trkpt>
      <trkpt lat="46.80759" lon="0.3958">
        <ele>84.8</ele>
        <time>2022-10-16T06:25:00Z</time>
      </trkpt>
      <trkpt lat="46.80783" lon="0.39535">
        <ele>85.4</ele>
        <time>2022-10-16T06:25:08Z</time>
      </trkpt>
      <trkpt lat="46.80795" lon="0.3952">
        <ele>85.4</ele>
        <time>2022-10-16T06:25:13Z</time>
      </trkpt>
      <trkpt lat="46.80801" lon="0.39522">
        <ele>85.2</ele>
        <time>2022-10-16T06:25:15Z</time>
      </trkpt>
      <trkpt lat="46.80806" lon="0.39528">
        <ele>85.2</ele>
        <time>2022-10-16T06:25:17Z</time>
      </trkpt>
      <trkpt lat="46.80824" lon="0.39548">
        <ele>85.2</ele>
        <time>2022-10-16T06:25:22Z</time>
      </trkpt>
      <trkpt lat="46.80843" lon="0.39569">
        <ele>85.8</ele>
        <time>2022-10-16T06:25:27Z</time>
      </trkpt>
      <trkpt lat="46.8086" lon="0.39585">
        <ele>86</ele>
        <time>2022-10-16T06:25:31Z</time>
      </trkpt>
      <trkpt lat="46.80868" lon="0.39592">
        <ele>86.2</ele>
        <time>2022-10-16T06:25:33Z</time>
      </trkpt>
      <trkpt lat="46.80876" lon="0.39593">
        <ele>86.2</ele>
        <time>2022-10-16T06:25:35Z</time>
      </trkpt>
      <trkpt lat="46.80881" lon="0.39585">
        <ele>86.4</ele>
        <time>2022-10-16T06:25:37Z</time>
      </trkpt>
      <trkpt lat="46.80883" lon="0.39579">
        <ele>86.4</ele>
        <time>2022-10-16T06:25:38Z</time>
      </trkpt>
      <trkpt lat="46.80885" lon="0.39573">
        <ele>86.6</ele>
        <time>2022-10-16T06:25:39Z</time>
      </trkpt>
      <trkpt lat="46.80887" lon="0.39559">
        <ele>86.6</ele>
        <time>2022-10-16T06:25:41Z</time>
      </trkpt>
      <trkpt lat="46.80888" lon="0.39552">
        <ele>86.6</ele>
        <time>2022-10-16T06:25:42Z</time>
      </trkpt>
      <trkpt lat="46.80889" lon="0.39545">
        <ele>86.6</ele>
        <time>2022-10-16T06:25:43Z</time>
      </trkpt>
      <trkpt lat="46.80891" lon="0.39538">
        <ele>87</ele>
        <time>2022-10-16T06:25:44Z</time>
      </trkpt>
      <trkpt lat="46.80895" lon="0.39517">
        <ele>87.2</ele>
        <time>2022-10-16T06:25:47Z</time>
      </trkpt>
      <trkpt lat="46.80906" lon="0.39467">
        <ele>87.2</ele>
        <time>2022-10-16T06:25:54Z</time>
      </trkpt>
      <trkpt lat="46.80906" lon="0.3946">
        <ele>87</ele>
        <time>2022-10-16T06:25:55Z</time>
      </trkpt>
      <trkpt lat="46.80905" lon="0.39437">
        <ele>87.2</ele>
        <time>2022-10-16T06:25:58Z</time>
      </trkpt>
      <trkpt lat="46.80904" lon="0.3943">
        <ele>87.2</ele>
        <time>2022-10-16T06:25:59Z</time>
      </trkpt>
      <trkpt lat="46.80893" lon="0.39377">
        <ele>87</ele>
        <time>2022-10-16T06:26:06Z</time>
      </trkpt>
      <trkpt lat="46.80883" lon="0.3933">
        <ele>87</ele>
        <time>2022-10-16T06:26:13Z</time>
      </trkpt>
      <trkpt lat="46.80875" lon="0.39284">
        <ele>87.2</ele>
        <time>2022-10-16T06:26:20Z</time>
      </trkpt>
      <trkpt lat="46.80868" lon="0.39235">
        <ele>87</ele>
        <time>2022-10-16T06:26:26Z</time>
      </trkpt>
      <trkpt lat="46.8086" lon="0.39177">
        <ele>86.6</ele>
        <time>2022-10-16T06:26:33Z</time>
      </trkpt>
      <trkpt lat="46.80851" lon="0.39115">
        <ele>86.8</ele>
        <time>2022-10-16T06:26:41Z</time>
      </trkpt>
      <trkpt lat="46.80848" lon="0.39102">
        <ele>86.6</ele>
        <time>2022-10-16T06:26:43Z</time>
      </trkpt>
      <trkpt lat="46.80843" lon="0.39081">
        <ele>86.4</ele>
        <time>2022-10-16T06:26:46Z</time>
      </trkpt>
      <trkpt lat="46.80838" lon="0.39041">
        <ele>86.8</ele>
        <time>2022-10-16T06:26:52Z</time>
      </trkpt>
      <trkpt lat="46.80837" lon="0.39013">
        <ele>87.2</ele>
        <time>2022-10-16T06:26:57Z</time>
      </trkpt>
      <trkpt lat="46.80836" lon="0.39007">
        <ele>87.4</ele>
        <time>2022-10-16T06:26:58Z</time>
      </trkpt>
      <trkpt lat="46.80836" lon="0.39">
        <ele>87.4</ele>
        <time>2022-10-16T06:26:59Z</time>
      </trkpt>
      <trkpt lat="46.80835" lon="0.38969">
        <ele>87.8</ele>
        <time>2022-10-16T06:27:04Z</time>
      </trkpt>
      <trkpt lat="46.80832" lon="0.38937">
        <ele>88</ele>
        <time>2022-10-16T06:27:09Z</time>
      </trkpt>
      <trkpt lat="46.80832" lon="0.38931">
        <ele>88</ele>
        <time>2022-10-16T06:27:10Z</time>
      </trkpt>
      <trkpt lat="46.80832" lon="0.38925">
        <ele>88</ele>
        <time>2022-10-16T06:27:11Z</time>
      </trkpt>
      <trkpt lat="46.80829" lon="0.38914">
        <ele>88</ele>
        <time>2022-10-16T06:27:13Z</time>
      </trkpt>
      <trkpt lat="46.80825" lon="0.38897">
        <ele>88</ele>
        <time>2022-10-16T06:27:16Z</time>
      </trkpt>
      <trkpt lat="46.8082" lon="0.38876">
        <ele>87.6</ele>
        <time>2022-10-16T06:27:19Z</time>
      </trkpt>
      <trkpt lat="46.80813" lon="0.38867">
        <ele>87.8</ele>
        <time>2022-10-16T06:27:21Z</time>
      </trkpt>
      <trkpt lat="46.80791" lon="0.38858">
        <ele>87.8</ele>
        <time>2022-10-16T06:27:25Z</time>
      </trkpt>
      <trkpt lat="46.8075" lon="0.38852">
        <ele>88</ele>
        <time>2022-10-16T06:27:33Z</time>
      </trkpt>
      <trkpt lat="46.80731" lon="0.38849">
        <ele>87.6</ele>
        <time>2022-10-16T06:27:38Z</time>
      </trkpt>
      <trkpt lat="46.80722" lon="0.38861">
        <ele>87.6</ele>
        <time>2022-10-16T06:27:42Z</time>
      </trkpt>
      <trkpt lat="46.80718" lon="0.38864">
        <ele>87.6</ele>
        <time>2022-10-16T06:27:43Z</time>
      </trkpt>
      <trkpt lat="46.8071" lon="0.3887">
        <ele>87.4</ele>
        <time>2022-10-16T06:27:45Z</time>
      </trkpt>
      <trkpt lat="46.807" lon="0.3887">
        <ele>87.4</ele>
        <time>2022-10-16T06:27:47Z</time>
      </trkpt>
      <trkpt lat="46.80695" lon="0.38867">
        <ele>87.2</ele>
        <time>2022-10-16T06:27:48Z</time>
      </trkpt>
      <trkpt lat="46.80671" lon="0.3884">
        <ele>87.2</ele>
        <time>2022-10-16T06:27:54Z</time>
      </trkpt>
      <trkpt lat="46.80663" lon="0.38817">
        <ele>88</ele>
        <time>2022-10-16T06:27:58Z</time>
      </trkpt>
      <trkpt lat="46.80663" lon="0.38812">
        <ele>88.4</ele>
        <time>2022-10-16T06:27:59Z</time>
      </trkpt>
      <trkpt lat="46.80661" lon="0.38774">
        <ele>88.6</ele>
        <time>2022-10-16T06:28:05Z</time>
      </trkpt>
      <trkpt lat="46.80661" lon="0.38768">
        <ele>88.6</ele>
        <time>2022-10-16T06:28:06Z</time>
      </trkpt>
      <trkpt lat="46.80663" lon="0.38755">
        <ele>88.2</ele>
        <time>2022-10-16T06:28:08Z</time>
      </trkpt>
      <trkpt lat="46.80663" lon="0.38748">
        <ele>88.2</ele>
        <time>2022-10-16T06:28:09Z</time>
      </trkpt>
      <trkpt lat="46.80663" lon="0.38741">
        <ele>88</ele>
        <time>2022-10-16T06:28:10Z</time>
      </trkpt>
      <trkpt lat="46.80669" lon="0.3873">
        <ele>88</ele>
        <time>2022-10-16T06:28:12Z</time>
      </trkpt>
      <trkpt lat="46.8068" lon="0.38716">
        <ele>87.8</ele>
        <time>2022-10-16T06:28:15Z</time>
      </trkpt>
      <trkpt lat="46.80689" lon="0.38711">
        <ele>87.6</ele>
        <time>2022-10-16T06:28:17Z</time>
      </trkpt>
      <trkpt lat="46.80699" lon="0.3871">
        <ele>87.6</ele>
        <time>2022-10-16T06:28:19Z</time>
      </trkpt>
      <trkpt lat="46.80704" lon="0.38712">
        <ele>87.2</ele>
        <time>2022-10-16T06:28:21Z</time>
      </trkpt>
      <trkpt lat="46.80712" lon="0.38721">
        <ele>87.2</ele>
        <time>2022-10-16T06:28:22Z</time>
      </trkpt>
      <trkpt lat="46.8072" lon="0.38732">
        <ele>87.2</ele>
        <time>2022-10-16T06:28:24Z</time>
      </trkpt>
      <trkpt lat="46.80731" lon="0.38738">
        <ele>87</ele>
        <time>2022-10-16T06:28:26Z</time>
      </trkpt>
      <trkpt lat="46.80738" lon="0.38739">
        <ele>86.8</ele>
        <time>2022-10-16T06:28:27Z</time>
      </trkpt>
      <trkpt lat="46.80769" lon="0.38739">
        <ele>86.6</ele>
        <time>2022-10-16T06:28:33Z</time>
      </trkpt>
      <trkpt lat="46.80773" lon="0.38733">
        <ele>86.2</ele>
        <time>2022-10-16T06:28:35Z</time>
      </trkpt>
      <trkpt lat="46.80774" lon="0.38729">
        <ele>86.2</ele>
        <time>2022-10-16T06:28:36Z</time>
      </trkpt>
      <trkpt lat="46.80771" lon="0.38718">
        <ele>86</ele>
        <time>2022-10-16T06:28:38Z</time>
      </trkpt>
      <trkpt lat="46.80769" lon="0.38712">
        <ele>85.8</ele>
        <time>2022-10-16T06:28:39Z</time>
      </trkpt>
      <trkpt lat="46.80767" lon="0.38706">
        <ele>85.6</ele>
        <time>2022-10-16T06:28:40Z</time>
      </trkpt>
      <trkpt lat="46.80751" lon="0.38671">
        <ele>85.2</ele>
        <time>2022-10-16T06:28:46Z</time>
      </trkpt>
      <trkpt lat="46.80745" lon="0.38657">
        <ele>85.2</ele>
        <time>2022-10-16T06:28:49Z</time>
      </trkpt>
      <trkpt lat="46.80745" lon="0.38653">
        <ele>85.2</ele>
        <time>2022-10-16T06:28:50Z</time>
      </trkpt>
      <trkpt lat="46.80751" lon="0.38639">
        <ele>84.8</ele>
        <time>2022-10-16T06:28:54Z</time>
      </trkpt>
      <trkpt lat="46.80757" lon="0.38621">
        <ele>84.8</ele>
        <time>2022-10-16T06:28:57Z</time>
      </trkpt>
      <trkpt lat="46.80762" lon="0.3861">
        <ele>85</ele>
        <time>2022-10-16T06:28:59Z</time>
      </trkpt>
      <trkpt lat="46.80777" lon="0.38581">
        <ele>84.2</ele>
        <time>2022-10-16T06:29:05Z</time>
      </trkpt>
      <trkpt lat="46.80781" lon="0.38573">
        <ele>84</ele>
        <time>2022-10-16T06:29:07Z</time>
      </trkpt>
      <trkpt lat="46.80785" lon="0.38564">
        <ele>83.8</ele>
        <time>2022-10-16T06:29:09Z</time>
      </trkpt>
      <trkpt lat="46.80791" lon="0.38555">
        <ele>83.6</ele>
        <time>2022-10-16T06:29:11Z</time>
      </trkpt>
      <trkpt lat="46.80799" lon="0.38542">
        <ele>83.4</ele>
        <time>2022-10-16T06:29:14Z</time>
      </trkpt>
      <trkpt lat="46.80809" lon="0.38524">
        <ele>83.4</ele>
        <time>2022-10-16T06:29:17Z</time>
      </trkpt>
      <trkpt lat="46.80837" lon="0.38485">
        <ele>83.4</ele>
        <time>2022-10-16T06:29:23Z</time>
      </trkpt>
      <trkpt lat="46.80857" lon="0.38449">
        <ele>82.6</ele>
        <time>2022-10-16T06:29:28Z</time>
      </trkpt>
      <trkpt lat="46.80864" lon="0.38435">
        <ele>82.2</ele>
        <time>2022-10-16T06:29:30Z</time>
      </trkpt>
      <trkpt lat="46.8087" lon="0.38422">
        <ele>81.6</ele>
        <time>2022-10-16T06:29:32Z</time>
      </trkpt>
      <trkpt lat="46.80872" lon="0.38411">
        <ele>81.4</ele>
        <time>2022-10-16T06:29:34Z</time>
      </trkpt>
      <trkpt lat="46.80871" lon="0.38405">
        <ele>81.6</ele>
        <time>2022-10-16T06:29:35Z</time>
      </trkpt>
      <trkpt lat="46.80868" lon="0.384">
        <ele>81.6</ele>
        <time>2022-10-16T06:29:36Z</time>
      </trkpt>
      <trkpt lat="46.8086" lon="0.38384">
        <ele>81.8</ele>
        <time>2022-10-16T06:29:39Z</time>
      </trkpt>
      <trkpt lat="46.80847" lon="0.38361">
        <ele>81</ele>
        <time>2022-10-16T06:29:44Z</time>
      </trkpt>
      <trkpt lat="46.80845" lon="0.38355">
        <ele>81</ele>
        <time>2022-10-16T06:29:45Z</time>
      </trkpt>
      <trkpt lat="46.80826" lon="0.38322">
        <ele>80.6</ele>
        <time>2022-10-16T06:29:51Z</time>
      </trkpt>
      <trkpt lat="46.80804" lon="0.38292">
        <ele>80</ele>
        <time>2022-10-16T06:29:56Z</time>
      </trkpt>
      <trkpt lat="46.808" lon="0.38286">
        <ele>80</ele>
        <time>2022-10-16T06:29:57Z</time>
      </trkpt>
      <trkpt lat="46.80771" lon="0.38251">
        <ele>80</ele>
        <time>2022-10-16T06:30:04Z</time>
      </trkpt>
      <trkpt lat="46.80748" lon="0.38226">
        <ele>79.6</ele>
        <time>2022-10-16T06:30:10Z</time>
      </trkpt>
      <trkpt lat="46.80728" lon="0.38208">
        <ele>79.4</ele>
        <time>2022-10-16T06:30:15Z</time>
      </trkpt>
      <trkpt lat="46.80723" lon="0.38204">
        <ele>79.4</ele>
        <time>2022-10-16T06:30:16Z</time>
      </trkpt>
      <trkpt lat="46.80718" lon="0.38198">
        <ele>79.4</ele>
        <time>2022-10-16T06:30:17Z</time>
      </trkpt>
      <trkpt lat="46.80698" lon="0.38175">
        <ele>79.6</ele>
        <time>2022-10-16T06:30:21Z</time>
      </trkpt>
      <trkpt lat="46.80661" lon="0.38128">
        <ele>79.6</ele>
        <time>2022-10-16T06:30:29Z</time>
      </trkpt>
      <trkpt lat="46.80649" lon="0.38113">
        <ele>79.2</ele>
        <time>2022-10-16T06:30:32Z</time>
      </trkpt>
      <trkpt lat="46.80635" lon="0.38099">
        <ele>78.8</ele>
        <time>2022-10-16T06:30:35Z</time>
      </trkpt>
      <trkpt lat="46.80623" lon="0.38087">
        <ele>78.6</ele>
        <time>2022-10-16T06:30:38Z</time>
      </trkpt>
      <trkpt lat="46.80619" lon="0.38083">
        <ele>78.6</ele>
        <time>2022-10-16T06:30:39Z</time>
      </trkpt>
      <trkpt lat="46.80616" lon="0.38079">
        <ele>78.6</ele>
        <time>2022-10-16T06:30:40Z</time>
      </trkpt>
      <trkpt lat="46.80597" lon="0.38049">
        <ele>78.8</ele>
        <time>2022-10-16T06:30:46Z</time>
      </trkpt>
      <trkpt lat="46.80577" lon="0.38023">
        <ele>79</ele>
        <time>2022-10-16T06:30:52Z</time>
      </trkpt>
      <trkpt lat="46.80557" lon="0.37998">
        <ele>79</ele>
        <time>2022-10-16T06:30:58Z</time>
      </trkpt>
      <trkpt lat="46.80545" lon="0.37982">
        <ele>79.6</ele>
        <time>2022-10-16T06:31:01Z</time>
      </trkpt>
      <trkpt lat="46.80536" lon="0.37972">
        <ele>79.8</ele>
        <time>2022-10-16T06:31:03Z</time>
      </trkpt>
      <trkpt lat="46.80513" lon="0.37938">
        <ele>79</ele>
        <time>2022-10-16T06:31:09Z</time>
      </trkpt>
      <trkpt lat="46.80495" lon="0.37916">
        <ele>78.8</ele>
        <time>2022-10-16T06:31:14Z</time>
      </trkpt>
      <trkpt lat="46.80491" lon="0.37911">
        <ele>78.8</ele>
        <time>2022-10-16T06:31:15Z</time>
      </trkpt>
      <trkpt lat="46.80478" lon="0.37881">
        <ele>78.6</ele>
        <time>2022-10-16T06:31:20Z</time>
      </trkpt>
      <trkpt lat="46.80472" lon="0.3786">
        <ele>78.6</ele>
        <time>2022-10-16T06:31:23Z</time>
      </trkpt>
      <trkpt lat="46.80463" lon="0.37829">
        <ele>78.4</ele>
        <time>2022-10-16T06:31:27Z</time>
      </trkpt>
      <trkpt lat="46.80452" lon="0.37775">
        <ele>77.8</ele>
        <time>2022-10-16T06:31:33Z</time>
      </trkpt>
      <trkpt lat="46.8045" lon="0.37767">
        <ele>77.6</ele>
        <time>2022-10-16T06:31:34Z</time>
      </trkpt>
      <trkpt lat="46.80441" lon="0.37736">
        <ele>76.4</ele>
        <time>2022-10-16T06:31:38Z</time>
      </trkpt>
      <trkpt lat="46.80439" lon="0.37727">
        <ele>76</ele>
        <time>2022-10-16T06:31:39Z</time>
      </trkpt>
      <trkpt lat="46.80439" lon="0.37693">
        <ele>75.6</ele>
        <time>2022-10-16T06:31:42Z</time>
      </trkpt>
      <trkpt lat="46.80437" lon="0.37654">
        <ele>75.4</ele>
        <time>2022-10-16T06:31:45Z</time>
      </trkpt>
      <trkpt lat="46.80437" lon="0.37644">
        <ele>75.4</ele>
        <time>2022-10-16T06:31:46Z</time>
      </trkpt>
      <trkpt lat="46.80436" lon="0.37635">
        <ele>75.4</ele>
        <time>2022-10-16T06:31:47Z</time>
      </trkpt>
      <trkpt lat="46.80434" lon="0.37623">
        <ele>75.4</ele>
        <time>2022-10-16T06:31:48Z</time>
      </trkpt>
      <trkpt lat="46.8043" lon="0.37598">
        <ele>75.6</ele>
        <time>2022-10-16T06:31:51Z</time>
      </trkpt>
      <trkpt lat="46.80427" lon="0.3759">
        <ele>75.8</ele>
        <time>2022-10-16T06:31:52Z</time>
      </trkpt>
      <trkpt lat="46.80424" lon="0.37582">
        <ele>75.8</ele>
        <time>2022-10-16T06:31:53Z</time>
      </trkpt>
      <trkpt lat="46.80413" lon="0.37539">
        <ele>75.8</ele>
        <time>2022-10-16T06:31:58Z</time>
      </trkpt>
      <trkpt lat="46.80405" lon="0.37491">
        <ele>75.8</ele>
        <time>2022-10-16T06:32:03Z</time>
      </trkpt>
      <trkpt lat="46.80404" lon="0.37482">
        <ele>76</ele>
        <time>2022-10-16T06:32:04Z</time>
      </trkpt>
      <trkpt lat="46.80399" lon="0.37439">
        <ele>76</ele>
        <time>2022-10-16T06:32:08Z</time>
      </trkpt>
      <trkpt lat="46.80398" lon="0.37422">
        <ele>76</ele>
        <time>2022-10-16T06:32:10Z</time>
      </trkpt>
      <trkpt lat="46.80395" lon="0.37376">
        <ele>76.4</ele>
        <time>2022-10-16T06:32:16Z</time>
      </trkpt>
      <trkpt lat="46.80394" lon="0.37369">
        <ele>76.4</ele>
        <time>2022-10-16T06:32:17Z</time>
      </trkpt>
      <trkpt lat="46.80388" lon="0.37342">
        <ele>76.8</ele>
        <time>2022-10-16T06:32:21Z</time>
      </trkpt>
      <trkpt lat="46.80387" lon="0.37335">
        <ele>77</ele>
        <time>2022-10-16T06:32:22Z</time>
      </trkpt>
      <trkpt lat="46.80384" lon="0.37316">
        <ele>77.2</ele>
        <time>2022-10-16T06:32:25Z</time>
      </trkpt>
      <trkpt lat="46.80381" lon="0.37302">
        <ele>77</ele>
        <time>2022-10-16T06:32:27Z</time>
      </trkpt>
      <trkpt lat="46.80378" lon="0.3728">
        <ele>77</ele>
        <time>2022-10-16T06:32:30Z</time>
      </trkpt>
      <trkpt lat="46.80372" lon="0.37255">
        <ele>77.2</ele>
        <time>2022-10-16T06:32:33Z</time>
      </trkpt>
      <trkpt lat="46.8037" lon="0.37237">
        <ele>77.6</ele>
        <time>2022-10-16T06:32:35Z</time>
      </trkpt>
      <trkpt lat="46.8036" lon="0.37202">
        <ele>78</ele>
        <time>2022-10-16T06:32:39Z</time>
      </trkpt>
      <trkpt lat="46.80352" lon="0.37162">
        <ele>78.8</ele>
        <time>2022-10-16T06:32:43Z</time>
      </trkpt>
      <trkpt lat="46.80348" lon="0.37145">
        <ele>78.8</ele>
        <time>2022-10-16T06:32:45Z</time>
      </trkpt>
      <trkpt lat="46.80337" lon="0.37083">
        <ele>79.2</ele>
        <time>2022-10-16T06:32:53Z</time>
      </trkpt>
      <trkpt lat="46.80329" lon="0.37052">
        <ele>79.8</ele>
        <time>2022-10-16T06:32:58Z</time>
      </trkpt>
      <trkpt lat="46.80327" lon="0.37039">
        <ele>80.2</ele>
        <time>2022-10-16T06:33:00Z</time>
      </trkpt>
      <trkpt lat="46.80319" lon="0.37008">
        <ele>80.8</ele>
        <time>2022-10-16T06:33:05Z</time>
      </trkpt>
      <trkpt lat="46.80315" lon="0.36997">
        <ele>80.8</ele>
        <time>2022-10-16T06:33:07Z</time>
      </trkpt>
      <trkpt lat="46.80311" lon="0.36984">
        <ele>80.8</ele>
        <time>2022-10-16T06:33:09Z</time>
      </trkpt>
      <trkpt lat="46.80305" lon="0.36963">
        <ele>81</ele>
        <time>2022-10-16T06:33:12Z</time>
      </trkpt>
      <trkpt lat="46.80302" lon="0.36949">
        <ele>81.2</ele>
        <time>2022-10-16T06:33:14Z</time>
      </trkpt>
      <trkpt lat="46.8029" lon="0.36908">
        <ele>81.4</ele>
        <time>2022-10-16T06:33:21Z</time>
      </trkpt>
      <trkpt lat="46.80279" lon="0.36874">
        <ele>81</ele>
        <time>2022-10-16T06:33:25Z</time>
      </trkpt>
      <trkpt lat="46.80277" lon="0.36861">
        <ele>80.8</ele>
        <time>2022-10-16T06:33:27Z</time>
      </trkpt>
      <trkpt lat="46.80274" lon="0.36855">
        <ele>80.8</ele>
        <time>2022-10-16T06:33:28Z</time>
      </trkpt>
      <trkpt lat="46.80266" lon="0.36826">
        <ele>81</ele>
        <time>2022-10-16T06:33:32Z</time>
      </trkpt>
      <trkpt lat="46.80264" lon="0.36818">
        <ele>81.2</ele>
        <time>2022-10-16T06:33:33Z</time>
      </trkpt>
      <trkpt lat="46.80244" lon="0.36766">
        <ele>81.6</ele>
        <time>2022-10-16T06:33:41Z</time>
      </trkpt>
      <trkpt lat="46.80233" lon="0.36734">
        <ele>81.4</ele>
        <time>2022-10-16T06:33:45Z</time>
      </trkpt>
      <trkpt lat="46.80219" lon="0.36703">
        <ele>81.8</ele>
        <time>2022-10-16T06:33:51Z</time>
      </trkpt>
      <trkpt lat="46.80207" lon="0.36665">
        <ele>82</ele>
        <time>2022-10-16T06:33:57Z</time>
      </trkpt>
      <trkpt lat="46.80199" lon="0.36622">
        <ele>82.6</ele>
        <time>2022-10-16T06:34:03Z</time>
      </trkpt>
      <trkpt lat="46.80195" lon="0.36613">
        <ele>82.6</ele>
        <time>2022-10-16T06:34:04Z</time>
      </trkpt>
      <trkpt lat="46.80176" lon="0.36569">
        <ele>83.2</ele>
        <time>2022-10-16T06:34:10Z</time>
      </trkpt>
      <trkpt lat="46.80171" lon="0.36554">
        <ele>83.4</ele>
        <time>2022-10-16T06:34:12Z</time>
      </trkpt>
      <trkpt lat="46.80165" lon="0.3653">
        <ele>83.8</ele>
        <time>2022-10-16T06:34:15Z</time>
      </trkpt>
      <trkpt lat="46.8015" lon="0.36479">
        <ele>83.6</ele>
        <time>2022-10-16T06:34:22Z</time>
      </trkpt>
      <trkpt lat="46.80134" lon="0.36428">
        <ele>84</ele>
        <time>2022-10-16T06:34:29Z</time>
      </trkpt>
      <trkpt lat="46.80123" lon="0.36402">
        <ele>84.2</ele>
        <time>2022-10-16T06:34:33Z</time>
      </trkpt>
      <trkpt lat="46.80117" lon="0.36389">
        <ele>84.8</ele>
        <time>2022-10-16T06:34:35Z</time>
      </trkpt>
      <trkpt lat="46.80114" lon="0.36382">
        <ele>84.8</ele>
        <time>2022-10-16T06:34:36Z</time>
      </trkpt>
      <trkpt lat="46.80105" lon="0.3636">
        <ele>85</ele>
        <time>2022-10-16T06:34:39Z</time>
      </trkpt>
      <trkpt lat="46.80095" lon="0.36335">
        <ele>85.2</ele>
        <time>2022-10-16T06:34:42Z</time>
      </trkpt>
      <trkpt lat="46.80071" lon="0.36287">
        <ele>84.6</ele>
        <time>2022-10-16T06:34:49Z</time>
      </trkpt>
      <trkpt lat="46.80058" lon="0.36261">
        <ele>85</ele>
        <time>2022-10-16T06:34:54Z</time>
      </trkpt>
      <trkpt lat="46.80052" lon="0.3625">
        <ele>85.2</ele>
        <time>2022-10-16T06:34:56Z</time>
      </trkpt>
      <trkpt lat="46.80039" lon="0.36225">
        <ele>84.6</ele>
        <time>2022-10-16T06:35:01Z</time>
      </trkpt>
      <trkpt lat="46.80036" lon="0.36214">
        <ele>84.6</ele>
        <time>2022-10-16T06:35:03Z</time>
      </trkpt>
      <trkpt lat="46.80039" lon="0.36206">
        <ele>84.6</ele>
        <time>2022-10-16T06:35:05Z</time>
      </trkpt>
      <trkpt lat="46.80043" lon="0.36199">
        <ele>84.6</ele>
        <time>2022-10-16T06:35:07Z</time>
      </trkpt>
      <trkpt lat="46.80059" lon="0.36177">
        <ele>86.2</ele>
        <time>2022-10-16T06:35:13Z</time>
      </trkpt>
      <trkpt lat="46.80068" lon="0.36165">
        <ele>87.4</ele>
        <time>2022-10-16T06:35:17Z</time>
      </trkpt>
      <trkpt lat="46.80074" lon="0.36156">
        <ele>87.8</ele>
        <time>2022-10-16T06:35:20Z</time>
      </trkpt>
      <trkpt lat="46.80078" lon="0.36148">
        <ele>88.6</ele>
        <time>2022-10-16T06:35:23Z</time>
      </trkpt>
      <trkpt lat="46.8008" lon="0.36148">
        <ele>89</ele>
        <time>2022-10-16T06:35:24Z</time>
      </trkpt>
      <trkpt lat="46.80082" lon="0.36148">
        <ele>89.2</ele>
        <time>2022-10-16T06:35:25Z</time>
      </trkpt>
      <trkpt lat="46.80088" lon="0.36153">
        <ele>89.8</ele>
        <time>2022-10-16T06:35:27Z</time>
      </trkpt>
      <trkpt lat="46.80093" lon="0.36161">
        <ele>90.2</ele>
        <time>2022-10-16T06:35:29Z</time>
      </trkpt>
      <trkpt lat="46.80109" lon="0.36183">
        <ele>90.8</ele>
        <time>2022-10-16T06:35:35Z</time>
      </trkpt>
      <trkpt lat="46.80111" lon="0.36186">
        <ele>91</ele>
        <time>2022-10-16T06:35:36Z</time>
      </trkpt>
      <trkpt lat="46.80132" lon="0.36208">
        <ele>91.4</ele>
        <time>2022-10-16T06:35:43Z</time>
      </trkpt>
      <trkpt lat="46.80146" lon="0.3622">
        <ele>92</ele>
        <time>2022-10-16T06:35:47Z</time>
      </trkpt>
      <trkpt lat="46.80154" lon="0.36226">
        <ele>92.4</ele>
        <time>2022-10-16T06:35:50Z</time>
      </trkpt>
      <trkpt lat="46.80164" lon="0.36238">
        <ele>93</ele>
        <time>2022-10-16T06:35:55Z</time>
      </trkpt>
      <trkpt lat="46.80166" lon="0.3624">
        <ele>93</ele>
        <time>2022-10-16T06:35:56Z</time>
      </trkpt>
      <trkpt lat="46.80181" lon="0.36255">
        <ele>94</ele>
        <time>2022-10-16T06:36:02Z</time>
      </trkpt>
      <trkpt lat="46.80185" lon="0.36258">
        <ele>94.2</ele>
        <time>2022-10-16T06:36:03Z</time>
      </trkpt>
      <trkpt lat="46.80193" lon="0.36264">
        <ele>94.6</ele>
        <time>2022-10-16T06:36:05Z</time>
      </trkpt>
      <trkpt lat="46.80203" lon="0.36273">
        <ele>94.8</ele>
        <time>2022-10-16T06:36:08Z</time>
      </trkpt>
      <trkpt lat="46.80205" lon="0.36276">
        <ele>95</ele>
        <time>2022-10-16T06:36:09Z</time>
      </trkpt>
      <trkpt lat="46.80208" lon="0.36279">
        <ele>95.2</ele>
        <time>2022-10-16T06:36:10Z</time>
      </trkpt>
      <trkpt lat="46.8022" lon="0.36293">
        <ele>95.2</ele>
        <time>2022-10-16T06:36:14Z</time>
      </trkpt>
      <trkpt lat="46.80224" lon="0.36298">
        <ele>95</ele>
        <time>2022-10-16T06:36:16Z</time>
      </trkpt>
      <trkpt lat="46.80227" lon="0.36297">
        <ele>95</ele>
        <time>2022-10-16T06:36:18Z</time>
      </trkpt>
      <trkpt lat="46.80235" lon="0.36293">
        <ele>96.2</ele>
        <time>2022-10-16T06:36:23Z</time>
      </trkpt>
      <trkpt lat="46.80236" lon="0.36293">
        <ele>96.6</ele>
        <time>2022-10-16T06:36:24Z</time>
      </trkpt>
      <trkpt lat="46.80242" lon="0.36292">
        <ele>97.4</ele>
        <time>2022-10-16T06:36:27Z</time>
      </trkpt>
      <trkpt lat="46.80249" lon="0.36291">
        <ele>98.6</ele>
        <time>2022-10-16T06:36:31Z</time>
      </trkpt>
      <trkpt lat="46.80256" lon="0.36289">
        <ele>99.6</ele>
        <time>2022-10-16T06:36:35Z</time>
      </trkpt>
      <trkpt lat="46.80258" lon="0.36288">
        <ele>99.6</ele>
        <time>2022-10-16T06:36:36Z</time>
      </trkpt>
      <trkpt lat="46.80261" lon="0.36285">
        <ele>101</ele>
        <time>2022-10-16T06:36:39Z</time>
      </trkpt>
      <trkpt lat="46.80264" lon="0.36284">
        <ele>101.6</ele>
        <time>2022-10-16T06:36:41Z</time>
      </trkpt>
      <trkpt lat="46.80265" lon="0.36284">
        <ele>102</ele>
        <time>2022-10-16T06:36:42Z</time>
      </trkpt>
      <trkpt lat="46.80266" lon="0.36283">
        <ele>102.2</ele>
        <time>2022-10-16T06:36:43Z</time>
      </trkpt>
      <trkpt lat="46.80269" lon="0.36281">
        <ele>102.6</ele>
        <time>2022-10-16T06:36:45Z</time>
      </trkpt>
      <trkpt lat="46.80273" lon="0.3628">
        <ele>103.2</ele>
        <time>2022-10-16T06:36:47Z</time>
      </trkpt>
      <trkpt lat="46.80279" lon="0.36276">
        <ele>104.2</ele>
        <time>2022-10-16T06:36:51Z</time>
      </trkpt>
      <trkpt lat="46.80281" lon="0.36274">
        <ele>104.4</ele>
        <time>2022-10-16T06:36:52Z</time>
      </trkpt>
      <trkpt lat="46.80283" lon="0.36271">
        <ele>104.8</ele>
        <time>2022-10-16T06:36:54Z</time>
      </trkpt>
      <trkpt lat="46.80287" lon="0.36269">
        <ele>105.4</ele>
        <time>2022-10-16T06:36:56Z</time>
      </trkpt>
      <trkpt lat="46.80298" lon="0.3627">
        <ele>105.8</ele>
        <time>2022-10-16T06:37:02Z</time>
      </trkpt>
      <trkpt lat="46.80303" lon="0.36278">
        <ele>105.4</ele>
        <time>2022-10-16T06:37:09Z</time>
      </trkpt>
      <trkpt lat="46.80311" lon="0.36289">
        <ele>104.2</ele>
        <time>2022-10-16T06:37:13Z</time>
      </trkpt>
      <trkpt lat="46.80316" lon="0.36295">
        <ele>103.2</ele>
        <time>2022-10-16T06:37:17Z</time>
      </trkpt>
      <trkpt lat="46.80317" lon="0.36296">
        <ele>102.8</ele>
        <time>2022-10-16T06:37:18Z</time>
      </trkpt>
      <trkpt lat="46.80319" lon="0.36298">
        <ele>102.4</ele>
        <time>2022-10-16T06:37:19Z</time>
      </trkpt>
      <trkpt lat="46.80326" lon="0.36299">
        <ele>102.2</ele>
        <time>2022-10-16T06:37:22Z</time>
      </trkpt>
      <trkpt lat="46.80337" lon="0.36302">
        <ele>102.2</ele>
        <time>2022-10-16T06:37:27Z</time>
      </trkpt>
      <trkpt lat="46.8034" lon="0.36301">
        <ele>102</ele>
        <time>2022-10-16T06:37:28Z</time>
      </trkpt>
      <trkpt lat="46.80348" lon="0.36293">
        <ele>102.4</ele>
        <time>2022-10-16T06:37:31Z</time>
      </trkpt>
      <trkpt lat="46.80357" lon="0.36286">
        <ele>103.2</ele>
        <time>2022-10-16T06:37:36Z</time>
      </trkpt>
      <trkpt lat="46.80366" lon="0.36277">
        <ele>104.4</ele>
        <time>2022-10-16T06:37:41Z</time>
      </trkpt>
      <trkpt lat="46.80367" lon="0.36275">
        <ele>104.4</ele>
        <time>2022-10-16T06:37:42Z</time>
      </trkpt>
      <trkpt lat="46.80369" lon="0.36273">
        <ele>104.6</ele>
        <time>2022-10-16T06:37:43Z</time>
      </trkpt>
      <trkpt lat="46.80376" lon="0.3627">
        <ele>105</ele>
        <time>2022-10-16T06:37:46Z</time>
      </trkpt>
      <trkpt lat="46.80379" lon="0.36268">
        <ele>105.4</ele>
        <time>2022-10-16T06:37:48Z</time>
      </trkpt>
      <trkpt lat="46.80381" lon="0.36267">
        <ele>106.6</ele>
        <time>2022-10-16T06:37:50Z</time>
      </trkpt>
      <trkpt lat="46.80383" lon="0.36268">
        <ele>106.8</ele>
        <time>2022-10-16T06:37:51Z</time>
      </trkpt>
      <trkpt lat="46.80385" lon="0.36267">
        <ele>107</ele>
        <time>2022-10-16T06:37:52Z</time>
      </trkpt>
      <trkpt lat="46.80399" lon="0.36268">
        <ele>105.6</ele>
        <time>2022-10-16T06:38:00Z</time>
      </trkpt>
      <trkpt lat="46.80404" lon="0.36269">
        <ele>105.4</ele>
        <time>2022-10-16T06:38:03Z</time>
      </trkpt>
      <trkpt lat="46.80405" lon="0.36269">
        <ele>105.4</ele>
        <time>2022-10-16T06:38:04Z</time>
      </trkpt>
      <trkpt lat="46.80411" lon="0.36267">
        <ele>105.8</ele>
        <time>2022-10-16T06:38:13Z</time>
      </trkpt>
      <trkpt lat="46.80413" lon="0.36265">
        <ele>106.6</ele>
        <time>2022-10-16T06:38:17Z</time>
      </trkpt>
      <trkpt lat="46.80415" lon="0.36263">
        <ele>107.6</ele>
        <time>2022-10-16T06:38:25Z</time>
      </trkpt>
      <trkpt lat="46.80415" lon="0.36262">
        <ele>107.8</ele>
        <time>2022-10-16T06:38:26Z</time>
      </trkpt>
      <trkpt lat="46.80413" lon="0.36257">
        <ele>107.8</ele>
        <time>2022-10-16T06:38:33Z</time>
      </trkpt>
      <trkpt lat="46.80409" lon="0.36254">
        <ele>106.8</ele>
        <time>2022-10-16T06:38:36Z</time>
      </trkpt>
      <trkpt lat="46.80408" lon="0.36254">
        <ele>106.6</ele>
        <time>2022-10-16T06:38:37Z</time>
      </trkpt>
      <trkpt lat="46.80401" lon="0.3625">
        <ele>107.8</ele>
        <time>2022-10-16T06:38:44Z</time>
      </trkpt>
      <trkpt lat="46.80399" lon="0.36249">
        <ele>108.4</ele>
        <time>2022-10-16T06:38:46Z</time>
      </trkpt>
      <trkpt lat="46.80389" lon="0.36242">
        <ele>106.6</ele>
        <time>2022-10-16T06:38:53Z</time>
      </trkpt>
      <trkpt lat="46.80389" lon="0.36237">
        <ele>106.4</ele>
        <time>2022-10-16T06:38:55Z</time>
      </trkpt>
      <trkpt lat="46.80391" lon="0.36221">
        <ele>106</ele>
        <time>2022-10-16T06:39:03Z</time>
      </trkpt>
      <trkpt lat="46.80403" lon="0.36199">
        <ele>105.4</ele>
        <time>2022-10-16T06:39:10Z</time>
      </trkpt>
      <trkpt lat="46.80409" lon="0.36201">
        <ele>104.4</ele>
        <time>2022-10-16T06:39:12Z</time>
      </trkpt>
      <trkpt lat="46.80413" lon="0.36203">
        <ele>104</ele>
        <time>2022-10-16T06:39:13Z</time>
      </trkpt>
      <trkpt lat="46.80418" lon="0.36205">
        <ele>103.4</ele>
        <time>2022-10-16T06:39:14Z</time>
      </trkpt>
      <trkpt lat="46.80422" lon="0.36207">
        <ele>102.8</ele>
        <time>2022-10-16T06:39:15Z</time>
      </trkpt>
      <trkpt lat="46.80425" lon="0.36207">
        <ele>102.2</ele>
        <time>2022-10-16T06:39:16Z</time>
      </trkpt>
      <trkpt lat="46.80428" lon="0.36207">
        <ele>101.6</ele>
        <time>2022-10-16T06:39:17Z</time>
      </trkpt>
      <trkpt lat="46.80432" lon="0.36206">
        <ele>100.6</ele>
        <time>2022-10-16T06:39:19Z</time>
      </trkpt>
      <trkpt lat="46.80433" lon="0.36204">
        <ele>100.4</ele>
        <time>2022-10-16T06:39:20Z</time>
      </trkpt>
      <trkpt lat="46.80435" lon="0.36199">
        <ele>100</ele>
        <time>2022-10-16T06:39:22Z</time>
      </trkpt>
      <trkpt lat="46.80439" lon="0.36184">
        <ele>99.6</ele>
        <time>2022-10-16T06:39:26Z</time>
      </trkpt>
      <trkpt lat="46.80442" lon="0.36174">
        <ele>99.2</ele>
        <time>2022-10-16T06:39:28Z</time>
      </trkpt>
      <trkpt lat="46.80446" lon="0.36161">
        <ele>98.8</ele>
        <time>2022-10-16T06:39:30Z</time>
      </trkpt>
      <trkpt lat="46.8045" lon="0.36148">
        <ele>97.8</ele>
        <time>2022-10-16T06:39:32Z</time>
      </trkpt>
      <trkpt lat="46.80453" lon="0.36141">
        <ele>96.4</ele>
        <time>2022-10-16T06:39:33Z</time>
      </trkpt>
      <trkpt lat="46.80458" lon="0.36133">
        <ele>94.8</ele>
        <time>2022-10-16T06:39:35Z</time>
      </trkpt>
      <trkpt lat="46.80463" lon="0.36127">
        <ele>94.2</ele>
        <time>2022-10-16T06:39:37Z</time>
      </trkpt>
      <trkpt lat="46.80465" lon="0.36121">
        <ele>93.6</ele>
        <time>2022-10-16T06:39:39Z</time>
      </trkpt>
      <trkpt lat="46.80468" lon="0.36114">
        <ele>93.2</ele>
        <time>2022-10-16T06:39:41Z</time>
      </trkpt>
      <trkpt lat="46.80469" lon="0.36107">
        <ele>92.6</ele>
        <time>2022-10-16T06:39:43Z</time>
      </trkpt>
      <trkpt lat="46.8047" lon="0.36097">
        <ele>91.6</ele>
        <time>2022-10-16T06:39:46Z</time>
      </trkpt>
      <trkpt lat="46.80472" lon="0.36095">
        <ele>91.2</ele>
        <time>2022-10-16T06:39:47Z</time>
      </trkpt>
      <trkpt lat="46.8048" lon="0.36088">
        <ele>90</ele>
        <time>2022-10-16T06:39:50Z</time>
      </trkpt>
      <trkpt lat="46.80485" lon="0.36083">
        <ele>89</ele>
        <time>2022-10-16T06:39:52Z</time>
      </trkpt>
      <trkpt lat="46.80487" lon="0.36082">
        <ele>88.6</ele>
        <time>2022-10-16T06:39:53Z</time>
      </trkpt>
      <trkpt lat="46.8049" lon="0.36079">
        <ele>88.2</ele>
        <time>2022-10-16T06:39:54Z</time>
      </trkpt>
      <trkpt lat="46.80496" lon="0.3607">
        <ele>87.6</ele>
        <time>2022-10-16T06:39:57Z</time>
      </trkpt>
      <trkpt lat="46.80497" lon="0.36067">
        <ele>87.4</ele>
        <time>2022-10-16T06:39:58Z</time>
      </trkpt>
      <trkpt lat="46.80505" lon="0.36061">
        <ele>87</ele>
        <time>2022-10-16T06:40:02Z</time>
      </trkpt>
      <trkpt lat="46.80516" lon="0.36061">
        <ele>86.2</ele>
        <time>2022-10-16T06:40:06Z</time>
      </trkpt>
      <trkpt lat="46.80517" lon="0.36059">
        <ele>85.6</ele>
        <time>2022-10-16T06:40:07Z</time>
      </trkpt>
      <trkpt lat="46.8052" lon="0.36056">
        <ele>85</ele>
        <time>2022-10-16T06:40:09Z</time>
      </trkpt>
      <trkpt lat="46.80525" lon="0.36046">
        <ele>84</ele>
        <time>2022-10-16T06:40:12Z</time>
      </trkpt>
      <trkpt lat="46.80528" lon="0.36044">
        <ele>83.8</ele>
        <time>2022-10-16T06:40:13Z</time>
      </trkpt>
      <trkpt lat="46.80532" lon="0.36039">
        <ele>83.4</ele>
        <time>2022-10-16T06:40:15Z</time>
      </trkpt>
      <trkpt lat="46.80538" lon="0.36032">
        <ele>82.6</ele>
        <time>2022-10-16T06:40:17Z</time>
      </trkpt>
      <trkpt lat="46.80539" lon="0.36028">
        <ele>82.2</ele>
        <time>2022-10-16T06:40:18Z</time>
      </trkpt>
      <trkpt lat="46.80541" lon="0.36021">
        <ele>82</ele>
        <time>2022-10-16T06:40:20Z</time>
      </trkpt>
      <trkpt lat="46.80547" lon="0.36011">
        <ele>82</ele>
        <time>2022-10-16T06:40:23Z</time>
      </trkpt>
      <trkpt lat="46.80558" lon="0.36002">
        <ele>81.6</ele>
        <time>2022-10-16T06:40:28Z</time>
      </trkpt>
      <trkpt lat="46.8056" lon="0.36001">
        <ele>81.4</ele>
        <time>2022-10-16T06:40:29Z</time>
      </trkpt>
      <trkpt lat="46.80572" lon="0.35994">
        <ele>81.4</ele>
        <time>2022-10-16T06:40:34Z</time>
      </trkpt>
      <trkpt lat="46.80573" lon="0.35991">
        <ele>81.4</ele>
        <time>2022-10-16T06:40:35Z</time>
      </trkpt>
      <trkpt lat="46.80579" lon="0.35983">
        <ele>81</ele>
        <time>2022-10-16T06:40:39Z</time>
      </trkpt>
      <trkpt lat="46.80582" lon="0.35979">
        <ele>80.8</ele>
        <time>2022-10-16T06:40:41Z</time>
      </trkpt>
      <trkpt lat="46.80597" lon="0.35967">
        <ele>80.8</ele>
        <time>2022-10-16T06:40:48Z</time>
      </trkpt>
      <trkpt lat="46.80599" lon="0.35965">
        <ele>80.8</ele>
        <time>2022-10-16T06:40:49Z</time>
      </trkpt>
      <trkpt lat="46.80607" lon="0.35953">
        <ele>80.8</ele>
        <time>2022-10-16T06:40:54Z</time>
      </trkpt>
      <trkpt lat="46.80611" lon="0.35945">
        <ele>81</ele>
        <time>2022-10-16T06:40:56Z</time>
      </trkpt>
      <trkpt lat="46.80618" lon="0.35936">
        <ele>80.8</ele>
        <time>2022-10-16T06:40:58Z</time>
      </trkpt>
      <trkpt lat="46.80616" lon="0.35919">
        <ele>81</ele>
        <time>2022-10-16T06:41:02Z</time>
      </trkpt>
      <trkpt lat="46.80594" lon="0.35884">
        <ele>81</ele>
        <time>2022-10-16T06:41:09Z</time>
      </trkpt>
      <trkpt lat="46.80572" lon="0.35848">
        <ele>80.6</ele>
        <time>2022-10-16T06:41:15Z</time>
      </trkpt>
      <trkpt lat="46.80568" lon="0.35842">
        <ele>80.4</ele>
        <time>2022-10-16T06:41:16Z</time>
      </trkpt>
      <trkpt lat="46.80552" lon="0.3581">
        <ele>80.4</ele>
        <time>2022-10-16T06:41:21Z</time>
      </trkpt>
      <trkpt lat="46.80537" lon="0.35784">
        <ele>79.6</ele>
        <time>2022-10-16T06:41:26Z</time>
      </trkpt>
      <trkpt lat="46.80535" lon="0.3578">
        <ele>79.4</ele>
        <time>2022-10-16T06:41:28Z</time>
      </trkpt>
      <trkpt lat="46.80535" lon="0.35774">
        <ele>79.4</ele>
        <time>2022-10-16T06:41:30Z</time>
      </trkpt>
      <trkpt lat="46.80536" lon="0.35772">
        <ele>79.4</ele>
        <time>2022-10-16T06:41:31Z</time>
      </trkpt>
      <trkpt lat="46.80537" lon="0.35765">
        <ele>79.6</ele>
        <time>2022-10-16T06:41:34Z</time>
      </trkpt>
      <trkpt lat="46.8054" lon="0.35745">
        <ele>79.6</ele>
        <time>2022-10-16T06:41:40Z</time>
      </trkpt>
      <trkpt lat="46.80553" lon="0.35728">
        <ele>80</ele>
        <time>2022-10-16T06:41:47Z</time>
      </trkpt>
      <trkpt lat="46.80563" lon="0.35704">
        <ele>79.6</ele>
        <time>2022-10-16T06:41:54Z</time>
      </trkpt>
      <trkpt lat="46.80575" lon="0.35681">
        <ele>79</ele>
        <time>2022-10-16T06:42:00Z</time>
      </trkpt>
      <trkpt lat="46.80583" lon="0.35671">
        <ele>78.2</ele>
        <time>2022-10-16T06:42:03Z</time>
      </trkpt>
      <trkpt lat="46.80587" lon="0.35665">
        <ele>77.8</ele>
        <time>2022-10-16T06:42:05Z</time>
      </trkpt>
      <trkpt lat="46.80599" lon="0.35649">
        <ele>77.8</ele>
        <time>2022-10-16T06:42:10Z</time>
      </trkpt>
      <trkpt lat="46.80621" lon="0.35644">
        <ele>77.6</ele>
        <time>2022-10-16T06:42:14Z</time>
      </trkpt>
      <trkpt lat="46.80633" lon="0.35638">
        <ele>77.6</ele>
        <time>2022-10-16T06:42:16Z</time>
      </trkpt>
      <trkpt lat="46.80651" lon="0.35626">
        <ele>77.2</ele>
        <time>2022-10-16T06:42:19Z</time>
      </trkpt>
      <trkpt lat="46.80663" lon="0.35617">
        <ele>77</ele>
        <time>2022-10-16T06:42:21Z</time>
      </trkpt>
      <trkpt lat="46.80694" lon="0.35596">
        <ele>77.2</ele>
        <time>2022-10-16T06:42:27Z</time>
      </trkpt>
      <trkpt lat="46.80739" lon="0.35577">
        <ele>78</ele>
        <time>2022-10-16T06:42:35Z</time>
      </trkpt>
      <trkpt lat="46.80745" lon="0.35576">
        <ele>78</ele>
        <time>2022-10-16T06:42:36Z</time>
      </trkpt>
      <trkpt lat="46.80775" lon="0.35563">
        <ele>78.6</ele>
        <time>2022-10-16T06:42:42Z</time>
      </trkpt>
      <trkpt lat="46.80803" lon="0.35543">
        <ele>78.4</ele>
        <time>2022-10-16T06:42:47Z</time>
      </trkpt>
      <trkpt lat="46.80808" lon="0.35537">
        <ele>78.2</ele>
        <time>2022-10-16T06:42:48Z</time>
      </trkpt>
      <trkpt lat="46.80849" lon="0.35497">
        <ele>77.6</ele>
        <time>2022-10-16T06:42:55Z</time>
      </trkpt>
      <trkpt lat="46.80879" lon="0.35453">
        <ele>76.8</ele>
        <time>2022-10-16T06:43:01Z</time>
      </trkpt>
      <trkpt lat="46.80897" lon="0.3542">
        <ele>76.2</ele>
        <time>2022-10-16T06:43:06Z</time>
      </trkpt>
      <trkpt lat="46.80901" lon="0.35416">
        <ele>75.8</ele>
        <time>2022-10-16T06:43:09Z</time>
      </trkpt>
      <trkpt lat="46.80901" lon="0.35417">
        <ele>75.6</ele>
        <time>2022-10-16T06:43:10Z</time>
      </trkpt>
      <trkpt lat="46.809" lon="0.35419">
        <ele>75.4</ele>
        <time>2022-10-16T06:43:13Z</time>
      </trkpt>
      <trkpt lat="46.80899" lon="0.3542">
        <ele>75.6</ele>
        <time>2022-10-16T06:43:14Z</time>
      </trkpt>
      <trkpt lat="46.80898" lon="0.35418">
        <ele>75.6</ele>
        <time>2022-10-16T06:43:17Z</time>
      </trkpt>
      <trkpt lat="46.80898" lon="0.35417">
        <ele>75.8</ele>
        <time>2022-10-16T06:43:18Z</time>
      </trkpt>
      <trkpt lat="46.80898" lon="0.35415">
        <ele>75.8</ele>
        <time>2022-10-16T06:43:20Z</time>
      </trkpt>
      <trkpt lat="46.80896" lon="0.35403">
        <ele>76</ele>
        <time>2022-10-16T06:43:25Z</time>
      </trkpt>
      <trkpt lat="46.80894" lon="0.35394">
        <ele>76.2</ele>
        <time>2022-10-16T06:43:28Z</time>
      </trkpt>
      <trkpt lat="46.80892" lon="0.35392">
        <ele>76.4</ele>
        <time>2022-10-16T06:43:30Z</time>
      </trkpt>
      <trkpt lat="46.80885" lon="0.3539">
        <ele>76.4</ele>
        <time>2022-10-16T06:43:34Z</time>
      </trkpt>
      <trkpt lat="46.80883" lon="0.35389">
        <ele>76.4</ele>
        <time>2022-10-16T06:43:35Z</time>
      </trkpt>
      <trkpt lat="46.80873" lon="0.35385">
        <ele>76.4</ele>
        <time>2022-10-16T06:43:39Z</time>
      </trkpt>
      <trkpt lat="46.80871" lon="0.35385">
        <ele>76.4</ele>
        <time>2022-10-16T06:43:40Z</time>
      </trkpt>
      <trkpt lat="46.80863" lon="0.35376">
        <ele>76.2</ele>
        <time>2022-10-16T06:43:44Z</time>
      </trkpt>
      <trkpt lat="46.80849" lon="0.35362">
        <ele>75.8</ele>
        <time>2022-10-16T06:43:50Z</time>
      </trkpt>
      <trkpt lat="46.80841" lon="0.35349">
        <ele>76.8</ele>
        <time>2022-10-16T06:43:55Z</time>
      </trkpt>
      <trkpt lat="46.80841" lon="0.35346">
        <ele>76.8</ele>
        <time>2022-10-16T06:43:56Z</time>
      </trkpt>
      <trkpt lat="46.80844" lon="0.35334">
        <ele>77.8</ele>
        <time>2022-10-16T06:44:01Z</time>
      </trkpt>
      <trkpt lat="46.80845" lon="0.35332">
        <ele>77.8</ele>
        <time>2022-10-16T06:44:02Z</time>
      </trkpt>
      <trkpt lat="46.80847" lon="0.35318">
        <ele>78.2</ele>
        <time>2022-10-16T06:44:07Z</time>
      </trkpt>
      <trkpt lat="46.80849" lon="0.35315">
        <ele>78.4</ele>
        <time>2022-10-16T06:44:08Z</time>
      </trkpt>
      <trkpt lat="46.80849" lon="0.35308">
        <ele>79</ele>
        <time>2022-10-16T06:44:11Z</time>
      </trkpt>
      <trkpt lat="46.80849" lon="0.35306">
        <ele>79</ele>
        <time>2022-10-16T06:44:12Z</time>
      </trkpt>
      <trkpt lat="46.80848" lon="0.35302">
        <ele>79.2</ele>
        <time>2022-10-16T06:44:15Z</time>
      </trkpt>
      <trkpt lat="46.80848" lon="0.35296">
        <ele>79.4</ele>
        <time>2022-10-16T06:44:17Z</time>
      </trkpt>
      <trkpt lat="46.80845" lon="0.35281">
        <ele>79.4</ele>
        <time>2022-10-16T06:44:22Z</time>
      </trkpt>
      <trkpt lat="46.80848" lon="0.35267">
        <ele>79.4</ele>
        <time>2022-10-16T06:44:27Z</time>
      </trkpt>
      <trkpt lat="46.80849" lon="0.35266">
        <ele>79.4</ele>
        <time>2022-10-16T06:44:28Z</time>
      </trkpt>
      <trkpt lat="46.80851" lon="0.35261">
        <ele>79.6</ele>
        <time>2022-10-16T06:44:31Z</time>
      </trkpt>
      <trkpt lat="46.80852" lon="0.35258">
        <ele>79.6</ele>
        <time>2022-10-16T06:44:32Z</time>
      </trkpt>
      <trkpt lat="46.80859" lon="0.35243">
        <ele>80</ele>
        <time>2022-10-16T06:44:36Z</time>
      </trkpt>
      <trkpt lat="46.80862" lon="0.35239">
        <ele>80</ele>
        <time>2022-10-16T06:44:37Z</time>
      </trkpt>
      <trkpt lat="46.80866" lon="0.35232">
        <ele>79.8</ele>
        <time>2022-10-16T06:44:39Z</time>
      </trkpt>
      <trkpt lat="46.80869" lon="0.35218">
        <ele>80</ele>
        <time>2022-10-16T06:44:42Z</time>
      </trkpt>
      <trkpt lat="46.8087" lon="0.35213">
        <ele>80</ele>
        <time>2022-10-16T06:44:43Z</time>
      </trkpt>
      <trkpt lat="46.80874" lon="0.35208">
        <ele>79.6</ele>
        <time>2022-10-16T06:44:45Z</time>
      </trkpt>
      <trkpt lat="46.80874" lon="0.35205">
        <ele>79.4</ele>
        <time>2022-10-16T06:44:46Z</time>
      </trkpt>
      <trkpt lat="46.80878" lon="0.35193">
        <ele>79</ele>
        <time>2022-10-16T06:44:49Z</time>
      </trkpt>
      <trkpt lat="46.80877" lon="0.35184">
        <ele>79</ele>
        <time>2022-10-16T06:44:51Z</time>
      </trkpt>
      <trkpt lat="46.80878" lon="0.35179">
        <ele>78.8</ele>
        <time>2022-10-16T06:44:52Z</time>
      </trkpt>
      <trkpt lat="46.80882" lon="0.35167">
        <ele>79</ele>
        <time>2022-10-16T06:44:54Z</time>
      </trkpt>
      <trkpt lat="46.80894" lon="0.35141">
        <ele>78.6</ele>
        <time>2022-10-16T06:45:00Z</time>
      </trkpt>
      <trkpt lat="46.80912" lon="0.35123">
        <ele>78.8</ele>
        <time>2022-10-16T06:45:06Z</time>
      </trkpt>
      <trkpt lat="46.80928" lon="0.35125">
        <ele>79.6</ele>
        <time>2022-10-16T06:45:10Z</time>
      </trkpt>
      <trkpt lat="46.80961" lon="0.35133">
        <ele>80</ele>
        <time>2022-10-16T06:45:15Z</time>
      </trkpt>
      <trkpt lat="46.80968" lon="0.35136">
        <ele>80</ele>
        <time>2022-10-16T06:45:16Z</time>
      </trkpt>
      <trkpt lat="46.81003" lon="0.35155">
        <ele>80.4</ele>
        <time>2022-10-16T06:45:23Z</time>
      </trkpt>
      <trkpt lat="46.81006" lon="0.35153">
        <ele>80.6</ele>
        <time>2022-10-16T06:45:25Z</time>
      </trkpt>
      <trkpt lat="46.81007" lon="0.35149">
        <ele>80.6</ele>
        <time>2022-10-16T06:45:26Z</time>
      </trkpt>
      <trkpt lat="46.81005" lon="0.35134">
        <ele>80.6</ele>
        <time>2022-10-16T06:45:29Z</time>
      </trkpt>
      <trkpt lat="46.81004" lon="0.35129">
        <ele>80.6</ele>
        <time>2022-10-16T06:45:30Z</time>
      </trkpt>
      <trkpt lat="46.81003" lon="0.3512">
        <ele>80</ele>
        <time>2022-10-16T06:45:32Z</time>
      </trkpt>
      <trkpt lat="46.81005" lon="0.35111">
        <ele>80</ele>
        <time>2022-10-16T06:45:34Z</time>
      </trkpt>
      <trkpt lat="46.81008" lon="0.35101">
        <ele>80.2</ele>
        <time>2022-10-16T06:45:36Z</time>
      </trkpt>
      <trkpt lat="46.81009" lon="0.35086">
        <ele>80.2</ele>
        <time>2022-10-16T06:45:38Z</time>
      </trkpt>
      <trkpt lat="46.81009" lon="0.35079">
        <ele>80</ele>
        <time>2022-10-16T06:45:39Z</time>
      </trkpt>
      <trkpt lat="46.8101" lon="0.35041">
        <ele>79.6</ele>
        <time>2022-10-16T06:45:45Z</time>
      </trkpt>
      <trkpt lat="46.81011" lon="0.35032">
        <ele>79.6</ele>
        <time>2022-10-16T06:45:47Z</time>
      </trkpt>
      <trkpt lat="46.81012" lon="0.35026">
        <ele>79.4</ele>
        <time>2022-10-16T06:45:49Z</time>
      </trkpt>
      <trkpt lat="46.81019" lon="0.35021">
        <ele>79.8</ele>
        <time>2022-10-16T06:45:54Z</time>
      </trkpt>
      <trkpt lat="46.81025" lon="0.35016">
        <ele>79.8</ele>
        <time>2022-10-16T06:45:57Z</time>
      </trkpt>
      <trkpt lat="46.81033" lon="0.35012">
        <ele>79.8</ele>
        <time>2022-10-16T06:45:59Z</time>
      </trkpt>
      <trkpt lat="46.8105" lon="0.35003">
        <ele>80.4</ele>
        <time>2022-10-16T06:46:03Z</time>
      </trkpt>
      <trkpt lat="46.81054" lon="0.35">
        <ele>80.4</ele>
        <time>2022-10-16T06:46:04Z</time>
      </trkpt>
      <trkpt lat="46.81063" lon="0.34991">
        <ele>80.4</ele>
        <time>2022-10-16T06:46:06Z</time>
      </trkpt>
      <trkpt lat="46.81069" lon="0.34982">
        <ele>80.6</ele>
        <time>2022-10-16T06:46:08Z</time>
      </trkpt>
      <trkpt lat="46.8107" lon="0.34977">
        <ele>80.8</ele>
        <time>2022-10-16T06:46:09Z</time>
      </trkpt>
      <trkpt lat="46.81071" lon="0.34972">
        <ele>81</ele>
        <time>2022-10-16T06:46:10Z</time>
      </trkpt>
      <trkpt lat="46.81072" lon="0.34956">
        <ele>81.4</ele>
        <time>2022-10-16T06:46:13Z</time>
      </trkpt>
      <trkpt lat="46.81075" lon="0.34947">
        <ele>81.8</ele>
        <time>2022-10-16T06:46:15Z</time>
      </trkpt>
      <trkpt lat="46.8108" lon="0.3494">
        <ele>82.4</ele>
        <time>2022-10-16T06:46:17Z</time>
      </trkpt>
      <trkpt lat="46.81093" lon="0.34919">
        <ele>82.8</ele>
        <time>2022-10-16T06:46:22Z</time>
      </trkpt>
      <trkpt lat="46.81099" lon="0.34908">
        <ele>83.2</ele>
        <time>2022-10-16T06:46:25Z</time>
      </trkpt>
      <trkpt lat="46.81101" lon="0.34906">
        <ele>83.6</ele>
        <time>2022-10-16T06:46:26Z</time>
      </trkpt>
      <trkpt lat="46.81104" lon="0.34905">
        <ele>83.8</ele>
        <time>2022-10-16T06:46:27Z</time>
      </trkpt>
      <trkpt lat="46.81113" lon="0.34906">
        <ele>84.2</ele>
        <time>2022-10-16T06:46:30Z</time>
      </trkpt>
      <trkpt lat="46.81116" lon="0.34906">
        <ele>84.2</ele>
        <time>2022-10-16T06:46:31Z</time>
      </trkpt>
      <trkpt lat="46.81133" lon="0.34901">
        <ele>84.4</ele>
        <time>2022-10-16T06:46:36Z</time>
      </trkpt>
      <trkpt lat="46.81137" lon="0.34892">
        <ele>84.8</ele>
        <time>2022-10-16T06:46:38Z</time>
      </trkpt>
      <trkpt lat="46.81142" lon="0.34884">
        <ele>85.2</ele>
        <time>2022-10-16T06:46:40Z</time>
      </trkpt>
      <trkpt lat="46.81148" lon="0.34882">
        <ele>85.2</ele>
        <time>2022-10-16T06:46:42Z</time>
      </trkpt>
      <trkpt lat="46.81154" lon="0.34886">
        <ele>85.6</ele>
        <time>2022-10-16T06:46:44Z</time>
      </trkpt>
      <trkpt lat="46.81173" lon="0.34913">
        <ele>85.6</ele>
        <time>2022-10-16T06:46:50Z</time>
      </trkpt>
      <trkpt lat="46.81193" lon="0.34945">
        <ele>85.4</ele>
        <time>2022-10-16T06:46:56Z</time>
      </trkpt>
      <trkpt lat="46.81227" lon="0.35005">
        <ele>84.2</ele>
        <time>2022-10-16T06:47:05Z</time>
      </trkpt>
      <trkpt lat="46.81243" lon="0.35035">
        <ele>84</ele>
        <time>2022-10-16T06:47:10Z</time>
      </trkpt>
      <trkpt lat="46.81266" lon="0.35069">
        <ele>84.2</ele>
        <time>2022-10-16T06:47:16Z</time>
      </trkpt>
      <trkpt lat="46.81277" lon="0.35097">
        <ele>84.2</ele>
        <time>2022-10-16T06:47:20Z</time>
      </trkpt>
      <trkpt lat="46.81278" lon="0.35104">
        <ele>84.2</ele>
        <time>2022-10-16T06:47:21Z</time>
      </trkpt>
      <trkpt lat="46.81279" lon="0.35111">
        <ele>84.4</ele>
        <time>2022-10-16T06:47:22Z</time>
      </trkpt>
      <trkpt lat="46.81276" lon="0.35133">
        <ele>84.4</ele>
        <time>2022-10-16T06:47:25Z</time>
      </trkpt>
      <trkpt lat="46.81271" lon="0.35195">
        <ele>84.2</ele>
        <time>2022-10-16T06:47:32Z</time>
      </trkpt>
      <trkpt lat="46.81268" lon="0.35243">
        <ele>84.2</ele>
        <time>2022-10-16T06:47:38Z</time>
      </trkpt>
      <trkpt lat="46.81269" lon="0.35273">
        <ele>84.2</ele>
        <time>2022-10-16T06:47:42Z</time>
      </trkpt>
      <trkpt lat="46.8127" lon="0.35279">
        <ele>84.2</ele>
        <time>2022-10-16T06:47:43Z</time>
      </trkpt>
      <trkpt lat="46.81271" lon="0.35285">
        <ele>84</ele>
        <time>2022-10-16T06:47:44Z</time>
      </trkpt>
      <trkpt lat="46.8128" lon="0.35294">
        <ele>83.8</ele>
        <time>2022-10-16T06:47:46Z</time>
      </trkpt>
      <trkpt lat="46.8129" lon="0.35298">
        <ele>83.8</ele>
        <time>2022-10-16T06:47:48Z</time>
      </trkpt>
      <trkpt lat="46.81298" lon="0.35296">
        <ele>84.4</ele>
        <time>2022-10-16T06:47:50Z</time>
      </trkpt>
      <trkpt lat="46.81306" lon="0.35292">
        <ele>85</ele>
        <time>2022-10-16T06:47:52Z</time>
      </trkpt>
      <trkpt lat="46.81313" lon="0.35286">
        <ele>85.4</ele>
        <time>2022-10-16T06:47:54Z</time>
      </trkpt>
      <trkpt lat="46.81317" lon="0.35282">
        <ele>85.4</ele>
        <time>2022-10-16T06:47:55Z</time>
      </trkpt>
      <trkpt lat="46.81325" lon="0.35276">
        <ele>85.4</ele>
        <time>2022-10-16T06:47:57Z</time>
      </trkpt>
      <trkpt lat="46.81337" lon="0.35269">
        <ele>85.4</ele>
        <time>2022-10-16T06:48:00Z</time>
      </trkpt>
      <trkpt lat="46.81341" lon="0.35268">
        <ele>85.4</ele>
        <time>2022-10-16T06:48:01Z</time>
      </trkpt>
      <trkpt lat="46.8137" lon="0.35257">
        <ele>85.8</ele>
        <time>2022-10-16T06:48:07Z</time>
      </trkpt>
      <trkpt lat="46.8138" lon="0.35253">
        <ele>86.4</ele>
        <time>2022-10-16T06:48:09Z</time>
      </trkpt>
      <trkpt lat="46.81401" lon="0.35246">
        <ele>86.6</ele>
        <time>2022-10-16T06:48:13Z</time>
      </trkpt>
      <trkpt lat="46.81409" lon="0.35244">
        <ele>86.6</ele>
        <time>2022-10-16T06:48:15Z</time>
      </trkpt>
      <trkpt lat="46.81422" lon="0.3524">
        <ele>86.2</ele>
        <time>2022-10-16T06:48:18Z</time>
      </trkpt>
      <trkpt lat="46.81426" lon="0.35238">
        <ele>86.2</ele>
        <time>2022-10-16T06:48:19Z</time>
      </trkpt>
      <trkpt lat="46.81431" lon="0.35232">
        <ele>86.2</ele>
        <time>2022-10-16T06:48:22Z</time>
      </trkpt>
      <trkpt lat="46.81433" lon="0.3523">
        <ele>86.2</ele>
        <time>2022-10-16T06:48:23Z</time>
      </trkpt>
      <trkpt lat="46.81433" lon="0.35221">
        <ele>86.2</ele>
        <time>2022-10-16T06:48:26Z</time>
      </trkpt>
      <trkpt lat="46.8143" lon="0.35202">
        <ele>87</ele>
        <time>2022-10-16T06:48:32Z</time>
      </trkpt>
      <trkpt lat="46.8143" lon="0.35195">
        <ele>87.4</ele>
        <time>2022-10-16T06:48:35Z</time>
      </trkpt>
      <trkpt lat="46.81429" lon="0.35187">
        <ele>87.4</ele>
        <time>2022-10-16T06:48:37Z</time>
      </trkpt>
      <trkpt lat="46.81429" lon="0.35183">
        <ele>87.6</ele>
        <time>2022-10-16T06:48:38Z</time>
      </trkpt>
      <trkpt lat="46.81434" lon="0.35179">
        <ele>87.8</ele>
        <time>2022-10-16T06:48:40Z</time>
      </trkpt>
      <trkpt lat="46.81436" lon="0.35178">
        <ele>87.8</ele>
        <time>2022-10-16T06:48:41Z</time>
      </trkpt>
      <trkpt lat="46.81441" lon="0.35174">
        <ele>88</ele>
        <time>2022-10-16T06:48:43Z</time>
      </trkpt>
      <trkpt lat="46.81445" lon="0.3517">
        <ele>88</ele>
        <time>2022-10-16T06:48:45Z</time>
      </trkpt>
      <trkpt lat="46.81446" lon="0.35168">
        <ele>88</ele>
        <time>2022-10-16T06:48:46Z</time>
      </trkpt>
      <trkpt lat="46.8145" lon="0.35161">
        <ele>88.2</ele>
        <time>2022-10-16T06:48:48Z</time>
      </trkpt>
      <trkpt lat="46.81454" lon="0.35152">
        <ele>87.8</ele>
        <time>2022-10-16T06:48:52Z</time>
      </trkpt>
      <trkpt lat="46.81466" lon="0.35136">
        <ele>87.8</ele>
        <time>2022-10-16T06:48:58Z</time>
      </trkpt>
      <trkpt lat="46.81476" lon="0.35122">
        <ele>87.4</ele>
        <time>2022-10-16T06:49:02Z</time>
      </trkpt>
      <trkpt lat="46.81486" lon="0.3511">
        <ele>87.4</ele>
        <time>2022-10-16T06:49:05Z</time>
      </trkpt>
      <trkpt lat="46.81495" lon="0.35085">
        <ele>87.2</ele>
        <time>2022-10-16T06:49:10Z</time>
      </trkpt>
      <trkpt lat="46.81508" lon="0.35064">
        <ele>86.8</ele>
        <time>2022-10-16T06:49:15Z</time>
      </trkpt>
      <trkpt lat="46.81514" lon="0.35047">
        <ele>86.8</ele>
        <time>2022-10-16T06:49:18Z</time>
      </trkpt>
      <trkpt lat="46.81514" lon="0.35041">
        <ele>86.6</ele>
        <time>2022-10-16T06:49:19Z</time>
      </trkpt>
      <trkpt lat="46.81516" lon="0.35033">
        <ele>86.6</ele>
        <time>2022-10-16T06:49:20Z</time>
      </trkpt>
      <trkpt lat="46.81513" lon="0.35008">
        <ele>87.6</ele>
        <time>2022-10-16T06:49:24Z</time>
      </trkpt>
      <trkpt lat="46.81507" lon="0.34964">
        <ele>87.6</ele>
        <time>2022-10-16T06:49:31Z</time>
      </trkpt>
      <trkpt lat="46.81504" lon="0.34957">
        <ele>87.6</ele>
        <time>2022-10-16T06:49:32Z</time>
      </trkpt>
      <trkpt lat="46.81496" lon="0.34929">
        <ele>87.4</ele>
        <time>2022-10-16T06:49:36Z</time>
      </trkpt>
      <trkpt lat="46.81479" lon="0.3488">
        <ele>87.8</ele>
        <time>2022-10-16T06:49:42Z</time>
      </trkpt>
      <trkpt lat="46.81463" lon="0.34834">
        <ele>88</ele>
        <time>2022-10-16T06:49:48Z</time>
      </trkpt>
      <trkpt lat="46.81446" lon="0.34788">
        <ele>88</ele>
        <time>2022-10-16T06:49:54Z</time>
      </trkpt>
      <trkpt lat="46.81427" lon="0.34733">
        <ele>88.2</ele>
        <time>2022-10-16T06:50:02Z</time>
      </trkpt>
      <trkpt lat="46.81416" lon="0.34699">
        <ele>88</ele>
        <time>2022-10-16T06:50:07Z</time>
      </trkpt>
      <trkpt lat="46.81411" lon="0.34685">
        <ele>87.8</ele>
        <time>2022-10-16T06:50:09Z</time>
      </trkpt>
      <trkpt lat="46.81399" lon="0.34646">
        <ele>87</ele>
        <time>2022-10-16T06:50:15Z</time>
      </trkpt>
      <trkpt lat="46.81388" lon="0.34607">
        <ele>86.2</ele>
        <time>2022-10-16T06:50:21Z</time>
      </trkpt>
      <trkpt lat="46.81385" lon="0.346">
        <ele>86</ele>
        <time>2022-10-16T06:50:22Z</time>
      </trkpt>
      <trkpt lat="46.81375" lon="0.3457">
        <ele>85.2</ele>
        <time>2022-10-16T06:50:27Z</time>
      </trkpt>
      <trkpt lat="46.81373" lon="0.34564">
        <ele>85</ele>
        <time>2022-10-16T06:50:28Z</time>
      </trkpt>
      <trkpt lat="46.81362" lon="0.34519">
        <ele>84.6</ele>
        <time>2022-10-16T06:50:34Z</time>
      </trkpt>
      <trkpt lat="46.8136" lon="0.3451">
        <ele>84.6</ele>
        <time>2022-10-16T06:50:35Z</time>
      </trkpt>
      <trkpt lat="46.81357" lon="0.34475">
        <ele>84</ele>
        <time>2022-10-16T06:50:39Z</time>
      </trkpt>
      <trkpt lat="46.81357" lon="0.34467">
        <ele>83.8</ele>
        <time>2022-10-16T06:50:40Z</time>
      </trkpt>
      <trkpt lat="46.81356" lon="0.34439">
        <ele>83.2</ele>
        <time>2022-10-16T06:50:44Z</time>
      </trkpt>
      <trkpt lat="46.81354" lon="0.3442">
        <ele>83</ele>
        <time>2022-10-16T06:50:48Z</time>
      </trkpt>
      <trkpt lat="46.81354" lon="0.34414">
        <ele>83</ele>
        <time>2022-10-16T06:50:49Z</time>
      </trkpt>
      <trkpt lat="46.81351" lon="0.344">
        <ele>83.4</ele>
        <time>2022-10-16T06:50:51Z</time>
      </trkpt>
      <trkpt lat="46.81349" lon="0.34378">
        <ele>83.8</ele>
        <time>2022-10-16T06:50:54Z</time>
      </trkpt>
      <trkpt lat="46.81349" lon="0.3436">
        <ele>84</ele>
        <time>2022-10-16T06:50:57Z</time>
      </trkpt>
      <trkpt lat="46.81349" lon="0.34343">
        <ele>84</ele>
        <time>2022-10-16T06:51:00Z</time>
      </trkpt>
      <trkpt lat="46.8135" lon="0.34331">
        <ele>84</ele>
        <time>2022-10-16T06:51:02Z</time>
      </trkpt>
      <trkpt lat="46.81351" lon="0.34316">
        <ele>84</ele>
        <time>2022-10-16T06:51:04Z</time>
      </trkpt>
      <trkpt lat="46.8135" lon="0.34309">
        <ele>84</ele>
        <time>2022-10-16T06:51:05Z</time>
      </trkpt>
      <trkpt lat="46.81348" lon="0.34302">
        <ele>84</ele>
        <time>2022-10-16T06:51:06Z</time>
      </trkpt>
      <trkpt lat="46.81344" lon="0.34294">
        <ele>84</ele>
        <time>2022-10-16T06:51:08Z</time>
      </trkpt>
      <trkpt lat="46.81333" lon="0.34289">
        <ele>84</ele>
        <time>2022-10-16T06:51:10Z</time>
      </trkpt>
      <trkpt lat="46.81329" lon="0.34288">
        <ele>83.8</ele>
        <time>2022-10-16T06:51:11Z</time>
      </trkpt>
      <trkpt lat="46.81303" lon="0.34275">
        <ele>83.6</ele>
        <time>2022-10-16T06:51:16Z</time>
      </trkpt>
      <trkpt lat="46.81275" lon="0.34258">
        <ele>82.8</ele>
        <time>2022-10-16T06:51:22Z</time>
      </trkpt>
      <trkpt lat="46.81267" lon="0.3425">
        <ele>82.6</ele>
        <time>2022-10-16T06:51:26Z</time>
      </trkpt>
      <trkpt lat="46.81267" lon="0.34249">
        <ele>82.6</ele>
        <time>2022-10-16T06:51:27Z</time>
      </trkpt>
      <trkpt lat="46.81266" lon="0.34242">
        <ele>82.6</ele>
        <time>2022-10-16T06:51:31Z</time>
      </trkpt>
      <trkpt lat="46.81266" lon="0.3424">
        <ele>82.6</ele>
        <time>2022-10-16T06:51:32Z</time>
      </trkpt>
      <trkpt lat="46.81265" lon="0.34232">
        <ele>82.6</ele>
        <time>2022-10-16T06:51:35Z</time>
      </trkpt>
      <trkpt lat="46.81263" lon="0.34225">
        <ele>82.8</ele>
        <time>2022-10-16T06:51:37Z</time>
      </trkpt>
      <trkpt lat="46.81265" lon="0.34205">
        <ele>82.6</ele>
        <time>2022-10-16T06:51:43Z</time>
      </trkpt>
      <trkpt lat="46.81269" lon="0.34177">
        <ele>83</ele>
        <time>2022-10-16T06:51:49Z</time>
      </trkpt>
      <trkpt lat="46.8127" lon="0.34172">
        <ele>83</ele>
        <time>2022-10-16T06:51:50Z</time>
      </trkpt>
      <trkpt lat="46.81271" lon="0.34167">
        <ele>83.2</ele>
        <time>2022-10-16T06:51:51Z</time>
      </trkpt>
      <trkpt lat="46.81273" lon="0.34157">
        <ele>83.2</ele>
        <time>2022-10-16T06:51:53Z</time>
      </trkpt>
      <trkpt lat="46.81278" lon="0.34146">
        <ele>83.2</ele>
        <time>2022-10-16T06:51:55Z</time>
      </trkpt>
      <trkpt lat="46.81291" lon="0.34102">
        <ele>82.8</ele>
        <time>2022-10-16T06:52:02Z</time>
      </trkpt>
      <trkpt lat="46.81299" lon="0.34076">
        <ele>82.8</ele>
        <time>2022-10-16T06:52:07Z</time>
      </trkpt>
      <trkpt lat="46.813" lon="0.3407">
        <ele>82.8</ele>
        <time>2022-10-16T06:52:08Z</time>
      </trkpt>
      <trkpt lat="46.81308" lon="0.34037">
        <ele>82.8</ele>
        <time>2022-10-16T06:52:15Z</time>
      </trkpt>
      <trkpt lat="46.81312" lon="0.34017">
        <ele>82.8</ele>
        <time>2022-10-16T06:52:20Z</time>
      </trkpt>
      <trkpt lat="46.81318" lon="0.33997">
        <ele>82.6</ele>
        <time>2022-10-16T06:52:25Z</time>
      </trkpt>
      <trkpt lat="46.81324" lon="0.33976">
        <ele>82.4</ele>
        <time>2022-10-16T06:52:31Z</time>
      </trkpt>
      <trkpt lat="46.81335" lon="0.33952">
        <ele>82.2</ele>
        <time>2022-10-16T06:52:36Z</time>
      </trkpt>
      <trkpt lat="46.81355" lon="0.33929">
        <ele>82.4</ele>
        <time>2022-10-16T06:52:42Z</time>
      </trkpt>
      <trkpt lat="46.8137" lon="0.3391">
        <ele>83.2</ele>
        <time>2022-10-16T06:52:46Z</time>
      </trkpt>
      <trkpt lat="46.81379" lon="0.33902">
        <ele>83.4</ele>
        <time>2022-10-16T06:52:48Z</time>
      </trkpt>
      <trkpt lat="46.81406" lon="0.33878">
        <ele>84</ele>
        <time>2022-10-16T06:52:54Z</time>
      </trkpt>
      <trkpt lat="46.81427" lon="0.33863">
        <ele>84</ele>
        <time>2022-10-16T06:52:58Z</time>
      </trkpt>
      <trkpt lat="46.81438" lon="0.33854">
        <ele>83.8</ele>
        <time>2022-10-16T06:53:00Z</time>
      </trkpt>
      <trkpt lat="46.81468" lon="0.33831">
        <ele>83</ele>
        <time>2022-10-16T06:53:05Z</time>
      </trkpt>
      <trkpt lat="46.8148" lon="0.33821">
        <ele>82.4</ele>
        <time>2022-10-16T06:53:07Z</time>
      </trkpt>
      <trkpt lat="46.81504" lon="0.33805">
        <ele>81.8</ele>
        <time>2022-10-16T06:53:11Z</time>
      </trkpt>
      <trkpt lat="46.81525" lon="0.33794">
        <ele>80.8</ele>
        <time>2022-10-16T06:53:14Z</time>
      </trkpt>
      <trkpt lat="46.81532" lon="0.3379">
        <ele>80.6</ele>
        <time>2022-10-16T06:53:15Z</time>
      </trkpt>
      <trkpt lat="46.81552" lon="0.33777">
        <ele>79.8</ele>
        <time>2022-10-16T06:53:18Z</time>
      </trkpt>
      <trkpt lat="46.81577" lon="0.33757">
        <ele>79</ele>
        <time>2022-10-16T06:53:22Z</time>
      </trkpt>
      <trkpt lat="46.81588" lon="0.33749">
        <ele>78.8</ele>
        <time>2022-10-16T06:53:24Z</time>
      </trkpt>
      <trkpt lat="46.81599" lon="0.33747">
        <ele>78.6</ele>
        <time>2022-10-16T06:53:26Z</time>
      </trkpt>
      <trkpt lat="46.8161" lon="0.33752">
        <ele>78.6</ele>
        <time>2022-10-16T06:53:28Z</time>
      </trkpt>
      <trkpt lat="46.81614" lon="0.33757">
        <ele>78.8</ele>
        <time>2022-10-16T06:53:29Z</time>
      </trkpt>
      <trkpt lat="46.81617" lon="0.33764">
        <ele>78.8</ele>
        <time>2022-10-16T06:53:30Z</time>
      </trkpt>
      <trkpt lat="46.81618" lon="0.3378">
        <ele>79</ele>
        <time>2022-10-16T06:53:32Z</time>
      </trkpt>
      <trkpt lat="46.81617" lon="0.33829">
        <ele>79.8</ele>
        <time>2022-10-16T06:53:38Z</time>
      </trkpt>
      <trkpt lat="46.81617" lon="0.33838">
        <ele>79.8</ele>
        <time>2022-10-16T06:53:39Z</time>
      </trkpt>
      <trkpt lat="46.8162" lon="0.33883">
        <ele>80.6</ele>
        <time>2022-10-16T06:53:45Z</time>
      </trkpt>
      <trkpt lat="46.81622" lon="0.33889">
        <ele>80.6</ele>
        <time>2022-10-16T06:53:46Z</time>
      </trkpt>
      <trkpt lat="46.81626" lon="0.33894">
        <ele>80.8</ele>
        <time>2022-10-16T06:53:47Z</time>
      </trkpt>
      <trkpt lat="46.81629" lon="0.33897">
        <ele>80.8</ele>
        <time>2022-10-16T06:53:48Z</time>
      </trkpt>
      <trkpt lat="46.81634" lon="0.33899">
        <ele>81</ele>
        <time>2022-10-16T06:53:49Z</time>
      </trkpt>
      <trkpt lat="46.81659" lon="0.33903">
        <ele>81.6</ele>
        <time>2022-10-16T06:53:55Z</time>
      </trkpt>
      <trkpt lat="46.81664" lon="0.33904">
        <ele>81.6</ele>
        <time>2022-10-16T06:53:56Z</time>
      </trkpt>
      <trkpt lat="46.81673" lon="0.33906">
        <ele>81.6</ele>
        <time>2022-10-16T06:53:58Z</time>
      </trkpt>
      <trkpt lat="46.81682" lon="0.33919">
        <ele>81.6</ele>
        <time>2022-10-16T06:54:01Z</time>
      </trkpt>
      <trkpt lat="46.81682" lon="0.33932">
        <ele>81.8</ele>
        <time>2022-10-16T06:54:03Z</time>
      </trkpt>
      <trkpt lat="46.81681" lon="0.33942">
        <ele>81.8</ele>
        <time>2022-10-16T06:54:05Z</time>
      </trkpt>
      <trkpt lat="46.81677" lon="0.3397">
        <ele>83.2</ele>
        <time>2022-10-16T06:54:11Z</time>
      </trkpt>
      <trkpt lat="46.81677" lon="0.3398">
        <ele>84</ele>
        <time>2022-10-16T06:54:13Z</time>
      </trkpt>
      <trkpt lat="46.81677" lon="0.33984">
        <ele>84.2</ele>
        <time>2022-10-16T06:54:14Z</time>
      </trkpt>
      <trkpt lat="46.81676" lon="0.33993">
        <ele>84.8</ele>
        <time>2022-10-16T06:54:16Z</time>
      </trkpt>
      <trkpt lat="46.81675" lon="0.34005">
        <ele>85.6</ele>
        <time>2022-10-16T06:54:18Z</time>
      </trkpt>
      <trkpt lat="46.81675" lon="0.34012">
        <ele>85.8</ele>
        <time>2022-10-16T06:54:19Z</time>
      </trkpt>
      <trkpt lat="46.81672" lon="0.34067">
        <ele>86.2</ele>
        <time>2022-10-16T06:54:26Z</time>
      </trkpt>
      <trkpt lat="46.81673" lon="0.34082">
        <ele>86.2</ele>
        <time>2022-10-16T06:54:28Z</time>
      </trkpt>
      <trkpt lat="46.81676" lon="0.34112">
        <ele>86.2</ele>
        <time>2022-10-16T06:54:32Z</time>
      </trkpt>
      <trkpt lat="46.81684" lon="0.34165">
        <ele>86</ele>
        <time>2022-10-16T06:54:39Z</time>
      </trkpt>
      <trkpt lat="46.81696" lon="0.34221">
        <ele>85.6</ele>
        <time>2022-10-16T06:54:46Z</time>
      </trkpt>
      <trkpt lat="46.81705" lon="0.34268">
        <ele>85</ele>
        <time>2022-10-16T06:54:52Z</time>
      </trkpt>
      <trkpt lat="46.8171" lon="0.34304">
        <ele>84.4</ele>
        <time>2022-10-16T06:54:56Z</time>
      </trkpt>
      <trkpt lat="46.8171" lon="0.34313">
        <ele>84.4</ele>
        <time>2022-10-16T06:54:57Z</time>
      </trkpt>
      <trkpt lat="46.81718" lon="0.34374">
        <ele>84</ele>
        <time>2022-10-16T06:55:04Z</time>
      </trkpt>
      <trkpt lat="46.81724" lon="0.34413">
        <ele>83.4</ele>
        <time>2022-10-16T06:55:09Z</time>
      </trkpt>
      <trkpt lat="46.81727" lon="0.34437">
        <ele>83.4</ele>
        <time>2022-10-16T06:55:12Z</time>
      </trkpt>
      <trkpt lat="46.81736" lon="0.34488">
        <ele>83.4</ele>
        <time>2022-10-16T06:55:18Z</time>
      </trkpt>
      <trkpt lat="46.81748" lon="0.34541">
        <ele>83.6</ele>
        <time>2022-10-16T06:55:24Z</time>
      </trkpt>
      <trkpt lat="46.8175" lon="0.34549">
        <ele>83.8</ele>
        <time>2022-10-16T06:55:25Z</time>
      </trkpt>
      <trkpt lat="46.81762" lon="0.34603">
        <ele>84.4</ele>
        <time>2022-10-16T06:55:31Z</time>
      </trkpt>
      <trkpt lat="46.81771" lon="0.34654">
        <ele>84.4</ele>
        <time>2022-10-16T06:55:37Z</time>
      </trkpt>
      <trkpt lat="46.81771" lon="0.34662">
        <ele>84.6</ele>
        <time>2022-10-16T06:55:38Z</time>
      </trkpt>
      <trkpt lat="46.81773" lon="0.34724">
        <ele>84.6</ele>
        <time>2022-10-16T06:55:45Z</time>
      </trkpt>
      <trkpt lat="46.81776" lon="0.34794">
        <ele>85.2</ele>
        <time>2022-10-16T06:55:53Z</time>
      </trkpt>
      <trkpt lat="46.81778" lon="0.34825">
        <ele>85.6</ele>
        <time>2022-10-16T06:55:57Z</time>
      </trkpt>
      <trkpt lat="46.81779" lon="0.34831">
        <ele>85.6</ele>
        <time>2022-10-16T06:55:58Z</time>
      </trkpt>
      <trkpt lat="46.81782" lon="0.34835">
        <ele>85.6</ele>
        <time>2022-10-16T06:55:59Z</time>
      </trkpt>
      <trkpt lat="46.81787" lon="0.34841">
        <ele>85.4</ele>
        <time>2022-10-16T06:56:01Z</time>
      </trkpt>
      <trkpt lat="46.81808" lon="0.34858">
        <ele>85.4</ele>
        <time>2022-10-16T06:56:06Z</time>
      </trkpt>
      <trkpt lat="46.81838" lon="0.34897">
        <ele>85.4</ele>
        <time>2022-10-16T06:56:13Z</time>
      </trkpt>
      <trkpt lat="46.81853" lon="0.3492">
        <ele>85.6</ele>
        <time>2022-10-16T06:56:17Z</time>
      </trkpt>
      <trkpt lat="46.8186" lon="0.34932">
        <ele>85.8</ele>
        <time>2022-10-16T06:56:19Z</time>
      </trkpt>
      <trkpt lat="46.81869" lon="0.34953">
        <ele>85.8</ele>
        <time>2022-10-16T06:56:22Z</time>
      </trkpt>
      <trkpt lat="46.81872" lon="0.34968">
        <ele>85.8</ele>
        <time>2022-10-16T06:56:24Z</time>
      </trkpt>
      <trkpt lat="46.8188" lon="0.34991">
        <ele>86.2</ele>
        <time>2022-10-16T06:56:27Z</time>
      </trkpt>
      <trkpt lat="46.8189" lon="0.35003">
        <ele>86.2</ele>
        <time>2022-10-16T06:56:29Z</time>
      </trkpt>
      <trkpt lat="46.81894" lon="0.3501">
        <ele>86.4</ele>
        <time>2022-10-16T06:56:30Z</time>
      </trkpt>
      <trkpt lat="46.81902" lon="0.35023">
        <ele>86.6</ele>
        <time>2022-10-16T06:56:32Z</time>
      </trkpt>
      <trkpt lat="46.81916" lon="0.35053">
        <ele>87</ele>
        <time>2022-10-16T06:56:36Z</time>
      </trkpt>
      <trkpt lat="46.81931" lon="0.35095">
        <ele>87.6</ele>
        <time>2022-10-16T06:56:41Z</time>
      </trkpt>
      <trkpt lat="46.81936" lon="0.35111">
        <ele>87.6</ele>
        <time>2022-10-16T06:56:43Z</time>
      </trkpt>
      <trkpt lat="46.81947" lon="0.3516">
        <ele>87.6</ele>
        <time>2022-10-16T06:56:49Z</time>
      </trkpt>
      <trkpt lat="46.81952" lon="0.35179">
        <ele>87.6</ele>
        <time>2022-10-16T06:56:52Z</time>
      </trkpt>
      <trkpt lat="46.81954" lon="0.35183">
        <ele>87.4</ele>
        <time>2022-10-16T06:56:53Z</time>
      </trkpt>
      <trkpt lat="46.81956" lon="0.35184">
        <ele>87.4</ele>
        <time>2022-10-16T06:56:54Z</time>
      </trkpt>
      <trkpt lat="46.81962" lon="0.35181">
        <ele>87.2</ele>
        <time>2022-10-16T06:56:56Z</time>
      </trkpt>
      <trkpt lat="46.81984" lon="0.35163">
        <ele>87.6</ele>
        <time>2022-10-16T06:57:02Z</time>
      </trkpt>
      <trkpt lat="46.82001" lon="0.35151">
        <ele>87.6</ele>
        <time>2022-10-16T06:57:06Z</time>
      </trkpt>
      <trkpt lat="46.82014" lon="0.35144">
        <ele>87.6</ele>
        <time>2022-10-16T06:57:09Z</time>
      </trkpt>
      <trkpt lat="46.82028" lon="0.35136">
        <ele>87.6</ele>
        <time>2022-10-16T06:57:12Z</time>
      </trkpt>
      <trkpt lat="46.82041" lon="0.35127">
        <ele>87.6</ele>
        <time>2022-10-16T06:57:15Z</time>
      </trkpt>
      <trkpt lat="46.82045" lon="0.35125">
        <ele>87.6</ele>
        <time>2022-10-16T06:57:16Z</time>
      </trkpt>
      <trkpt lat="46.82077" lon="0.35115">
        <ele>87.2</ele>
        <time>2022-10-16T06:57:22Z</time>
      </trkpt>
      <trkpt lat="46.82097" lon="0.35113">
        <ele>87</ele>
        <time>2022-10-16T06:57:25Z</time>
      </trkpt>
      <trkpt lat="46.82108" lon="0.35113">
        <ele>86.4</ele>
        <time>2022-10-16T06:57:27Z</time>
      </trkpt>
      <trkpt lat="46.82148" lon="0.35118">
        <ele>85.8</ele>
        <time>2022-10-16T06:57:34Z</time>
      </trkpt>
      <trkpt lat="46.82185" lon="0.35115">
        <ele>85.8</ele>
        <time>2022-10-16T06:57:40Z</time>
      </trkpt>
      <trkpt lat="46.82223" lon="0.35099">
        <ele>86</ele>
        <time>2022-10-16T06:57:47Z</time>
      </trkpt>
      <trkpt lat="46.82254" lon="0.35093">
        <ele>86.4</ele>
        <time>2022-10-16T06:57:53Z</time>
      </trkpt>
      <trkpt lat="46.82267" lon="0.35091">
        <ele>86.8</ele>
        <time>2022-10-16T06:57:56Z</time>
      </trkpt>
      <trkpt lat="46.82274" lon="0.35094">
        <ele>87</ele>
        <time>2022-10-16T06:57:58Z</time>
      </trkpt>
      <trkpt lat="46.82279" lon="0.35107">
        <ele>87.2</ele>
        <time>2022-10-16T06:58:01Z</time>
      </trkpt>
      <trkpt lat="46.8228" lon="0.35113">
        <ele>87.4</ele>
        <time>2022-10-16T06:58:02Z</time>
      </trkpt>
      <trkpt lat="46.8228" lon="0.3512">
        <ele>87.6</ele>
        <time>2022-10-16T06:58:03Z</time>
      </trkpt>
      <trkpt lat="46.8228" lon="0.3514">
        <ele>88.4</ele>
        <time>2022-10-16T06:58:06Z</time>
      </trkpt>
      <trkpt lat="46.8228" lon="0.35147">
        <ele>88.6</ele>
        <time>2022-10-16T06:58:07Z</time>
      </trkpt>
      <trkpt lat="46.82278" lon="0.35195">
        <ele>89.6</ele>
        <time>2022-10-16T06:58:14Z</time>
      </trkpt>
      <trkpt lat="46.82278" lon="0.35209">
        <ele>89.8</ele>
        <time>2022-10-16T06:58:16Z</time>
      </trkpt>
      <trkpt lat="46.82275" lon="0.35258">
        <ele>90.6</ele>
        <time>2022-10-16T06:58:23Z</time>
      </trkpt>
      <trkpt lat="46.8227" lon="0.35301">
        <ele>90.6</ele>
        <time>2022-10-16T06:58:30Z</time>
      </trkpt>
      <trkpt lat="46.82268" lon="0.35354">
        <ele>90.8</ele>
        <time>2022-10-16T06:58:38Z</time>
      </trkpt>
      <trkpt lat="46.8227" lon="0.3536">
        <ele>90.8</ele>
        <time>2022-10-16T06:58:40Z</time>
      </trkpt>
      <trkpt lat="46.82271" lon="0.35361">
        <ele>90.8</ele>
        <time>2022-10-16T06:58:41Z</time>
      </trkpt>
      <trkpt lat="46.82282" lon="0.35366">
        <ele>92</ele>
        <time>2022-10-16T06:58:48Z</time>
      </trkpt>
      <trkpt lat="46.8229" lon="0.35364">
        <ele>92.8</ele>
        <time>2022-10-16T06:58:54Z</time>
      </trkpt>
      <trkpt lat="46.82292" lon="0.35364">
        <ele>93.2</ele>
        <time>2022-10-16T06:58:55Z</time>
      </trkpt>
      <trkpt lat="46.82295" lon="0.35365">
        <ele>93.8</ele>
        <time>2022-10-16T06:58:57Z</time>
      </trkpt>
      <trkpt lat="46.82298" lon="0.35368">
        <ele>94.2</ele>
        <time>2022-10-16T06:58:59Z</time>
      </trkpt>
      <trkpt lat="46.82299" lon="0.35368">
        <ele>94.4</ele>
        <time>2022-10-16T06:59:00Z</time>
      </trkpt>
      <trkpt lat="46.82304" lon="0.35368">
        <ele>95.2</ele>
        <time>2022-10-16T06:59:04Z</time>
      </trkpt>
      <trkpt lat="46.82306" lon="0.35369">
        <ele>95.6</ele>
        <time>2022-10-16T06:59:05Z</time>
      </trkpt>
      <trkpt lat="46.82312" lon="0.35374">
        <ele>96.8</ele>
        <time>2022-10-16T06:59:10Z</time>
      </trkpt>
      <trkpt lat="46.82314" lon="0.35375">
        <ele>97.2</ele>
        <time>2022-10-16T06:59:12Z</time>
      </trkpt>
      <trkpt lat="46.82317" lon="0.35376">
        <ele>98</ele>
        <time>2022-10-16T06:59:15Z</time>
      </trkpt>
      <trkpt lat="46.82321" lon="0.35378">
        <ele>99</ele>
        <time>2022-10-16T06:59:18Z</time>
      </trkpt>
      <trkpt lat="46.82324" lon="0.35378">
        <ele>99.6</ele>
        <time>2022-10-16T06:59:20Z</time>
      </trkpt>
      <trkpt lat="46.82326" lon="0.35377">
        <ele>100.4</ele>
        <time>2022-10-16T06:59:23Z</time>
      </trkpt>
      <trkpt lat="46.82329" lon="0.35376">
        <ele>100.6</ele>
        <time>2022-10-16T06:59:25Z</time>
      </trkpt>
      <trkpt lat="46.8233" lon="0.35374">
        <ele>100.8</ele>
        <time>2022-10-16T06:59:26Z</time>
      </trkpt>
      <trkpt lat="46.82332" lon="0.35372">
        <ele>101.4</ele>
        <time>2022-10-16T06:59:28Z</time>
      </trkpt>
      <trkpt lat="46.82341" lon="0.35363">
        <ele>102.6</ele>
        <time>2022-10-16T06:59:35Z</time>
      </trkpt>
      <trkpt lat="46.82345" lon="0.35356">
        <ele>103.8</ele>
        <time>2022-10-16T06:59:40Z</time>
      </trkpt>
      <trkpt lat="46.82346" lon="0.35355">
        <ele>104</ele>
        <time>2022-10-16T06:59:41Z</time>
      </trkpt>
      <trkpt lat="46.82347" lon="0.35354">
        <ele>104.2</ele>
        <time>2022-10-16T06:59:42Z</time>
      </trkpt>
      <trkpt lat="46.82353" lon="0.35352">
        <ele>105</ele>
        <time>2022-10-16T06:59:46Z</time>
      </trkpt>
      <trkpt lat="46.82354" lon="0.35351">
        <ele>105.2</ele>
        <time>2022-10-16T06:59:47Z</time>
      </trkpt>
      <trkpt lat="46.82359" lon="0.35349">
        <ele>106</ele>
        <time>2022-10-16T06:59:50Z</time>
      </trkpt>
      <trkpt lat="46.82363" lon="0.35346">
        <ele>106.8</ele>
        <time>2022-10-16T06:59:54Z</time>
      </trkpt>
      <trkpt lat="46.82365" lon="0.35345">
        <ele>107</ele>
        <time>2022-10-16T06:59:56Z</time>
      </trkpt>
      <trkpt lat="46.82368" lon="0.35345">
        <ele>107.4</ele>
        <time>2022-10-16T06:59:58Z</time>
      </trkpt>
      <trkpt lat="46.82371" lon="0.35343">
        <ele>107.8</ele>
        <time>2022-10-16T07:00:02Z</time>
      </trkpt>
      <trkpt lat="46.82373" lon="0.35341">
        <ele>107.8</ele>
        <time>2022-10-16T07:00:04Z</time>
      </trkpt>
      <trkpt lat="46.82376" lon="0.3534">
        <ele>108.2</ele>
        <time>2022-10-16T07:00:10Z</time>
      </trkpt>
      <trkpt lat="46.82376" lon="0.35339">
        <ele>108.2</ele>
        <time>2022-10-16T07:00:15Z</time>
      </trkpt>
      <trkpt lat="46.82377" lon="0.35336">
        <ele>108.2</ele>
        <time>2022-10-16T07:00:31Z</time>
      </trkpt>
      <trkpt lat="46.82378" lon="0.35335">
        <ele>108.2</ele>
        <time>2022-10-16T07:00:48Z</time>
      </trkpt>
      <trkpt lat="46.82381" lon="0.35332">
        <ele>108.2</ele>
        <time>2022-10-16T07:01:05Z</time>
      </trkpt>
      <trkpt lat="46.82384" lon="0.35331">
        <ele>108.2</ele>
        <time>2022-10-16T07:01:19Z</time>
      </trkpt>
      <trkpt lat="46.82387" lon="0.35327">
        <ele>108.2</ele>
        <time>2022-10-16T07:01:31Z</time>
      </trkpt>
      <trkpt lat="46.82388" lon="0.35324">
        <ele>108.2</ele>
        <time>2022-10-16T07:01:33Z</time>
      </trkpt>
      <trkpt lat="46.82389" lon="0.35322">
        <ele>108.2</ele>
        <time>2022-10-16T07:01:34Z</time>
      </trkpt>
      <trkpt lat="46.82395" lon="0.35308">
        <ele>108.6</ele>
        <time>2022-10-16T07:01:39Z</time>
      </trkpt>
      <trkpt lat="46.82405" lon="0.35291">
        <ele>108.2</ele>
        <time>2022-10-16T07:01:44Z</time>
      </trkpt>
      <trkpt lat="46.82415" lon="0.3527">
        <ele>108.2</ele>
        <time>2022-10-16T07:01:49Z</time>
      </trkpt>
      <trkpt lat="46.82416" lon="0.35265">
        <ele>108.4</ele>
        <time>2022-10-16T07:01:50Z</time>
      </trkpt>
      <trkpt lat="46.82422" lon="0.35258">
        <ele>108.8</ele>
        <time>2022-10-16T07:01:53Z</time>
      </trkpt>
      <trkpt lat="46.8243" lon="0.35265">
        <ele>108.6</ele>
        <time>2022-10-16T07:01:56Z</time>
      </trkpt>
      <trkpt lat="46.82435" lon="0.35275">
        <ele>108.4</ele>
        <time>2022-10-16T07:01:58Z</time>
      </trkpt>
      <trkpt lat="46.82441" lon="0.35283">
        <ele>108.4</ele>
        <time>2022-10-16T07:02:00Z</time>
      </trkpt>
      <trkpt lat="46.82444" lon="0.35285">
        <ele>108.4</ele>
        <time>2022-10-16T07:02:01Z</time>
      </trkpt>
      <trkpt lat="46.82447" lon="0.35284">
        <ele>108.4</ele>
        <time>2022-10-16T07:02:02Z</time>
      </trkpt>
      <trkpt lat="46.82456" lon="0.35282">
        <ele>108</ele>
        <time>2022-10-16T07:02:05Z</time>
      </trkpt>
      <trkpt lat="46.82458" lon="0.3528">
        <ele>107.8</ele>
        <time>2022-10-16T07:02:06Z</time>
      </trkpt>
      <trkpt lat="46.8246" lon="0.35279">
        <ele>107.6</ele>
        <time>2022-10-16T07:02:07Z</time>
      </trkpt>
      <trkpt lat="46.82464" lon="0.35277">
        <ele>107.4</ele>
        <time>2022-10-16T07:02:09Z</time>
      </trkpt>
      <trkpt lat="46.82468" lon="0.35277">
        <ele>107.4</ele>
        <time>2022-10-16T07:02:11Z</time>
      </trkpt>
      <trkpt lat="46.82478" lon="0.35277">
        <ele>107.2</ele>
        <time>2022-10-16T07:02:15Z</time>
      </trkpt>
      <trkpt lat="46.82481" lon="0.35277">
        <ele>107</ele>
        <time>2022-10-16T07:02:16Z</time>
      </trkpt>
      <trkpt lat="46.82492" lon="0.35277">
        <ele>107</ele>
        <time>2022-10-16T07:02:21Z</time>
      </trkpt>
      <trkpt lat="46.82496" lon="0.35274">
        <ele>106.8</ele>
        <time>2022-10-16T07:02:24Z</time>
      </trkpt>
      <trkpt lat="46.825" lon="0.35274">
        <ele>106.8</ele>
        <time>2022-10-16T07:02:26Z</time>
      </trkpt>
      <trkpt lat="46.8251" lon="0.35275">
        <ele>106.4</ele>
        <time>2022-10-16T07:02:31Z</time>
      </trkpt>
      <trkpt lat="46.82527" lon="0.35284">
        <ele>106.4</ele>
        <time>2022-10-16T07:02:36Z</time>
      </trkpt>
      <trkpt lat="46.82529" lon="0.35284">
        <ele>106.4</ele>
        <time>2022-10-16T07:02:37Z</time>
      </trkpt>
      <trkpt lat="46.82531" lon="0.35283">
        <ele>106.4</ele>
        <time>2022-10-16T07:02:38Z</time>
      </trkpt>
      <trkpt lat="46.82535" lon="0.35282">
        <ele>106.4</ele>
        <time>2022-10-16T07:02:40Z</time>
      </trkpt>
      <trkpt lat="46.8254" lon="0.35284">
        <ele>106.4</ele>
        <time>2022-10-16T07:02:42Z</time>
      </trkpt>
      <trkpt lat="46.82558" lon="0.3529">
        <ele>106.2</ele>
        <time>2022-10-16T07:02:48Z</time>
      </trkpt>
      <trkpt lat="46.82566" lon="0.35292">
        <ele>106</ele>
        <time>2022-10-16T07:02:51Z</time>
      </trkpt>
      <trkpt lat="46.8257" lon="0.35291">
        <ele>106</ele>
        <time>2022-10-16T07:02:53Z</time>
      </trkpt>
      <trkpt lat="46.82582" lon="0.3529">
        <ele>105.8</ele>
        <time>2022-10-16T07:02:58Z</time>
      </trkpt>
      <trkpt lat="46.82597" lon="0.35287">
        <ele>105.6</ele>
        <time>2022-10-16T07:03:08Z</time>
      </trkpt>
      <trkpt lat="46.826" lon="0.35285">
        <ele>105.6</ele>
        <time>2022-10-16T07:03:11Z</time>
      </trkpt>
      <trkpt lat="46.82613" lon="0.35276">
        <ele>105.8</ele>
        <time>2022-10-16T07:03:17Z</time>
      </trkpt>
      <trkpt lat="46.82623" lon="0.3526">
        <ele>105.6</ele>
        <time>2022-10-16T07:03:23Z</time>
      </trkpt>
      <trkpt lat="46.82624" lon="0.35258">
        <ele>105.6</ele>
        <time>2022-10-16T07:03:24Z</time>
      </trkpt>
      <trkpt lat="46.82629" lon="0.35247">
        <ele>105.2</ele>
        <time>2022-10-16T07:03:29Z</time>
      </trkpt>
      <trkpt lat="46.82631" lon="0.35241">
        <ele>105.2</ele>
        <time>2022-10-16T07:03:31Z</time>
      </trkpt>
      <trkpt lat="46.82636" lon="0.35237">
        <ele>105</ele>
        <time>2022-10-16T07:03:33Z</time>
      </trkpt>
      <trkpt lat="46.82637" lon="0.35234">
        <ele>104.8</ele>
        <time>2022-10-16T07:03:34Z</time>
      </trkpt>
      <trkpt lat="46.82646" lon="0.3522">
        <ele>104.6</ele>
        <time>2022-10-16T07:03:39Z</time>
      </trkpt>
      <trkpt lat="46.8265" lon="0.35218">
        <ele>104.6</ele>
        <time>2022-10-16T07:03:41Z</time>
      </trkpt>
      <trkpt lat="46.82656" lon="0.35213">
        <ele>104.6</ele>
        <time>2022-10-16T07:03:44Z</time>
      </trkpt>
      <trkpt lat="46.82666" lon="0.35213">
        <ele>104.8</ele>
        <time>2022-10-16T07:03:47Z</time>
      </trkpt>
      <trkpt lat="46.82668" lon="0.35211">
        <ele>104.6</ele>
        <time>2022-10-16T07:03:48Z</time>
      </trkpt>
      <trkpt lat="46.82673" lon="0.35207">
        <ele>104.6</ele>
        <time>2022-10-16T07:03:50Z</time>
      </trkpt>
      <trkpt lat="46.8268" lon="0.35205">
        <ele>104.8</ele>
        <time>2022-10-16T07:03:52Z</time>
      </trkpt>
      <trkpt lat="46.82685" lon="0.35206">
        <ele>104.8</ele>
        <time>2022-10-16T07:03:53Z</time>
      </trkpt>
      <trkpt lat="46.8269" lon="0.35207">
        <ele>104.8</ele>
        <time>2022-10-16T07:03:54Z</time>
      </trkpt>
      <trkpt lat="46.82694" lon="0.35214">
        <ele>104.8</ele>
        <time>2022-10-16T07:03:56Z</time>
      </trkpt>
      <trkpt lat="46.82697" lon="0.35218">
        <ele>104.8</ele>
        <time>2022-10-16T07:03:57Z</time>
      </trkpt>
      <trkpt lat="46.82701" lon="0.35221">
        <ele>104.8</ele>
        <time>2022-10-16T07:03:58Z</time>
      </trkpt>
      <trkpt lat="46.8271" lon="0.35229">
        <ele>104.8</ele>
        <time>2022-10-16T07:04:01Z</time>
      </trkpt>
      <trkpt lat="46.82716" lon="0.35233">
        <ele>104.8</ele>
        <time>2022-10-16T07:04:03Z</time>
      </trkpt>
      <trkpt lat="46.82722" lon="0.35235">
        <ele>104.6</ele>
        <time>2022-10-16T07:04:05Z</time>
      </trkpt>
      <trkpt lat="46.82729" lon="0.35237">
        <ele>104</ele>
        <time>2022-10-16T07:04:07Z</time>
      </trkpt>
      <trkpt lat="46.82733" lon="0.35239">
        <ele>103.8</ele>
        <time>2022-10-16T07:04:08Z</time>
      </trkpt>
      <trkpt lat="46.82737" lon="0.35241">
        <ele>103.8</ele>
        <time>2022-10-16T07:04:09Z</time>
      </trkpt>
      <trkpt lat="46.82741" lon="0.35243">
        <ele>103.8</ele>
        <time>2022-10-16T07:04:10Z</time>
      </trkpt>
      <trkpt lat="46.82749" lon="0.35249">
        <ele>103.6</ele>
        <time>2022-10-16T07:04:12Z</time>
      </trkpt>
      <trkpt lat="46.82753" lon="0.35254">
        <ele>103.6</ele>
        <time>2022-10-16T07:04:13Z</time>
      </trkpt>
      <trkpt lat="46.82761" lon="0.35263">
        <ele>103.8</ele>
        <time>2022-10-16T07:04:15Z</time>
      </trkpt>
      <trkpt lat="46.82765" lon="0.3527">
        <ele>103.8</ele>
        <time>2022-10-16T07:04:17Z</time>
      </trkpt>
      <trkpt lat="46.82767" lon="0.35273">
        <ele>104</ele>
        <time>2022-10-16T07:04:18Z</time>
      </trkpt>
      <trkpt lat="46.82772" lon="0.3528">
        <ele>104.2</ele>
        <time>2022-10-16T07:04:20Z</time>
      </trkpt>
      <trkpt lat="46.82778" lon="0.35287">
        <ele>104</ele>
        <time>2022-10-16T07:04:22Z</time>
      </trkpt>
      <trkpt lat="46.82781" lon="0.3529">
        <ele>104</ele>
        <time>2022-10-16T07:04:23Z</time>
      </trkpt>
      <trkpt lat="46.82795" lon="0.35297">
        <ele>104</ele>
        <time>2022-10-16T07:04:26Z</time>
      </trkpt>
      <trkpt lat="46.828" lon="0.35308">
        <ele>103.6</ele>
        <time>2022-10-16T07:04:28Z</time>
      </trkpt>
      <trkpt lat="46.82804" lon="0.35321">
        <ele>103.6</ele>
        <time>2022-10-16T07:04:30Z</time>
      </trkpt>
      <trkpt lat="46.8281" lon="0.35331">
        <ele>103.2</ele>
        <time>2022-10-16T07:04:32Z</time>
      </trkpt>
      <trkpt lat="46.82816" lon="0.35339">
        <ele>102.8</ele>
        <time>2022-10-16T07:04:34Z</time>
      </trkpt>
      <trkpt lat="46.82822" lon="0.35341">
        <ele>102.8</ele>
        <time>2022-10-16T07:04:36Z</time>
      </trkpt>
      <trkpt lat="46.82825" lon="0.35344">
        <ele>102.6</ele>
        <time>2022-10-16T07:04:37Z</time>
      </trkpt>
      <trkpt lat="46.82838" lon="0.3535">
        <ele>102.4</ele>
        <time>2022-10-16T07:04:41Z</time>
      </trkpt>
      <trkpt lat="46.82842" lon="0.3535">
        <ele>102.4</ele>
        <time>2022-10-16T07:04:42Z</time>
      </trkpt>
      <trkpt lat="46.82844" lon="0.3535">
        <ele>102.4</ele>
        <time>2022-10-16T07:04:43Z</time>
      </trkpt>
      <trkpt lat="46.82851" lon="0.3535">
        <ele>102.4</ele>
        <time>2022-10-16T07:04:46Z</time>
      </trkpt>
      <trkpt lat="46.82853" lon="0.35349">
        <ele>102.2</ele>
        <time>2022-10-16T07:04:47Z</time>
      </trkpt>
      <trkpt lat="46.82856" lon="0.35346">
        <ele>102.2</ele>
        <time>2022-10-16T07:04:48Z</time>
      </trkpt>
      <trkpt lat="46.82858" lon="0.35342">
        <ele>102</ele>
        <time>2022-10-16T07:04:50Z</time>
      </trkpt>
      <trkpt lat="46.82862" lon="0.35341">
        <ele>101.8</ele>
        <time>2022-10-16T07:04:52Z</time>
      </trkpt>
      <trkpt lat="46.82864" lon="0.35341">
        <ele>101.8</ele>
        <time>2022-10-16T07:04:53Z</time>
      </trkpt>
      <trkpt lat="46.82867" lon="0.35343">
        <ele>101.8</ele>
        <time>2022-10-16T07:04:54Z</time>
      </trkpt>
      <trkpt lat="46.8287" lon="0.35346">
        <ele>101.6</ele>
        <time>2022-10-16T07:04:56Z</time>
      </trkpt>
      <trkpt lat="46.82874" lon="0.35357">
        <ele>101.8</ele>
        <time>2022-10-16T07:05:00Z</time>
      </trkpt>
      <trkpt lat="46.82873" lon="0.3536">
        <ele>101.8</ele>
        <time>2022-10-16T07:05:01Z</time>
      </trkpt>
      <trkpt lat="46.82871" lon="0.35368">
        <ele>101.8</ele>
        <time>2022-10-16T07:05:03Z</time>
      </trkpt>
      <trkpt lat="46.8287" lon="0.35374">
        <ele>101.8</ele>
        <time>2022-10-16T07:05:05Z</time>
      </trkpt>
      <trkpt lat="46.82876" lon="0.35388">
        <ele>101.8</ele>
        <time>2022-10-16T07:05:09Z</time>
      </trkpt>
      <trkpt lat="46.82881" lon="0.35394">
        <ele>102</ele>
        <time>2022-10-16T07:05:11Z</time>
      </trkpt>
      <trkpt lat="46.82891" lon="0.35404">
        <ele>101.8</ele>
        <time>2022-10-16T07:05:14Z</time>
      </trkpt>
      <trkpt lat="46.82896" lon="0.35409">
        <ele>101.4</ele>
        <time>2022-10-16T07:05:16Z</time>
      </trkpt>
      <trkpt lat="46.829" lon="0.35416">
        <ele>101</ele>
        <time>2022-10-16T07:05:18Z</time>
      </trkpt>
      <trkpt lat="46.82906" lon="0.35436">
        <ele>100.8</ele>
        <time>2022-10-16T07:05:22Z</time>
      </trkpt>
      <trkpt lat="46.82911" lon="0.35441">
        <ele>100.6</ele>
        <time>2022-10-16T07:05:23Z</time>
      </trkpt>
      <trkpt lat="46.82914" lon="0.35445">
        <ele>100.4</ele>
        <time>2022-10-16T07:05:24Z</time>
      </trkpt>
      <trkpt lat="46.82919" lon="0.35454">
        <ele>100</ele>
        <time>2022-10-16T07:05:26Z</time>
      </trkpt>
      <trkpt lat="46.8292" lon="0.35459">
        <ele>99.8</ele>
        <time>2022-10-16T07:05:27Z</time>
      </trkpt>
      <trkpt lat="46.82922" lon="0.35463">
        <ele>98.2</ele>
        <time>2022-10-16T07:05:28Z</time>
      </trkpt>
      <trkpt lat="46.82924" lon="0.35472">
        <ele>96.6</ele>
        <time>2022-10-16T07:05:30Z</time>
      </trkpt>
      <trkpt lat="46.82924" lon="0.35477">
        <ele>96.2</ele>
        <time>2022-10-16T07:05:31Z</time>
      </trkpt>
      <trkpt lat="46.82924" lon="0.35482">
        <ele>96.2</ele>
        <time>2022-10-16T07:05:32Z</time>
      </trkpt>
      <trkpt lat="46.8292" lon="0.35488">
        <ele>96.2</ele>
        <time>2022-10-16T07:05:34Z</time>
      </trkpt>
      <trkpt lat="46.82909" lon="0.35508">
        <ele>96.6</ele>
        <time>2022-10-16T07:05:40Z</time>
      </trkpt>
      <trkpt lat="46.82889" lon="0.35555">
        <ele>96.8</ele>
        <time>2022-10-16T07:05:49Z</time>
      </trkpt>
      <trkpt lat="46.8287" lon="0.35592">
        <ele>97.6</ele>
        <time>2022-10-16T07:05:56Z</time>
      </trkpt>
      <trkpt lat="46.82847" lon="0.35631">
        <ele>98.4</ele>
        <time>2022-10-16T07:06:03Z</time>
      </trkpt>
      <trkpt lat="46.82832" lon="0.3565">
        <ele>98.8</ele>
        <time>2022-10-16T07:06:07Z</time>
      </trkpt>
      <trkpt lat="46.8282" lon="0.35664">
        <ele>99.4</ele>
        <time>2022-10-16T07:06:10Z</time>
      </trkpt>
      <trkpt lat="46.82813" lon="0.35673">
        <ele>99.2</ele>
        <time>2022-10-16T07:06:12Z</time>
      </trkpt>
      <trkpt lat="46.828" lon="0.35692">
        <ele>98.8</ele>
        <time>2022-10-16T07:06:16Z</time>
      </trkpt>
      <trkpt lat="46.82783" lon="0.35719">
        <ele>99</ele>
        <time>2022-10-16T07:06:22Z</time>
      </trkpt>
      <trkpt lat="46.82772" lon="0.3574">
        <ele>99.4</ele>
        <time>2022-10-16T07:06:26Z</time>
      </trkpt>
      <trkpt lat="46.82764" lon="0.35757">
        <ele>99.8</ele>
        <time>2022-10-16T07:06:29Z</time>
      </trkpt>
      <trkpt lat="46.82754" lon="0.35775">
        <ele>100</ele>
        <time>2022-10-16T07:06:32Z</time>
      </trkpt>
      <trkpt lat="46.82744" lon="0.35801">
        <ele>99.8</ele>
        <time>2022-10-16T07:06:36Z</time>
      </trkpt>
      <trkpt lat="46.82728" lon="0.35844">
        <ele>100.2</ele>
        <time>2022-10-16T07:06:42Z</time>
      </trkpt>
      <trkpt lat="46.82709" lon="0.35894">
        <ele>100.2</ele>
        <time>2022-10-16T07:06:49Z</time>
      </trkpt>
      <trkpt lat="46.82706" lon="0.35907">
        <ele>100</ele>
        <time>2022-10-16T07:06:51Z</time>
      </trkpt>
      <trkpt lat="46.82705" lon="0.35919">
        <ele>100</ele>
        <time>2022-10-16T07:06:53Z</time>
      </trkpt>
      <trkpt lat="46.82705" lon="0.35925">
        <ele>100</ele>
        <time>2022-10-16T07:06:54Z</time>
      </trkpt>
      <trkpt lat="46.82706" lon="0.35931">
        <ele>99.8</ele>
        <time>2022-10-16T07:06:55Z</time>
      </trkpt>
      <trkpt lat="46.82711" lon="0.35957">
        <ele>99.6</ele>
        <time>2022-10-16T07:06:59Z</time>
      </trkpt>
      <trkpt lat="46.82716" lon="0.35983">
        <ele>99.8</ele>
        <time>2022-10-16T07:07:03Z</time>
      </trkpt>
      <trkpt lat="46.82714" lon="0.36">
        <ele>99.8</ele>
        <time>2022-10-16T07:07:05Z</time>
      </trkpt>
      <trkpt lat="46.82711" lon="0.36016">
        <ele>99.8</ele>
        <time>2022-10-16T07:07:07Z</time>
      </trkpt>
      <trkpt lat="46.82703" lon="0.36055">
        <ele>100</ele>
        <time>2022-10-16T07:07:12Z</time>
      </trkpt>
      <trkpt lat="46.82687" lon="0.36112">
        <ele>100.8</ele>
        <time>2022-10-16T07:07:20Z</time>
      </trkpt>
      <trkpt lat="46.82685" lon="0.36119">
        <ele>101</ele>
        <time>2022-10-16T07:07:21Z</time>
      </trkpt>
      <trkpt lat="46.82682" lon="0.36131">
        <ele>101.2</ele>
        <time>2022-10-16T07:07:23Z</time>
      </trkpt>
      <trkpt lat="46.82674" lon="0.36149">
        <ele>101.4</ele>
        <time>2022-10-16T07:07:26Z</time>
      </trkpt>
      <trkpt lat="46.82648" lon="0.36182">
        <ele>102.2</ele>
        <time>2022-10-16T07:07:33Z</time>
      </trkpt>
      <trkpt lat="46.82624" lon="0.36214">
        <ele>102.8</ele>
        <time>2022-10-16T07:07:40Z</time>
      </trkpt>
      <trkpt lat="46.82599" lon="0.36243">
        <ele>102.6</ele>
        <time>2022-10-16T07:07:47Z</time>
      </trkpt>
      <trkpt lat="46.82594" lon="0.36251">
        <ele>102.4</ele>
        <time>2022-10-16T07:07:49Z</time>
      </trkpt>
      <trkpt lat="46.8259" lon="0.3626">
        <ele>102.4</ele>
        <time>2022-10-16T07:07:51Z</time>
      </trkpt>
      <trkpt lat="46.82589" lon="0.36266">
        <ele>102.2</ele>
        <time>2022-10-16T07:07:52Z</time>
      </trkpt>
      <trkpt lat="46.82589" lon="0.36273">
        <ele>102.2</ele>
        <time>2022-10-16T07:07:53Z</time>
      </trkpt>
      <trkpt lat="46.82586" lon="0.36305">
        <ele>102</ele>
        <time>2022-10-16T07:07:57Z</time>
      </trkpt>
      <trkpt lat="46.82579" lon="0.36373">
        <ele>102</ele>
        <time>2022-10-16T07:08:06Z</time>
      </trkpt>
      <trkpt lat="46.82575" lon="0.36426">
        <ele>102.2</ele>
        <time>2022-10-16T07:08:13Z</time>
      </trkpt>
      <trkpt lat="46.82569" lon="0.36512">
        <ele>102.4</ele>
        <time>2022-10-16T07:08:24Z</time>
      </trkpt>
      <trkpt lat="46.82564" lon="0.36558">
        <ele>103.2</ele>
        <time>2022-10-16T07:08:30Z</time>
      </trkpt>
      <trkpt lat="46.82562" lon="0.36574">
        <ele>103.6</ele>
        <time>2022-10-16T07:08:32Z</time>
      </trkpt>
      <trkpt lat="46.82554" lon="0.36613">
        <ele>104.2</ele>
        <time>2022-10-16T07:08:37Z</time>
      </trkpt>
      <trkpt lat="46.82549" lon="0.36637">
        <ele>105.2</ele>
        <time>2022-10-16T07:08:40Z</time>
      </trkpt>
      <trkpt lat="46.82547" lon="0.36645">
        <ele>105.4</ele>
        <time>2022-10-16T07:08:41Z</time>
      </trkpt>
      <trkpt lat="46.82535" lon="0.36697">
        <ele>106.6</ele>
        <time>2022-10-16T07:08:48Z</time>
      </trkpt>
      <trkpt lat="46.82529" lon="0.36726">
        <ele>107.6</ele>
        <time>2022-10-16T07:08:52Z</time>
      </trkpt>
      <trkpt lat="46.82524" lon="0.36752">
        <ele>108.4</ele>
        <time>2022-10-16T07:08:56Z</time>
      </trkpt>
      <trkpt lat="46.82517" lon="0.36784">
        <ele>108.8</ele>
        <time>2022-10-16T07:09:01Z</time>
      </trkpt>
      <trkpt lat="46.8251" lon="0.3681">
        <ele>109.4</ele>
        <time>2022-10-16T07:09:05Z</time>
      </trkpt>
      <trkpt lat="46.82509" lon="0.36817">
        <ele>109.8</ele>
        <time>2022-10-16T07:09:06Z</time>
      </trkpt>
      <trkpt lat="46.82495" lon="0.3687">
        <ele>110</ele>
        <time>2022-10-16T07:09:14Z</time>
      </trkpt>
      <trkpt lat="46.82493" lon="0.36885">
        <ele>109.8</ele>
        <time>2022-10-16T07:09:16Z</time>
      </trkpt>
      <trkpt lat="46.82496" lon="0.36901">
        <ele>109.6</ele>
        <time>2022-10-16T07:09:18Z</time>
      </trkpt>
      <trkpt lat="46.82502" lon="0.36914">
        <ele>109.4</ele>
        <time>2022-10-16T07:09:20Z</time>
      </trkpt>
      <trkpt lat="46.8251" lon="0.36925">
        <ele>109.2</ele>
        <time>2022-10-16T07:09:22Z</time>
      </trkpt>
      <trkpt lat="46.82546" lon="0.36971">
        <ele>109.4</ele>
        <time>2022-10-16T07:09:31Z</time>
      </trkpt>
      <trkpt lat="46.82549" lon="0.36976">
        <ele>109.6</ele>
        <time>2022-10-16T07:09:32Z</time>
      </trkpt>
      <trkpt lat="46.8255" lon="0.3699">
        <ele>109.8</ele>
        <time>2022-10-16T07:09:34Z</time>
      </trkpt>
      <trkpt lat="46.82544" lon="0.37">
        <ele>109.6</ele>
        <time>2022-10-16T07:09:36Z</time>
      </trkpt>
      <trkpt lat="46.8254" lon="0.37003">
        <ele>109.6</ele>
        <time>2022-10-16T07:09:37Z</time>
      </trkpt>
      <trkpt lat="46.82532" lon="0.37009">
        <ele>109.6</ele>
        <time>2022-10-16T07:09:39Z</time>
      </trkpt>
      <trkpt lat="46.82521" lon="0.37022">
        <ele>109.6</ele>
        <time>2022-10-16T07:09:42Z</time>
      </trkpt>
      <trkpt lat="46.82517" lon="0.37027">
        <ele>109.6</ele>
        <time>2022-10-16T07:09:43Z</time>
      </trkpt>
      <trkpt lat="46.82501" lon="0.37051">
        <ele>109.6</ele>
        <time>2022-10-16T07:09:48Z</time>
      </trkpt>
      <trkpt lat="46.82493" lon="0.37059">
        <ele>109.6</ele>
        <time>2022-10-16T07:09:50Z</time>
      </trkpt>
      <trkpt lat="46.82485" lon="0.37066">
        <ele>109.6</ele>
        <time>2022-10-16T07:09:52Z</time>
      </trkpt>
      <trkpt lat="46.8248" lon="0.37069">
        <ele>109.6</ele>
        <time>2022-10-16T07:09:53Z</time>
      </trkpt>
      <trkpt lat="46.82467" lon="0.37075">
        <ele>109.6</ele>
        <time>2022-10-16T07:09:56Z</time>
      </trkpt>
      <trkpt lat="46.82454" lon="0.37082">
        <ele>110</ele>
        <time>2022-10-16T07:09:59Z</time>
      </trkpt>
      <trkpt lat="46.82445" lon="0.37104">
        <ele>110</ele>
        <time>2022-10-16T07:10:04Z</time>
      </trkpt>
      <trkpt lat="46.82444" lon="0.37111">
        <ele>110.2</ele>
        <time>2022-10-16T07:10:05Z</time>
      </trkpt>
      <trkpt lat="46.82435" lon="0.37148">
        <ele>110.2</ele>
        <time>2022-10-16T07:10:11Z</time>
      </trkpt>
      <trkpt lat="46.8242" lon="0.37191">
        <ele>110.8</ele>
        <time>2022-10-16T07:10:18Z</time>
      </trkpt>
      <trkpt lat="46.82418" lon="0.37197">
        <ele>110.8</ele>
        <time>2022-10-16T07:10:19Z</time>
      </trkpt>
      <trkpt lat="46.82415" lon="0.37202">
        <ele>111</ele>
        <time>2022-10-16T07:10:20Z</time>
      </trkpt>
      <trkpt lat="46.82409" lon="0.37212">
        <ele>111</ele>
        <time>2022-10-16T07:10:22Z</time>
      </trkpt>
      <trkpt lat="46.82394" lon="0.3723">
        <ele>111.2</ele>
        <time>2022-10-16T07:10:26Z</time>
      </trkpt>
      <trkpt lat="46.82364" lon="0.37256">
        <ele>111.6</ele>
        <time>2022-10-16T07:10:33Z</time>
      </trkpt>
      <trkpt lat="46.82327" lon="0.3728">
        <ele>111.8</ele>
        <time>2022-10-16T07:10:41Z</time>
      </trkpt>
      <trkpt lat="46.82287" lon="0.37297">
        <ele>112.6</ele>
        <time>2022-10-16T07:10:49Z</time>
      </trkpt>
      <trkpt lat="46.82256" lon="0.37312">
        <ele>112.8</ele>
        <time>2022-10-16T07:10:56Z</time>
      </trkpt>
      <trkpt lat="46.82252" lon="0.37314">
        <ele>112.8</ele>
        <time>2022-10-16T07:10:57Z</time>
      </trkpt>
      <trkpt lat="46.82215" lon="0.3733">
        <ele>113.4</ele>
        <time>2022-10-16T07:11:06Z</time>
      </trkpt>
      <trkpt lat="46.82204" lon="0.37334">
        <ele>113.4</ele>
        <time>2022-10-16T07:11:08Z</time>
      </trkpt>
      <trkpt lat="46.82199" lon="0.3734">
        <ele>113.4</ele>
        <time>2022-10-16T07:11:10Z</time>
      </trkpt>
      <trkpt lat="46.822" lon="0.37354">
        <ele>113.4</ele>
        <time>2022-10-16T07:11:13Z</time>
      </trkpt>
      <trkpt lat="46.82206" lon="0.37394">
        <ele>113.6</ele>
        <time>2022-10-16T07:11:20Z</time>
      </trkpt>
      <trkpt lat="46.82211" lon="0.37454">
        <ele>113.2</ele>
        <time>2022-10-16T07:11:29Z</time>
      </trkpt>
      <trkpt lat="46.82212" lon="0.37502">
        <ele>113.4</ele>
        <time>2022-10-16T07:11:36Z</time>
      </trkpt>
      <trkpt lat="46.82215" lon="0.37574">
        <ele>113.8</ele>
        <time>2022-10-16T07:11:46Z</time>
      </trkpt>
      <trkpt lat="46.82216" lon="0.37581">
        <ele>114</ele>
        <time>2022-10-16T07:11:47Z</time>
      </trkpt>
      <trkpt lat="46.82218" lon="0.37642">
        <ele>114.8</ele>
        <time>2022-10-16T07:11:56Z</time>
      </trkpt>
      <trkpt lat="46.82223" lon="0.37696">
        <ele>114.6</ele>
        <time>2022-10-16T07:12:04Z</time>
      </trkpt>
      <trkpt lat="46.82224" lon="0.37702">
        <ele>114.8</ele>
        <time>2022-10-16T07:12:05Z</time>
      </trkpt>
      <trkpt lat="46.82231" lon="0.37719">
        <ele>115.2</ele>
        <time>2022-10-16T07:12:08Z</time>
      </trkpt>
      <trkpt lat="46.8224" lon="0.37735">
        <ele>115.6</ele>
        <time>2022-10-16T07:12:11Z</time>
      </trkpt>
      <trkpt lat="46.82242" lon="0.3774">
        <ele>115.8</ele>
        <time>2022-10-16T07:12:12Z</time>
      </trkpt>
      <trkpt lat="46.82259" lon="0.37769">
        <ele>115.8</ele>
        <time>2022-10-16T07:12:18Z</time>
      </trkpt>
      <trkpt lat="46.82266" lon="0.37777">
        <ele>115.8</ele>
        <time>2022-10-16T07:12:20Z</time>
      </trkpt>
      <trkpt lat="46.82276" lon="0.37796">
        <ele>116.2</ele>
        <time>2022-10-16T07:12:24Z</time>
      </trkpt>
      <trkpt lat="46.82288" lon="0.37817">
        <ele>116.2</ele>
        <time>2022-10-16T07:12:28Z</time>
      </trkpt>
      <trkpt lat="46.82316" lon="0.37865">
        <ele>115.8</ele>
        <time>2022-10-16T07:12:37Z</time>
      </trkpt>
      <trkpt lat="46.8233" lon="0.3789">
        <ele>116</ele>
        <time>2022-10-16T07:12:42Z</time>
      </trkpt>
      <trkpt lat="46.82336" lon="0.37899">
        <ele>115.6</ele>
        <time>2022-10-16T07:12:44Z</time>
      </trkpt>
      <trkpt lat="46.82359" lon="0.37931">
        <ele>115.6</ele>
        <time>2022-10-16T07:12:51Z</time>
      </trkpt>
      <trkpt lat="46.82389" lon="0.37973">
        <ele>115.4</ele>
        <time>2022-10-16T07:12:59Z</time>
      </trkpt>
      <trkpt lat="46.82403" lon="0.37987">
        <ele>115.2</ele>
        <time>2022-10-16T07:13:02Z</time>
      </trkpt>
      <trkpt lat="46.82413" lon="0.37994">
        <ele>115.2</ele>
        <time>2022-10-16T07:13:04Z</time>
      </trkpt>
      <trkpt lat="46.82419" lon="0.37996">
        <ele>115.2</ele>
        <time>2022-10-16T07:13:05Z</time>
      </trkpt>
      <trkpt lat="46.82459" lon="0.38015">
        <ele>114.2</ele>
        <time>2022-10-16T07:13:12Z</time>
      </trkpt>
      <trkpt lat="46.8247" lon="0.38021">
        <ele>114</ele>
        <time>2022-10-16T07:13:14Z</time>
      </trkpt>
      <trkpt lat="46.82511" lon="0.38036">
        <ele>113.8</ele>
        <time>2022-10-16T07:13:21Z</time>
      </trkpt>
      <trkpt lat="46.82523" lon="0.38038">
        <ele>113.6</ele>
        <time>2022-10-16T07:13:23Z</time>
      </trkpt>
      <trkpt lat="46.82547" lon="0.38039">
        <ele>113.4</ele>
        <time>2022-10-16T07:13:27Z</time>
      </trkpt>
      <trkpt lat="46.82585" lon="0.3804">
        <ele>113</ele>
        <time>2022-10-16T07:13:33Z</time>
      </trkpt>
      <trkpt lat="46.82604" lon="0.3804">
        <ele>112.4</ele>
        <time>2022-10-16T07:13:36Z</time>
      </trkpt>
      <trkpt lat="46.82635" lon="0.38041">
        <ele>111.8</ele>
        <time>2022-10-16T07:13:41Z</time>
      </trkpt>
      <trkpt lat="46.82666" lon="0.38042">
        <ele>111.6</ele>
        <time>2022-10-16T07:13:46Z</time>
      </trkpt>
      <trkpt lat="46.82709" lon="0.38043">
        <ele>110.8</ele>
        <time>2022-10-16T07:13:53Z</time>
      </trkpt>
      <trkpt lat="46.82721" lon="0.38044">
        <ele>110.8</ele>
        <time>2022-10-16T07:13:55Z</time>
      </trkpt>
      <trkpt lat="46.82769" lon="0.38051">
        <ele>110.8</ele>
        <time>2022-10-16T07:14:03Z</time>
      </trkpt>
      <trkpt lat="46.8282" lon="0.38061">
        <ele>110.8</ele>
        <time>2022-10-16T07:14:12Z</time>
      </trkpt>
      <trkpt lat="46.82866" lon="0.38074">
        <ele>111</ele>
        <time>2022-10-16T07:14:20Z</time>
      </trkpt>
      <trkpt lat="46.82906" lon="0.38098">
        <ele>110.6</ele>
        <time>2022-10-16T07:14:27Z</time>
      </trkpt>
      <trkpt lat="46.8295" lon="0.38134">
        <ele>109.8</ele>
        <time>2022-10-16T07:14:35Z</time>
      </trkpt>
      <trkpt lat="46.82955" lon="0.38139">
        <ele>109.8</ele>
        <time>2022-10-16T07:14:36Z</time>
      </trkpt>
      <trkpt lat="46.82983" lon="0.38168">
        <ele>109.8</ele>
        <time>2022-10-16T07:14:42Z</time>
      </trkpt>
      <trkpt lat="46.82987" lon="0.38174">
        <ele>109.8</ele>
        <time>2022-10-16T07:14:43Z</time>
      </trkpt>
      <trkpt lat="46.8299" lon="0.3818">
        <ele>109.8</ele>
        <time>2022-10-16T07:14:44Z</time>
      </trkpt>
      <trkpt lat="46.83003" lon="0.38207">
        <ele>109.6</ele>
        <time>2022-10-16T07:14:48Z</time>
      </trkpt>
      <trkpt lat="46.83033" lon="0.38265">
        <ele>109.8</ele>
        <time>2022-10-16T07:14:57Z</time>
      </trkpt>
      <trkpt lat="46.83053" lon="0.38302">
        <ele>110</ele>
        <time>2022-10-16T07:15:04Z</time>
      </trkpt>
      <trkpt lat="46.8307" lon="0.38346">
        <ele>110.4</ele>
        <time>2022-10-16T07:15:12Z</time>
      </trkpt>
      <trkpt lat="46.83081" lon="0.38366">
        <ele>110.6</ele>
        <time>2022-10-16T07:15:16Z</time>
      </trkpt>
      <trkpt lat="46.83087" lon="0.38375">
        <ele>110.6</ele>
        <time>2022-10-16T07:15:18Z</time>
      </trkpt>
      <trkpt lat="46.83095" lon="0.38383">
        <ele>110.8</ele>
        <time>2022-10-16T07:15:20Z</time>
      </trkpt>
      <trkpt lat="46.83119" lon="0.38407">
        <ele>111</ele>
        <time>2022-10-16T07:15:26Z</time>
      </trkpt>
      <trkpt lat="46.83152" lon="0.38439">
        <ele>111</ele>
        <time>2022-10-16T07:15:34Z</time>
      </trkpt>
      <trkpt lat="46.83163" lon="0.3845">
        <ele>111</ele>
        <time>2022-10-16T07:15:37Z</time>
      </trkpt>
      <trkpt lat="46.83166" lon="0.38461">
        <ele>111</ele>
        <time>2022-10-16T07:15:39Z</time>
      </trkpt>
      <trkpt lat="46.83165" lon="0.38471">
        <ele>111</ele>
        <time>2022-10-16T07:15:41Z</time>
      </trkpt>
      <trkpt lat="46.83162" lon="0.38482">
        <ele>111.2</ele>
        <time>2022-10-16T07:15:43Z</time>
      </trkpt>
      <trkpt lat="46.83144" lon="0.38537">
        <ele>111.8</ele>
        <time>2022-10-16T07:15:53Z</time>
      </trkpt>
      <trkpt lat="46.83133" lon="0.38571">
        <ele>113</ele>
        <time>2022-10-16T07:15:59Z</time>
      </trkpt>
      <trkpt lat="46.8313" lon="0.38582">
        <ele>113</ele>
        <time>2022-10-16T07:16:01Z</time>
      </trkpt>
      <trkpt lat="46.83113" lon="0.38634">
        <ele>113.6</ele>
        <time>2022-10-16T07:16:10Z</time>
      </trkpt>
      <trkpt lat="46.83111" lon="0.3864">
        <ele>114.2</ele>
        <time>2022-10-16T07:16:11Z</time>
      </trkpt>
      <trkpt lat="46.83099" lon="0.38679">
        <ele>115</ele>
        <time>2022-10-16T07:16:18Z</time>
      </trkpt>
      <trkpt lat="46.83096" lon="0.38689">
        <ele>115.4</ele>
        <time>2022-10-16T07:16:20Z</time>
      </trkpt>
      <trkpt lat="46.8309" lon="0.38714">
        <ele>116.6</ele>
        <time>2022-10-16T07:16:25Z</time>
      </trkpt>
      <trkpt lat="46.83089" lon="0.38718">
        <ele>117</ele>
        <time>2022-10-16T07:16:26Z</time>
      </trkpt>
      <trkpt lat="46.83086" lon="0.38743">
        <ele>117.6</ele>
        <time>2022-10-16T07:16:32Z</time>
      </trkpt>
      <trkpt lat="46.83098" lon="0.38751">
        <ele>118.2</ele>
        <time>2022-10-16T07:16:36Z</time>
      </trkpt>
      <trkpt lat="46.83118" lon="0.38758">
        <ele>118.2</ele>
        <time>2022-10-16T07:16:42Z</time>
      </trkpt>
      <trkpt lat="46.83146" lon="0.38767">
        <ele>118.6</ele>
        <time>2022-10-16T07:16:50Z</time>
      </trkpt>
      <trkpt lat="46.8315" lon="0.38767">
        <ele>118.8</ele>
        <time>2022-10-16T07:16:51Z</time>
      </trkpt>
      <trkpt lat="46.8318" lon="0.38775">
        <ele>118.8</ele>
        <time>2022-10-16T07:16:58Z</time>
      </trkpt>
      <trkpt lat="46.83218" lon="0.38787">
        <ele>119.2</ele>
        <time>2022-10-16T07:17:07Z</time>
      </trkpt>
      <trkpt lat="46.83243" lon="0.38798">
        <ele>120.2</ele>
        <time>2022-10-16T07:17:14Z</time>
      </trkpt>
      <trkpt lat="46.83247" lon="0.388">
        <ele>121</ele>
        <time>2022-10-16T07:17:15Z</time>
      </trkpt>
      <trkpt lat="46.8325" lon="0.38801">
        <ele>121.6</ele>
        <time>2022-10-16T07:17:16Z</time>
      </trkpt>
      <trkpt lat="46.83264" lon="0.38807">
        <ele>122.6</ele>
        <time>2022-10-16T07:17:21Z</time>
      </trkpt>
      <trkpt lat="46.83282" lon="0.38814">
        <ele>123.8</ele>
        <time>2022-10-16T07:17:27Z</time>
      </trkpt>
      <trkpt lat="46.83288" lon="0.38816">
        <ele>124</ele>
        <time>2022-10-16T07:17:29Z</time>
      </trkpt>
      <trkpt lat="46.833" lon="0.3882">
        <ele>124.8</ele>
        <time>2022-10-16T07:17:33Z</time>
      </trkpt>
      <trkpt lat="46.83309" lon="0.38822">
        <ele>124.4</ele>
        <time>2022-10-16T07:17:37Z</time>
      </trkpt>
      <trkpt lat="46.83329" lon="0.38823">
        <ele>124</ele>
        <time>2022-10-16T07:17:43Z</time>
      </trkpt>
      <trkpt lat="46.83346" lon="0.38826">
        <ele>123.8</ele>
        <time>2022-10-16T07:17:48Z</time>
      </trkpt>
      <trkpt lat="46.83354" lon="0.38827">
        <ele>123.4</ele>
        <time>2022-10-16T07:17:50Z</time>
      </trkpt>
      <trkpt lat="46.83373" lon="0.38828">
        <ele>122.4</ele>
        <time>2022-10-16T07:17:53Z</time>
      </trkpt>
      <trkpt lat="46.8338" lon="0.38829">
        <ele>122</ele>
        <time>2022-10-16T07:17:54Z</time>
      </trkpt>
      <trkpt lat="46.83395" lon="0.3883">
        <ele>121</ele>
        <time>2022-10-16T07:17:56Z</time>
      </trkpt>
      <trkpt lat="46.83427" lon="0.38833">
        <ele>119.4</ele>
        <time>2022-10-16T07:18:00Z</time>
      </trkpt>
      <trkpt lat="46.83452" lon="0.38836">
        <ele>118.2</ele>
        <time>2022-10-16T07:18:03Z</time>
      </trkpt>
      <trkpt lat="46.83468" lon="0.38837">
        <ele>117</ele>
        <time>2022-10-16T07:18:05Z</time>
      </trkpt>
      <trkpt lat="46.83483" lon="0.38838">
        <ele>115.8</ele>
        <time>2022-10-16T07:18:07Z</time>
      </trkpt>
      <trkpt lat="46.83518" lon="0.38841">
        <ele>114.4</ele>
        <time>2022-10-16T07:18:12Z</time>
      </trkpt>
      <trkpt lat="46.83524" lon="0.38842">
        <ele>114</ele>
        <time>2022-10-16T07:18:13Z</time>
      </trkpt>
      <trkpt lat="46.8356" lon="0.38852">
        <ele>113.4</ele>
        <time>2022-10-16T07:18:20Z</time>
      </trkpt>
      <trkpt lat="46.83573" lon="0.3885">
        <ele>113.6</ele>
        <time>2022-10-16T07:18:23Z</time>
      </trkpt>
      <trkpt lat="46.83581" lon="0.38846">
        <ele>113.6</ele>
        <time>2022-10-16T07:18:25Z</time>
      </trkpt>
      <trkpt lat="46.83584" lon="0.38846">
        <ele>113.6</ele>
        <time>2022-10-16T07:18:26Z</time>
      </trkpt>
      <trkpt lat="46.83589" lon="0.38849">
        <ele>113.6</ele>
        <time>2022-10-16T07:18:28Z</time>
      </trkpt>
      <trkpt lat="46.83599" lon="0.3886">
        <ele>113.4</ele>
        <time>2022-10-16T07:18:32Z</time>
      </trkpt>
      <trkpt lat="46.83612" lon="0.38869">
        <ele>114</ele>
        <time>2022-10-16T07:18:37Z</time>
      </trkpt>
      <trkpt lat="46.83613" lon="0.38876">
        <ele>114</ele>
        <time>2022-10-16T07:18:39Z</time>
      </trkpt>
      <trkpt lat="46.83611" lon="0.38886">
        <ele>114</ele>
        <time>2022-10-16T07:18:41Z</time>
      </trkpt>
      <trkpt lat="46.83608" lon="0.38908">
        <ele>113.8</ele>
        <time>2022-10-16T07:18:47Z</time>
      </trkpt>
      <trkpt lat="46.83601" lon="0.38976">
        <ele>114</ele>
        <time>2022-10-16T07:19:00Z</time>
      </trkpt>
      <trkpt lat="46.83605" lon="0.38974">
        <ele>114</ele>
        <time>2022-10-16T07:19:01Z</time>
      </trkpt>
      <trkpt lat="46.83608" lon="0.38975">
        <ele>114</ele>
        <time>2022-10-16T07:19:02Z</time>
      </trkpt>
      <trkpt lat="46.83614" lon="0.38977">
        <ele>114.2</ele>
        <time>2022-10-16T07:19:04Z</time>
      </trkpt>
      <trkpt lat="46.83616" lon="0.38979">
        <ele>114.4</ele>
        <time>2022-10-16T07:19:05Z</time>
      </trkpt>
      <trkpt lat="46.83619" lon="0.38987">
        <ele>115.6</ele>
        <time>2022-10-16T07:19:08Z</time>
      </trkpt>
      <trkpt lat="46.8362" lon="0.38997">
        <ele>116</ele>
        <time>2022-10-16T07:19:11Z</time>
      </trkpt>
      <trkpt lat="46.8362" lon="0.39001">
        <ele>116</ele>
        <time>2022-10-16T07:19:12Z</time>
      </trkpt>
      <trkpt lat="46.83617" lon="0.39012">
        <ele>116</ele>
        <time>2022-10-16T07:19:15Z</time>
      </trkpt>
      <trkpt lat="46.83619" lon="0.39037">
        <ele>116.6</ele>
        <time>2022-10-16T07:19:20Z</time>
      </trkpt>
      <trkpt lat="46.8362" lon="0.39042">
        <ele>116.6</ele>
        <time>2022-10-16T07:19:21Z</time>
      </trkpt>
      <trkpt lat="46.83626" lon="0.39068">
        <ele>117.4</ele>
        <time>2022-10-16T07:19:26Z</time>
      </trkpt>
      <trkpt lat="46.83629" lon="0.39079">
        <ele>117.8</ele>
        <time>2022-10-16T07:19:28Z</time>
      </trkpt>
      <trkpt lat="46.83636" lon="0.3911">
        <ele>118.8</ele>
        <time>2022-10-16T07:19:34Z</time>
      </trkpt>
      <trkpt lat="46.83639" lon="0.39126">
        <ele>119</ele>
        <time>2022-10-16T07:19:37Z</time>
      </trkpt>
      <trkpt lat="46.83645" lon="0.39147">
        <ele>119.8</ele>
        <time>2022-10-16T07:19:41Z</time>
      </trkpt>
      <trkpt lat="46.83646" lon="0.39152">
        <ele>120</ele>
        <time>2022-10-16T07:19:42Z</time>
      </trkpt>
      <trkpt lat="46.83648" lon="0.39175">
        <ele>121</ele>
        <time>2022-10-16T07:19:46Z</time>
      </trkpt>
      <trkpt lat="46.83649" lon="0.39198">
        <ele>121.4</ele>
        <time>2022-10-16T07:19:50Z</time>
      </trkpt>
      <trkpt lat="46.83648" lon="0.39237">
        <ele>122</ele>
        <time>2022-10-16T07:19:56Z</time>
      </trkpt>
      <trkpt lat="46.83647" lon="0.39256">
        <ele>122</ele>
        <time>2022-10-16T07:19:59Z</time>
      </trkpt>
      <trkpt lat="46.83645" lon="0.39298">
        <ele>122.8</ele>
        <time>2022-10-16T07:20:06Z</time>
      </trkpt>
      <trkpt lat="46.83645" lon="0.39309">
        <ele>123.2</ele>
        <time>2022-10-16T07:20:08Z</time>
      </trkpt>
      <trkpt lat="46.83643" lon="0.39346">
        <ele>123.6</ele>
        <time>2022-10-16T07:20:15Z</time>
      </trkpt>
      <trkpt lat="46.83642" lon="0.39363">
        <ele>124.6</ele>
        <time>2022-10-16T07:20:18Z</time>
      </trkpt>
      <trkpt lat="46.8364" lon="0.39386">
        <ele>125.6</ele>
        <time>2022-10-16T07:20:22Z</time>
      </trkpt>
      <trkpt lat="46.8364" lon="0.39391">
        <ele>125.6</ele>
        <time>2022-10-16T07:20:23Z</time>
      </trkpt>
      <trkpt lat="46.83639" lon="0.39413">
        <ele>126.6</ele>
        <time>2022-10-16T07:20:27Z</time>
      </trkpt>
      <trkpt lat="46.8364" lon="0.3944">
        <ele>127.8</ele>
        <time>2022-10-16T07:20:32Z</time>
      </trkpt>
      <trkpt lat="46.8364" lon="0.39445">
        <ele>128</ele>
        <time>2022-10-16T07:20:33Z</time>
      </trkpt>
      <trkpt lat="46.83641" lon="0.39475">
        <ele>129</ele>
        <time>2022-10-16T07:20:39Z</time>
      </trkpt>
      <trkpt lat="46.83642" lon="0.39491">
        <ele>129.4</ele>
        <time>2022-10-16T07:20:42Z</time>
      </trkpt>
      <trkpt lat="46.83644" lon="0.39544">
        <ele>130.2</ele>
        <time>2022-10-16T07:20:52Z</time>
      </trkpt>
      <trkpt lat="46.83644" lon="0.39549">
        <ele>130.4</ele>
        <time>2022-10-16T07:20:53Z</time>
      </trkpt>
      <trkpt lat="46.83644" lon="0.39581">
        <ele>131.4</ele>
        <time>2022-10-16T07:21:00Z</time>
      </trkpt>
      <trkpt lat="46.83644" lon="0.39588">
        <ele>131.8</ele>
        <time>2022-10-16T07:21:02Z</time>
      </trkpt>
      <trkpt lat="46.83643" lon="0.39593">
        <ele>132</ele>
        <time>2022-10-16T07:21:04Z</time>
      </trkpt>
      <trkpt lat="46.83642" lon="0.39601">
        <ele>132.2</ele>
        <time>2022-10-16T07:21:07Z</time>
      </trkpt>
      <trkpt lat="46.83644" lon="0.39617">
        <ele>132.4</ele>
        <time>2022-10-16T07:21:11Z</time>
      </trkpt>
      <trkpt lat="46.83644" lon="0.39626">
        <ele>132.6</ele>
        <time>2022-10-16T07:21:13Z</time>
      </trkpt>
      <trkpt lat="46.83646" lon="0.39657">
        <ele>133</ele>
        <time>2022-10-16T07:21:19Z</time>
      </trkpt>
      <trkpt lat="46.83643" lon="0.3968">
        <ele>133.6</ele>
        <time>2022-10-16T07:21:24Z</time>
      </trkpt>
      <trkpt lat="46.83642" lon="0.39683">
        <ele>133.8</ele>
        <time>2022-10-16T07:21:25Z</time>
      </trkpt>
      <trkpt lat="46.83638" lon="0.39699">
        <ele>134.4</ele>
        <time>2022-10-16T07:21:29Z</time>
      </trkpt>
      <trkpt lat="46.83634" lon="0.39707">
        <ele>134.6</ele>
        <time>2022-10-16T07:21:31Z</time>
      </trkpt>
      <trkpt lat="46.8362" lon="0.39734">
        <ele>135</ele>
        <time>2022-10-16T07:21:37Z</time>
      </trkpt>
      <trkpt lat="46.83606" lon="0.39762">
        <ele>135.8</ele>
        <time>2022-10-16T07:21:44Z</time>
      </trkpt>
      <trkpt lat="46.83602" lon="0.39769">
        <ele>135.8</ele>
        <time>2022-10-16T07:21:46Z</time>
      </trkpt>
      <trkpt lat="46.83588" lon="0.39808">
        <ele>136.6</ele>
        <time>2022-10-16T07:21:56Z</time>
      </trkpt>
      <trkpt lat="46.83586" lon="0.39816">
        <ele>137</ele>
        <time>2022-10-16T07:21:58Z</time>
      </trkpt>
      <trkpt lat="46.8358" lon="0.39847">
        <ele>138.2</ele>
        <time>2022-10-16T07:22:05Z</time>
      </trkpt>
      <trkpt lat="46.83573" lon="0.39872">
        <ele>139.2</ele>
        <time>2022-10-16T07:22:11Z</time>
      </trkpt>
      <trkpt lat="46.83569" lon="0.39884">
        <ele>139.6</ele>
        <time>2022-10-16T07:22:14Z</time>
      </trkpt>
      <trkpt lat="46.83565" lon="0.39899">
        <ele>140.2</ele>
        <time>2022-10-16T07:22:18Z</time>
      </trkpt>
      <trkpt lat="46.83562" lon="0.3991">
        <ele>140.8</ele>
        <time>2022-10-16T07:22:21Z</time>
      </trkpt>
      <trkpt lat="46.8356" lon="0.39919">
        <ele>141.4</ele>
        <time>2022-10-16T07:22:24Z</time>
      </trkpt>
      <trkpt lat="46.83555" lon="0.39933">
        <ele>142.2</ele>
        <time>2022-10-16T07:22:28Z</time>
      </trkpt>
      <trkpt lat="46.83553" lon="0.39942">
        <ele>142.6</ele>
        <time>2022-10-16T07:22:30Z</time>
      </trkpt>
      <trkpt lat="46.83548" lon="0.39962">
        <ele>143</ele>
        <time>2022-10-16T07:22:35Z</time>
      </trkpt>
      <trkpt lat="46.83543" lon="0.39975">
        <ele>143.6</ele>
        <time>2022-10-16T07:22:39Z</time>
      </trkpt>
      <trkpt lat="46.83539" lon="0.39983">
        <ele>143.8</ele>
        <time>2022-10-16T07:22:42Z</time>
      </trkpt>
      <trkpt lat="46.83528" lon="0.40004">
        <ele>144.6</ele>
        <time>2022-10-16T07:22:50Z</time>
      </trkpt>
      <trkpt lat="46.83527" lon="0.40006">
        <ele>144.6</ele>
        <time>2022-10-16T07:22:51Z</time>
      </trkpt>
      <trkpt lat="46.83526" lon="0.40008">
        <ele>144.8</ele>
        <time>2022-10-16T07:22:52Z</time>
      </trkpt>
      <trkpt lat="46.83525" lon="0.4001">
        <ele>144.8</ele>
        <time>2022-10-16T07:22:56Z</time>
      </trkpt>
      <trkpt lat="46.83524" lon="0.40014">
        <ele>145</ele>
        <time>2022-10-16T07:23:02Z</time>
      </trkpt>
      <trkpt lat="46.83521" lon="0.40016">
        <ele>145.2</ele>
        <time>2022-10-16T07:29:05Z</time>
      </trkpt>
      <trkpt lat="46.8352" lon="0.40016">
        <ele>145.2</ele>
        <time>2022-10-16T07:29:13Z</time>
      </trkpt>
      <trkpt lat="46.83516" lon="0.40022">
        <ele>145.4</ele>
        <time>2022-10-16T07:29:21Z</time>
      </trkpt>
      <trkpt lat="46.83515" lon="0.40025">
        <ele>145.6</ele>
        <time>2022-10-16T07:29:23Z</time>
      </trkpt>
      <trkpt lat="46.83506" lon="0.40037">
        <ele>146.4</ele>
        <time>2022-10-16T07:29:29Z</time>
      </trkpt>
      <trkpt lat="46.83494" lon="0.40059">
        <ele>146.6</ele>
        <time>2022-10-16T07:29:36Z</time>
      </trkpt>
      <trkpt lat="46.83492" lon="0.40063">
        <ele>146.8</ele>
        <time>2022-10-16T07:29:37Z</time>
      </trkpt>
      <trkpt lat="46.83475" lon="0.40091">
        <ele>147.8</ele>
        <time>2022-10-16T07:29:44Z</time>
      </trkpt>
      <trkpt lat="46.83474" lon="0.40095">
        <ele>147.8</ele>
        <time>2022-10-16T07:29:45Z</time>
      </trkpt>
      <trkpt lat="46.83462" lon="0.40127">
        <ele>148.2</ele>
        <time>2022-10-16T07:29:52Z</time>
      </trkpt>
      <trkpt lat="46.83454" lon="0.40147">
        <ele>148.6</ele>
        <time>2022-10-16T07:29:57Z</time>
      </trkpt>
      <trkpt lat="46.83452" lon="0.40151">
        <ele>149</ele>
        <time>2022-10-16T07:29:58Z</time>
      </trkpt>
      <trkpt lat="46.83449" lon="0.40165">
        <ele>149.4</ele>
        <time>2022-10-16T07:30:02Z</time>
      </trkpt>
      <trkpt lat="46.83447" lon="0.40173">
        <ele>149.6</ele>
        <time>2022-10-16T07:30:04Z</time>
      </trkpt>
      <trkpt lat="46.83436" lon="0.40216">
        <ele>150</ele>
        <time>2022-10-16T07:30:12Z</time>
      </trkpt>
      <trkpt lat="46.83434" lon="0.40222">
        <ele>150</ele>
        <time>2022-10-16T07:30:13Z</time>
      </trkpt>
      <trkpt lat="46.83423" lon="0.40247">
        <ele>149.2</ele>
        <time>2022-10-16T07:30:17Z</time>
      </trkpt>
      <trkpt lat="46.83414" lon="0.40266">
        <ele>148.8</ele>
        <time>2022-10-16T07:30:20Z</time>
      </trkpt>
      <trkpt lat="46.83402" lon="0.403">
        <ele>148.4</ele>
        <time>2022-10-16T07:30:24Z</time>
      </trkpt>
      <trkpt lat="46.83397" lon="0.40315">
        <ele>147.4</ele>
        <time>2022-10-16T07:30:26Z</time>
      </trkpt>
      <trkpt lat="46.83393" lon="0.4033">
        <ele>147</ele>
        <time>2022-10-16T07:30:28Z</time>
      </trkpt>
      <trkpt lat="46.83381" lon="0.40362">
        <ele>147</ele>
        <time>2022-10-16T07:30:34Z</time>
      </trkpt>
      <trkpt lat="46.83378" lon="0.40371">
        <ele>147.4</ele>
        <time>2022-10-16T07:30:37Z</time>
      </trkpt>
      <trkpt lat="46.83373" lon="0.40381">
        <ele>147.6</ele>
        <time>2022-10-16T07:30:40Z</time>
      </trkpt>
      <trkpt lat="46.83367" lon="0.40409">
        <ele>148.2</ele>
        <time>2022-10-16T07:30:46Z</time>
      </trkpt>
      <trkpt lat="46.83365" lon="0.40419">
        <ele>148.4</ele>
        <time>2022-10-16T07:30:48Z</time>
      </trkpt>
      <trkpt lat="46.83359" lon="0.40452">
        <ele>149.4</ele>
        <time>2022-10-16T07:30:54Z</time>
      </trkpt>
      <trkpt lat="46.83358" lon="0.40457">
        <ele>149.8</ele>
        <time>2022-10-16T07:30:55Z</time>
      </trkpt>
      <trkpt lat="46.83357" lon="0.40481">
        <ele>150.2</ele>
        <time>2022-10-16T07:30:59Z</time>
      </trkpt>
      <trkpt lat="46.83356" lon="0.40485">
        <ele>150.2</ele>
        <time>2022-10-16T07:31:00Z</time>
      </trkpt>
      <trkpt lat="46.83348" lon="0.40511">
        <ele>149.4</ele>
        <time>2022-10-16T07:31:05Z</time>
      </trkpt>
      <trkpt lat="46.83345" lon="0.40517">
        <ele>149.4</ele>
        <time>2022-10-16T07:31:06Z</time>
      </trkpt>
      <trkpt lat="46.83329" lon="0.40549">
        <ele>149.6</ele>
        <time>2022-10-16T07:31:12Z</time>
      </trkpt>
      <trkpt lat="46.83321" lon="0.40565">
        <ele>149.2</ele>
        <time>2022-10-16T07:31:15Z</time>
      </trkpt>
      <trkpt lat="46.83314" lon="0.40579">
        <ele>149</ele>
        <time>2022-10-16T07:31:17Z</time>
      </trkpt>
      <trkpt lat="46.83312" lon="0.40593">
        <ele>149</ele>
        <time>2022-10-16T07:31:19Z</time>
      </trkpt>
      <trkpt lat="46.8331" lon="0.4061">
        <ele>149.2</ele>
        <time>2022-10-16T07:31:21Z</time>
      </trkpt>
      <trkpt lat="46.83302" lon="0.40664">
        <ele>150</ele>
        <time>2022-10-16T07:31:28Z</time>
      </trkpt>
      <trkpt lat="46.83297" lon="0.40684">
        <ele>151.2</ele>
        <time>2022-10-16T07:31:32Z</time>
      </trkpt>
      <trkpt lat="46.83293" lon="0.407">
        <ele>152.2</ele>
        <time>2022-10-16T07:31:35Z</time>
      </trkpt>
      <trkpt lat="46.83292" lon="0.40705">
        <ele>152.4</ele>
        <time>2022-10-16T07:31:36Z</time>
      </trkpt>
      <trkpt lat="46.83287" lon="0.4073">
        <ele>153.6</ele>
        <time>2022-10-16T07:31:41Z</time>
      </trkpt>
      <trkpt lat="46.83286" lon="0.40734">
        <ele>154</ele>
        <time>2022-10-16T07:31:42Z</time>
      </trkpt>
      <trkpt lat="46.83285" lon="0.4074">
        <ele>154.6</ele>
        <time>2022-10-16T07:31:44Z</time>
      </trkpt>
      <trkpt lat="46.83282" lon="0.40753">
        <ele>155.4</ele>
        <time>2022-10-16T07:31:47Z</time>
      </trkpt>
      <trkpt lat="46.83279" lon="0.40762">
        <ele>155.8</ele>
        <time>2022-10-16T07:31:49Z</time>
      </trkpt>
      <trkpt lat="46.83274" lon="0.40778">
        <ele>157.2</ele>
        <time>2022-10-16T07:31:53Z</time>
      </trkpt>
      <trkpt lat="46.83273" lon="0.40781">
        <ele>157.6</ele>
        <time>2022-10-16T07:31:54Z</time>
      </trkpt>
      <trkpt lat="46.8327" lon="0.40798">
        <ele>158.2</ele>
        <time>2022-10-16T07:31:58Z</time>
      </trkpt>
      <trkpt lat="46.83266" lon="0.40814">
        <ele>159</ele>
        <time>2022-10-16T07:32:01Z</time>
      </trkpt>
      <trkpt lat="46.83265" lon="0.40817">
        <ele>159.2</ele>
        <time>2022-10-16T07:32:02Z</time>
      </trkpt>
      <trkpt lat="46.83261" lon="0.40833">
        <ele>159.6</ele>
        <time>2022-10-16T07:32:07Z</time>
      </trkpt>
      <trkpt lat="46.83258" lon="0.40845">
        <ele>160.4</ele>
        <time>2022-10-16T07:32:10Z</time>
      </trkpt>
      <trkpt lat="46.83257" lon="0.40857">
        <ele>160.4</ele>
        <time>2022-10-16T07:32:13Z</time>
      </trkpt>
      <trkpt lat="46.83258" lon="0.40865">
        <ele>160.2</ele>
        <time>2022-10-16T07:32:17Z</time>
      </trkpt>
      <trkpt lat="46.83258" lon="0.40867">
        <ele>160.2</ele>
        <time>2022-10-16T07:32:18Z</time>
      </trkpt>
      <trkpt lat="46.83258" lon="0.40869">
        <ele>160.2</ele>
        <time>2022-10-16T07:32:19Z</time>
      </trkpt>
      <trkpt lat="46.83262" lon="0.40881">
        <ele>159.6</ele>
        <time>2022-10-16T07:32:23Z</time>
      </trkpt>
      <trkpt lat="46.83264" lon="0.40885">
        <ele>159.2</ele>
        <time>2022-10-16T07:32:25Z</time>
      </trkpt>
      <trkpt lat="46.83268" lon="0.40893">
        <ele>158.4</ele>
        <time>2022-10-16T07:32:28Z</time>
      </trkpt>
      <trkpt lat="46.8327" lon="0.40894">
        <ele>158.2</ele>
        <time>2022-10-16T07:32:29Z</time>
      </trkpt>
      <trkpt lat="46.83274" lon="0.40894">
        <ele>157.8</ele>
        <time>2022-10-16T07:32:31Z</time>
      </trkpt>
      <trkpt lat="46.83276" lon="0.40895">
        <ele>157.6</ele>
        <time>2022-10-16T07:32:32Z</time>
      </trkpt>
      <trkpt lat="46.83284" lon="0.40898">
        <ele>157</ele>
        <time>2022-10-16T07:32:35Z</time>
      </trkpt>
      <trkpt lat="46.83287" lon="0.40897">
        <ele>156.4</ele>
        <time>2022-10-16T07:32:37Z</time>
      </trkpt>
      <trkpt lat="46.83292" lon="0.40897">
        <ele>156</ele>
        <time>2022-10-16T07:32:39Z</time>
      </trkpt>
      <trkpt lat="46.83294" lon="0.40898">
        <ele>155.8</ele>
        <time>2022-10-16T07:32:40Z</time>
      </trkpt>
      <trkpt lat="46.83297" lon="0.409">
        <ele>154.6</ele>
        <time>2022-10-16T07:32:42Z</time>
      </trkpt>
      <trkpt lat="46.83307" lon="0.40895">
        <ele>153.6</ele>
        <time>2022-10-16T07:32:45Z</time>
      </trkpt>
      <trkpt lat="46.83311" lon="0.40894">
        <ele>153.6</ele>
        <time>2022-10-16T07:32:46Z</time>
      </trkpt>
      <trkpt lat="46.83318" lon="0.40888">
        <ele>153.4</ele>
        <time>2022-10-16T07:32:48Z</time>
      </trkpt>
      <trkpt lat="46.83323" lon="0.4088">
        <ele>152.6</ele>
        <time>2022-10-16T07:32:50Z</time>
      </trkpt>
      <trkpt lat="46.83324" lon="0.40876">
        <ele>152.2</ele>
        <time>2022-10-16T07:32:51Z</time>
      </trkpt>
      <trkpt lat="46.83326" lon="0.40872">
        <ele>151.4</ele>
        <time>2022-10-16T07:32:52Z</time>
      </trkpt>
      <trkpt lat="46.83328" lon="0.40869">
        <ele>150.4</ele>
        <time>2022-10-16T07:32:53Z</time>
      </trkpt>
      <trkpt lat="46.8333" lon="0.40867">
        <ele>149.4</ele>
        <time>2022-10-16T07:32:54Z</time>
      </trkpt>
      <trkpt lat="46.83335" lon="0.40864">
        <ele>148</ele>
        <time>2022-10-16T07:32:56Z</time>
      </trkpt>
      <trkpt lat="46.8334" lon="0.40859">
        <ele>146.8</ele>
        <time>2022-10-16T07:32:59Z</time>
      </trkpt>
      <trkpt lat="46.83342" lon="0.40858">
        <ele>146.4</ele>
        <time>2022-10-16T07:33:00Z</time>
      </trkpt>
      <trkpt lat="46.83348" lon="0.40856">
        <ele>146</ele>
        <time>2022-10-16T07:33:02Z</time>
      </trkpt>
      <trkpt lat="46.83354" lon="0.40852">
        <ele>145.4</ele>
        <time>2022-10-16T07:33:04Z</time>
      </trkpt>
      <trkpt lat="46.83362" lon="0.40847">
        <ele>143.8</ele>
        <time>2022-10-16T07:33:07Z</time>
      </trkpt>
      <trkpt lat="46.8337" lon="0.40845">
        <ele>143</ele>
        <time>2022-10-16T07:33:09Z</time>
      </trkpt>
      <trkpt lat="46.83373" lon="0.40845">
        <ele>142.6</ele>
        <time>2022-10-16T07:33:10Z</time>
      </trkpt>
      <trkpt lat="46.83384" lon="0.40843">
        <ele>141.4</ele>
        <time>2022-10-16T07:33:12Z</time>
      </trkpt>
      <trkpt lat="46.83388" lon="0.40845">
        <ele>141</ele>
        <time>2022-10-16T07:33:13Z</time>
      </trkpt>
      <trkpt lat="46.83396" lon="0.40847">
        <ele>140.2</ele>
        <time>2022-10-16T07:33:15Z</time>
      </trkpt>
      <trkpt lat="46.83403" lon="0.40846">
        <ele>139.6</ele>
        <time>2022-10-16T07:33:17Z</time>
      </trkpt>
      <trkpt lat="46.83406" lon="0.40845">
        <ele>139.2</ele>
        <time>2022-10-16T07:33:18Z</time>
      </trkpt>
      <trkpt lat="46.83411" lon="0.40845">
        <ele>139.2</ele>
        <time>2022-10-16T07:33:19Z</time>
      </trkpt>
      <trkpt lat="46.83421" lon="0.40844">
        <ele>139</ele>
        <time>2022-10-16T07:33:21Z</time>
      </trkpt>
      <trkpt lat="46.83431" lon="0.40847">
        <ele>139.2</ele>
        <time>2022-10-16T07:33:23Z</time>
      </trkpt>
      <trkpt lat="46.83456" lon="0.40853">
        <ele>140.2</ele>
        <time>2022-10-16T07:33:30Z</time>
      </trkpt>
      <trkpt lat="46.8346" lon="0.40854">
        <ele>140.2</ele>
        <time>2022-10-16T07:33:31Z</time>
      </trkpt>
      <trkpt lat="46.83474" lon="0.40867">
        <ele>140.6</ele>
        <time>2022-10-16T07:33:35Z</time>
      </trkpt>
      <trkpt lat="46.83484" lon="0.40885">
        <ele>141</ele>
        <time>2022-10-16T07:33:39Z</time>
      </trkpt>
      <trkpt lat="46.83488" lon="0.40891">
        <ele>141</ele>
        <time>2022-10-16T07:33:40Z</time>
      </trkpt>
      <trkpt lat="46.8349" lon="0.40896">
        <ele>140.8</ele>
        <time>2022-10-16T07:33:41Z</time>
      </trkpt>
      <trkpt lat="46.83492" lon="0.4091">
        <ele>139.6</ele>
        <time>2022-10-16T07:33:45Z</time>
      </trkpt>
      <trkpt lat="46.83494" lon="0.40917">
        <ele>139</ele>
        <time>2022-10-16T07:33:47Z</time>
      </trkpt>
      <trkpt lat="46.83494" lon="0.40931">
        <ele>138</ele>
        <time>2022-10-16T07:33:50Z</time>
      </trkpt>
      <trkpt lat="46.83495" lon="0.40936">
        <ele>137.8</ele>
        <time>2022-10-16T07:33:51Z</time>
      </trkpt>
      <trkpt lat="46.83497" lon="0.40945">
        <ele>137.4</ele>
        <time>2022-10-16T07:33:53Z</time>
      </trkpt>
      <trkpt lat="46.835" lon="0.40953">
        <ele>137.2</ele>
        <time>2022-10-16T07:33:55Z</time>
      </trkpt>
      <trkpt lat="46.83509" lon="0.4098">
        <ele>136.8</ele>
        <time>2022-10-16T07:34:01Z</time>
      </trkpt>
      <trkpt lat="46.83512" lon="0.40988">
        <ele>136.4</ele>
        <time>2022-10-16T07:34:03Z</time>
      </trkpt>
      <trkpt lat="46.83516" lon="0.40995">
        <ele>136</ele>
        <time>2022-10-16T07:34:05Z</time>
      </trkpt>
      <trkpt lat="46.83518" lon="0.41">
        <ele>136</ele>
        <time>2022-10-16T07:34:06Z</time>
      </trkpt>
      <trkpt lat="46.83524" lon="0.41025">
        <ele>135.4</ele>
        <time>2022-10-16T07:34:11Z</time>
      </trkpt>
      <trkpt lat="46.83525" lon="0.41031">
        <ele>135</ele>
        <time>2022-10-16T07:34:12Z</time>
      </trkpt>
      <trkpt lat="46.83531" lon="0.41044">
        <ele>134.6</ele>
        <time>2022-10-16T07:34:16Z</time>
      </trkpt>
      <trkpt lat="46.83538" lon="0.41068">
        <ele>134.2</ele>
        <time>2022-10-16T07:34:20Z</time>
      </trkpt>
      <trkpt lat="46.83541" lon="0.41075">
        <ele>134.2</ele>
        <time>2022-10-16T07:34:21Z</time>
      </trkpt>
      <trkpt lat="46.83545" lon="0.41106">
        <ele>133.4</ele>
        <time>2022-10-16T07:34:26Z</time>
      </trkpt>
      <trkpt lat="46.83547" lon="0.41112">
        <ele>133.4</ele>
        <time>2022-10-16T07:34:27Z</time>
      </trkpt>
      <trkpt lat="46.83549" lon="0.41117">
        <ele>133.2</ele>
        <time>2022-10-16T07:34:28Z</time>
      </trkpt>
      <trkpt lat="46.8355" lon="0.4112">
        <ele>133</ele>
        <time>2022-10-16T07:34:29Z</time>
      </trkpt>
      <trkpt lat="46.83556" lon="0.41128">
        <ele>132.6</ele>
        <time>2022-10-16T07:34:31Z</time>
      </trkpt>
      <trkpt lat="46.83559" lon="0.41132">
        <ele>132.8</ele>
        <time>2022-10-16T07:34:32Z</time>
      </trkpt>
      <trkpt lat="46.83561" lon="0.41134">
        <ele>132.6</ele>
        <time>2022-10-16T07:34:33Z</time>
      </trkpt>
      <trkpt lat="46.83567" lon="0.41134">
        <ele>132.6</ele>
        <time>2022-10-16T07:34:36Z</time>
      </trkpt>
      <trkpt lat="46.83585" lon="0.41149">
        <ele>132.8</ele>
        <time>2022-10-16T07:34:41Z</time>
      </trkpt>
      <trkpt lat="46.83587" lon="0.41148">
        <ele>132.8</ele>
        <time>2022-10-16T07:34:42Z</time>
      </trkpt>
      <trkpt lat="46.83594" lon="0.41148">
        <ele>132.6</ele>
        <time>2022-10-16T07:34:45Z</time>
      </trkpt>
      <trkpt lat="46.83606" lon="0.41147">
        <ele>132</ele>
        <time>2022-10-16T07:34:50Z</time>
      </trkpt>
      <trkpt lat="46.83609" lon="0.41146">
        <ele>132</ele>
        <time>2022-10-16T07:34:51Z</time>
      </trkpt>
      <trkpt lat="46.83619" lon="0.41138">
        <ele>131.8</ele>
        <time>2022-10-16T07:34:55Z</time>
      </trkpt>
      <trkpt lat="46.8362" lon="0.41137">
        <ele>131.8</ele>
        <time>2022-10-16T07:34:56Z</time>
      </trkpt>
      <trkpt lat="46.83629" lon="0.41138">
        <ele>131.4</ele>
        <time>2022-10-16T07:34:59Z</time>
      </trkpt>
      <trkpt lat="46.83635" lon="0.41141">
        <ele>131.2</ele>
        <time>2022-10-16T07:35:01Z</time>
      </trkpt>
      <trkpt lat="46.83638" lon="0.41144">
        <ele>130.8</ele>
        <time>2022-10-16T07:35:02Z</time>
      </trkpt>
      <trkpt lat="46.8364" lon="0.41147">
        <ele>130.4</ele>
        <time>2022-10-16T07:35:03Z</time>
      </trkpt>
      <trkpt lat="46.83641" lon="0.41151">
        <ele>130</ele>
        <time>2022-10-16T07:35:05Z</time>
      </trkpt>
      <trkpt lat="46.83641" lon="0.41153">
        <ele>129.8</ele>
        <time>2022-10-16T07:35:07Z</time>
      </trkpt>
      <trkpt lat="46.83636" lon="0.41156">
        <ele>130</ele>
        <time>2022-10-16T07:35:10Z</time>
      </trkpt>
      <trkpt lat="46.83626" lon="0.41166">
        <ele>130.4</ele>
        <time>2022-10-16T07:35:16Z</time>
      </trkpt>
      <trkpt lat="46.83619" lon="0.41173">
        <ele>130.2</ele>
        <time>2022-10-16T07:35:20Z</time>
      </trkpt>
      <trkpt lat="46.83618" lon="0.4118">
        <ele>130.4</ele>
        <time>2022-10-16T07:35:22Z</time>
      </trkpt>
      <trkpt lat="46.83614" lon="0.412">
        <ele>130.4</ele>
        <time>2022-10-16T07:35:27Z</time>
      </trkpt>
      <trkpt lat="46.83612" lon="0.41209">
        <ele>130.8</ele>
        <time>2022-10-16T07:35:29Z</time>
      </trkpt>
      <trkpt lat="46.83608" lon="0.41229">
        <ele>130.8</ele>
        <time>2022-10-16T07:35:33Z</time>
      </trkpt>
      <trkpt lat="46.83605" lon="0.41252">
        <ele>131.4</ele>
        <time>2022-10-16T07:35:38Z</time>
      </trkpt>
      <trkpt lat="46.83604" lon="0.41262">
        <ele>131.8</ele>
        <time>2022-10-16T07:35:41Z</time>
      </trkpt>
      <trkpt lat="46.83603" lon="0.41269">
        <ele>132.4</ele>
        <time>2022-10-16T07:35:43Z</time>
      </trkpt>
      <trkpt lat="46.83604" lon="0.41275">
        <ele>132.8</ele>
        <time>2022-10-16T07:35:45Z</time>
      </trkpt>
      <trkpt lat="46.83609" lon="0.41293">
        <ele>133.8</ele>
        <time>2022-10-16T07:35:50Z</time>
      </trkpt>
      <trkpt lat="46.8361" lon="0.41295">
        <ele>133.8</ele>
        <time>2022-10-16T07:35:51Z</time>
      </trkpt>
      <trkpt lat="46.83614" lon="0.41301">
        <ele>135</ele>
        <time>2022-10-16T07:35:54Z</time>
      </trkpt>
      <trkpt lat="46.83615" lon="0.41309">
        <ele>135.8</ele>
        <time>2022-10-16T07:35:57Z</time>
      </trkpt>
      <trkpt lat="46.83615" lon="0.41312">
        <ele>136.2</ele>
        <time>2022-10-16T07:35:58Z</time>
      </trkpt>
      <trkpt lat="46.83614" lon="0.41317">
        <ele>136.8</ele>
        <time>2022-10-16T07:36:00Z</time>
      </trkpt>
      <trkpt lat="46.83611" lon="0.41321">
        <ele>136.8</ele>
        <time>2022-10-16T07:36:02Z</time>
      </trkpt>
      <trkpt lat="46.8361" lon="0.41333">
        <ele>136.8</ele>
        <time>2022-10-16T07:36:07Z</time>
      </trkpt>
      <trkpt lat="46.8361" lon="0.41341">
        <ele>137.6</ele>
        <time>2022-10-16T07:36:10Z</time>
      </trkpt>
      <trkpt lat="46.83611" lon="0.4135">
        <ele>138.4</ele>
        <time>2022-10-16T07:36:13Z</time>
      </trkpt>
      <trkpt lat="46.83611" lon="0.41352">
        <ele>138.8</ele>
        <time>2022-10-16T07:36:14Z</time>
      </trkpt>
      <trkpt lat="46.83612" lon="0.41361">
        <ele>139.6</ele>
        <time>2022-10-16T07:36:19Z</time>
      </trkpt>
      <trkpt lat="46.83613" lon="0.41362">
        <ele>139.8</ele>
        <time>2022-10-16T07:36:20Z</time>
      </trkpt>
      <trkpt lat="46.83614" lon="0.41369">
        <ele>141.2</ele>
        <time>2022-10-16T07:36:24Z</time>
      </trkpt>
      <trkpt lat="46.83617" lon="0.41375">
        <ele>141.6</ele>
        <time>2022-10-16T07:36:27Z</time>
      </trkpt>
      <trkpt lat="46.8362" lon="0.41378">
        <ele>142.2</ele>
        <time>2022-10-16T07:36:30Z</time>
      </trkpt>
      <trkpt lat="46.83626" lon="0.41386">
        <ele>143</ele>
        <time>2022-10-16T07:36:34Z</time>
      </trkpt>
      <trkpt lat="46.83626" lon="0.41388">
        <ele>143.2</ele>
        <time>2022-10-16T07:36:35Z</time>
      </trkpt>
      <trkpt lat="46.83632" lon="0.41405">
        <ele>144.4</ele>
        <time>2022-10-16T07:36:41Z</time>
      </trkpt>
      <trkpt lat="46.83629" lon="0.41418">
        <ele>145</ele>
        <time>2022-10-16T07:36:47Z</time>
      </trkpt>
      <trkpt lat="46.83628" lon="0.41419">
        <ele>145</ele>
        <time>2022-10-16T07:36:48Z</time>
      </trkpt>
      <trkpt lat="46.83621" lon="0.41422">
        <ele>144.8</ele>
        <time>2022-10-16T07:36:52Z</time>
      </trkpt>
      <trkpt lat="46.83603" lon="0.41426">
        <ele>143.6</ele>
        <time>2022-10-16T07:36:57Z</time>
      </trkpt>
      <trkpt lat="46.836" lon="0.41426">
        <ele>143</ele>
        <time>2022-10-16T07:36:58Z</time>
      </trkpt>
      <trkpt lat="46.83593" lon="0.41428">
        <ele>141.6</ele>
        <time>2022-10-16T07:37:00Z</time>
      </trkpt>
      <trkpt lat="46.8359" lon="0.41429">
        <ele>140.6</ele>
        <time>2022-10-16T07:37:01Z</time>
      </trkpt>
      <trkpt lat="46.83588" lon="0.4143">
        <ele>139.4</ele>
        <time>2022-10-16T07:37:02Z</time>
      </trkpt>
      <trkpt lat="46.83585" lon="0.41432">
        <ele>138</ele>
        <time>2022-10-16T07:37:04Z</time>
      </trkpt>
      <trkpt lat="46.83584" lon="0.41438">
        <ele>136.8</ele>
        <time>2022-10-16T07:37:07Z</time>
      </trkpt>
      <trkpt lat="46.8358" lon="0.41456">
        <ele>136.8</ele>
        <time>2022-10-16T07:37:14Z</time>
      </trkpt>
      <trkpt lat="46.83577" lon="0.41478">
        <ele>136.8</ele>
        <time>2022-10-16T07:37:20Z</time>
      </trkpt>
      <trkpt lat="46.83571" lon="0.41501">
        <ele>137.4</ele>
        <time>2022-10-16T07:37:27Z</time>
      </trkpt>
      <trkpt lat="46.83567" lon="0.41509">
        <ele>137.8</ele>
        <time>2022-10-16T07:37:30Z</time>
      </trkpt>
      <trkpt lat="46.83567" lon="0.41512">
        <ele>138</ele>
        <time>2022-10-16T07:37:31Z</time>
      </trkpt>
      <trkpt lat="46.83567" lon="0.4152">
        <ele>138.6</ele>
        <time>2022-10-16T07:37:34Z</time>
      </trkpt>
      <trkpt lat="46.83562" lon="0.41539">
        <ele>138.6</ele>
        <time>2022-10-16T07:37:40Z</time>
      </trkpt>
      <trkpt lat="46.83558" lon="0.41563">
        <ele>138.8</ele>
        <time>2022-10-16T07:37:47Z</time>
      </trkpt>
      <trkpt lat="46.83556" lon="0.41593">
        <ele>139.8</ele>
        <time>2022-10-16T07:37:54Z</time>
      </trkpt>
      <trkpt lat="46.83557" lon="0.41596">
        <ele>140</ele>
        <time>2022-10-16T07:37:55Z</time>
      </trkpt>
      <trkpt lat="46.83559" lon="0.41613">
        <ele>140.8</ele>
        <time>2022-10-16T07:38:01Z</time>
      </trkpt>
      <trkpt lat="46.8356" lon="0.41614">
        <ele>141</ele>
        <time>2022-10-16T07:38:02Z</time>
      </trkpt>
      <trkpt lat="46.83561" lon="0.41617">
        <ele>141.4</ele>
        <time>2022-10-16T07:38:04Z</time>
      </trkpt>
      <trkpt lat="46.83565" lon="0.41623">
        <ele>142</ele>
        <time>2022-10-16T07:38:07Z</time>
      </trkpt>
      <trkpt lat="46.83568" lon="0.41639">
        <ele>142.4</ele>
        <time>2022-10-16T07:38:13Z</time>
      </trkpt>
      <trkpt lat="46.83569" lon="0.41653">
        <ele>142.6</ele>
        <time>2022-10-16T07:38:18Z</time>
      </trkpt>
      <trkpt lat="46.83569" lon="0.41669">
        <ele>142</ele>
        <time>2022-10-16T07:38:24Z</time>
      </trkpt>
      <trkpt lat="46.83568" lon="0.41679">
        <ele>142.2</ele>
        <time>2022-10-16T07:38:27Z</time>
      </trkpt>
      <trkpt lat="46.83567" lon="0.41688">
        <ele>143.2</ele>
        <time>2022-10-16T07:38:30Z</time>
      </trkpt>
      <trkpt lat="46.83567" lon="0.41692">
        <ele>143.4</ele>
        <time>2022-10-16T07:38:31Z</time>
      </trkpt>
      <trkpt lat="46.83567" lon="0.41705">
        <ele>143.8</ele>
        <time>2022-10-16T07:38:35Z</time>
      </trkpt>
      <trkpt lat="46.83568" lon="0.4171">
        <ele>144</ele>
        <time>2022-10-16T07:38:37Z</time>
      </trkpt>
      <trkpt lat="46.83568" lon="0.41717">
        <ele>144.2</ele>
        <time>2022-10-16T07:38:40Z</time>
      </trkpt>
      <trkpt lat="46.83569" lon="0.41719">
        <ele>144.4</ele>
        <time>2022-10-16T07:38:41Z</time>
      </trkpt>
      <trkpt lat="46.83569" lon="0.41733">
        <ele>145.2</ele>
        <time>2022-10-16T07:38:46Z</time>
      </trkpt>
      <trkpt lat="46.83569" lon="0.41736">
        <ele>145.2</ele>
        <time>2022-10-16T07:38:47Z</time>
      </trkpt>
      <trkpt lat="46.83575" lon="0.41746">
        <ele>145.2</ele>
        <time>2022-10-16T07:38:53Z</time>
      </trkpt>
      <trkpt lat="46.83575" lon="0.41748">
        <ele>145.2</ele>
        <time>2022-10-16T07:38:54Z</time>
      </trkpt>
      <trkpt lat="46.83578" lon="0.41752">
        <ele>145.6</ele>
        <time>2022-10-16T07:38:57Z</time>
      </trkpt>
      <trkpt lat="46.83582" lon="0.41758">
        <ele>145.8</ele>
        <time>2022-10-16T07:39:01Z</time>
      </trkpt>
      <trkpt lat="46.83587" lon="0.41764">
        <ele>146.2</ele>
        <time>2022-10-16T07:39:04Z</time>
      </trkpt>
      <trkpt lat="46.83589" lon="0.41765">
        <ele>146.4</ele>
        <time>2022-10-16T07:39:05Z</time>
      </trkpt>
      <trkpt lat="46.83594" lon="0.41767">
        <ele>146.8</ele>
        <time>2022-10-16T07:39:08Z</time>
      </trkpt>
      <trkpt lat="46.83595" lon="0.41769">
        <ele>147</ele>
        <time>2022-10-16T07:39:09Z</time>
      </trkpt>
      <trkpt lat="46.83603" lon="0.41784">
        <ele>147.8</ele>
        <time>2022-10-16T07:39:15Z</time>
      </trkpt>
      <trkpt lat="46.83609" lon="0.41794">
        <ele>148.8</ele>
        <time>2022-10-16T07:39:21Z</time>
      </trkpt>
      <trkpt lat="46.83612" lon="0.41797">
        <ele>149.4</ele>
        <time>2022-10-16T07:39:23Z</time>
      </trkpt>
      <trkpt lat="46.83613" lon="0.41801">
        <ele>150</ele>
        <time>2022-10-16T07:39:26Z</time>
      </trkpt>
      <trkpt lat="46.83614" lon="0.41802">
        <ele>150.2</ele>
        <time>2022-10-16T07:39:27Z</time>
      </trkpt>
      <trkpt lat="46.83617" lon="0.41807">
        <ele>150.2</ele>
        <time>2022-10-16T07:39:29Z</time>
      </trkpt>
      <trkpt lat="46.83617" lon="0.41809">
        <ele>150.4</ele>
        <time>2022-10-16T07:39:30Z</time>
      </trkpt>
      <trkpt lat="46.83625" lon="0.41819">
        <ele>151</ele>
        <time>2022-10-16T07:39:38Z</time>
      </trkpt>
      <trkpt lat="46.83627" lon="0.41823">
        <ele>151.6</ele>
        <time>2022-10-16T07:39:41Z</time>
      </trkpt>
      <trkpt lat="46.83628" lon="0.41826">
        <ele>152.2</ele>
        <time>2022-10-16T07:39:43Z</time>
      </trkpt>
      <trkpt lat="46.83629" lon="0.41829">
        <ele>153.2</ele>
        <time>2022-10-16T07:39:46Z</time>
      </trkpt>
      <trkpt lat="46.83629" lon="0.41831">
        <ele>153.4</ele>
        <time>2022-10-16T07:39:47Z</time>
      </trkpt>
      <trkpt lat="46.8363" lon="0.41832">
        <ele>153.6</ele>
        <time>2022-10-16T07:39:48Z</time>
      </trkpt>
      <trkpt lat="46.8363" lon="0.41837">
        <ele>154</ele>
        <time>2022-10-16T07:39:51Z</time>
      </trkpt>
      <trkpt lat="46.83629" lon="0.41841">
        <ele>154.2</ele>
        <time>2022-10-16T07:39:53Z</time>
      </trkpt>
      <trkpt lat="46.83628" lon="0.41843">
        <ele>154.6</ele>
        <time>2022-10-16T07:39:54Z</time>
      </trkpt>
      <trkpt lat="46.83627" lon="0.41844">
        <ele>154.6</ele>
        <time>2022-10-16T07:39:55Z</time>
      </trkpt>
      <trkpt lat="46.83623" lon="0.41845">
        <ele>154.8</ele>
        <time>2022-10-16T07:39:58Z</time>
      </trkpt>
      <trkpt lat="46.83622" lon="0.41847">
        <ele>154.8</ele>
        <time>2022-10-16T07:39:59Z</time>
      </trkpt>
      <trkpt lat="46.83606" lon="0.41856">
        <ele>154.4</ele>
        <time>2022-10-16T07:40:07Z</time>
      </trkpt>
      <trkpt lat="46.83596" lon="0.41862">
        <ele>154.4</ele>
        <time>2022-10-16T07:40:12Z</time>
      </trkpt>
      <trkpt lat="46.83582" lon="0.41868">
        <ele>154.6</ele>
        <time>2022-10-16T07:40:18Z</time>
      </trkpt>
      <trkpt lat="46.8357" lon="0.41877">
        <ele>155</ele>
        <time>2022-10-16T07:40:24Z</time>
      </trkpt>
      <trkpt lat="46.83569" lon="0.41878">
        <ele>155.6</ele>
        <time>2022-10-16T07:40:25Z</time>
      </trkpt>
      <trkpt lat="46.83564" lon="0.41884">
        <ele>156.6</ele>
        <time>2022-10-16T07:40:29Z</time>
      </trkpt>
      <trkpt lat="46.83562" lon="0.41885">
        <ele>156.8</ele>
        <time>2022-10-16T07:40:30Z</time>
      </trkpt>
      <trkpt lat="46.83561" lon="0.41886">
        <ele>156.8</ele>
        <time>2022-10-16T07:40:31Z</time>
      </trkpt>
      <trkpt lat="46.83548" lon="0.41896">
        <ele>157.8</ele>
        <time>2022-10-16T07:40:38Z</time>
      </trkpt>
      <trkpt lat="46.83547" lon="0.41898">
        <ele>157.8</ele>
        <time>2022-10-16T07:40:39Z</time>
      </trkpt>
      <trkpt lat="46.83541" lon="0.41907">
        <ele>158.2</ele>
        <time>2022-10-16T07:40:44Z</time>
      </trkpt>
      <trkpt lat="46.83537" lon="0.41911">
        <ele>158.6</ele>
        <time>2022-10-16T07:40:47Z</time>
      </trkpt>
      <trkpt lat="46.83536" lon="0.41912">
        <ele>158.8</ele>
        <time>2022-10-16T07:40:48Z</time>
      </trkpt>
      <trkpt lat="46.83526" lon="0.41923">
        <ele>159.4</ele>
        <time>2022-10-16T07:40:54Z</time>
      </trkpt>
      <trkpt lat="46.8352" lon="0.4193">
        <ele>159.2</ele>
        <time>2022-10-16T07:40:58Z</time>
      </trkpt>
      <trkpt lat="46.83513" lon="0.41939">
        <ele>159.4</ele>
        <time>2022-10-16T07:41:02Z</time>
      </trkpt>
      <trkpt lat="46.835" lon="0.41955">
        <ele>159.8</ele>
        <time>2022-10-16T07:41:09Z</time>
      </trkpt>
      <trkpt lat="46.83491" lon="0.41975">
        <ele>160.2</ele>
        <time>2022-10-16T07:41:16Z</time>
      </trkpt>
      <trkpt lat="46.83488" lon="0.41982">
        <ele>160.2</ele>
        <time>2022-10-16T07:41:18Z</time>
      </trkpt>
      <trkpt lat="46.83485" lon="0.42">
        <ele>160.8</ele>
        <time>2022-10-16T07:41:23Z</time>
      </trkpt>
      <trkpt lat="46.83484" lon="0.42003">
        <ele>161</ele>
        <time>2022-10-16T07:41:24Z</time>
      </trkpt>
      <trkpt lat="46.83481" lon="0.42026">
        <ele>161</ele>
        <time>2022-10-16T07:41:30Z</time>
      </trkpt>
      <trkpt lat="46.83483" lon="0.42041">
        <ele>161.6</ele>
        <time>2022-10-16T07:41:35Z</time>
      </trkpt>
      <trkpt lat="46.83483" lon="0.42067">
        <ele>161.8</ele>
        <time>2022-10-16T07:41:41Z</time>
      </trkpt>
      <trkpt lat="46.83479" lon="0.4209">
        <ele>162.2</ele>
        <time>2022-10-16T07:41:46Z</time>
      </trkpt>
      <trkpt lat="46.83478" lon="0.42094">
        <ele>162.4</ele>
        <time>2022-10-16T07:41:47Z</time>
      </trkpt>
      <trkpt lat="46.83473" lon="0.42123">
        <ele>163</ele>
        <time>2022-10-16T07:41:53Z</time>
      </trkpt>
      <trkpt lat="46.83468" lon="0.42153">
        <ele>163.2</ele>
        <time>2022-10-16T07:41:59Z</time>
      </trkpt>
      <trkpt lat="46.83468" lon="0.4218">
        <ele>163</ele>
        <time>2022-10-16T07:42:04Z</time>
      </trkpt>
      <trkpt lat="46.83469" lon="0.42191">
        <ele>163.4</ele>
        <time>2022-10-16T07:42:06Z</time>
      </trkpt>
      <trkpt lat="46.8347" lon="0.42198">
        <ele>163.6</ele>
        <time>2022-10-16T07:42:08Z</time>
      </trkpt>
      <trkpt lat="46.83472" lon="0.422">
        <ele>163.6</ele>
        <time>2022-10-16T07:42:09Z</time>
      </trkpt>
      <trkpt lat="46.83482" lon="0.42207">
        <ele>164.2</ele>
        <time>2022-10-16T07:42:16Z</time>
      </trkpt>
      <trkpt lat="46.83505" lon="0.42216">
        <ele>164</ele>
        <time>2022-10-16T07:42:22Z</time>
      </trkpt>
      <trkpt lat="46.83514" lon="0.42218">
        <ele>164</ele>
        <time>2022-10-16T07:42:24Z</time>
      </trkpt>
      <trkpt lat="46.83531" lon="0.42221">
        <ele>164.2</ele>
        <time>2022-10-16T07:42:28Z</time>
      </trkpt>
      <trkpt lat="46.83564" lon="0.4223">
        <ele>164.2</ele>
        <time>2022-10-16T07:42:35Z</time>
      </trkpt>
      <trkpt lat="46.83569" lon="0.42231">
        <ele>164.2</ele>
        <time>2022-10-16T07:42:36Z</time>
      </trkpt>
      <trkpt lat="46.83589" lon="0.42229">
        <ele>164</ele>
        <time>2022-10-16T07:42:40Z</time>
      </trkpt>
      <trkpt lat="46.83614" lon="0.42227">
        <ele>163.4</ele>
        <time>2022-10-16T07:42:46Z</time>
      </trkpt>
      <trkpt lat="46.83623" lon="0.42227">
        <ele>163</ele>
        <time>2022-10-16T07:42:48Z</time>
      </trkpt>
      <trkpt lat="46.83631" lon="0.42228">
        <ele>162.6</ele>
        <time>2022-10-16T07:42:50Z</time>
      </trkpt>
      <trkpt lat="46.83638" lon="0.42231">
        <ele>162.4</ele>
        <time>2022-10-16T07:42:52Z</time>
      </trkpt>
      <trkpt lat="46.83648" lon="0.42234">
        <ele>162.2</ele>
        <time>2022-10-16T07:42:55Z</time>
      </trkpt>
      <trkpt lat="46.83654" lon="0.42237">
        <ele>162</ele>
        <time>2022-10-16T07:42:57Z</time>
      </trkpt>
      <trkpt lat="46.83662" lon="0.42239">
        <ele>161.8</ele>
        <time>2022-10-16T07:43:00Z</time>
      </trkpt>
      <trkpt lat="46.83669" lon="0.4224">
        <ele>161.4</ele>
        <time>2022-10-16T07:43:02Z</time>
      </trkpt>
      <trkpt lat="46.83671" lon="0.4224">
        <ele>161.2</ele>
        <time>2022-10-16T07:43:03Z</time>
      </trkpt>
      <trkpt lat="46.83675" lon="0.42242">
        <ele>161.2</ele>
        <time>2022-10-16T07:43:04Z</time>
      </trkpt>
      <trkpt lat="46.83698" lon="0.42247">
        <ele>160.4</ele>
        <time>2022-10-16T07:43:09Z</time>
      </trkpt>
      <trkpt lat="46.83702" lon="0.4225">
        <ele>160.2</ele>
        <time>2022-10-16T07:43:10Z</time>
      </trkpt>
      <trkpt lat="46.83714" lon="0.42252">
        <ele>159.8</ele>
        <time>2022-10-16T07:43:13Z</time>
      </trkpt>
      <trkpt lat="46.83723" lon="0.42255">
        <ele>159.4</ele>
        <time>2022-10-16T07:43:15Z</time>
      </trkpt>
      <trkpt lat="46.83731" lon="0.42258">
        <ele>159</ele>
        <time>2022-10-16T07:43:17Z</time>
      </trkpt>
      <trkpt lat="46.83749" lon="0.42261">
        <ele>158.2</ele>
        <time>2022-10-16T07:43:22Z</time>
      </trkpt>
      <trkpt lat="46.83756" lon="0.42262">
        <ele>158</ele>
        <time>2022-10-16T07:43:24Z</time>
      </trkpt>
      <trkpt lat="46.83775" lon="0.42269">
        <ele>157</ele>
        <time>2022-10-16T07:43:29Z</time>
      </trkpt>
      <trkpt lat="46.83795" lon="0.42279">
        <ele>155.4</ele>
        <time>2022-10-16T07:43:33Z</time>
      </trkpt>
      <trkpt lat="46.83806" lon="0.42287">
        <ele>154.6</ele>
        <time>2022-10-16T07:43:35Z</time>
      </trkpt>
      <trkpt lat="46.83814" lon="0.42294">
        <ele>154.4</ele>
        <time>2022-10-16T07:43:36Z</time>
      </trkpt>
      <trkpt lat="46.8384" lon="0.42316">
        <ele>152.8</ele>
        <time>2022-10-16T07:43:39Z</time>
      </trkpt>
      <trkpt lat="46.83862" lon="0.42338">
        <ele>151.4</ele>
        <time>2022-10-16T07:43:41Z</time>
      </trkpt>
      <trkpt lat="46.8388" lon="0.42355">
        <ele>149.8</ele>
        <time>2022-10-16T07:43:43Z</time>
      </trkpt>
      <trkpt lat="46.83924" lon="0.42387">
        <ele>149</ele>
        <time>2022-10-16T07:43:48Z</time>
      </trkpt>
      <trkpt lat="46.8396" lon="0.42411">
        <ele>150.2</ele>
        <time>2022-10-16T07:43:54Z</time>
      </trkpt>
      <trkpt lat="46.83973" lon="0.4242">
        <ele>151.2</ele>
        <time>2022-10-16T07:43:57Z</time>
      </trkpt>
      <trkpt lat="46.83977" lon="0.42423">
        <ele>151.6</ele>
        <time>2022-10-16T07:43:58Z</time>
      </trkpt>
      <trkpt lat="46.83985" lon="0.42428">
        <ele>152.2</ele>
        <time>2022-10-16T07:44:00Z</time>
      </trkpt>
      <trkpt lat="46.83989" lon="0.42431">
        <ele>152.4</ele>
        <time>2022-10-16T07:44:01Z</time>
      </trkpt>
      <trkpt lat="46.84008" lon="0.42445">
        <ele>153.6</ele>
        <time>2022-10-16T07:44:06Z</time>
      </trkpt>
      <trkpt lat="46.84015" lon="0.42451">
        <ele>154</ele>
        <time>2022-10-16T07:44:08Z</time>
      </trkpt>
      <trkpt lat="46.8402" lon="0.42458">
        <ele>154.6</ele>
        <time>2022-10-16T07:44:10Z</time>
      </trkpt>
      <trkpt lat="46.8403" lon="0.4247">
        <ele>155</ele>
        <time>2022-10-16T07:44:14Z</time>
      </trkpt>
      <trkpt lat="46.8404" lon="0.42479">
        <ele>155.6</ele>
        <time>2022-10-16T07:44:18Z</time>
      </trkpt>
      <trkpt lat="46.84044" lon="0.42483">
        <ele>156</ele>
        <time>2022-10-16T07:44:20Z</time>
      </trkpt>
      <trkpt lat="46.84053" lon="0.42489">
        <ele>156.6</ele>
        <time>2022-10-16T07:44:24Z</time>
      </trkpt>
      <trkpt lat="46.84058" lon="0.42491">
        <ele>156.8</ele>
        <time>2022-10-16T07:44:26Z</time>
      </trkpt>
      <trkpt lat="46.84078" lon="0.42504">
        <ele>157.2</ele>
        <time>2022-10-16T07:44:32Z</time>
      </trkpt>
      <trkpt lat="46.84103" lon="0.42522">
        <ele>157.2</ele>
        <time>2022-10-16T07:44:37Z</time>
      </trkpt>
      <trkpt lat="46.8413" lon="0.42543">
        <ele>157.4</ele>
        <time>2022-10-16T07:44:44Z</time>
      </trkpt>
      <trkpt lat="46.84158" lon="0.42563">
        <ele>157.2</ele>
        <time>2022-10-16T07:44:52Z</time>
      </trkpt>
      <trkpt lat="46.84181" lon="0.42576">
        <ele>157.2</ele>
        <time>2022-10-16T07:44:57Z</time>
      </trkpt>
      <trkpt lat="46.84214" lon="0.42588">
        <ele>157.4</ele>
        <time>2022-10-16T07:45:03Z</time>
      </trkpt>
      <trkpt lat="46.84229" lon="0.42591">
        <ele>156.6</ele>
        <time>2022-10-16T07:45:06Z</time>
      </trkpt>
      <trkpt lat="46.84244" lon="0.42593">
        <ele>156.2</ele>
        <time>2022-10-16T07:45:09Z</time>
      </trkpt>
      <trkpt lat="46.84249" lon="0.42596">
        <ele>156</ele>
        <time>2022-10-16T07:45:10Z</time>
      </trkpt>
      <trkpt lat="46.84258" lon="0.42597">
        <ele>155.6</ele>
        <time>2022-10-16T07:45:12Z</time>
      </trkpt>
      <trkpt lat="46.84266" lon="0.42597">
        <ele>154.8</ele>
        <time>2022-10-16T07:45:14Z</time>
      </trkpt>
      <trkpt lat="46.84273" lon="0.42599">
        <ele>154</ele>
        <time>2022-10-16T07:45:15Z</time>
      </trkpt>
      <trkpt lat="46.84275" lon="0.42599">
        <ele>154</ele>
        <time>2022-10-16T07:45:16Z</time>
      </trkpt>
      <trkpt lat="46.84282" lon="0.42598">
        <ele>153</ele>
        <time>2022-10-16T07:45:19Z</time>
      </trkpt>
      <trkpt lat="46.84282" lon="0.42596">
        <ele>152.8</ele>
        <time>2022-10-16T07:45:20Z</time>
      </trkpt>
      <trkpt lat="46.84284" lon="0.42591">
        <ele>152.4</ele>
        <time>2022-10-16T07:45:24Z</time>
      </trkpt>
      <trkpt lat="46.84289" lon="0.42578">
        <ele>151.6</ele>
        <time>2022-10-16T07:45:30Z</time>
      </trkpt>
      <trkpt lat="46.84297" lon="0.42566">
        <ele>150.6</ele>
        <time>2022-10-16T07:45:36Z</time>
      </trkpt>
      <trkpt lat="46.84301" lon="0.42559">
        <ele>150.2</ele>
        <time>2022-10-16T07:45:38Z</time>
      </trkpt>
      <trkpt lat="46.84306" lon="0.4255">
        <ele>149.4</ele>
        <time>2022-10-16T07:45:41Z</time>
      </trkpt>
      <trkpt lat="46.84306" lon="0.42541">
        <ele>148.8</ele>
        <time>2022-10-16T07:45:43Z</time>
      </trkpt>
      <trkpt lat="46.8431" lon="0.42529">
        <ele>148.2</ele>
        <time>2022-10-16T07:45:46Z</time>
      </trkpt>
      <trkpt lat="46.84314" lon="0.42512">
        <ele>148</ele>
        <time>2022-10-16T07:45:50Z</time>
      </trkpt>
      <trkpt lat="46.84317" lon="0.4249">
        <ele>147.8</ele>
        <time>2022-10-16T07:45:56Z</time>
      </trkpt>
      <trkpt lat="46.84324" lon="0.42482">
        <ele>147.2</ele>
        <time>2022-10-16T07:46:00Z</time>
      </trkpt>
      <trkpt lat="46.84327" lon="0.42478">
        <ele>146.8</ele>
        <time>2022-10-16T07:46:02Z</time>
      </trkpt>
      <trkpt lat="46.84327" lon="0.42475">
        <ele>146.8</ele>
        <time>2022-10-16T07:46:03Z</time>
      </trkpt>
      <trkpt lat="46.84331" lon="0.42457">
        <ele>146.4</ele>
        <time>2022-10-16T07:46:08Z</time>
      </trkpt>
      <trkpt lat="46.84336" lon="0.42449">
        <ele>145.6</ele>
        <time>2022-10-16T07:46:10Z</time>
      </trkpt>
      <trkpt lat="46.84342" lon="0.42429">
        <ele>144.8</ele>
        <time>2022-10-16T07:46:15Z</time>
      </trkpt>
      <trkpt lat="46.84344" lon="0.42425">
        <ele>144.6</ele>
        <time>2022-10-16T07:46:16Z</time>
      </trkpt>
      <trkpt lat="46.84353" lon="0.42403">
        <ele>143.6</ele>
        <time>2022-10-16T07:46:22Z</time>
      </trkpt>
      <trkpt lat="46.84358" lon="0.42379">
        <ele>143.2</ele>
        <time>2022-10-16T07:46:28Z</time>
      </trkpt>
      <trkpt lat="46.84369" lon="0.4236">
        <ele>142.4</ele>
        <time>2022-10-16T07:46:34Z</time>
      </trkpt>
      <trkpt lat="46.84379" lon="0.4235">
        <ele>141</ele>
        <time>2022-10-16T07:46:37Z</time>
      </trkpt>
      <trkpt lat="46.84389" lon="0.42339">
        <ele>140.6</ele>
        <time>2022-10-16T07:46:41Z</time>
      </trkpt>
      <trkpt lat="46.84402" lon="0.42323">
        <ele>140</ele>
        <time>2022-10-16T07:46:47Z</time>
      </trkpt>
      <trkpt lat="46.84404" lon="0.4232">
        <ele>139.8</ele>
        <time>2022-10-16T07:46:48Z</time>
      </trkpt>
      <trkpt lat="46.84407" lon="0.42317">
        <ele>138.8</ele>
        <time>2022-10-16T07:46:50Z</time>
      </trkpt>
      <trkpt lat="46.84411" lon="0.42312">
        <ele>138.6</ele>
        <time>2022-10-16T07:46:53Z</time>
      </trkpt>
      <trkpt lat="46.84413" lon="0.42306">
        <ele>138.6</ele>
        <time>2022-10-16T07:46:54Z</time>
      </trkpt>
      <trkpt lat="46.84418" lon="0.42295">
        <ele>137.6</ele>
        <time>2022-10-16T07:46:57Z</time>
      </trkpt>
      <trkpt lat="46.8442" lon="0.4229">
        <ele>136.2</ele>
        <time>2022-10-16T07:46:58Z</time>
      </trkpt>
      <trkpt lat="46.84421" lon="0.42283">
        <ele>135.6</ele>
        <time>2022-10-16T07:46:59Z</time>
      </trkpt>
      <trkpt lat="46.84422" lon="0.42277">
        <ele>135.2</ele>
        <time>2022-10-16T07:47:00Z</time>
      </trkpt>
      <trkpt lat="46.84423" lon="0.42266">
        <ele>135</ele>
        <time>2022-10-16T07:47:02Z</time>
      </trkpt>
      <trkpt lat="46.84432" lon="0.42253">
        <ele>135.2</ele>
        <time>2022-10-16T07:47:05Z</time>
      </trkpt>
      <trkpt lat="46.84435" lon="0.42251">
        <ele>135.2</ele>
        <time>2022-10-16T07:47:06Z</time>
      </trkpt>
      <trkpt lat="46.84453" lon="0.42241">
        <ele>134.6</ele>
        <time>2022-10-16T07:47:11Z</time>
      </trkpt>
      <trkpt lat="46.84467" lon="0.4223">
        <ele>134</ele>
        <time>2022-10-16T07:47:15Z</time>
      </trkpt>
      <trkpt lat="46.84473" lon="0.42228">
        <ele>133.8</ele>
        <time>2022-10-16T07:47:17Z</time>
      </trkpt>
      <trkpt lat="46.8449" lon="0.4223">
        <ele>133.8</ele>
        <time>2022-10-16T07:47:22Z</time>
      </trkpt>
      <trkpt lat="46.84509" lon="0.42236">
        <ele>134.6</ele>
        <time>2022-10-16T07:47:28Z</time>
      </trkpt>
      <trkpt lat="46.8451" lon="0.42237">
        <ele>134.8</ele>
        <time>2022-10-16T07:47:29Z</time>
      </trkpt>
      <trkpt lat="46.84514" lon="0.4224">
        <ele>135</ele>
        <time>2022-10-16T07:47:30Z</time>
      </trkpt>
      <trkpt lat="46.84518" lon="0.42245">
        <ele>135.6</ele>
        <time>2022-10-16T07:47:32Z</time>
      </trkpt>
      <trkpt lat="46.84522" lon="0.4225">
        <ele>136</ele>
        <time>2022-10-16T07:47:35Z</time>
      </trkpt>
      <trkpt lat="46.84523" lon="0.4225">
        <ele>136.2</ele>
        <time>2022-10-16T07:47:36Z</time>
      </trkpt>
      <trkpt lat="46.84524" lon="0.4225">
        <ele>136.8</ele>
        <time>2022-10-16T07:47:37Z</time>
      </trkpt>
      <trkpt lat="46.84524" lon="0.4225">
        <ele>137</ele>
        <time>2022-10-16T07:47:38Z</time>
      </trkpt>
      <trkpt lat="46.84525" lon="0.42251">
        <ele>137.4</ele>
        <time>2022-10-16T07:47:39Z</time>
      </trkpt>
      <trkpt lat="46.84529" lon="0.42259">
        <ele>138.2</ele>
        <time>2022-10-16T07:47:43Z</time>
      </trkpt>
      <trkpt lat="46.84531" lon="0.42262">
        <ele>138.4</ele>
        <time>2022-10-16T07:47:44Z</time>
      </trkpt>
      <trkpt lat="46.84543" lon="0.42279">
        <ele>139.6</ele>
        <time>2022-10-16T07:47:50Z</time>
      </trkpt>
      <trkpt lat="46.84549" lon="0.4229">
        <ele>140.6</ele>
        <time>2022-10-16T07:47:54Z</time>
      </trkpt>
      <trkpt lat="46.84554" lon="0.42296">
        <ele>141.8</ele>
        <time>2022-10-16T07:47:58Z</time>
      </trkpt>
      <trkpt lat="46.84556" lon="0.42301">
        <ele>143</ele>
        <time>2022-10-16T07:48:02Z</time>
      </trkpt>
      <trkpt lat="46.84559" lon="0.42307">
        <ele>143.8</ele>
        <time>2022-10-16T07:48:05Z</time>
      </trkpt>
      <trkpt lat="46.84559" lon="0.42309">
        <ele>144</ele>
        <time>2022-10-16T07:48:06Z</time>
      </trkpt>
      <trkpt lat="46.84561" lon="0.42313">
        <ele>144.6</ele>
        <time>2022-10-16T07:48:08Z</time>
      </trkpt>
      <trkpt lat="46.84564" lon="0.42318">
        <ele>145.2</ele>
        <time>2022-10-16T07:48:10Z</time>
      </trkpt>
      <trkpt lat="46.84566" lon="0.42327">
        <ele>146.2</ele>
        <time>2022-10-16T07:48:13Z</time>
      </trkpt>
      <trkpt lat="46.84567" lon="0.42329">
        <ele>146.4</ele>
        <time>2022-10-16T07:48:14Z</time>
      </trkpt>
      <trkpt lat="46.8457" lon="0.42346">
        <ele>147.2</ele>
        <time>2022-10-16T07:48:20Z</time>
      </trkpt>
      <trkpt lat="46.8457" lon="0.42352">
        <ele>147.4</ele>
        <time>2022-10-16T07:48:22Z</time>
      </trkpt>
      <trkpt lat="46.84571" lon="0.42361">
        <ele>148.2</ele>
        <time>2022-10-16T07:48:26Z</time>
      </trkpt>
      <trkpt lat="46.84572" lon="0.42363">
        <ele>148.4</ele>
        <time>2022-10-16T07:48:27Z</time>
      </trkpt>
      <trkpt lat="46.84573" lon="0.42365">
        <ele>148.4</ele>
        <time>2022-10-16T07:48:28Z</time>
      </trkpt>
      <trkpt lat="46.84577" lon="0.42373">
        <ele>149.4</ele>
        <time>2022-10-16T07:48:32Z</time>
      </trkpt>
      <trkpt lat="46.84579" lon="0.42377">
        <ele>149.8</ele>
        <time>2022-10-16T07:48:35Z</time>
      </trkpt>
      <trkpt lat="46.8458" lon="0.42381">
        <ele>150</ele>
        <time>2022-10-16T07:48:36Z</time>
      </trkpt>
      <trkpt lat="46.84582" lon="0.42381">
        <ele>150.4</ele>
        <time>2022-10-16T07:48:38Z</time>
      </trkpt>
      <trkpt lat="46.84583" lon="0.4238">
        <ele>150.6</ele>
        <time>2022-10-16T07:48:39Z</time>
      </trkpt>
      <trkpt lat="46.84591" lon="0.42365">
        <ele>151</ele>
        <time>2022-10-16T07:48:46Z</time>
      </trkpt>
      <trkpt lat="46.84594" lon="0.42355">
        <ele>151.6</ele>
        <time>2022-10-16T07:48:50Z</time>
      </trkpt>
      <trkpt lat="46.84597" lon="0.42349">
        <ele>151.6</ele>
        <time>2022-10-16T07:48:52Z</time>
      </trkpt>
      <trkpt lat="46.84608" lon="0.4233">
        <ele>151.6</ele>
        <time>2022-10-16T07:48:58Z</time>
      </trkpt>
      <trkpt lat="46.84615" lon="0.42307">
        <ele>152.2</ele>
        <time>2022-10-16T07:49:04Z</time>
      </trkpt>
      <trkpt lat="46.84624" lon="0.42276">
        <ele>152.6</ele>
        <time>2022-10-16T07:49:11Z</time>
      </trkpt>
      <trkpt lat="46.84625" lon="0.42271">
        <ele>152.6</ele>
        <time>2022-10-16T07:49:12Z</time>
      </trkpt>
      <trkpt lat="46.8463" lon="0.42261">
        <ele>152.6</ele>
        <time>2022-10-16T07:49:14Z</time>
      </trkpt>
      <trkpt lat="46.84634" lon="0.42249">
        <ele>152.6</ele>
        <time>2022-10-16T07:49:16Z</time>
      </trkpt>
      <trkpt lat="46.84638" lon="0.42237">
        <ele>152.8</ele>
        <time>2022-10-16T07:49:18Z</time>
      </trkpt>
      <trkpt lat="46.84643" lon="0.42213">
        <ele>153</ele>
        <time>2022-10-16T07:49:22Z</time>
      </trkpt>
      <trkpt lat="46.84656" lon="0.42177">
        <ele>153</ele>
        <time>2022-10-16T07:49:28Z</time>
      </trkpt>
      <trkpt lat="46.84667" lon="0.42133">
        <ele>152.2</ele>
        <time>2022-10-16T07:49:34Z</time>
      </trkpt>
      <trkpt lat="46.84669" lon="0.42126">
        <ele>152.2</ele>
        <time>2022-10-16T07:49:35Z</time>
      </trkpt>
      <trkpt lat="46.84679" lon="0.42095">
        <ele>152.4</ele>
        <time>2022-10-16T07:49:40Z</time>
      </trkpt>
      <trkpt lat="46.84681" lon="0.42088">
        <ele>152.4</ele>
        <time>2022-10-16T07:49:41Z</time>
      </trkpt>
      <trkpt lat="46.84688" lon="0.42046">
        <ele>151.8</ele>
        <time>2022-10-16T07:49:46Z</time>
      </trkpt>
      <trkpt lat="46.84692" lon="0.42009">
        <ele>151.4</ele>
        <time>2022-10-16T07:49:50Z</time>
      </trkpt>
      <trkpt lat="46.84696" lon="0.41982">
        <ele>150.4</ele>
        <time>2022-10-16T07:49:53Z</time>
      </trkpt>
      <trkpt lat="46.84698" lon="0.41974">
        <ele>150.2</ele>
        <time>2022-10-16T07:49:54Z</time>
      </trkpt>
      <trkpt lat="46.84702" lon="0.41956">
        <ele>149.8</ele>
        <time>2022-10-16T07:49:56Z</time>
      </trkpt>
      <trkpt lat="46.84707" lon="0.41928">
        <ele>149.4</ele>
        <time>2022-10-16T07:49:59Z</time>
      </trkpt>
      <trkpt lat="46.84708" lon="0.41918">
        <ele>149.2</ele>
        <time>2022-10-16T07:50:00Z</time>
      </trkpt>
      <trkpt lat="46.84713" lon="0.41884">
        <ele>148.8</ele>
        <time>2022-10-16T07:50:05Z</time>
      </trkpt>
      <trkpt lat="46.84715" lon="0.41874">
        <ele>148.4</ele>
        <time>2022-10-16T07:50:08Z</time>
      </trkpt>
      <trkpt lat="46.84718" lon="0.41873">
        <ele>148.4</ele>
        <time>2022-10-16T07:50:09Z</time>
      </trkpt>
      <trkpt lat="46.84729" lon="0.4187">
        <ele>148.4</ele>
        <time>2022-10-16T07:50:13Z</time>
      </trkpt>
      <trkpt lat="46.8474" lon="0.41858">
        <ele>149.2</ele>
        <time>2022-10-16T07:50:18Z</time>
      </trkpt>
      <trkpt lat="46.84747" lon="0.41853">
        <ele>149.2</ele>
        <time>2022-10-16T07:50:20Z</time>
      </trkpt>
      <trkpt lat="46.84753" lon="0.41854">
        <ele>149.6</ele>
        <time>2022-10-16T07:50:22Z</time>
      </trkpt>
      <trkpt lat="46.84759" lon="0.41858">
        <ele>149.6</ele>
        <time>2022-10-16T07:50:25Z</time>
      </trkpt>
      <trkpt lat="46.84763" lon="0.41856">
        <ele>149.6</ele>
        <time>2022-10-16T07:50:27Z</time>
      </trkpt>
      <trkpt lat="46.84773" lon="0.4185">
        <ele>149.8</ele>
        <time>2022-10-16T07:50:31Z</time>
      </trkpt>
      <trkpt lat="46.84776" lon="0.41852">
        <ele>150</ele>
        <time>2022-10-16T07:50:32Z</time>
      </trkpt>
      <trkpt lat="46.84779" lon="0.41853">
        <ele>150.2</ele>
        <time>2022-10-16T07:50:33Z</time>
      </trkpt>
      <trkpt lat="46.84794" lon="0.41862">
        <ele>150.2</ele>
        <time>2022-10-16T07:50:37Z</time>
      </trkpt>
      <trkpt lat="46.84804" lon="0.41863">
        <ele>150.2</ele>
        <time>2022-10-16T07:50:41Z</time>
      </trkpt>
      <trkpt lat="46.84811" lon="0.41867">
        <ele>150</ele>
        <time>2022-10-16T07:50:45Z</time>
      </trkpt>
      <trkpt lat="46.84817" lon="0.41873">
        <ele>150</ele>
        <time>2022-10-16T07:50:47Z</time>
      </trkpt>
      <trkpt lat="46.84829" lon="0.41883">
        <ele>149.6</ele>
        <time>2022-10-16T07:50:52Z</time>
      </trkpt>
      <trkpt lat="46.84833" lon="0.41884">
        <ele>149.4</ele>
        <time>2022-10-16T07:50:54Z</time>
      </trkpt>
      <trkpt lat="46.84838" lon="0.41882">
        <ele>149.2</ele>
        <time>2022-10-16T07:50:56Z</time>
      </trkpt>
      <trkpt lat="46.84839" lon="0.41879">
        <ele>149</ele>
        <time>2022-10-16T07:50:57Z</time>
      </trkpt>
      <trkpt lat="46.84842" lon="0.41863">
        <ele>148.2</ele>
        <time>2022-10-16T07:51:02Z</time>
      </trkpt>
      <trkpt lat="46.84844" lon="0.41858">
        <ele>148</ele>
        <time>2022-10-16T07:51:04Z</time>
      </trkpt>
      <trkpt lat="46.84848" lon="0.41847">
        <ele>148.2</ele>
        <time>2022-10-16T07:51:08Z</time>
      </trkpt>
      <trkpt lat="46.8485" lon="0.41829">
        <ele>148.4</ele>
        <time>2022-10-16T07:51:14Z</time>
      </trkpt>
      <trkpt lat="46.84847" lon="0.41825">
        <ele>148.8</ele>
        <time>2022-10-16T07:51:17Z</time>
      </trkpt>
      <trkpt lat="46.84848" lon="0.41821">
        <ele>149</ele>
        <time>2022-10-16T07:51:19Z</time>
      </trkpt>
      <trkpt lat="46.84849" lon="0.41818">
        <ele>149.2</ele>
        <time>2022-10-16T07:51:20Z</time>
      </trkpt>
      <trkpt lat="46.84852" lon="0.41803">
        <ele>149</ele>
        <time>2022-10-16T07:51:24Z</time>
      </trkpt>
      <trkpt lat="46.84856" lon="0.41779">
        <ele>148.8</ele>
        <time>2022-10-16T07:51:29Z</time>
      </trkpt>
      <trkpt lat="46.84858" lon="0.41765">
        <ele>148.8</ele>
        <time>2022-10-16T07:51:32Z</time>
      </trkpt>
      <trkpt lat="46.84858" lon="0.41762">
        <ele>148.8</ele>
        <time>2022-10-16T07:51:33Z</time>
      </trkpt>
      <trkpt lat="46.84865" lon="0.41749">
        <ele>148.6</ele>
        <time>2022-10-16T07:51:38Z</time>
      </trkpt>
      <trkpt lat="46.84869" lon="0.41748">
        <ele>148.4</ele>
        <time>2022-10-16T07:51:40Z</time>
      </trkpt>
      <trkpt lat="46.84875" lon="0.41748">
        <ele>147.6</ele>
        <time>2022-10-16T07:51:43Z</time>
      </trkpt>
      <trkpt lat="46.84877" lon="0.41747">
        <ele>147.2</ele>
        <time>2022-10-16T07:51:44Z</time>
      </trkpt>
      <trkpt lat="46.8488" lon="0.41743">
        <ele>146.6</ele>
        <time>2022-10-16T07:51:46Z</time>
      </trkpt>
      <trkpt lat="46.84884" lon="0.4174">
        <ele>146.2</ele>
        <time>2022-10-16T07:51:48Z</time>
      </trkpt>
      <trkpt lat="46.84887" lon="0.41738">
        <ele>145.8</ele>
        <time>2022-10-16T07:51:50Z</time>
      </trkpt>
      <trkpt lat="46.84888" lon="0.41735">
        <ele>145.6</ele>
        <time>2022-10-16T07:51:51Z</time>
      </trkpt>
      <trkpt lat="46.84891" lon="0.41731">
        <ele>144.8</ele>
        <time>2022-10-16T07:51:53Z</time>
      </trkpt>
      <trkpt lat="46.84892" lon="0.41728">
        <ele>144.4</ele>
        <time>2022-10-16T07:51:54Z</time>
      </trkpt>
      <trkpt lat="46.84896" lon="0.41715">
        <ele>144</ele>
        <time>2022-10-16T07:51:59Z</time>
      </trkpt>
      <trkpt lat="46.84901" lon="0.41696">
        <ele>144.8</ele>
        <time>2022-10-16T07:52:07Z</time>
      </trkpt>
      <trkpt lat="46.84901" lon="0.41695">
        <ele>144.8</ele>
        <time>2022-10-16T07:52:08Z</time>
      </trkpt>
      <trkpt lat="46.84899" lon="0.41692">
        <ele>145.4</ele>
        <time>2022-10-16T07:52:12Z</time>
      </trkpt>
      <trkpt lat="46.84899" lon="0.4169">
        <ele>145.6</ele>
        <time>2022-10-16T07:52:13Z</time>
      </trkpt>
      <trkpt lat="46.84899" lon="0.41688">
        <ele>145.8</ele>
        <time>2022-10-16T07:52:14Z</time>
      </trkpt>
      <trkpt lat="46.84896" lon="0.41671">
        <ele>145.8</ele>
        <time>2022-10-16T07:52:19Z</time>
      </trkpt>
      <trkpt lat="46.84895" lon="0.41657">
        <ele>145.6</ele>
        <time>2022-10-16T07:52:24Z</time>
      </trkpt>
      <trkpt lat="46.84895" lon="0.41654">
        <ele>145.6</ele>
        <time>2022-10-16T07:52:25Z</time>
      </trkpt>
      <trkpt lat="46.84899" lon="0.4165">
        <ele>145.2</ele>
        <time>2022-10-16T07:52:28Z</time>
      </trkpt>
      <trkpt lat="46.84906" lon="0.41657">
        <ele>144.2</ele>
        <time>2022-10-16T07:52:33Z</time>
      </trkpt>
      <trkpt lat="46.84908" lon="0.41659">
        <ele>144.2</ele>
        <time>2022-10-16T07:52:34Z</time>
      </trkpt>
      <trkpt lat="46.84912" lon="0.41664">
        <ele>143.4</ele>
        <time>2022-10-16T07:52:36Z</time>
      </trkpt>
      <trkpt lat="46.84915" lon="0.41665">
        <ele>143.2</ele>
        <time>2022-10-16T07:52:37Z</time>
      </trkpt>
      <trkpt lat="46.84917" lon="0.41665">
        <ele>143</ele>
        <time>2022-10-16T07:52:38Z</time>
      </trkpt>
      <trkpt lat="46.8492" lon="0.41664">
        <ele>142.6</ele>
        <time>2022-10-16T07:52:39Z</time>
      </trkpt>
      <trkpt lat="46.84923" lon="0.41663">
        <ele>141.8</ele>
        <time>2022-10-16T07:52:40Z</time>
      </trkpt>
      <trkpt lat="46.84929" lon="0.41663">
        <ele>140.2</ele>
        <time>2022-10-16T07:52:42Z</time>
      </trkpt>
      <trkpt lat="46.84935" lon="0.41662">
        <ele>139.6</ele>
        <time>2022-10-16T07:52:44Z</time>
      </trkpt>
      <trkpt lat="46.84938" lon="0.4166">
        <ele>139</ele>
        <time>2022-10-16T07:52:45Z</time>
      </trkpt>
      <trkpt lat="46.84942" lon="0.41657">
        <ele>138.4</ele>
        <time>2022-10-16T07:52:47Z</time>
      </trkpt>
      <trkpt lat="46.84944" lon="0.41656">
        <ele>138.2</ele>
        <time>2022-10-16T07:52:48Z</time>
      </trkpt>
      <trkpt lat="46.84947" lon="0.41656">
        <ele>137.8</ele>
        <time>2022-10-16T07:52:49Z</time>
      </trkpt>
      <trkpt lat="46.84951" lon="0.41657">
        <ele>136.6</ele>
        <time>2022-10-16T07:52:50Z</time>
      </trkpt>
      <trkpt lat="46.84959" lon="0.41658">
        <ele>135</ele>
        <time>2022-10-16T07:52:52Z</time>
      </trkpt>
      <trkpt lat="46.84971" lon="0.41659">
        <ele>133.8</ele>
        <time>2022-10-16T07:52:54Z</time>
      </trkpt>
      <trkpt lat="46.84981" lon="0.41662">
        <ele>132</ele>
        <time>2022-10-16T07:52:56Z</time>
      </trkpt>
      <trkpt lat="46.84984" lon="0.41664">
        <ele>131.4</ele>
        <time>2022-10-16T07:52:57Z</time>
      </trkpt>
      <trkpt lat="46.84986" lon="0.41667">
        <ele>130.8</ele>
        <time>2022-10-16T07:52:58Z</time>
      </trkpt>
      <trkpt lat="46.84987" lon="0.41671">
        <ele>130.4</ele>
        <time>2022-10-16T07:52:59Z</time>
      </trkpt>
      <trkpt lat="46.84994" lon="0.41684">
        <ele>130</ele>
        <time>2022-10-16T07:53:04Z</time>
      </trkpt>
      <trkpt lat="46.84997" lon="0.41701">
        <ele>131.4</ele>
        <time>2022-10-16T07:53:12Z</time>
      </trkpt>
      <trkpt lat="46.84998" lon="0.41703">
        <ele>131.8</ele>
        <time>2022-10-16T07:53:13Z</time>
      </trkpt>
      <trkpt lat="46.85" lon="0.41708">
        <ele>132</ele>
        <time>2022-10-16T07:53:15Z</time>
      </trkpt>
      <trkpt lat="46.85001" lon="0.41714">
        <ele>131.8</ele>
        <time>2022-10-16T07:53:17Z</time>
      </trkpt>
      <trkpt lat="46.85003" lon="0.4173">
        <ele>131.4</ele>
        <time>2022-10-16T07:53:22Z</time>
      </trkpt>
      <trkpt lat="46.85003" lon="0.41732">
        <ele>131.4</ele>
        <time>2022-10-16T07:53:23Z</time>
      </trkpt>
      <trkpt lat="46.85005" lon="0.4174">
        <ele>131.6</ele>
        <time>2022-10-16T07:53:27Z</time>
      </trkpt>
      <trkpt lat="46.85007" lon="0.41742">
        <ele>131.8</ele>
        <time>2022-10-16T07:53:30Z</time>
      </trkpt>
      <trkpt lat="46.85008" lon="0.41751">
        <ele>131.8</ele>
        <time>2022-10-16T07:53:36Z</time>
      </trkpt>
      <trkpt lat="46.85008" lon="0.41753">
        <ele>132</ele>
        <time>2022-10-16T07:53:38Z</time>
      </trkpt>
      <trkpt lat="46.8501" lon="0.41768">
        <ele>132.2</ele>
        <time>2022-10-16T07:53:45Z</time>
      </trkpt>
      <trkpt lat="46.8501" lon="0.41777">
        <ele>132.4</ele>
        <time>2022-10-16T07:53:49Z</time>
      </trkpt>
      <trkpt lat="46.8501" lon="0.41781">
        <ele>132.6</ele>
        <time>2022-10-16T07:53:52Z</time>
      </trkpt>
      <trkpt lat="46.85012" lon="0.41799">
        <ele>132.8</ele>
        <time>2022-10-16T07:53:57Z</time>
      </trkpt>
      <trkpt lat="46.85012" lon="0.41803">
        <ele>133</ele>
        <time>2022-10-16T07:53:58Z</time>
      </trkpt>
      <trkpt lat="46.85014" lon="0.41819">
        <ele>133.8</ele>
        <time>2022-10-16T07:54:03Z</time>
      </trkpt>
      <trkpt lat="46.85015" lon="0.41825">
        <ele>134.2</ele>
        <time>2022-10-16T07:54:06Z</time>
      </trkpt>
      <trkpt lat="46.85016" lon="0.41834">
        <ele>134.2</ele>
        <time>2022-10-16T07:54:09Z</time>
      </trkpt>
      <trkpt lat="46.85012" lon="0.41844">
        <ele>134.8</ele>
        <time>2022-10-16T07:54:14Z</time>
      </trkpt>
      <trkpt lat="46.85011" lon="0.41847">
        <ele>135</ele>
        <time>2022-10-16T07:54:15Z</time>
      </trkpt>
      <trkpt lat="46.85011" lon="0.41849">
        <ele>135.2</ele>
        <time>2022-10-16T07:54:16Z</time>
      </trkpt>
      <trkpt lat="46.85012" lon="0.41852">
        <ele>135.2</ele>
        <time>2022-10-16T07:54:17Z</time>
      </trkpt>
      <trkpt lat="46.85014" lon="0.41855">
        <ele>135.4</ele>
        <time>2022-10-16T07:54:19Z</time>
      </trkpt>
      <trkpt lat="46.85015" lon="0.41864">
        <ele>134.8</ele>
        <time>2022-10-16T07:54:22Z</time>
      </trkpt>
      <trkpt lat="46.85013" lon="0.4187">
        <ele>134.4</ele>
        <time>2022-10-16T07:54:24Z</time>
      </trkpt>
      <trkpt lat="46.8501" lon="0.41893">
        <ele>134.8</ele>
        <time>2022-10-16T07:54:31Z</time>
      </trkpt>
      <trkpt lat="46.85006" lon="0.41914">
        <ele>135.6</ele>
        <time>2022-10-16T07:54:37Z</time>
      </trkpt>
      <trkpt lat="46.85002" lon="0.4193">
        <ele>136.2</ele>
        <time>2022-10-16T07:54:41Z</time>
      </trkpt>
      <trkpt lat="46.84998" lon="0.41939">
        <ele>136.4</ele>
        <time>2022-10-16T07:54:44Z</time>
      </trkpt>
      <trkpt lat="46.84992" lon="0.41952">
        <ele>137.4</ele>
        <time>2022-10-16T07:54:49Z</time>
      </trkpt>
      <trkpt lat="46.84988" lon="0.41961">
        <ele>138</ele>
        <time>2022-10-16T07:54:53Z</time>
      </trkpt>
      <trkpt lat="46.84987" lon="0.41963">
        <ele>138.6</ele>
        <time>2022-10-16T07:54:54Z</time>
      </trkpt>
      <trkpt lat="46.84981" lon="0.41973">
        <ele>139.6</ele>
        <time>2022-10-16T07:54:59Z</time>
      </trkpt>
      <trkpt lat="46.84978" lon="0.41978">
        <ele>140</ele>
        <time>2022-10-16T07:55:01Z</time>
      </trkpt>
      <trkpt lat="46.84972" lon="0.4199">
        <ele>140.4</ele>
        <time>2022-10-16T07:55:07Z</time>
      </trkpt>
      <trkpt lat="46.84971" lon="0.41992">
        <ele>140.6</ele>
        <time>2022-10-16T07:55:08Z</time>
      </trkpt>
      <trkpt lat="46.84968" lon="0.41995">
        <ele>140.8</ele>
        <time>2022-10-16T07:55:10Z</time>
      </trkpt>
      <trkpt lat="46.84964" lon="0.42004">
        <ele>141.8</ele>
        <time>2022-10-16T07:55:14Z</time>
      </trkpt>
      <trkpt lat="46.84963" lon="0.42006">
        <ele>142</ele>
        <time>2022-10-16T07:55:15Z</time>
      </trkpt>
      <trkpt lat="46.8496" lon="0.42013">
        <ele>143</ele>
        <time>2022-10-16T07:55:19Z</time>
      </trkpt>
      <trkpt lat="46.84955" lon="0.42024">
        <ele>143.6</ele>
        <time>2022-10-16T07:55:23Z</time>
      </trkpt>
      <trkpt lat="46.84955" lon="0.42026">
        <ele>143.6</ele>
        <time>2022-10-16T07:55:24Z</time>
      </trkpt>
      <trkpt lat="46.84952" lon="0.42032">
        <ele>144.2</ele>
        <time>2022-10-16T07:55:27Z</time>
      </trkpt>
      <trkpt lat="46.84948" lon="0.42041">
        <ele>144.6</ele>
        <time>2022-10-16T07:55:31Z</time>
      </trkpt>
      <trkpt lat="46.84943" lon="0.42047">
        <ele>145.2</ele>
        <time>2022-10-16T07:55:34Z</time>
      </trkpt>
      <trkpt lat="46.84937" lon="0.42055">
        <ele>145.8</ele>
        <time>2022-10-16T07:55:38Z</time>
      </trkpt>
      <trkpt lat="46.84928" lon="0.42067">
        <ele>146.4</ele>
        <time>2022-10-16T07:55:44Z</time>
      </trkpt>
      <trkpt lat="46.84926" lon="0.4207">
        <ele>146.6</ele>
        <time>2022-10-16T07:55:45Z</time>
      </trkpt>
      <trkpt lat="46.84916" lon="0.42087">
        <ele>147.4</ele>
        <time>2022-10-16T07:55:51Z</time>
      </trkpt>
      <trkpt lat="46.84906" lon="0.421">
        <ele>148.4</ele>
        <time>2022-10-16T07:55:57Z</time>
      </trkpt>
      <trkpt lat="46.84903" lon="0.42104">
        <ele>148.6</ele>
        <time>2022-10-16T07:55:59Z</time>
      </trkpt>
      <trkpt lat="46.84897" lon="0.42112">
        <ele>149.2</ele>
        <time>2022-10-16T07:56:02Z</time>
      </trkpt>
      <trkpt lat="46.84893" lon="0.42129">
        <ele>149.6</ele>
        <time>2022-10-16T07:56:07Z</time>
      </trkpt>
      <trkpt lat="46.84892" lon="0.42135">
        <ele>149.6</ele>
        <time>2022-10-16T07:56:09Z</time>
      </trkpt>
      <trkpt lat="46.84891" lon="0.42139">
        <ele>149.8</ele>
        <time>2022-10-16T07:56:10Z</time>
      </trkpt>
      <trkpt lat="46.84887" lon="0.42143">
        <ele>150</ele>
        <time>2022-10-16T07:56:12Z</time>
      </trkpt>
      <trkpt lat="46.8487" lon="0.4216">
        <ele>150.4</ele>
        <time>2022-10-16T07:56:19Z</time>
      </trkpt>
      <trkpt lat="46.84865" lon="0.42162">
        <ele>150.8</ele>
        <time>2022-10-16T07:56:21Z</time>
      </trkpt>
      <trkpt lat="46.84851" lon="0.42171">
        <ele>151.4</ele>
        <time>2022-10-16T07:56:27Z</time>
      </trkpt>
      <trkpt lat="46.8484" lon="0.42175">
        <ele>152</ele>
        <time>2022-10-16T07:56:32Z</time>
      </trkpt>
      <trkpt lat="46.84838" lon="0.42177">
        <ele>152</ele>
        <time>2022-10-16T07:56:33Z</time>
      </trkpt>
      <trkpt lat="46.84827" lon="0.42187">
        <ele>152.6</ele>
        <time>2022-10-16T07:56:39Z</time>
      </trkpt>
      <trkpt lat="46.8482" lon="0.42203">
        <ele>152.8</ele>
        <time>2022-10-16T07:56:46Z</time>
      </trkpt>
      <trkpt lat="46.84819" lon="0.42206">
        <ele>153</ele>
        <time>2022-10-16T07:56:47Z</time>
      </trkpt>
      <trkpt lat="46.84813" lon="0.42231">
        <ele>153.4</ele>
        <time>2022-10-16T07:56:53Z</time>
      </trkpt>
      <trkpt lat="46.84809" lon="0.42244">
        <ele>153.6</ele>
        <time>2022-10-16T07:56:56Z</time>
      </trkpt>
      <trkpt lat="46.84806" lon="0.42249">
        <ele>153.6</ele>
        <time>2022-10-16T07:56:57Z</time>
      </trkpt>
      <trkpt lat="46.84797" lon="0.42272">
        <ele>153.6</ele>
        <time>2022-10-16T07:57:02Z</time>
      </trkpt>
      <trkpt lat="46.84795" lon="0.42294">
        <ele>154</ele>
        <time>2022-10-16T07:57:07Z</time>
      </trkpt>
      <trkpt lat="46.84794" lon="0.42298">
        <ele>154</ele>
        <time>2022-10-16T07:57:08Z</time>
      </trkpt>
      <trkpt lat="46.84791" lon="0.42323">
        <ele>153.8</ele>
        <time>2022-10-16T07:57:13Z</time>
      </trkpt>
      <trkpt lat="46.84785" lon="0.42341">
        <ele>154</ele>
        <time>2022-10-16T07:57:20Z</time>
      </trkpt>
      <trkpt lat="46.84775" lon="0.42363">
        <ele>154.2</ele>
        <time>2022-10-16T07:57:27Z</time>
      </trkpt>
      <trkpt lat="46.84772" lon="0.42384">
        <ele>154.6</ele>
        <time>2022-10-16T07:57:34Z</time>
      </trkpt>
      <trkpt lat="46.84765" lon="0.4241">
        <ele>154.4</ele>
        <time>2022-10-16T07:57:41Z</time>
      </trkpt>
      <trkpt lat="46.84761" lon="0.42435">
        <ele>155</ele>
        <time>2022-10-16T07:57:47Z</time>
      </trkpt>
      <trkpt lat="46.84749" lon="0.42462">
        <ele>155.2</ele>
        <time>2022-10-16T07:57:53Z</time>
      </trkpt>
      <trkpt lat="46.84738" lon="0.42482">
        <ele>155.4</ele>
        <time>2022-10-16T07:57:59Z</time>
      </trkpt>
      <trkpt lat="46.84725" lon="0.42498">
        <ele>155.6</ele>
        <time>2022-10-16T07:58:05Z</time>
      </trkpt>
      <trkpt lat="46.8471" lon="0.42513">
        <ele>156</ele>
        <time>2022-10-16T07:58:10Z</time>
      </trkpt>
      <trkpt lat="46.84689" lon="0.4253">
        <ele>156.2</ele>
        <time>2022-10-16T07:58:15Z</time>
      </trkpt>
      <trkpt lat="46.84685" lon="0.42531">
        <ele>156.2</ele>
        <time>2022-10-16T07:58:16Z</time>
      </trkpt>
      <trkpt lat="46.84674" lon="0.42533">
        <ele>156.2</ele>
        <time>2022-10-16T07:58:18Z</time>
      </trkpt>
      <trkpt lat="46.84655" lon="0.42535">
        <ele>156.2</ele>
        <time>2022-10-16T07:58:21Z</time>
      </trkpt>
      <trkpt lat="46.84643" lon="0.42535">
        <ele>156</ele>
        <time>2022-10-16T07:58:23Z</time>
      </trkpt>
      <trkpt lat="46.84621" lon="0.4254">
        <ele>155.8</ele>
        <time>2022-10-16T07:58:26Z</time>
      </trkpt>
      <trkpt lat="46.84614" lon="0.42541">
        <ele>155.8</ele>
        <time>2022-10-16T07:58:27Z</time>
      </trkpt>
      <trkpt lat="46.84582" lon="0.42549">
        <ele>155.6</ele>
        <time>2022-10-16T07:58:32Z</time>
      </trkpt>
      <trkpt lat="46.84577" lon="0.42551">
        <ele>155.8</ele>
        <time>2022-10-16T07:58:33Z</time>
      </trkpt>
      <trkpt lat="46.84561" lon="0.42559">
        <ele>155.8</ele>
        <time>2022-10-16T07:58:36Z</time>
      </trkpt>
      <trkpt lat="46.84555" lon="0.42561">
        <ele>155.6</ele>
        <time>2022-10-16T07:58:37Z</time>
      </trkpt>
      <trkpt lat="46.84544" lon="0.42563">
        <ele>155.6</ele>
        <time>2022-10-16T07:58:39Z</time>
      </trkpt>
      <trkpt lat="46.84529" lon="0.42562">
        <ele>155.2</ele>
        <time>2022-10-16T07:58:42Z</time>
      </trkpt>
      <trkpt lat="46.84522" lon="0.42561">
        <ele>154.8</ele>
        <time>2022-10-16T07:58:44Z</time>
      </trkpt>
      <trkpt lat="46.84518" lon="0.4256">
        <ele>154.4</ele>
        <time>2022-10-16T07:58:46Z</time>
      </trkpt>
      <trkpt lat="46.84503" lon="0.42567">
        <ele>154.2</ele>
        <time>2022-10-16T07:58:51Z</time>
      </trkpt>
      <trkpt lat="46.84479" lon="0.42583">
        <ele>154.2</ele>
        <time>2022-10-16T07:58:57Z</time>
      </trkpt>
      <trkpt lat="46.8445" lon="0.42597">
        <ele>153.6</ele>
        <time>2022-10-16T07:59:04Z</time>
      </trkpt>
      <trkpt lat="46.84446" lon="0.42598">
        <ele>153.6</ele>
        <time>2022-10-16T07:59:05Z</time>
      </trkpt>
      <trkpt lat="46.84442" lon="0.426">
        <ele>153.4</ele>
        <time>2022-10-16T07:59:06Z</time>
      </trkpt>
      <trkpt lat="46.84428" lon="0.42607">
        <ele>152.6</ele>
        <time>2022-10-16T07:59:09Z</time>
      </trkpt>
      <trkpt lat="46.84424" lon="0.42611">
        <ele>152</ele>
        <time>2022-10-16T07:59:10Z</time>
      </trkpt>
      <trkpt lat="46.84419" lon="0.42615">
        <ele>151.6</ele>
        <time>2022-10-16T07:59:11Z</time>
      </trkpt>
      <trkpt lat="46.84414" lon="0.42618">
        <ele>151.4</ele>
        <time>2022-10-16T07:59:12Z</time>
      </trkpt>
      <trkpt lat="46.84393" lon="0.42633">
        <ele>151.6</ele>
        <time>2022-10-16T07:59:17Z</time>
      </trkpt>
      <trkpt lat="46.84373" lon="0.42645">
        <ele>152.8</ele>
        <time>2022-10-16T07:59:22Z</time>
      </trkpt>
      <trkpt lat="46.8436" lon="0.42654">
        <ele>153.4</ele>
        <time>2022-10-16T07:59:25Z</time>
      </trkpt>
      <trkpt lat="46.84345" lon="0.42665">
        <ele>153.8</ele>
        <time>2022-10-16T07:59:29Z</time>
      </trkpt>
      <trkpt lat="46.84332" lon="0.42671">
        <ele>154.4</ele>
        <time>2022-10-16T07:59:32Z</time>
      </trkpt>
      <trkpt lat="46.84324" lon="0.42674">
        <ele>154.8</ele>
        <time>2022-10-16T07:59:34Z</time>
      </trkpt>
      <trkpt lat="46.84307" lon="0.4268">
        <ele>155.2</ele>
        <time>2022-10-16T07:59:38Z</time>
      </trkpt>
      <trkpt lat="46.84305" lon="0.42683">
        <ele>155.4</ele>
        <time>2022-10-16T07:59:39Z</time>
      </trkpt>
      <trkpt lat="46.84305" lon="0.42689">
        <ele>155.6</ele>
        <time>2022-10-16T07:59:42Z</time>
      </trkpt>
      <trkpt lat="46.84307" lon="0.42695">
        <ele>155.8</ele>
        <time>2022-10-16T07:59:44Z</time>
      </trkpt>
      <trkpt lat="46.84315" lon="0.42714">
        <ele>155.8</ele>
        <time>2022-10-16T07:59:49Z</time>
      </trkpt>
      <trkpt lat="46.84317" lon="0.42719">
        <ele>155.6</ele>
        <time>2022-10-16T07:59:50Z</time>
      </trkpt>
      <trkpt lat="46.84322" lon="0.42725">
        <ele>155.8</ele>
        <time>2022-10-16T07:59:52Z</time>
      </trkpt>
      <trkpt lat="46.8433" lon="0.4274">
        <ele>155.6</ele>
        <time>2022-10-16T07:59:56Z</time>
      </trkpt>
      <trkpt lat="46.84336" lon="0.42748">
        <ele>155</ele>
        <time>2022-10-16T07:59:59Z</time>
      </trkpt>
      <trkpt lat="46.8434" lon="0.42755">
        <ele>154.8</ele>
        <time>2022-10-16T08:00:01Z</time>
      </trkpt>
      <trkpt lat="46.84351" lon="0.4277">
        <ele>154.8</ele>
        <time>2022-10-16T08:00:05Z</time>
      </trkpt>
      <trkpt lat="46.84357" lon="0.42778">
        <ele>154.8</ele>
        <time>2022-10-16T08:00:07Z</time>
      </trkpt>
      <trkpt lat="46.84379" lon="0.42811">
        <ele>155.6</ele>
        <time>2022-10-16T08:00:15Z</time>
      </trkpt>
      <trkpt lat="46.84381" lon="0.42814">
        <ele>155.6</ele>
        <time>2022-10-16T08:00:16Z</time>
      </trkpt>
      <trkpt lat="46.84387" lon="0.42822">
        <ele>155.4</ele>
        <time>2022-10-16T08:00:19Z</time>
      </trkpt>
      <trkpt lat="46.84398" lon="0.42831">
        <ele>156</ele>
        <time>2022-10-16T08:00:23Z</time>
      </trkpt>
      <trkpt lat="46.84402" lon="0.42835">
        <ele>156</ele>
        <time>2022-10-16T08:00:25Z</time>
      </trkpt>
      <trkpt lat="46.84416" lon="0.4285">
        <ele>156.4</ele>
        <time>2022-10-16T08:00:31Z</time>
      </trkpt>
      <trkpt lat="46.84425" lon="0.42862">
        <ele>157</ele>
        <time>2022-10-16T08:00:35Z</time>
      </trkpt>
      <trkpt lat="46.84429" lon="0.42867">
        <ele>157</ele>
        <time>2022-10-16T08:00:37Z</time>
      </trkpt>
      <trkpt lat="46.84445" lon="0.4289">
        <ele>157.4</ele>
        <time>2022-10-16T08:00:43Z</time>
      </trkpt>
      <trkpt lat="46.84451" lon="0.42898">
        <ele>158</ele>
        <time>2022-10-16T08:00:47Z</time>
      </trkpt>
      <trkpt lat="46.84458" lon="0.42907">
        <ele>158.2</ele>
        <time>2022-10-16T08:00:50Z</time>
      </trkpt>
      <trkpt lat="46.84476" lon="0.42929">
        <ele>158.6</ele>
        <time>2022-10-16T08:00:57Z</time>
      </trkpt>
      <trkpt lat="46.84493" lon="0.42948">
        <ele>159</ele>
        <time>2022-10-16T08:01:04Z</time>
      </trkpt>
      <trkpt lat="46.84496" lon="0.42951">
        <ele>159</ele>
        <time>2022-10-16T08:01:05Z</time>
      </trkpt>
      <trkpt lat="46.84509" lon="0.42961">
        <ele>159.6</ele>
        <time>2022-10-16T08:01:12Z</time>
      </trkpt>
      <trkpt lat="46.84513" lon="0.42965">
        <ele>159.6</ele>
        <time>2022-10-16T08:01:15Z</time>
      </trkpt>
      <trkpt lat="46.84517" lon="0.42969">
        <ele>159.6</ele>
        <time>2022-10-16T08:01:17Z</time>
      </trkpt>
      <trkpt lat="46.84527" lon="0.42984">
        <ele>159.6</ele>
        <time>2022-10-16T08:01:24Z</time>
      </trkpt>
      <trkpt lat="46.84529" lon="0.42993">
        <ele>159.6</ele>
        <time>2022-10-16T08:01:28Z</time>
      </trkpt>
      <trkpt lat="46.84529" lon="0.42996">
        <ele>159.8</ele>
        <time>2022-10-16T08:01:29Z</time>
      </trkpt>
      <trkpt lat="46.84527" lon="0.42999">
        <ele>159.8</ele>
        <time>2022-10-16T08:01:31Z</time>
      </trkpt>
      <trkpt lat="46.84525" lon="0.43002">
        <ele>159.8</ele>
        <time>2022-10-16T08:01:33Z</time>
      </trkpt>
      <trkpt lat="46.84521" lon="0.43003">
        <ele>159.8</ele>
        <time>2022-10-16T08:01:35Z</time>
      </trkpt>
      <trkpt lat="46.84517" lon="0.4301">
        <ele>159.8</ele>
        <time>2022-10-16T08:01:38Z</time>
      </trkpt>
      <trkpt lat="46.84516" lon="0.43016">
        <ele>160</ele>
        <time>2022-10-16T08:01:40Z</time>
      </trkpt>
      <trkpt lat="46.84515" lon="0.43021">
        <ele>160</ele>
        <time>2022-10-16T08:01:42Z</time>
      </trkpt>
      <trkpt lat="46.84512" lon="0.43038">
        <ele>160.6</ele>
        <time>2022-10-16T08:01:47Z</time>
      </trkpt>
      <trkpt lat="46.8451" lon="0.43048">
        <ele>161</ele>
        <time>2022-10-16T08:01:51Z</time>
      </trkpt>
      <trkpt lat="46.84507" lon="0.43054">
        <ele>161</ele>
        <time>2022-10-16T08:01:53Z</time>
      </trkpt>
      <trkpt lat="46.84506" lon="0.4306">
        <ele>161</ele>
        <time>2022-10-16T08:01:55Z</time>
      </trkpt>
      <trkpt lat="46.84503" lon="0.43072">
        <ele>161</ele>
        <time>2022-10-16T08:01:59Z</time>
      </trkpt>
      <trkpt lat="46.84495" lon="0.43101">
        <ele>161.4</ele>
        <time>2022-10-16T08:02:07Z</time>
      </trkpt>
      <trkpt lat="46.84494" lon="0.43111">
        <ele>161.4</ele>
        <time>2022-10-16T08:02:09Z</time>
      </trkpt>
      <trkpt lat="46.84495" lon="0.43119">
        <ele>161.4</ele>
        <time>2022-10-16T08:02:11Z</time>
      </trkpt>
      <trkpt lat="46.84495" lon="0.43124">
        <ele>161.4</ele>
        <time>2022-10-16T08:02:12Z</time>
      </trkpt>
      <trkpt lat="46.84496" lon="0.43145">
        <ele>161.6</ele>
        <time>2022-10-16T08:02:17Z</time>
      </trkpt>
      <trkpt lat="46.84495" lon="0.43151">
        <ele>161.8</ele>
        <time>2022-10-16T08:02:19Z</time>
      </trkpt>
      <trkpt lat="46.84495" lon="0.4316">
        <ele>161.8</ele>
        <time>2022-10-16T08:02:21Z</time>
      </trkpt>
      <trkpt lat="46.84496" lon="0.43174">
        <ele>161.6</ele>
        <time>2022-10-16T08:02:24Z</time>
      </trkpt>
      <trkpt lat="46.84497" lon="0.43177">
        <ele>161.6</ele>
        <time>2022-10-16T08:02:25Z</time>
      </trkpt>
      <trkpt lat="46.84502" lon="0.43191">
        <ele>161.6</ele>
        <time>2022-10-16T08:02:29Z</time>
      </trkpt>
      <trkpt lat="46.8451" lon="0.43215">
        <ele>162.4</ele>
        <time>2022-10-16T08:02:35Z</time>
      </trkpt>
      <trkpt lat="46.8452" lon="0.43241">
        <ele>162.6</ele>
        <time>2022-10-16T08:02:41Z</time>
      </trkpt>
      <trkpt lat="46.84518" lon="0.43261">
        <ele>162.6</ele>
        <time>2022-10-16T08:02:47Z</time>
      </trkpt>
      <trkpt lat="46.8452" lon="0.43289">
        <ele>162.8</ele>
        <time>2022-10-16T08:02:54Z</time>
      </trkpt>
      <trkpt lat="46.84524" lon="0.433">
        <ele>163.4</ele>
        <time>2022-10-16T08:02:57Z</time>
      </trkpt>
      <trkpt lat="46.8453" lon="0.43314">
        <ele>163.2</ele>
        <time>2022-10-16T08:03:00Z</time>
      </trkpt>
      <trkpt lat="46.84539" lon="0.43331">
        <ele>162.8</ele>
        <time>2022-10-16T08:03:05Z</time>
      </trkpt>
      <trkpt lat="46.84545" lon="0.43351">
        <ele>163.2</ele>
        <time>2022-10-16T08:03:10Z</time>
      </trkpt>
      <trkpt lat="46.84552" lon="0.43379">
        <ele>162.6</ele>
        <time>2022-10-16T08:03:16Z</time>
      </trkpt>
      <trkpt lat="46.84554" lon="0.43381">
        <ele>162.6</ele>
        <time>2022-10-16T08:03:17Z</time>
      </trkpt>
      <trkpt lat="46.8456" lon="0.43384">
        <ele>162.8</ele>
        <time>2022-10-16T08:03:20Z</time>
      </trkpt>
      <trkpt lat="46.84563" lon="0.43388">
        <ele>163</ele>
        <time>2022-10-16T08:03:22Z</time>
      </trkpt>
      <trkpt lat="46.84568" lon="0.4339">
        <ele>162.8</ele>
        <time>2022-10-16T08:03:25Z</time>
      </trkpt>
      <trkpt lat="46.84579" lon="0.43386">
        <ele>162.8</ele>
        <time>2022-10-16T08:03:31Z</time>
      </trkpt>
      <trkpt lat="46.84582" lon="0.43381">
        <ele>162.4</ele>
        <time>2022-10-16T08:03:35Z</time>
      </trkpt>
      <trkpt lat="46.84585" lon="0.43377">
        <ele>162.2</ele>
        <time>2022-10-16T08:03:38Z</time>
      </trkpt>
      <trkpt lat="46.84596" lon="0.4337">
        <ele>162.2</ele>
        <time>2022-10-16T08:03:44Z</time>
      </trkpt>
      <trkpt lat="46.84609" lon="0.43365">
        <ele>162.2</ele>
        <time>2022-10-16T08:03:49Z</time>
      </trkpt>
      <trkpt lat="46.84624" lon="0.43356">
        <ele>161.8</ele>
        <time>2022-10-16T08:03:56Z</time>
      </trkpt>
      <trkpt lat="46.84639" lon="0.43365">
        <ele>161.6</ele>
        <time>2022-10-16T08:04:02Z</time>
      </trkpt>
      <trkpt lat="46.84649" lon="0.43365">
        <ele>161.4</ele>
        <time>2022-10-16T08:04:05Z</time>
      </trkpt>
      <trkpt lat="46.84655" lon="0.43365">
        <ele>161.2</ele>
        <time>2022-10-16T08:04:07Z</time>
      </trkpt>
      <trkpt lat="46.84674" lon="0.43367">
        <ele>160.8</ele>
        <time>2022-10-16T08:04:12Z</time>
      </trkpt>
      <trkpt lat="46.84684" lon="0.43371">
        <ele>160.6</ele>
        <time>2022-10-16T08:04:15Z</time>
      </trkpt>
      <trkpt lat="46.84689" lon="0.43373">
        <ele>160.8</ele>
        <time>2022-10-16T08:04:17Z</time>
      </trkpt>
      <trkpt lat="46.84693" lon="0.43376">
        <ele>160.8</ele>
        <time>2022-10-16T08:04:19Z</time>
      </trkpt>
      <trkpt lat="46.84706" lon="0.43387">
        <ele>160.8</ele>
        <time>2022-10-16T08:04:22Z</time>
      </trkpt>
      <trkpt lat="46.84717" lon="0.43399">
        <ele>160.8</ele>
        <time>2022-10-16T08:04:26Z</time>
      </trkpt>
      <trkpt lat="46.84719" lon="0.434">
        <ele>160.6</ele>
        <time>2022-10-16T08:04:27Z</time>
      </trkpt>
      <trkpt lat="46.84721" lon="0.43399">
        <ele>160.4</ele>
        <time>2022-10-16T08:04:28Z</time>
      </trkpt>
      <trkpt lat="46.84726" lon="0.4339">
        <ele>160.2</ele>
        <time>2022-10-16T08:04:31Z</time>
      </trkpt>
      <trkpt lat="46.84729" lon="0.43381">
        <ele>160.4</ele>
        <time>2022-10-16T08:04:33Z</time>
      </trkpt>
      <trkpt lat="46.84732" lon="0.43371">
        <ele>160.8</ele>
        <time>2022-10-16T08:04:35Z</time>
      </trkpt>
      <trkpt lat="46.84736" lon="0.43361">
        <ele>160.8</ele>
        <time>2022-10-16T08:04:37Z</time>
      </trkpt>
      <trkpt lat="46.84754" lon="0.43326">
        <ele>161.2</ele>
        <time>2022-10-16T08:04:44Z</time>
      </trkpt>
      <trkpt lat="46.84757" lon="0.43321">
        <ele>161.4</ele>
        <time>2022-10-16T08:04:45Z</time>
      </trkpt>
      <trkpt lat="46.84765" lon="0.43308">
        <ele>161.4</ele>
        <time>2022-10-16T08:04:48Z</time>
      </trkpt>
      <trkpt lat="46.8477" lon="0.43304">
        <ele>161.4</ele>
        <time>2022-10-16T08:04:49Z</time>
      </trkpt>
      <trkpt lat="46.84773" lon="0.43301">
        <ele>161.6</ele>
        <time>2022-10-16T08:04:50Z</time>
      </trkpt>
      <trkpt lat="46.84776" lon="0.43296">
        <ele>161.6</ele>
        <time>2022-10-16T08:04:51Z</time>
      </trkpt>
      <trkpt lat="46.84792" lon="0.43275">
        <ele>161.8</ele>
        <time>2022-10-16T08:04:57Z</time>
      </trkpt>
      <trkpt lat="46.84814" lon="0.43254">
        <ele>162</ele>
        <time>2022-10-16T08:05:04Z</time>
      </trkpt>
      <trkpt lat="46.8482" lon="0.43248">
        <ele>162</ele>
        <time>2022-10-16T08:05:06Z</time>
      </trkpt>
      <trkpt lat="46.84826" lon="0.43239">
        <ele>162</ele>
        <time>2022-10-16T08:05:08Z</time>
      </trkpt>
      <trkpt lat="46.84834" lon="0.43231">
        <ele>161.6</ele>
        <time>2022-10-16T08:05:10Z</time>
      </trkpt>
      <trkpt lat="46.84847" lon="0.43222">
        <ele>161.2</ele>
        <time>2022-10-16T08:05:12Z</time>
      </trkpt>
      <trkpt lat="46.84868" lon="0.43204">
        <ele>161.2</ele>
        <time>2022-10-16T08:05:16Z</time>
      </trkpt>
      <trkpt lat="46.84896" lon="0.43176">
        <ele>160.4</ele>
        <time>2022-10-16T08:05:21Z</time>
      </trkpt>
      <trkpt lat="46.84901" lon="0.43171">
        <ele>160.4</ele>
        <time>2022-10-16T08:05:22Z</time>
      </trkpt>
      <trkpt lat="46.84923" lon="0.43154">
        <ele>160</ele>
        <time>2022-10-16T08:05:26Z</time>
      </trkpt>
      <trkpt lat="46.84926" lon="0.43149">
        <ele>159.8</ele>
        <time>2022-10-16T08:05:27Z</time>
      </trkpt>
      <trkpt lat="46.84934" lon="0.43141">
        <ele>159.4</ele>
        <time>2022-10-16T08:05:29Z</time>
      </trkpt>
      <trkpt lat="46.84937" lon="0.43136">
        <ele>159</ele>
        <time>2022-10-16T08:05:30Z</time>
      </trkpt>
      <trkpt lat="46.84949" lon="0.43123">
        <ele>159</ele>
        <time>2022-10-16T08:05:33Z</time>
      </trkpt>
      <trkpt lat="46.84975" lon="0.4309">
        <ele>158.6</ele>
        <time>2022-10-16T08:05:39Z</time>
      </trkpt>
      <trkpt lat="46.84992" lon="0.43063">
        <ele>158.2</ele>
        <time>2022-10-16T08:05:43Z</time>
      </trkpt>
      <trkpt lat="46.85005" lon="0.43044">
        <ele>157.8</ele>
        <time>2022-10-16T08:05:46Z</time>
      </trkpt>
      <trkpt lat="46.85019" lon="0.43022">
        <ele>157</ele>
        <time>2022-10-16T08:05:50Z</time>
      </trkpt>
      <trkpt lat="46.85033" lon="0.43006">
        <ele>156.8</ele>
        <time>2022-10-16T08:05:53Z</time>
      </trkpt>
      <trkpt lat="46.85038" lon="0.43">
        <ele>156.8</ele>
        <time>2022-10-16T08:05:54Z</time>
      </trkpt>
      <trkpt lat="46.85059" lon="0.42981">
        <ele>156.2</ele>
        <time>2022-10-16T08:05:58Z</time>
      </trkpt>
      <trkpt lat="46.85068" lon="0.4297">
        <ele>156</ele>
        <time>2022-10-16T08:06:00Z</time>
      </trkpt>
      <trkpt lat="46.85085" lon="0.42949">
        <ele>156</ele>
        <time>2022-10-16T08:06:04Z</time>
      </trkpt>
      <trkpt lat="46.85102" lon="0.42921">
        <ele>155.2</ele>
        <time>2022-10-16T08:06:10Z</time>
      </trkpt>
      <trkpt lat="46.85108" lon="0.42908">
        <ele>155</ele>
        <time>2022-10-16T08:06:13Z</time>
      </trkpt>
      <trkpt lat="46.85119" lon="0.42892">
        <ele>155</ele>
        <time>2022-10-16T08:06:16Z</time>
      </trkpt>
      <trkpt lat="46.85123" lon="0.42885">
        <ele>155</ele>
        <time>2022-10-16T08:06:17Z</time>
      </trkpt>
      <trkpt lat="46.85142" lon="0.42855">
        <ele>154.4</ele>
        <time>2022-10-16T08:06:21Z</time>
      </trkpt>
      <trkpt lat="46.8516" lon="0.42826">
        <ele>154</ele>
        <time>2022-10-16T08:06:25Z</time>
      </trkpt>
      <trkpt lat="46.85174" lon="0.42807">
        <ele>152.8</ele>
        <time>2022-10-16T08:06:28Z</time>
      </trkpt>
      <trkpt lat="46.85211" lon="0.42772">
        <ele>152</ele>
        <time>2022-10-16T08:06:33Z</time>
      </trkpt>
      <trkpt lat="46.85216" lon="0.42764">
        <ele>151.8</ele>
        <time>2022-10-16T08:06:34Z</time>
      </trkpt>
      <trkpt lat="46.85235" lon="0.4274">
        <ele>150.8</ele>
        <time>2022-10-16T08:06:37Z</time>
      </trkpt>
      <trkpt lat="46.85241" lon="0.42733">
        <ele>150.6</ele>
        <time>2022-10-16T08:06:38Z</time>
      </trkpt>
      <trkpt lat="46.85252" lon="0.4272">
        <ele>149.4</ele>
        <time>2022-10-16T08:06:40Z</time>
      </trkpt>
      <trkpt lat="46.85269" lon="0.42704">
        <ele>148.2</ele>
        <time>2022-10-16T08:06:43Z</time>
      </trkpt>
      <trkpt lat="46.85274" lon="0.42698">
        <ele>147.8</ele>
        <time>2022-10-16T08:06:44Z</time>
      </trkpt>
      <trkpt lat="46.85285" lon="0.42687">
        <ele>146.6</ele>
        <time>2022-10-16T08:06:46Z</time>
      </trkpt>
      <trkpt lat="46.85298" lon="0.42677">
        <ele>145.2</ele>
        <time>2022-10-16T08:06:48Z</time>
      </trkpt>
      <trkpt lat="46.85307" lon="0.42672">
        <ele>144.8</ele>
        <time>2022-10-16T08:06:49Z</time>
      </trkpt>
      <trkpt lat="46.85328" lon="0.42662">
        <ele>144</ele>
        <time>2022-10-16T08:06:51Z</time>
      </trkpt>
      <trkpt lat="46.85347" lon="0.42652">
        <ele>143</ele>
        <time>2022-10-16T08:06:53Z</time>
      </trkpt>
      <trkpt lat="46.85355" lon="0.42648">
        <ele>142.6</ele>
        <time>2022-10-16T08:06:54Z</time>
      </trkpt>
      <trkpt lat="46.85365" lon="0.42645">
        <ele>141.8</ele>
        <time>2022-10-16T08:06:55Z</time>
      </trkpt>
      <trkpt lat="46.85373" lon="0.42642">
        <ele>140.4</ele>
        <time>2022-10-16T08:06:56Z</time>
      </trkpt>
      <trkpt lat="46.85386" lon="0.42637">
        <ele>139.2</ele>
        <time>2022-10-16T08:06:58Z</time>
      </trkpt>
      <trkpt lat="46.85392" lon="0.42633">
        <ele>138.6</ele>
        <time>2022-10-16T08:06:59Z</time>
      </trkpt>
      <trkpt lat="46.854" lon="0.42627">
        <ele>137.8</ele>
        <time>2022-10-16T08:07:01Z</time>
      </trkpt>
      <trkpt lat="46.85403" lon="0.42626">
        <ele>137.2</ele>
        <time>2022-10-16T08:07:02Z</time>
      </trkpt>
      <trkpt lat="46.85406" lon="0.42626">
        <ele>136.6</ele>
        <time>2022-10-16T08:07:03Z</time>
      </trkpt>
      <trkpt lat="46.85414" lon="0.42632">
        <ele>135.8</ele>
        <time>2022-10-16T08:07:05Z</time>
      </trkpt>
      <trkpt lat="46.85416" lon="0.42636">
        <ele>135.6</ele>
        <time>2022-10-16T08:07:06Z</time>
      </trkpt>
      <trkpt lat="46.85417" lon="0.4264">
        <ele>135.6</ele>
        <time>2022-10-16T08:07:07Z</time>
      </trkpt>
      <trkpt lat="46.85428" lon="0.42665">
        <ele>135.8</ele>
        <time>2022-10-16T08:07:11Z</time>
      </trkpt>
      <trkpt lat="46.85447" lon="0.42708">
        <ele>136.6</ele>
        <time>2022-10-16T08:07:17Z</time>
      </trkpt>
      <trkpt lat="46.85466" lon="0.4276">
        <ele>136.2</ele>
        <time>2022-10-16T08:07:24Z</time>
      </trkpt>
      <trkpt lat="46.85471" lon="0.42776">
        <ele>135.4</ele>
        <time>2022-10-16T08:07:26Z</time>
      </trkpt>
      <trkpt lat="46.85482" lon="0.42808">
        <ele>133.8</ele>
        <time>2022-10-16T08:07:30Z</time>
      </trkpt>
      <trkpt lat="46.85488" lon="0.42825">
        <ele>132.8</ele>
        <time>2022-10-16T08:07:32Z</time>
      </trkpt>
      <trkpt lat="46.85497" lon="0.42853">
        <ele>131.6</ele>
        <time>2022-10-16T08:07:35Z</time>
      </trkpt>
      <trkpt lat="46.85506" lon="0.42883">
        <ele>131</ele>
        <time>2022-10-16T08:07:38Z</time>
      </trkpt>
      <trkpt lat="46.85515" lon="0.42912">
        <ele>130.4</ele>
        <time>2022-10-16T08:07:41Z</time>
      </trkpt>
      <trkpt lat="46.85522" lon="0.42939">
        <ele>129.4</ele>
        <time>2022-10-16T08:07:44Z</time>
      </trkpt>
      <trkpt lat="46.85525" lon="0.42947">
        <ele>129</ele>
        <time>2022-10-16T08:07:45Z</time>
      </trkpt>
      <trkpt lat="46.85539" lon="0.43002">
        <ele>129</ele>
        <time>2022-10-16T08:07:52Z</time>
      </trkpt>
      <trkpt lat="46.85551" lon="0.43045">
        <ele>129</ele>
        <time>2022-10-16T08:07:58Z</time>
      </trkpt>
      <trkpt lat="46.85552" lon="0.43051">
        <ele>129.2</ele>
        <time>2022-10-16T08:08:00Z</time>
      </trkpt>
      <trkpt lat="46.8555" lon="0.43055">
        <ele>129.4</ele>
        <time>2022-10-16T08:08:02Z</time>
      </trkpt>
      <trkpt lat="46.85538" lon="0.43061">
        <ele>129.6</ele>
        <time>2022-10-16T08:08:06Z</time>
      </trkpt>
      <trkpt lat="46.85531" lon="0.43064">
        <ele>130.6</ele>
        <time>2022-10-16T08:08:08Z</time>
      </trkpt>
      <trkpt lat="46.85507" lon="0.43074">
        <ele>131.4</ele>
        <time>2022-10-16T08:08:15Z</time>
      </trkpt>
      <trkpt lat="46.85504" lon="0.43075">
        <ele>131.6</ele>
        <time>2022-10-16T08:08:16Z</time>
      </trkpt>
      <trkpt lat="46.85485" lon="0.43081">
        <ele>132.8</ele>
        <time>2022-10-16T08:08:23Z</time>
      </trkpt>
      <trkpt lat="46.85472" lon="0.43084">
        <ele>134</ele>
        <time>2022-10-16T08:08:29Z</time>
      </trkpt>
      <trkpt lat="46.85468" lon="0.43085">
        <ele>134.6</ele>
        <time>2022-10-16T08:08:31Z</time>
      </trkpt>
      <trkpt lat="46.85464" lon="0.43087">
        <ele>135.2</ele>
        <time>2022-10-16T08:08:33Z</time>
      </trkpt>
      <trkpt lat="46.8545" lon="0.43091">
        <ele>135.8</ele>
        <time>2022-10-16T08:08:40Z</time>
      </trkpt>
      <trkpt lat="46.85448" lon="0.43091">
        <ele>136.2</ele>
        <time>2022-10-16T08:08:41Z</time>
      </trkpt>
      <trkpt lat="46.85442" lon="0.43095">
        <ele>137.4</ele>
        <time>2022-10-16T08:08:46Z</time>
      </trkpt>
      <trkpt lat="46.85439" lon="0.43097">
        <ele>137.8</ele>
        <time>2022-10-16T08:08:48Z</time>
      </trkpt>
      <trkpt lat="46.85436" lon="0.43099">
        <ele>138.6</ele>
        <time>2022-10-16T08:08:51Z</time>
      </trkpt>
      <trkpt lat="46.85435" lon="0.43105">
        <ele>139.4</ele>
        <time>2022-10-16T08:08:54Z</time>
      </trkpt>
      <trkpt lat="46.85434" lon="0.43108">
        <ele>139.6</ele>
        <time>2022-10-16T08:08:56Z</time>
      </trkpt>
      <trkpt lat="46.8543" lon="0.43114">
        <ele>140.8</ele>
        <time>2022-10-16T08:08:59Z</time>
      </trkpt>
      <trkpt lat="46.85428" lon="0.43118">
        <ele>141.2</ele>
        <time>2022-10-16T08:09:02Z</time>
      </trkpt>
      <trkpt lat="46.85424" lon="0.43124">
        <ele>142</ele>
        <time>2022-10-16T08:09:04Z</time>
      </trkpt>
      <trkpt lat="46.8542" lon="0.43132">
        <ele>143</ele>
        <time>2022-10-16T08:09:09Z</time>
      </trkpt>
      <trkpt lat="46.85414" lon="0.4314">
        <ele>144</ele>
        <time>2022-10-16T08:09:15Z</time>
      </trkpt>
      <trkpt lat="46.85412" lon="0.43146">
        <ele>144.6</ele>
        <time>2022-10-16T08:09:18Z</time>
      </trkpt>
      <trkpt lat="46.85409" lon="0.4315">
        <ele>145.2</ele>
        <time>2022-10-16T08:09:20Z</time>
      </trkpt>
      <trkpt lat="46.85405" lon="0.43161">
        <ele>145.8</ele>
        <time>2022-10-16T08:09:24Z</time>
      </trkpt>
      <trkpt lat="46.85402" lon="0.43164">
        <ele>146.4</ele>
        <time>2022-10-16T08:09:26Z</time>
      </trkpt>
      <trkpt lat="46.85397" lon="0.43176">
        <ele>147.2</ele>
        <time>2022-10-16T08:09:31Z</time>
      </trkpt>
      <trkpt lat="46.85395" lon="0.43182">
        <ele>147.4</ele>
        <time>2022-10-16T08:09:33Z</time>
      </trkpt>
      <trkpt lat="46.85389" lon="0.43195">
        <ele>147.8</ele>
        <time>2022-10-16T08:09:39Z</time>
      </trkpt>
      <trkpt lat="46.85384" lon="0.43204">
        <ele>148.4</ele>
        <time>2022-10-16T08:09:43Z</time>
      </trkpt>
      <trkpt lat="46.85376" lon="0.43218">
        <ele>149.2</ele>
        <time>2022-10-16T08:09:49Z</time>
      </trkpt>
      <trkpt lat="46.85373" lon="0.43222">
        <ele>149.4</ele>
        <time>2022-10-16T08:09:51Z</time>
      </trkpt>
      <trkpt lat="46.85363" lon="0.4323">
        <ele>149.6</ele>
        <time>2022-10-16T08:09:56Z</time>
      </trkpt>
      <trkpt lat="46.85343" lon="0.43246">
        <ele>150.6</ele>
        <time>2022-10-16T08:10:04Z</time>
      </trkpt>
      <trkpt lat="46.85322" lon="0.43257">
        <ele>151.2</ele>
        <time>2022-10-16T08:10:11Z</time>
      </trkpt>
      <trkpt lat="46.85312" lon="0.43259">
        <ele>151.6</ele>
        <time>2022-10-16T08:10:14Z</time>
      </trkpt>
      <trkpt lat="46.85302" lon="0.43265">
        <ele>152</ele>
        <time>2022-10-16T08:10:18Z</time>
      </trkpt>
      <trkpt lat="46.85287" lon="0.43283">
        <ele>152.4</ele>
        <time>2022-10-16T08:10:24Z</time>
      </trkpt>
      <trkpt lat="46.85283" lon="0.43294">
        <ele>152.8</ele>
        <time>2022-10-16T08:10:27Z</time>
      </trkpt>
      <trkpt lat="46.85275" lon="0.43312">
        <ele>152.6</ele>
        <time>2022-10-16T08:10:31Z</time>
      </trkpt>
      <trkpt lat="46.85271" lon="0.43339">
        <ele>152.6</ele>
        <time>2022-10-16T08:10:37Z</time>
      </trkpt>
      <trkpt lat="46.85278" lon="0.43378">
        <ele>153.2</ele>
        <time>2022-10-16T08:10:44Z</time>
      </trkpt>
      <trkpt lat="46.85282" lon="0.43397">
        <ele>153.2</ele>
        <time>2022-10-16T08:10:47Z</time>
      </trkpt>
      <trkpt lat="46.85285" lon="0.43408">
        <ele>153</ele>
        <time>2022-10-16T08:10:49Z</time>
      </trkpt>
      <trkpt lat="46.85287" lon="0.43412">
        <ele>153</ele>
        <time>2022-10-16T08:10:50Z</time>
      </trkpt>
      <trkpt lat="46.8529" lon="0.43415">
        <ele>153</ele>
        <time>2022-10-16T08:10:51Z</time>
      </trkpt>
      <trkpt lat="46.85296" lon="0.43418">
        <ele>152.4</ele>
        <time>2022-10-16T08:10:53Z</time>
      </trkpt>
      <trkpt lat="46.85298" lon="0.4342">
        <ele>151.8</ele>
        <time>2022-10-16T08:10:54Z</time>
      </trkpt>
      <trkpt lat="46.85299" lon="0.43423">
        <ele>151.6</ele>
        <time>2022-10-16T08:10:55Z</time>
      </trkpt>
      <trkpt lat="46.853" lon="0.43435">
        <ele>151.6</ele>
        <time>2022-10-16T08:10:58Z</time>
      </trkpt>
      <trkpt lat="46.85299" lon="0.43456">
        <ele>151.8</ele>
        <time>2022-10-16T08:11:03Z</time>
      </trkpt>
      <trkpt lat="46.85298" lon="0.43468">
        <ele>151.8</ele>
        <time>2022-10-16T08:11:06Z</time>
      </trkpt>
      <trkpt lat="46.85296" lon="0.4349">
        <ele>151.8</ele>
        <time>2022-10-16T08:11:10Z</time>
      </trkpt>
      <trkpt lat="46.85297" lon="0.43506">
        <ele>151.6</ele>
        <time>2022-10-16T08:11:12Z</time>
      </trkpt>
      <trkpt lat="46.85299" lon="0.43521">
        <ele>151.2</ele>
        <time>2022-10-16T08:11:14Z</time>
      </trkpt>
      <trkpt lat="46.85301" lon="0.43534">
        <ele>150.6</ele>
        <time>2022-10-16T08:11:16Z</time>
      </trkpt>
      <trkpt lat="46.85305" lon="0.43544">
        <ele>149.6</ele>
        <time>2022-10-16T08:11:18Z</time>
      </trkpt>
      <trkpt lat="46.85307" lon="0.43547">
        <ele>149.2</ele>
        <time>2022-10-16T08:11:19Z</time>
      </trkpt>
      <trkpt lat="46.85312" lon="0.43554">
        <ele>148.8</ele>
        <time>2022-10-16T08:11:21Z</time>
      </trkpt>
      <trkpt lat="46.85316" lon="0.43565">
        <ele>148.2</ele>
        <time>2022-10-16T08:11:23Z</time>
      </trkpt>
      <trkpt lat="46.85317" lon="0.43571">
        <ele>147.6</ele>
        <time>2022-10-16T08:11:24Z</time>
      </trkpt>
      <trkpt lat="46.85318" lon="0.43576">
        <ele>147.4</ele>
        <time>2022-10-16T08:11:25Z</time>
      </trkpt>
      <trkpt lat="46.85317" lon="0.43587">
        <ele>146.2</ele>
        <time>2022-10-16T08:11:27Z</time>
      </trkpt>
      <trkpt lat="46.85317" lon="0.43592">
        <ele>145.8</ele>
        <time>2022-10-16T08:11:28Z</time>
      </trkpt>
      <trkpt lat="46.85318" lon="0.43595">
        <ele>145</ele>
        <time>2022-10-16T08:11:29Z</time>
      </trkpt>
      <trkpt lat="46.85319" lon="0.43602">
        <ele>143.8</ele>
        <time>2022-10-16T08:11:31Z</time>
      </trkpt>
      <trkpt lat="46.85322" lon="0.43612">
        <ele>142.2</ele>
        <time>2022-10-16T08:11:33Z</time>
      </trkpt>
      <trkpt lat="46.85325" lon="0.43619">
        <ele>141.6</ele>
        <time>2022-10-16T08:11:35Z</time>
      </trkpt>
      <trkpt lat="46.85324" lon="0.43625">
        <ele>141.6</ele>
        <time>2022-10-16T08:11:37Z</time>
      </trkpt>
      <trkpt lat="46.85324" lon="0.43627">
        <ele>141.4</ele>
        <time>2022-10-16T08:11:38Z</time>
      </trkpt>
      <trkpt lat="46.85317" lon="0.43635">
        <ele>142</ele>
        <time>2022-10-16T08:11:42Z</time>
      </trkpt>
      <trkpt lat="46.85305" lon="0.43649">
        <ele>142.8</ele>
        <time>2022-10-16T08:11:48Z</time>
      </trkpt>
      <trkpt lat="46.85301" lon="0.43654">
        <ele>143.4</ele>
        <time>2022-10-16T08:11:50Z</time>
      </trkpt>
      <trkpt lat="46.85294" lon="0.43667">
        <ele>143.8</ele>
        <time>2022-10-16T08:11:55Z</time>
      </trkpt>
      <trkpt lat="46.85293" lon="0.43673">
        <ele>144.8</ele>
        <time>2022-10-16T08:11:57Z</time>
      </trkpt>
      <trkpt lat="46.8529" lon="0.43685">
        <ele>146</ele>
        <time>2022-10-16T08:12:01Z</time>
      </trkpt>
      <trkpt lat="46.85289" lon="0.43687">
        <ele>146.2</ele>
        <time>2022-10-16T08:12:02Z</time>
      </trkpt>
      <trkpt lat="46.85286" lon="0.43695">
        <ele>147.2</ele>
        <time>2022-10-16T08:12:05Z</time>
      </trkpt>
      <trkpt lat="46.85282" lon="0.43702">
        <ele>148.4</ele>
        <time>2022-10-16T08:12:08Z</time>
      </trkpt>
      <trkpt lat="46.8528" lon="0.43704">
        <ele>148.4</ele>
        <time>2022-10-16T08:12:09Z</time>
      </trkpt>
      <trkpt lat="46.85267" lon="0.43709">
        <ele>148.6</ele>
        <time>2022-10-16T08:12:15Z</time>
      </trkpt>
      <trkpt lat="46.85251" lon="0.4371">
        <ele>147.8</ele>
        <time>2022-10-16T08:12:22Z</time>
      </trkpt>
      <trkpt lat="46.85241" lon="0.43708">
        <ele>147.2</ele>
        <time>2022-10-16T08:12:27Z</time>
      </trkpt>
      <trkpt lat="46.85233" lon="0.43705">
        <ele>146.4</ele>
        <time>2022-10-16T08:12:32Z</time>
      </trkpt>
      <trkpt lat="46.85232" lon="0.43705">
        <ele>146.2</ele>
        <time>2022-10-16T08:12:33Z</time>
      </trkpt>
      <trkpt lat="46.85219" lon="0.43709">
        <ele>146.4</ele>
        <time>2022-10-16T08:12:38Z</time>
      </trkpt>
      <trkpt lat="46.85208" lon="0.43713">
        <ele>147.4</ele>
        <time>2022-10-16T08:12:43Z</time>
      </trkpt>
      <trkpt lat="46.85205" lon="0.43713">
        <ele>147.4</ele>
        <time>2022-10-16T08:12:44Z</time>
      </trkpt>
      <trkpt lat="46.85194" lon="0.43716">
        <ele>148.2</ele>
        <time>2022-10-16T08:12:48Z</time>
      </trkpt>
      <trkpt lat="46.85193" lon="0.43718">
        <ele>148.4</ele>
        <time>2022-10-16T08:12:49Z</time>
      </trkpt>
      <trkpt lat="46.85192" lon="0.4372">
        <ele>148.6</ele>
        <time>2022-10-16T08:12:50Z</time>
      </trkpt>
      <trkpt lat="46.85186" lon="0.43735">
        <ele>149.6</ele>
        <time>2022-10-16T08:12:56Z</time>
      </trkpt>
      <trkpt lat="46.85186" lon="0.43738">
        <ele>150</ele>
        <time>2022-10-16T08:12:57Z</time>
      </trkpt>
      <trkpt lat="46.85183" lon="0.43747">
        <ele>150.6</ele>
        <time>2022-10-16T08:13:01Z</time>
      </trkpt>
      <trkpt lat="46.85182" lon="0.43749">
        <ele>150.8</ele>
        <time>2022-10-16T08:13:02Z</time>
      </trkpt>
      <trkpt lat="46.85181" lon="0.43751">
        <ele>151.2</ele>
        <time>2022-10-16T08:13:03Z</time>
      </trkpt>
      <trkpt lat="46.85175" lon="0.43763">
        <ele>151.8</ele>
        <time>2022-10-16T08:13:08Z</time>
      </trkpt>
      <trkpt lat="46.85173" lon="0.43765">
        <ele>152.2</ele>
        <time>2022-10-16T08:13:09Z</time>
      </trkpt>
      <trkpt lat="46.85164" lon="0.43779">
        <ele>152.6</ele>
        <time>2022-10-16T08:13:14Z</time>
      </trkpt>
      <trkpt lat="46.85165" lon="0.43783">
        <ele>152.6</ele>
        <time>2022-10-16T08:13:15Z</time>
      </trkpt>
      <trkpt lat="46.85168" lon="0.43786">
        <ele>152.6</ele>
        <time>2022-10-16T08:13:18Z</time>
      </trkpt>
      <trkpt lat="46.85176" lon="0.43793">
        <ele>153.2</ele>
        <time>2022-10-16T08:13:22Z</time>
      </trkpt>
      <trkpt lat="46.85179" lon="0.43798">
        <ele>153.4</ele>
        <time>2022-10-16T08:13:24Z</time>
      </trkpt>
      <trkpt lat="46.8519" lon="0.43809">
        <ele>153.8</ele>
        <time>2022-10-16T08:13:29Z</time>
      </trkpt>
      <trkpt lat="46.85204" lon="0.43811">
        <ele>154.2</ele>
        <time>2022-10-16T08:13:35Z</time>
      </trkpt>
      <trkpt lat="46.85206" lon="0.43811">
        <ele>154</ele>
        <time>2022-10-16T08:13:36Z</time>
      </trkpt>
      <trkpt lat="46.85221" lon="0.43814">
        <ele>154.2</ele>
        <time>2022-10-16T08:13:42Z</time>
      </trkpt>
      <trkpt lat="46.85237" lon="0.43824">
        <ele>154.8</ele>
        <time>2022-10-16T08:13:49Z</time>
      </trkpt>
      <trkpt lat="46.85255" lon="0.43826">
        <ele>154.6</ele>
        <time>2022-10-16T08:13:55Z</time>
      </trkpt>
      <trkpt lat="46.85277" lon="0.43826">
        <ele>154.8</ele>
        <time>2022-10-16T08:14:01Z</time>
      </trkpt>
      <trkpt lat="46.85285" lon="0.43826">
        <ele>154.8</ele>
        <time>2022-10-16T08:14:03Z</time>
      </trkpt>
      <trkpt lat="46.85295" lon="0.43826">
        <ele>154.8</ele>
        <time>2022-10-16T08:14:06Z</time>
      </trkpt>
      <trkpt lat="46.85297" lon="0.43826">
        <ele>154.6</ele>
        <time>2022-10-16T08:14:07Z</time>
      </trkpt>
      <trkpt lat="46.85301" lon="0.43827">
        <ele>154.6</ele>
        <time>2022-10-16T08:14:08Z</time>
      </trkpt>
      <trkpt lat="46.8532" lon="0.43832">
        <ele>154.4</ele>
        <time>2022-10-16T08:14:13Z</time>
      </trkpt>
      <trkpt lat="46.85328" lon="0.43831">
        <ele>154.4</ele>
        <time>2022-10-16T08:14:15Z</time>
      </trkpt>
      <trkpt lat="46.85342" lon="0.43829">
        <ele>154.2</ele>
        <time>2022-10-16T08:14:19Z</time>
      </trkpt>
      <trkpt lat="46.85345" lon="0.43828">
        <ele>154.2</ele>
        <time>2022-10-16T08:14:20Z</time>
      </trkpt>
      <trkpt lat="46.85363" lon="0.43827">
        <ele>154.2</ele>
        <time>2022-10-16T08:14:24Z</time>
      </trkpt>
      <trkpt lat="46.85367" lon="0.43827">
        <ele>154.2</ele>
        <time>2022-10-16T08:14:25Z</time>
      </trkpt>
      <trkpt lat="46.8539" lon="0.43827">
        <ele>153.6</ele>
        <time>2022-10-16T08:14:30Z</time>
      </trkpt>
      <trkpt lat="46.85394" lon="0.43828">
        <ele>153.6</ele>
        <time>2022-10-16T08:14:31Z</time>
      </trkpt>
      <trkpt lat="46.85398" lon="0.43829">
        <ele>153.4</ele>
        <time>2022-10-16T08:14:32Z</time>
      </trkpt>
      <trkpt lat="46.85405" lon="0.43831">
        <ele>153.2</ele>
        <time>2022-10-16T08:14:34Z</time>
      </trkpt>
      <trkpt lat="46.85407" lon="0.43834">
        <ele>153</ele>
        <time>2022-10-16T08:14:35Z</time>
      </trkpt>
      <trkpt lat="46.8541" lon="0.43837">
        <ele>153</ele>
        <time>2022-10-16T08:14:36Z</time>
      </trkpt>
      <trkpt lat="46.85416" lon="0.43845">
        <ele>152.8</ele>
        <time>2022-10-16T08:14:38Z</time>
      </trkpt>
      <trkpt lat="46.85426" lon="0.43859">
        <ele>153.2</ele>
        <time>2022-10-16T08:14:41Z</time>
      </trkpt>
      <trkpt lat="46.85428" lon="0.43871">
        <ele>154</ele>
        <time>2022-10-16T08:14:45Z</time>
      </trkpt>
      <trkpt lat="46.85428" lon="0.43881">
        <ele>154.2</ele>
        <time>2022-10-16T08:14:48Z</time>
      </trkpt>
      <trkpt lat="46.85422" lon="0.43901">
        <ele>154.8</ele>
        <time>2022-10-16T08:14:54Z</time>
      </trkpt>
      <trkpt lat="46.85419" lon="0.43908">
        <ele>155.2</ele>
        <time>2022-10-16T08:14:56Z</time>
      </trkpt>
      <trkpt lat="46.85408" lon="0.43927">
        <ele>155.8</ele>
        <time>2022-10-16T08:15:02Z</time>
      </trkpt>
      <trkpt lat="46.85404" lon="0.43937">
        <ele>156.4</ele>
        <time>2022-10-16T08:15:05Z</time>
      </trkpt>
      <trkpt lat="46.85395" lon="0.43951">
        <ele>156.6</ele>
        <time>2022-10-16T08:15:10Z</time>
      </trkpt>
      <trkpt lat="46.85387" lon="0.43964">
        <ele>156.6</ele>
        <time>2022-10-16T08:15:16Z</time>
      </trkpt>
      <trkpt lat="46.85377" lon="0.43979">
        <ele>156.8</ele>
        <time>2022-10-16T08:15:22Z</time>
      </trkpt>
      <trkpt lat="46.85371" lon="0.43994">
        <ele>157.2</ele>
        <time>2022-10-16T08:15:28Z</time>
      </trkpt>
      <trkpt lat="46.85362" lon="0.44011">
        <ele>157.6</ele>
        <time>2022-10-16T08:15:33Z</time>
      </trkpt>
      <trkpt lat="46.85361" lon="0.44014">
        <ele>157.6</ele>
        <time>2022-10-16T08:15:34Z</time>
      </trkpt>
      <trkpt lat="46.85352" lon="0.44034">
        <ele>158.6</ele>
        <time>2022-10-16T08:15:40Z</time>
      </trkpt>
      <trkpt lat="46.85347" lon="0.44044">
        <ele>159</ele>
        <time>2022-10-16T08:15:43Z</time>
      </trkpt>
      <trkpt lat="46.85337" lon="0.44069">
        <ele>159.6</ele>
        <time>2022-10-16T08:15:50Z</time>
      </trkpt>
      <trkpt lat="46.85336" lon="0.44074">
        <ele>159.6</ele>
        <time>2022-10-16T08:15:51Z</time>
      </trkpt>
      <trkpt lat="46.85323" lon="0.44105">
        <ele>160.2</ele>
        <time>2022-10-16T08:15:58Z</time>
      </trkpt>
      <trkpt lat="46.85316" lon="0.44133">
        <ele>160.2</ele>
        <time>2022-10-16T08:16:05Z</time>
      </trkpt>
      <trkpt lat="46.85312" lon="0.44144">
        <ele>160.8</ele>
        <time>2022-10-16T08:16:08Z</time>
      </trkpt>
      <trkpt lat="46.85307" lon="0.44153">
        <ele>160.8</ele>
        <time>2022-10-16T08:16:10Z</time>
      </trkpt>
      <trkpt lat="46.85294" lon="0.44181">
        <ele>161</ele>
        <time>2022-10-16T08:16:16Z</time>
      </trkpt>
      <trkpt lat="46.85285" lon="0.44205">
        <ele>161.2</ele>
        <time>2022-10-16T08:16:21Z</time>
      </trkpt>
      <trkpt lat="46.8528" lon="0.44217">
        <ele>161.6</ele>
        <time>2022-10-16T08:16:23Z</time>
      </trkpt>
      <trkpt lat="46.85263" lon="0.44254">
        <ele>161.2</ele>
        <time>2022-10-16T08:16:30Z</time>
      </trkpt>
      <trkpt lat="46.85258" lon="0.44264">
        <ele>161.2</ele>
        <time>2022-10-16T08:16:32Z</time>
      </trkpt>
      <trkpt lat="46.85248" lon="0.44287">
        <ele>161.4</ele>
        <time>2022-10-16T08:16:37Z</time>
      </trkpt>
      <trkpt lat="46.8523" lon="0.44327">
        <ele>161.4</ele>
        <time>2022-10-16T08:16:46Z</time>
      </trkpt>
      <trkpt lat="46.85217" lon="0.44348">
        <ele>161</ele>
        <time>2022-10-16T08:16:51Z</time>
      </trkpt>
      <trkpt lat="46.85195" lon="0.44357">
        <ele>161</ele>
        <time>2022-10-16T08:16:56Z</time>
      </trkpt>
      <trkpt lat="46.85167" lon="0.44371">
        <ele>161</ele>
        <time>2022-10-16T08:17:03Z</time>
      </trkpt>
      <trkpt lat="46.8516" lon="0.44375">
        <ele>160.8</ele>
        <time>2022-10-16T08:17:05Z</time>
      </trkpt>
      <trkpt lat="46.85142" lon="0.44386">
        <ele>161.4</ele>
        <time>2022-10-16T08:17:10Z</time>
      </trkpt>
      <trkpt lat="46.85136" lon="0.4439">
        <ele>161.6</ele>
        <time>2022-10-16T08:17:12Z</time>
      </trkpt>
      <trkpt lat="46.85128" lon="0.44396">
        <ele>161.8</ele>
        <time>2022-10-16T08:17:14Z</time>
      </trkpt>
      <trkpt lat="46.85111" lon="0.44406">
        <ele>161.8</ele>
        <time>2022-10-16T08:17:18Z</time>
      </trkpt>
      <trkpt lat="46.85086" lon="0.44416">
        <ele>162.2</ele>
        <time>2022-10-16T08:17:24Z</time>
      </trkpt>
      <trkpt lat="46.85081" lon="0.44417">
        <ele>162.2</ele>
        <time>2022-10-16T08:17:25Z</time>
      </trkpt>
      <trkpt lat="46.85044" lon="0.44435">
        <ele>162.6</ele>
        <time>2022-10-16T08:17:33Z</time>
      </trkpt>
      <trkpt lat="46.85039" lon="0.44437">
        <ele>162.8</ele>
        <time>2022-10-16T08:17:34Z</time>
      </trkpt>
      <trkpt lat="46.85011" lon="0.44453">
        <ele>163.2</ele>
        <time>2022-10-16T08:17:40Z</time>
      </trkpt>
      <trkpt lat="46.84993" lon="0.44462">
        <ele>163.4</ele>
        <time>2022-10-16T08:17:44Z</time>
      </trkpt>
      <trkpt lat="46.84987" lon="0.44464">
        <ele>163.2</ele>
        <time>2022-10-16T08:17:45Z</time>
      </trkpt>
      <trkpt lat="46.84959" lon="0.44471">
        <ele>162.8</ele>
        <time>2022-10-16T08:17:50Z</time>
      </trkpt>
      <trkpt lat="46.84925" lon="0.44483">
        <ele>163.2</ele>
        <time>2022-10-16T08:17:57Z</time>
      </trkpt>
      <trkpt lat="46.84902" lon="0.44494">
        <ele>162.8</ele>
        <time>2022-10-16T08:18:04Z</time>
      </trkpt>
      <trkpt lat="46.84888" lon="0.44502">
        <ele>162.8</ele>
        <time>2022-10-16T08:18:09Z</time>
      </trkpt>
      <trkpt lat="46.84864" lon="0.44512">
        <ele>163</ele>
        <time>2022-10-16T08:18:16Z</time>
      </trkpt>
      <trkpt lat="46.84844" lon="0.44521">
        <ele>163.2</ele>
        <time>2022-10-16T08:18:22Z</time>
      </trkpt>
      <trkpt lat="46.84815" lon="0.44533">
        <ele>162.8</ele>
        <time>2022-10-16T08:18:30Z</time>
      </trkpt>
      <trkpt lat="46.8479" lon="0.44545">
        <ele>162</ele>
        <time>2022-10-16T08:18:36Z</time>
      </trkpt>
      <trkpt lat="46.8478" lon="0.44549">
        <ele>162.2</ele>
        <time>2022-10-16T08:18:38Z</time>
      </trkpt>
      <trkpt lat="46.84767" lon="0.44559">
        <ele>162.4</ele>
        <time>2022-10-16T08:18:41Z</time>
      </trkpt>
      <trkpt lat="46.84735" lon="0.44585">
        <ele>162.6</ele>
        <time>2022-10-16T08:18:48Z</time>
      </trkpt>
      <trkpt lat="46.8473" lon="0.44589">
        <ele>162.6</ele>
        <time>2022-10-16T08:18:49Z</time>
      </trkpt>
      <trkpt lat="46.84704" lon="0.44604">
        <ele>162.4</ele>
        <time>2022-10-16T08:18:53Z</time>
      </trkpt>
      <trkpt lat="46.84672" lon="0.44624">
        <ele>161.4</ele>
        <time>2022-10-16T08:18:58Z</time>
      </trkpt>
      <trkpt lat="46.84665" lon="0.44628">
        <ele>161</ele>
        <time>2022-10-16T08:18:59Z</time>
      </trkpt>
      <trkpt lat="46.84641" lon="0.44641">
        <ele>160.2</ele>
        <time>2022-10-16T08:19:03Z</time>
      </trkpt>
      <trkpt lat="46.84627" lon="0.44649">
        <ele>160</ele>
        <time>2022-10-16T08:19:06Z</time>
      </trkpt>
      <trkpt lat="46.84623" lon="0.44651">
        <ele>159.6</ele>
        <time>2022-10-16T08:19:07Z</time>
      </trkpt>
      <trkpt lat="46.84618" lon="0.44652">
        <ele>159.2</ele>
        <time>2022-10-16T08:19:09Z</time>
      </trkpt>
      <trkpt lat="46.84617" lon="0.44652">
        <ele>159</ele>
        <time>2022-10-16T08:19:10Z</time>
      </trkpt>
      <trkpt lat="46.84611" lon="0.4465">
        <ele>159.2</ele>
        <time>2022-10-16T08:19:14Z</time>
      </trkpt>
      <trkpt lat="46.84609" lon="0.44644">
        <ele>159.2</ele>
        <time>2022-10-16T08:19:16Z</time>
      </trkpt>
      <trkpt lat="46.84607" lon="0.44622">
        <ele>159.6</ele>
        <time>2022-10-16T08:19:22Z</time>
      </trkpt>
      <trkpt lat="46.84601" lon="0.44575">
        <ele>159.8</ele>
        <time>2022-10-16T08:19:29Z</time>
      </trkpt>
      <trkpt lat="46.84597" lon="0.44542">
        <ele>160.2</ele>
        <time>2022-10-16T08:19:34Z</time>
      </trkpt>
      <trkpt lat="46.84594" lon="0.4453">
        <ele>160.2</ele>
        <time>2022-10-16T08:19:36Z</time>
      </trkpt>
      <trkpt lat="46.84593" lon="0.44525">
        <ele>160.2</ele>
        <time>2022-10-16T08:19:37Z</time>
      </trkpt>
      <trkpt lat="46.84581" lon="0.44483">
        <ele>160.6</ele>
        <time>2022-10-16T08:19:44Z</time>
      </trkpt>
      <trkpt lat="46.84564" lon="0.44433">
        <ele>160.6</ele>
        <time>2022-10-16T08:19:52Z</time>
      </trkpt>
      <trkpt lat="46.84552" lon="0.44392">
        <ele>160.4</ele>
        <time>2022-10-16T08:19:59Z</time>
      </trkpt>
      <trkpt lat="46.84533" lon="0.44353">
        <ele>160.6</ele>
        <time>2022-10-16T08:20:05Z</time>
      </trkpt>
      <trkpt lat="46.84501" lon="0.4429">
        <ele>160</ele>
        <time>2022-10-16T08:20:13Z</time>
      </trkpt>
      <trkpt lat="46.8447" lon="0.44227">
        <ele>159.4</ele>
        <time>2022-10-16T08:20:20Z</time>
      </trkpt>
      <trkpt lat="46.84461" lon="0.4421">
        <ele>159</ele>
        <time>2022-10-16T08:20:22Z</time>
      </trkpt>
      <trkpt lat="46.84439" lon="0.44167">
        <ele>158</ele>
        <time>2022-10-16T08:20:27Z</time>
      </trkpt>
      <trkpt lat="46.84416" lon="0.44126">
        <ele>157.8</ele>
        <time>2022-10-16T08:20:33Z</time>
      </trkpt>
      <trkpt lat="46.84389" lon="0.44075">
        <ele>158.4</ele>
        <time>2022-10-16T08:20:41Z</time>
      </trkpt>
      <trkpt lat="46.84379" lon="0.44056">
        <ele>159</ele>
        <time>2022-10-16T08:20:44Z</time>
      </trkpt>
      <trkpt lat="46.84367" lon="0.44035">
        <ele>159.6</ele>
        <time>2022-10-16T08:20:48Z</time>
      </trkpt>
      <trkpt lat="46.84351" lon="0.4401">
        <ele>160</ele>
        <time>2022-10-16T08:20:53Z</time>
      </trkpt>
      <trkpt lat="46.84339" lon="0.43988">
        <ele>160.4</ele>
        <time>2022-10-16T08:20:57Z</time>
      </trkpt>
      <trkpt lat="46.84316" lon="0.43946">
        <ele>161</ele>
        <time>2022-10-16T08:21:05Z</time>
      </trkpt>
      <trkpt lat="46.84315" lon="0.4394">
        <ele>160.8</ele>
        <time>2022-10-16T08:21:06Z</time>
      </trkpt>
      <trkpt lat="46.84308" lon="0.43925">
        <ele>161</ele>
        <time>2022-10-16T08:21:09Z</time>
      </trkpt>
      <trkpt lat="46.84301" lon="0.43913">
        <ele>161.4</ele>
        <time>2022-10-16T08:21:12Z</time>
      </trkpt>
      <trkpt lat="46.84276" lon="0.4388">
        <ele>162.2</ele>
        <time>2022-10-16T08:21:21Z</time>
      </trkpt>
      <trkpt lat="46.84261" lon="0.43856">
        <ele>163</ele>
        <time>2022-10-16T08:21:27Z</time>
      </trkpt>
      <trkpt lat="46.84247" lon="0.43835">
        <ele>163.2</ele>
        <time>2022-10-16T08:21:32Z</time>
      </trkpt>
      <trkpt lat="46.84235" lon="0.43817">
        <ele>163.2</ele>
        <time>2022-10-16T08:21:36Z</time>
      </trkpt>
      <trkpt lat="46.84229" lon="0.43808">
        <ele>163.6</ele>
        <time>2022-10-16T08:21:38Z</time>
      </trkpt>
      <trkpt lat="46.84205" lon="0.43773">
        <ele>164</ele>
        <time>2022-10-16T08:21:46Z</time>
      </trkpt>
      <trkpt lat="46.84202" lon="0.43769">
        <ele>164</ele>
        <time>2022-10-16T08:21:47Z</time>
      </trkpt>
      <trkpt lat="46.84192" lon="0.43752">
        <ele>164</ele>
        <time>2022-10-16T08:21:51Z</time>
      </trkpt>
      <trkpt lat="46.84178" lon="0.43734">
        <ele>164.4</ele>
        <time>2022-10-16T08:21:57Z</time>
      </trkpt>
      <trkpt lat="46.84167" lon="0.43719">
        <ele>164.4</ele>
        <time>2022-10-16T08:22:02Z</time>
      </trkpt>
      <trkpt lat="46.84152" lon="0.43702">
        <ele>164.8</ele>
        <time>2022-10-16T08:22:07Z</time>
      </trkpt>
      <trkpt lat="46.84149" lon="0.43699">
        <ele>165</ele>
        <time>2022-10-16T08:22:08Z</time>
      </trkpt>
      <trkpt lat="46.84134" lon="0.43684">
        <ele>165.6</ele>
        <time>2022-10-16T08:22:13Z</time>
      </trkpt>
      <trkpt lat="46.84131" lon="0.43682">
        <ele>165.8</ele>
        <time>2022-10-16T08:22:14Z</time>
      </trkpt>
      <trkpt lat="46.84129" lon="0.4368">
        <ele>165.8</ele>
        <time>2022-10-16T08:22:15Z</time>
      </trkpt>
      <trkpt lat="46.84113" lon="0.43664">
        <ele>165.4</ele>
        <time>2022-10-16T08:22:22Z</time>
      </trkpt>
      <trkpt lat="46.84099" lon="0.43645">
        <ele>166</ele>
        <time>2022-10-16T08:22:28Z</time>
      </trkpt>
      <trkpt lat="46.84077" lon="0.43622">
        <ele>166</ele>
        <time>2022-10-16T08:22:34Z</time>
      </trkpt>
      <trkpt lat="46.84073" lon="0.43618">
        <ele>166</ele>
        <time>2022-10-16T08:22:35Z</time>
      </trkpt>
      <trkpt lat="46.84053" lon="0.43598">
        <ele>166</ele>
        <time>2022-10-16T08:22:41Z</time>
      </trkpt>
      <trkpt lat="46.84046" lon="0.4359">
        <ele>165.8</ele>
        <time>2022-10-16T08:22:43Z</time>
      </trkpt>
      <trkpt lat="46.84033" lon="0.43572">
        <ele>165.8</ele>
        <time>2022-10-16T08:22:47Z</time>
      </trkpt>
      <trkpt lat="46.8401" lon="0.43545">
        <ele>165.6</ele>
        <time>2022-10-16T08:22:52Z</time>
      </trkpt>
      <trkpt lat="46.83989" lon="0.43518">
        <ele>166</ele>
        <time>2022-10-16T08:22:58Z</time>
      </trkpt>
      <trkpt lat="46.83963" lon="0.43484">
        <ele>165.8</ele>
        <time>2022-10-16T08:23:03Z</time>
      </trkpt>
      <trkpt lat="46.83932" lon="0.4344">
        <ele>166</ele>
        <time>2022-10-16T08:23:10Z</time>
      </trkpt>
      <trkpt lat="46.83913" lon="0.43411">
        <ele>166.2</ele>
        <time>2022-10-16T08:23:15Z</time>
      </trkpt>
      <trkpt lat="46.8391" lon="0.43405">
        <ele>166.2</ele>
        <time>2022-10-16T08:23:16Z</time>
      </trkpt>
      <trkpt lat="46.83891" lon="0.43355">
        <ele>165.8</ele>
        <time>2022-10-16T08:23:23Z</time>
      </trkpt>
      <trkpt lat="46.83865" lon="0.43296">
        <ele>166.2</ele>
        <time>2022-10-16T08:23:30Z</time>
      </trkpt>
      <trkpt lat="46.83842" lon="0.43252">
        <ele>166</ele>
        <time>2022-10-16T08:23:37Z</time>
      </trkpt>
      <trkpt lat="46.83825" lon="0.43227">
        <ele>165.6</ele>
        <time>2022-10-16T08:23:42Z</time>
      </trkpt>
      <trkpt lat="46.83822" lon="0.43223">
        <ele>165.6</ele>
        <time>2022-10-16T08:23:43Z</time>
      </trkpt>
      <trkpt lat="46.83818" lon="0.4322">
        <ele>165.6</ele>
        <time>2022-10-16T08:23:44Z</time>
      </trkpt>
      <trkpt lat="46.83797" lon="0.432">
        <ele>165.6</ele>
        <time>2022-10-16T08:23:49Z</time>
      </trkpt>
      <trkpt lat="46.83787" lon="0.43192">
        <ele>165.4</ele>
        <time>2022-10-16T08:23:51Z</time>
      </trkpt>
      <trkpt lat="46.83772" lon="0.4318">
        <ele>165</ele>
        <time>2022-10-16T08:23:54Z</time>
      </trkpt>
      <trkpt lat="46.83748" lon="0.43162">
        <ele>165.6</ele>
        <time>2022-10-16T08:23:59Z</time>
      </trkpt>
      <trkpt lat="46.83744" lon="0.43159">
        <ele>165.6</ele>
        <time>2022-10-16T08:24:00Z</time>
      </trkpt>
      <trkpt lat="46.83718" lon="0.43138">
        <ele>165.4</ele>
        <time>2022-10-16T08:24:06Z</time>
      </trkpt>
      <trkpt lat="46.83693" lon="0.43118">
        <ele>165.4</ele>
        <time>2022-10-16T08:24:10Z</time>
      </trkpt>
      <trkpt lat="46.83668" lon="0.43097">
        <ele>164.6</ele>
        <time>2022-10-16T08:24:14Z</time>
      </trkpt>
      <trkpt lat="46.83652" lon="0.43083">
        <ele>164</ele>
        <time>2022-10-16T08:24:17Z</time>
      </trkpt>
      <trkpt lat="46.83632" lon="0.43069">
        <ele>163.6</ele>
        <time>2022-10-16T08:24:20Z</time>
      </trkpt>
      <trkpt lat="46.8362" lon="0.43058">
        <ele>163</ele>
        <time>2022-10-16T08:24:22Z</time>
      </trkpt>
      <trkpt lat="46.83586" lon="0.4303">
        <ele>162.6</ele>
        <time>2022-10-16T08:24:28Z</time>
      </trkpt>
      <trkpt lat="46.83573" lon="0.43021">
        <ele>162.6</ele>
        <time>2022-10-16T08:24:30Z</time>
      </trkpt>
      <trkpt lat="46.83553" lon="0.43006">
        <ele>162</ele>
        <time>2022-10-16T08:24:33Z</time>
      </trkpt>
      <trkpt lat="46.83523" lon="0.42984">
        <ele>161.6</ele>
        <time>2022-10-16T08:24:39Z</time>
      </trkpt>
      <trkpt lat="46.83514" lon="0.42976">
        <ele>161.2</ele>
        <time>2022-10-16T08:24:41Z</time>
      </trkpt>
      <trkpt lat="46.83504" lon="0.4297">
        <ele>161.4</ele>
        <time>2022-10-16T08:24:43Z</time>
      </trkpt>
      <trkpt lat="46.83495" lon="0.4297">
        <ele>161.6</ele>
        <time>2022-10-16T08:24:45Z</time>
      </trkpt>
      <trkpt lat="46.83491" lon="0.42972">
        <ele>161.6</ele>
        <time>2022-10-16T08:24:46Z</time>
      </trkpt>
      <trkpt lat="46.83485" lon="0.42976">
        <ele>161.6</ele>
        <time>2022-10-16T08:24:48Z</time>
      </trkpt>
      <trkpt lat="46.83471" lon="0.42991">
        <ele>161.2</ele>
        <time>2022-10-16T08:24:53Z</time>
      </trkpt>
      <trkpt lat="46.83455" lon="0.43016">
        <ele>162</ele>
        <time>2022-10-16T08:25:01Z</time>
      </trkpt>
      <trkpt lat="46.83446" lon="0.43035">
        <ele>162.2</ele>
        <time>2022-10-16T08:25:06Z</time>
      </trkpt>
      <trkpt lat="46.83444" lon="0.4304">
        <ele>162.4</ele>
        <time>2022-10-16T08:25:08Z</time>
      </trkpt>
      <trkpt lat="46.83438" lon="0.43049">
        <ele>162.6</ele>
        <time>2022-10-16T08:25:13Z</time>
      </trkpt>
      <trkpt lat="46.8343" lon="0.43057">
        <ele>162.6</ele>
        <time>2022-10-16T08:25:16Z</time>
      </trkpt>
      <trkpt lat="46.83424" lon="0.43058">
        <ele>162.2</ele>
        <time>2022-10-16T08:25:22Z</time>
      </trkpt>
      <trkpt lat="46.83422" lon="0.43058">
        <ele>162.6</ele>
        <time>2022-10-16T08:25:29Z</time>
      </trkpt>
      <trkpt lat="46.83421" lon="0.43059">
        <ele>162.6</ele>
        <time>2022-10-16T08:25:30Z</time>
      </trkpt>
      <trkpt lat="46.83415" lon="0.43061">
        <ele>162.8</ele>
        <time>2022-10-16T08:25:36Z</time>
      </trkpt>
      <trkpt lat="46.83413" lon="0.43064">
        <ele>163.2</ele>
        <time>2022-10-16T08:25:40Z</time>
      </trkpt>
      <trkpt lat="46.83412" lon="0.43064">
        <ele>163.2</ele>
        <time>2022-10-16T08:25:41Z</time>
      </trkpt>
      <trkpt lat="46.8341" lon="0.43067">
        <ele>163</ele>
        <time>2022-10-16T08:25:46Z</time>
      </trkpt>
      <trkpt lat="46.83409" lon="0.43069">
        <ele>163</ele>
        <time>2022-10-16T08:25:47Z</time>
      </trkpt>
      <trkpt lat="46.83409" lon="0.43071">
        <ele>163</ele>
        <time>2022-10-16T08:25:49Z</time>
      </trkpt>
      <trkpt lat="46.83406" lon="0.43086">
        <ele>162.6</ele>
        <time>2022-10-16T08:25:59Z</time>
      </trkpt>
      <trkpt lat="46.83403" lon="0.43102">
        <ele>163.2</ele>
        <time>2022-10-16T08:26:08Z</time>
      </trkpt>
      <trkpt lat="46.83401" lon="0.43108">
        <ele>163.2</ele>
        <time>2022-10-16T08:26:11Z</time>
      </trkpt>
      <trkpt lat="46.83393" lon="0.43127">
        <ele>163.8</ele>
        <time>2022-10-16T08:26:17Z</time>
      </trkpt>
      <trkpt lat="46.83386" lon="0.43141">
        <ele>164</ele>
        <time>2022-10-16T08:26:21Z</time>
      </trkpt>
      <trkpt lat="46.8338" lon="0.43152">
        <ele>164.2</ele>
        <time>2022-10-16T08:26:24Z</time>
      </trkpt>
      <trkpt lat="46.83378" lon="0.43157">
        <ele>164.8</ele>
        <time>2022-10-16T08:26:25Z</time>
      </trkpt>
      <trkpt lat="46.8337" lon="0.43169">
        <ele>165.2</ele>
        <time>2022-10-16T08:26:29Z</time>
      </trkpt>
      <trkpt lat="46.83369" lon="0.43173">
        <ele>165.4</ele>
        <time>2022-10-16T08:26:30Z</time>
      </trkpt>
      <trkpt lat="46.83364" lon="0.43181">
        <ele>165.6</ele>
        <time>2022-10-16T08:26:32Z</time>
      </trkpt>
      <trkpt lat="46.83361" lon="0.43189">
        <ele>165.8</ele>
        <time>2022-10-16T08:26:34Z</time>
      </trkpt>
      <trkpt lat="46.83358" lon="0.43195">
        <ele>165.8</ele>
        <time>2022-10-16T08:26:35Z</time>
      </trkpt>
      <trkpt lat="46.83344" lon="0.43235">
        <ele>165.6</ele>
        <time>2022-10-16T08:26:41Z</time>
      </trkpt>
      <trkpt lat="46.83334" lon="0.43267">
        <ele>165.6</ele>
        <time>2022-10-16T08:26:46Z</time>
      </trkpt>
      <trkpt lat="46.83332" lon="0.43273">
        <ele>165.6</ele>
        <time>2022-10-16T08:26:47Z</time>
      </trkpt>
      <trkpt lat="46.83326" lon="0.43294">
        <ele>165.6</ele>
        <time>2022-10-16T08:26:50Z</time>
      </trkpt>
      <trkpt lat="46.83321" lon="0.43313">
        <ele>165.8</ele>
        <time>2022-10-16T08:26:53Z</time>
      </trkpt>
      <trkpt lat="46.83317" lon="0.43331">
        <ele>165.6</ele>
        <time>2022-10-16T08:26:56Z</time>
      </trkpt>
      <trkpt lat="46.83315" lon="0.43341">
        <ele>165.2</ele>
        <time>2022-10-16T08:26:58Z</time>
      </trkpt>
      <trkpt lat="46.83314" lon="0.43348">
        <ele>165</ele>
        <time>2022-10-16T08:27:00Z</time>
      </trkpt>
      <trkpt lat="46.83312" lon="0.43353">
        <ele>165</ele>
        <time>2022-10-16T08:27:02Z</time>
      </trkpt>
      <trkpt lat="46.83311" lon="0.43356">
        <ele>165</ele>
        <time>2022-10-16T08:27:03Z</time>
      </trkpt>
      <trkpt lat="46.83309" lon="0.43362">
        <ele>164.6</ele>
        <time>2022-10-16T08:27:06Z</time>
      </trkpt>
      <trkpt lat="46.83308" lon="0.43365">
        <ele>164.6</ele>
        <time>2022-10-16T08:27:07Z</time>
      </trkpt>
      <trkpt lat="46.83306" lon="0.4337">
        <ele>164.6</ele>
        <time>2022-10-16T08:27:09Z</time>
      </trkpt>
      <trkpt lat="46.83302" lon="0.43378">
        <ele>164.6</ele>
        <time>2022-10-16T08:27:12Z</time>
      </trkpt>
      <trkpt lat="46.83297" lon="0.43398">
        <ele>164.6</ele>
        <time>2022-10-16T08:27:17Z</time>
      </trkpt>
      <trkpt lat="46.8329" lon="0.43437">
        <ele>164.8</ele>
        <time>2022-10-16T08:27:23Z</time>
      </trkpt>
      <trkpt lat="46.83281" lon="0.43481">
        <ele>164.8</ele>
        <time>2022-10-16T08:27:29Z</time>
      </trkpt>
      <trkpt lat="46.8328" lon="0.43489">
        <ele>164.8</ele>
        <time>2022-10-16T08:27:30Z</time>
      </trkpt>
      <trkpt lat="46.83271" lon="0.43523">
        <ele>164.2</ele>
        <time>2022-10-16T08:27:34Z</time>
      </trkpt>
      <trkpt lat="46.83267" lon="0.43536">
        <ele>164.2</ele>
        <time>2022-10-16T08:27:36Z</time>
      </trkpt>
      <trkpt lat="46.8326" lon="0.43547">
        <ele>164</ele>
        <time>2022-10-16T08:27:38Z</time>
      </trkpt>
      <trkpt lat="46.83246" lon="0.43567">
        <ele>163.6</ele>
        <time>2022-10-16T08:27:42Z</time>
      </trkpt>
      <trkpt lat="46.8324" lon="0.43577">
        <ele>163.2</ele>
        <time>2022-10-16T08:27:44Z</time>
      </trkpt>
      <trkpt lat="46.83217" lon="0.43607">
        <ele>162.8</ele>
        <time>2022-10-16T08:27:50Z</time>
      </trkpt>
      <trkpt lat="46.83207" lon="0.43619">
        <ele>162.4</ele>
        <time>2022-10-16T08:27:53Z</time>
      </trkpt>
      <trkpt lat="46.83191" lon="0.43639">
        <ele>162</ele>
        <time>2022-10-16T08:27:57Z</time>
      </trkpt>
      <trkpt lat="46.83174" lon="0.43662">
        <ele>161.4</ele>
        <time>2022-10-16T08:28:01Z</time>
      </trkpt>
      <trkpt lat="46.83164" lon="0.43675">
        <ele>161.4</ele>
        <time>2022-10-16T08:28:03Z</time>
      </trkpt>
      <trkpt lat="46.8314" lon="0.43726">
        <ele>161</ele>
        <time>2022-10-16T08:28:10Z</time>
      </trkpt>
      <trkpt lat="46.83133" lon="0.43741">
        <ele>161</ele>
        <time>2022-10-16T08:28:12Z</time>
      </trkpt>
      <trkpt lat="46.8312" lon="0.43764">
        <ele>161</ele>
        <time>2022-10-16T08:28:15Z</time>
      </trkpt>
      <trkpt lat="46.83097" lon="0.43798">
        <ele>160.6</ele>
        <time>2022-10-16T08:28:21Z</time>
      </trkpt>
      <trkpt lat="46.83092" lon="0.43808">
        <ele>160.4</ele>
        <time>2022-10-16T08:28:23Z</time>
      </trkpt>
      <trkpt lat="46.83071" lon="0.43838">
        <ele>160.4</ele>
        <time>2022-10-16T08:28:28Z</time>
      </trkpt>
      <trkpt lat="46.83044" lon="0.43875">
        <ele>160.2</ele>
        <time>2022-10-16T08:28:33Z</time>
      </trkpt>
      <trkpt lat="46.83015" lon="0.43918">
        <ele>159.6</ele>
        <time>2022-10-16T08:28:39Z</time>
      </trkpt>
      <trkpt lat="46.82999" lon="0.4394">
        <ele>159.4</ele>
        <time>2022-10-16T08:28:43Z</time>
      </trkpt>
      <trkpt lat="46.8299" lon="0.43954">
        <ele>159.2</ele>
        <time>2022-10-16T08:28:45Z</time>
      </trkpt>
      <trkpt lat="46.82987" lon="0.4396">
        <ele>159</ele>
        <time>2022-10-16T08:28:46Z</time>
      </trkpt>
      <trkpt lat="46.8297" lon="0.43991">
        <ele>158</ele>
        <time>2022-10-16T08:28:50Z</time>
      </trkpt>
      <trkpt lat="46.8296" lon="0.44022">
        <ele>157.2</ele>
        <time>2022-10-16T08:28:53Z</time>
      </trkpt>
      <trkpt lat="46.82958" lon="0.44031">
        <ele>157</ele>
        <time>2022-10-16T08:28:54Z</time>
      </trkpt>
      <trkpt lat="46.82949" lon="0.44084">
        <ele>155.8</ele>
        <time>2022-10-16T08:28:59Z</time>
      </trkpt>
      <trkpt lat="46.82948" lon="0.44091">
        <ele>155.6</ele>
        <time>2022-10-16T08:29:00Z</time>
      </trkpt>
      <trkpt lat="46.82941" lon="0.44104">
        <ele>154.8</ele>
        <time>2022-10-16T08:29:03Z</time>
      </trkpt>
      <trkpt lat="46.82922" lon="0.44118">
        <ele>154.4</ele>
        <time>2022-10-16T08:29:08Z</time>
      </trkpt>
      <trkpt lat="46.829" lon="0.44127">
        <ele>155.2</ele>
        <time>2022-10-16T08:29:13Z</time>
      </trkpt>
      <trkpt lat="46.82874" lon="0.44141">
        <ele>154.4</ele>
        <time>2022-10-16T08:29:19Z</time>
      </trkpt>
      <trkpt lat="46.82858" lon="0.44158">
        <ele>153.6</ele>
        <time>2022-10-16T08:29:23Z</time>
      </trkpt>
      <trkpt lat="46.82854" lon="0.44163">
        <ele>153.6</ele>
        <time>2022-10-16T08:29:24Z</time>
      </trkpt>
      <trkpt lat="46.82838" lon="0.44181">
        <ele>152</ele>
        <time>2022-10-16T08:29:28Z</time>
      </trkpt>
      <trkpt lat="46.82826" lon="0.44197">
        <ele>150.8</ele>
        <time>2022-10-16T08:29:31Z</time>
      </trkpt>
      <trkpt lat="46.82821" lon="0.44204">
        <ele>149</ele>
        <time>2022-10-16T08:29:33Z</time>
      </trkpt>
      <trkpt lat="46.82818" lon="0.44209">
        <ele>147.2</ele>
        <time>2022-10-16T08:29:35Z</time>
      </trkpt>
      <trkpt lat="46.82815" lon="0.44212">
        <ele>146.8</ele>
        <time>2022-10-16T08:29:36Z</time>
      </trkpt>
      <trkpt lat="46.82808" lon="0.44212">
        <ele>146.6</ele>
        <time>2022-10-16T08:29:40Z</time>
      </trkpt>
      <trkpt lat="46.82807" lon="0.44211">
        <ele>146.6</ele>
        <time>2022-10-16T08:29:41Z</time>
      </trkpt>
      <trkpt lat="46.82806" lon="0.44208">
        <ele>146.6</ele>
        <time>2022-10-16T08:29:44Z</time>
      </trkpt>
      <trkpt lat="46.82803" lon="0.442">
        <ele>147.6</ele>
        <time>2022-10-16T08:29:49Z</time>
      </trkpt>
      <trkpt lat="46.82802" lon="0.44198">
        <ele>148.2</ele>
        <time>2022-10-16T08:29:51Z</time>
      </trkpt>
      <trkpt lat="46.82801" lon="0.44196">
        <ele>148.4</ele>
        <time>2022-10-16T08:29:52Z</time>
      </trkpt>
      <trkpt lat="46.82798" lon="0.44195">
        <ele>148.6</ele>
        <time>2022-10-16T08:29:54Z</time>
      </trkpt>
      <trkpt lat="46.82795" lon="0.44193">
        <ele>148.8</ele>
        <time>2022-10-16T08:29:56Z</time>
      </trkpt>
      <trkpt lat="46.82788" lon="0.44183">
        <ele>148.6</ele>
        <time>2022-10-16T08:30:00Z</time>
      </trkpt>
      <trkpt lat="46.82779" lon="0.44167">
        <ele>148.4</ele>
        <time>2022-10-16T08:30:04Z</time>
      </trkpt>
      <trkpt lat="46.82776" lon="0.44159">
        <ele>148</ele>
        <time>2022-10-16T08:30:06Z</time>
      </trkpt>
      <trkpt lat="46.82773" lon="0.44149">
        <ele>147.6</ele>
        <time>2022-10-16T08:30:09Z</time>
      </trkpt>
      <trkpt lat="46.82771" lon="0.44143">
        <ele>147.4</ele>
        <time>2022-10-16T08:30:11Z</time>
      </trkpt>
      <trkpt lat="46.82769" lon="0.44139">
        <ele>147.2</ele>
        <time>2022-10-16T08:30:13Z</time>
      </trkpt>
      <trkpt lat="46.82768" lon="0.44135">
        <ele>146.6</ele>
        <time>2022-10-16T08:30:15Z</time>
      </trkpt>
      <trkpt lat="46.82767" lon="0.4413">
        <ele>146.4</ele>
        <time>2022-10-16T08:30:17Z</time>
      </trkpt>
      <trkpt lat="46.82765" lon="0.44116">
        <ele>146.2</ele>
        <time>2022-10-16T08:30:21Z</time>
      </trkpt>
      <trkpt lat="46.82759" lon="0.44094">
        <ele>146.2</ele>
        <time>2022-10-16T08:30:27Z</time>
      </trkpt>
      <trkpt lat="46.82762" lon="0.44065">
        <ele>145.8</ele>
        <time>2022-10-16T08:30:34Z</time>
      </trkpt>
      <trkpt lat="46.82762" lon="0.44056">
        <ele>146.2</ele>
        <time>2022-10-16T08:30:37Z</time>
      </trkpt>
      <trkpt lat="46.8276" lon="0.44048">
        <ele>146.4</ele>
        <time>2022-10-16T08:30:39Z</time>
      </trkpt>
      <trkpt lat="46.82756" lon="0.44033">
        <ele>146.2</ele>
        <time>2022-10-16T08:30:42Z</time>
      </trkpt>
      <trkpt lat="46.82755" lon="0.44021">
        <ele>145.6</ele>
        <time>2022-10-16T08:30:44Z</time>
      </trkpt>
      <trkpt lat="46.82755" lon="0.44018">
        <ele>145.4</ele>
        <time>2022-10-16T08:30:45Z</time>
      </trkpt>
      <trkpt lat="46.82756" lon="0.44">
        <ele>145.4</ele>
        <time>2022-10-16T08:30:50Z</time>
      </trkpt>
      <trkpt lat="46.82755" lon="0.43996">
        <ele>145.6</ele>
        <time>2022-10-16T08:30:51Z</time>
      </trkpt>
      <trkpt lat="46.8275" lon="0.43985">
        <ele>145.6</ele>
        <time>2022-10-16T08:30:54Z</time>
      </trkpt>
      <trkpt lat="46.82748" lon="0.43979">
        <ele>145.2</ele>
        <time>2022-10-16T08:30:55Z</time>
      </trkpt>
      <trkpt lat="46.82746" lon="0.43976">
        <ele>144.6</ele>
        <time>2022-10-16T08:30:56Z</time>
      </trkpt>
      <trkpt lat="46.82743" lon="0.43971">
        <ele>144</ele>
        <time>2022-10-16T08:30:58Z</time>
      </trkpt>
      <trkpt lat="46.82741" lon="0.43966">
        <ele>142.6</ele>
        <time>2022-10-16T08:31:00Z</time>
      </trkpt>
      <trkpt lat="46.8274" lon="0.43961">
        <ele>142</ele>
        <time>2022-10-16T08:31:01Z</time>
      </trkpt>
      <trkpt lat="46.82738" lon="0.43952">
        <ele>141.4</ele>
        <time>2022-10-16T08:31:03Z</time>
      </trkpt>
      <trkpt lat="46.82739" lon="0.43948">
        <ele>141</ele>
        <time>2022-10-16T08:31:05Z</time>
      </trkpt>
      <trkpt lat="46.8274" lon="0.43944">
        <ele>141</ele>
        <time>2022-10-16T08:31:07Z</time>
      </trkpt>
      <trkpt lat="46.82742" lon="0.4393">
        <ele>142</ele>
        <time>2022-10-16T08:31:15Z</time>
      </trkpt>
      <trkpt lat="46.82743" lon="0.43925">
        <ele>142.2</ele>
        <time>2022-10-16T08:31:19Z</time>
      </trkpt>
      <trkpt lat="46.82743" lon="0.43922">
        <ele>142.4</ele>
        <time>2022-10-16T08:31:21Z</time>
      </trkpt>
      <trkpt lat="46.82745" lon="0.43915">
        <ele>142.6</ele>
        <time>2022-10-16T08:31:25Z</time>
      </trkpt>
      <trkpt lat="46.82746" lon="0.43913">
        <ele>142.6</ele>
        <time>2022-10-16T08:31:26Z</time>
      </trkpt>
      <trkpt lat="46.82748" lon="0.43891">
        <ele>141.8</ele>
        <time>2022-10-16T08:31:33Z</time>
      </trkpt>
      <trkpt lat="46.82747" lon="0.43884">
        <ele>141.4</ele>
        <time>2022-10-16T08:31:36Z</time>
      </trkpt>
      <trkpt lat="46.82746" lon="0.43876">
        <ele>140.2</ele>
        <time>2022-10-16T08:31:38Z</time>
      </trkpt>
      <trkpt lat="46.82744" lon="0.43868">
        <ele>138.6</ele>
        <time>2022-10-16T08:31:40Z</time>
      </trkpt>
      <trkpt lat="46.82742" lon="0.43865">
        <ele>138.2</ele>
        <time>2022-10-16T08:31:41Z</time>
      </trkpt>
      <trkpt lat="46.82739" lon="0.43863">
        <ele>137.4</ele>
        <time>2022-10-16T08:31:43Z</time>
      </trkpt>
      <trkpt lat="46.82738" lon="0.43852">
        <ele>136.4</ele>
        <time>2022-10-16T08:31:47Z</time>
      </trkpt>
      <trkpt lat="46.82739" lon="0.4385">
        <ele>136.4</ele>
        <time>2022-10-16T08:31:48Z</time>
      </trkpt>
      <trkpt lat="46.82741" lon="0.43834">
        <ele>136.2</ele>
        <time>2022-10-16T08:31:53Z</time>
      </trkpt>
      <trkpt lat="46.82743" lon="0.43828">
        <ele>136.2</ele>
        <time>2022-10-16T08:31:55Z</time>
      </trkpt>
      <trkpt lat="46.82748" lon="0.43819">
        <ele>136.6</ele>
        <time>2022-10-16T08:31:59Z</time>
      </trkpt>
      <trkpt lat="46.82752" lon="0.43817">
        <ele>137.6</ele>
        <time>2022-10-16T08:32:01Z</time>
      </trkpt>
      <trkpt lat="46.82756" lon="0.43813">
        <ele>138.8</ele>
        <time>2022-10-16T08:32:04Z</time>
      </trkpt>
      <trkpt lat="46.82757" lon="0.43811">
        <ele>139</ele>
        <time>2022-10-16T08:32:05Z</time>
      </trkpt>
      <trkpt lat="46.82759" lon="0.43809">
        <ele>140.4</ele>
        <time>2022-10-16T08:32:07Z</time>
      </trkpt>
      <trkpt lat="46.82764" lon="0.43804">
        <ele>141.8</ele>
        <time>2022-10-16T08:32:11Z</time>
      </trkpt>
      <trkpt lat="46.82767" lon="0.43802">
        <ele>142.8</ele>
        <time>2022-10-16T08:32:14Z</time>
      </trkpt>
      <trkpt lat="46.82768" lon="0.43801">
        <ele>143</ele>
        <time>2022-10-16T08:32:15Z</time>
      </trkpt>
      <trkpt lat="46.82772" lon="0.43796">
        <ele>143.8</ele>
        <time>2022-10-16T08:32:18Z</time>
      </trkpt>
      <trkpt lat="46.82773" lon="0.43796">
        <ele>144</ele>
        <time>2022-10-16T08:32:19Z</time>
      </trkpt>
      <trkpt lat="46.82775" lon="0.43795">
        <ele>144.6</ele>
        <time>2022-10-16T08:32:21Z</time>
      </trkpt>
      <trkpt lat="46.82777" lon="0.43794">
        <ele>145</ele>
        <time>2022-10-16T08:32:22Z</time>
      </trkpt>
      <trkpt lat="46.82778" lon="0.43793">
        <ele>145.2</ele>
        <time>2022-10-16T08:32:23Z</time>
      </trkpt>
      <trkpt lat="46.82782" lon="0.43789">
        <ele>146</ele>
        <time>2022-10-16T08:32:26Z</time>
      </trkpt>
      <trkpt lat="46.82785" lon="0.43785">
        <ele>146.6</ele>
        <time>2022-10-16T08:32:30Z</time>
      </trkpt>
      <trkpt lat="46.82787" lon="0.43782">
        <ele>146.8</ele>
        <time>2022-10-16T08:32:32Z</time>
      </trkpt>
      <trkpt lat="46.8279" lon="0.43779">
        <ele>147</ele>
        <time>2022-10-16T08:32:34Z</time>
      </trkpt>
      <trkpt lat="46.82792" lon="0.43776">
        <ele>147.2</ele>
        <time>2022-10-16T08:32:36Z</time>
      </trkpt>
      <trkpt lat="46.82795" lon="0.43774">
        <ele>147.6</ele>
        <time>2022-10-16T08:32:38Z</time>
      </trkpt>
      <trkpt lat="46.82798" lon="0.43773">
        <ele>147.8</ele>
        <time>2022-10-16T08:32:40Z</time>
      </trkpt>
      <trkpt lat="46.828" lon="0.43772">
        <ele>148</ele>
        <time>2022-10-16T08:32:41Z</time>
      </trkpt>
      <trkpt lat="46.82801" lon="0.43773">
        <ele>148.4</ele>
        <time>2022-10-16T08:32:42Z</time>
      </trkpt>
      <trkpt lat="46.82804" lon="0.43771">
        <ele>148.8</ele>
        <time>2022-10-16T08:32:44Z</time>
      </trkpt>
      <trkpt lat="46.82805" lon="0.43769">
        <ele>149.2</ele>
        <time>2022-10-16T08:32:45Z</time>
      </trkpt>
      <trkpt lat="46.82805" lon="0.43767">
        <ele>149.4</ele>
        <time>2022-10-16T08:32:46Z</time>
      </trkpt>
      <trkpt lat="46.82808" lon="0.43761">
        <ele>149.4</ele>
        <time>2022-10-16T08:32:49Z</time>
      </trkpt>
      <trkpt lat="46.82808" lon="0.43758">
        <ele>149.4</ele>
        <time>2022-10-16T08:32:50Z</time>
      </trkpt>
      <trkpt lat="46.82814" lon="0.43735">
        <ele>148.2</ele>
        <time>2022-10-16T08:32:57Z</time>
      </trkpt>
      <trkpt lat="46.8282" lon="0.43711">
        <ele>147.6</ele>
        <time>2022-10-16T08:33:04Z</time>
      </trkpt>
      <trkpt lat="46.82823" lon="0.43704">
        <ele>146.8</ele>
        <time>2022-10-16T08:33:06Z</time>
      </trkpt>
      <trkpt lat="46.82826" lon="0.43693">
        <ele>145.8</ele>
        <time>2022-10-16T08:33:09Z</time>
      </trkpt>
      <trkpt lat="46.82828" lon="0.43691">
        <ele>145.6</ele>
        <time>2022-10-16T08:33:10Z</time>
      </trkpt>
      <trkpt lat="46.82831" lon="0.43677">
        <ele>144.4</ele>
        <time>2022-10-16T08:33:14Z</time>
      </trkpt>
      <trkpt lat="46.82831" lon="0.43673">
        <ele>144</ele>
        <time>2022-10-16T08:33:15Z</time>
      </trkpt>
      <trkpt lat="46.82832" lon="0.43666">
        <ele>143</ele>
        <time>2022-10-16T08:33:17Z</time>
      </trkpt>
      <trkpt lat="46.82834" lon="0.43659">
        <ele>141.8</ele>
        <time>2022-10-16T08:33:19Z</time>
      </trkpt>
      <trkpt lat="46.82834" lon="0.43656">
        <ele>141.4</ele>
        <time>2022-10-16T08:33:20Z</time>
      </trkpt>
      <trkpt lat="46.82834" lon="0.43653">
        <ele>140.8</ele>
        <time>2022-10-16T08:33:21Z</time>
      </trkpt>
      <trkpt lat="46.82833" lon="0.43649">
        <ele>140.4</ele>
        <time>2022-10-16T08:33:22Z</time>
      </trkpt>
      <trkpt lat="46.8283" lon="0.43641">
        <ele>139.2</ele>
        <time>2022-10-16T08:33:24Z</time>
      </trkpt>
      <trkpt lat="46.82827" lon="0.43633">
        <ele>137.8</ele>
        <time>2022-10-16T08:33:26Z</time>
      </trkpt>
      <trkpt lat="46.82827" lon="0.43633">
        <ele>136.2</ele>
        <time>2022-10-16T08:33:27Z</time>
      </trkpt>
      <trkpt lat="46.82822" lon="0.43626">
        <ele>135.8</ele>
        <time>2022-10-16T08:33:29Z</time>
      </trkpt>
      <trkpt lat="46.82817" lon="0.43619">
        <ele>135.2</ele>
        <time>2022-10-16T08:33:31Z</time>
      </trkpt>
      <trkpt lat="46.82814" lon="0.43616">
        <ele>135.2</ele>
        <time>2022-10-16T08:33:32Z</time>
      </trkpt>
      <trkpt lat="46.82797" lon="0.43599">
        <ele>134.4</ele>
        <time>2022-10-16T08:33:38Z</time>
      </trkpt>
      <trkpt lat="46.82793" lon="0.43589">
        <ele>134</ele>
        <time>2022-10-16T08:33:41Z</time>
      </trkpt>
      <trkpt lat="46.8279" lon="0.43581">
        <ele>134.2</ele>
        <time>2022-10-16T08:33:43Z</time>
      </trkpt>
      <trkpt lat="46.82784" lon="0.43562">
        <ele>134.8</ele>
        <time>2022-10-16T08:33:50Z</time>
      </trkpt>
      <trkpt lat="46.82783" lon="0.43557">
        <ele>134.6</ele>
        <time>2022-10-16T08:33:52Z</time>
      </trkpt>
      <trkpt lat="46.82783" lon="0.43548">
        <ele>134.4</ele>
        <time>2022-10-16T08:33:55Z</time>
      </trkpt>
      <trkpt lat="46.8279" lon="0.43538">
        <ele>135</ele>
        <time>2022-10-16T08:34:02Z</time>
      </trkpt>
      <trkpt lat="46.82791" lon="0.43536">
        <ele>135.4</ele>
        <time>2022-10-16T08:34:03Z</time>
      </trkpt>
      <trkpt lat="46.82794" lon="0.43535">
        <ele>136.6</ele>
        <time>2022-10-16T08:34:06Z</time>
      </trkpt>
      <trkpt lat="46.82799" lon="0.43533">
        <ele>137.4</ele>
        <time>2022-10-16T08:34:09Z</time>
      </trkpt>
      <trkpt lat="46.82801" lon="0.43533">
        <ele>137.8</ele>
        <time>2022-10-16T08:34:10Z</time>
      </trkpt>
      <trkpt lat="46.82804" lon="0.4353">
        <ele>138.8</ele>
        <time>2022-10-16T08:34:13Z</time>
      </trkpt>
      <trkpt lat="46.82807" lon="0.4353">
        <ele>139.4</ele>
        <time>2022-10-16T08:34:15Z</time>
      </trkpt>
      <trkpt lat="46.8281" lon="0.43528">
        <ele>139.8</ele>
        <time>2022-10-16T08:34:17Z</time>
      </trkpt>
      <trkpt lat="46.82817" lon="0.43524">
        <ele>141.2</ele>
        <time>2022-10-16T08:34:22Z</time>
      </trkpt>
      <trkpt lat="46.82823" lon="0.43521">
        <ele>142.2</ele>
        <time>2022-10-16T08:34:26Z</time>
      </trkpt>
      <trkpt lat="46.82825" lon="0.43519">
        <ele>143</ele>
        <time>2022-10-16T08:34:28Z</time>
      </trkpt>
      <trkpt lat="46.82826" lon="0.43518">
        <ele>143.2</ele>
        <time>2022-10-16T08:34:29Z</time>
      </trkpt>
      <trkpt lat="46.82829" lon="0.43515">
        <ele>144</ele>
        <time>2022-10-16T08:34:32Z</time>
      </trkpt>
      <trkpt lat="46.8283" lon="0.43514">
        <ele>144.4</ele>
        <time>2022-10-16T08:34:33Z</time>
      </trkpt>
      <trkpt lat="46.82832" lon="0.43513">
        <ele>144.6</ele>
        <time>2022-10-16T08:34:34Z</time>
      </trkpt>
      <trkpt lat="46.82839" lon="0.43507">
        <ele>145.4</ele>
        <time>2022-10-16T08:34:38Z</time>
      </trkpt>
      <trkpt lat="46.82841" lon="0.43505">
        <ele>145.8</ele>
        <time>2022-10-16T08:34:39Z</time>
      </trkpt>
      <trkpt lat="46.82851" lon="0.43496">
        <ele>146.8</ele>
        <time>2022-10-16T08:34:46Z</time>
      </trkpt>
      <trkpt lat="46.82863" lon="0.43487">
        <ele>147.8</ele>
        <time>2022-10-16T08:34:53Z</time>
      </trkpt>
      <trkpt lat="46.82873" lon="0.43481">
        <ele>149</ele>
        <time>2022-10-16T08:34:59Z</time>
      </trkpt>
      <trkpt lat="46.82876" lon="0.4348">
        <ele>149.2</ele>
        <time>2022-10-16T08:35:00Z</time>
      </trkpt>
      <trkpt lat="46.82882" lon="0.43476">
        <ele>149.6</ele>
        <time>2022-10-16T08:35:03Z</time>
      </trkpt>
      <trkpt lat="46.8289" lon="0.43471">
        <ele>150</ele>
        <time>2022-10-16T08:35:07Z</time>
      </trkpt>
      <trkpt lat="46.82899" lon="0.43464">
        <ele>151</ele>
        <time>2022-10-16T08:35:13Z</time>
      </trkpt>
      <trkpt lat="46.82899" lon="0.43464">
        <ele>151.6</ele>
        <time>2022-10-16T08:35:14Z</time>
      </trkpt>
      <trkpt lat="46.82892" lon="0.43455">
        <ele>152.2</ele>
        <time>2022-10-16T08:35:19Z</time>
      </trkpt>
      <trkpt lat="46.82881" lon="0.4344">
        <ele>152</ele>
        <time>2022-10-16T08:35:25Z</time>
      </trkpt>
      <trkpt lat="46.82871" lon="0.43427">
        <ele>151.8</ele>
        <time>2022-10-16T08:35:30Z</time>
      </trkpt>
      <trkpt lat="46.82865" lon="0.43412">
        <ele>151.6</ele>
        <time>2022-10-16T08:35:35Z</time>
      </trkpt>
      <trkpt lat="46.82862" lon="0.43393">
        <ele>151.4</ele>
        <time>2022-10-16T08:35:40Z</time>
      </trkpt>
      <trkpt lat="46.82858" lon="0.43382">
        <ele>151</ele>
        <time>2022-10-16T08:35:44Z</time>
      </trkpt>
      <trkpt lat="46.82855" lon="0.4338">
        <ele>150.8</ele>
        <time>2022-10-16T08:35:45Z</time>
      </trkpt>
      <trkpt lat="46.82852" lon="0.43378">
        <ele>150.6</ele>
        <time>2022-10-16T08:35:46Z</time>
      </trkpt>
      <trkpt lat="46.82846" lon="0.43367">
        <ele>149.6</ele>
        <time>2022-10-16T08:35:49Z</time>
      </trkpt>
      <trkpt lat="46.82845" lon="0.43362">
        <ele>149.4</ele>
        <time>2022-10-16T08:35:50Z</time>
      </trkpt>
      <trkpt lat="46.82841" lon="0.43345">
        <ele>149.2</ele>
        <time>2022-10-16T08:35:55Z</time>
      </trkpt>
      <trkpt lat="46.8284" lon="0.43322">
        <ele>150</ele>
        <time>2022-10-16T08:36:01Z</time>
      </trkpt>
      <trkpt lat="46.82843" lon="0.43314">
        <ele>150.6</ele>
        <time>2022-10-16T08:36:04Z</time>
      </trkpt>
      <trkpt lat="46.82845" lon="0.4331">
        <ele>150.8</ele>
        <time>2022-10-16T08:36:06Z</time>
      </trkpt>
      <trkpt lat="46.82846" lon="0.43308">
        <ele>151.6</ele>
        <time>2022-10-16T08:36:07Z</time>
      </trkpt>
      <trkpt lat="46.82849" lon="0.43304">
        <ele>152.2</ele>
        <time>2022-10-16T08:36:09Z</time>
      </trkpt>
      <trkpt lat="46.82852" lon="0.43295">
        <ele>152.6</ele>
        <time>2022-10-16T08:36:13Z</time>
      </trkpt>
      <trkpt lat="46.82853" lon="0.43293">
        <ele>152.8</ele>
        <time>2022-10-16T08:36:14Z</time>
      </trkpt>
      <trkpt lat="46.82856" lon="0.4328">
        <ele>153.8</ele>
        <time>2022-10-16T08:36:18Z</time>
      </trkpt>
      <trkpt lat="46.82856" lon="0.43272">
        <ele>154</ele>
        <time>2022-10-16T08:36:20Z</time>
      </trkpt>
      <trkpt lat="46.82862" lon="0.43242">
        <ele>154.6</ele>
        <time>2022-10-16T08:36:28Z</time>
      </trkpt>
      <trkpt lat="46.82856" lon="0.43223">
        <ele>154.4</ele>
        <time>2022-10-16T08:36:33Z</time>
      </trkpt>
      <trkpt lat="46.82852" lon="0.43211">
        <ele>153.8</ele>
        <time>2022-10-16T08:36:38Z</time>
      </trkpt>
      <trkpt lat="46.82841" lon="0.43199">
        <ele>153</ele>
        <time>2022-10-16T08:36:43Z</time>
      </trkpt>
      <trkpt lat="46.82839" lon="0.43195">
        <ele>153</ele>
        <time>2022-10-16T08:36:44Z</time>
      </trkpt>
      <trkpt lat="46.82836" lon="0.4319">
        <ele>152.8</ele>
        <time>2022-10-16T08:36:45Z</time>
      </trkpt>
      <trkpt lat="46.82832" lon="0.43185">
        <ele>152.6</ele>
        <time>2022-10-16T08:36:46Z</time>
      </trkpt>
      <trkpt lat="46.82828" lon="0.43181">
        <ele>152.4</ele>
        <time>2022-10-16T08:36:47Z</time>
      </trkpt>
      <trkpt lat="46.82825" lon="0.43176">
        <ele>151.8</ele>
        <time>2022-10-16T08:36:48Z</time>
      </trkpt>
      <trkpt lat="46.82822" lon="0.43171">
        <ele>151.2</ele>
        <time>2022-10-16T08:36:49Z</time>
      </trkpt>
      <trkpt lat="46.82807" lon="0.43152">
        <ele>149.6</ele>
        <time>2022-10-16T08:36:52Z</time>
      </trkpt>
      <trkpt lat="46.828" lon="0.43146">
        <ele>149</ele>
        <time>2022-10-16T08:36:53Z</time>
      </trkpt>
      <trkpt lat="46.82793" lon="0.43141">
        <ele>148.2</ele>
        <time>2022-10-16T08:36:54Z</time>
      </trkpt>
      <trkpt lat="46.8278" lon="0.43132">
        <ele>146.4</ele>
        <time>2022-10-16T08:36:56Z</time>
      </trkpt>
      <trkpt lat="46.82774" lon="0.43127">
        <ele>145.6</ele>
        <time>2022-10-16T08:36:57Z</time>
      </trkpt>
      <trkpt lat="46.82768" lon="0.43123">
        <ele>144.4</ele>
        <time>2022-10-16T08:36:58Z</time>
      </trkpt>
      <trkpt lat="46.82761" lon="0.43118">
        <ele>143.4</ele>
        <time>2022-10-16T08:36:59Z</time>
      </trkpt>
      <trkpt lat="46.82749" lon="0.4311">
        <ele>141.6</ele>
        <time>2022-10-16T08:37:01Z</time>
      </trkpt>
      <trkpt lat="46.82743" lon="0.43107">
        <ele>140</ele>
        <time>2022-10-16T08:37:02Z</time>
      </trkpt>
      <trkpt lat="46.82737" lon="0.43104">
        <ele>138.8</ele>
        <time>2022-10-16T08:37:03Z</time>
      </trkpt>
      <trkpt lat="46.82732" lon="0.43102">
        <ele>137.2</ele>
        <time>2022-10-16T08:37:04Z</time>
      </trkpt>
      <trkpt lat="46.82722" lon="0.43098">
        <ele>134.6</ele>
        <time>2022-10-16T08:37:06Z</time>
      </trkpt>
      <trkpt lat="46.82713" lon="0.43094">
        <ele>133.2</ele>
        <time>2022-10-16T08:37:08Z</time>
      </trkpt>
      <trkpt lat="46.82708" lon="0.43092">
        <ele>132.8</ele>
        <time>2022-10-16T08:37:09Z</time>
      </trkpt>
      <trkpt lat="46.82697" lon="0.43088">
        <ele>132</ele>
        <time>2022-10-16T08:37:11Z</time>
      </trkpt>
      <trkpt lat="46.82691" lon="0.43086">
        <ele>131.8</ele>
        <time>2022-10-16T08:37:12Z</time>
      </trkpt>
      <trkpt lat="46.82676" lon="0.4308">
        <ele>130.6</ele>
        <time>2022-10-16T08:37:14Z</time>
      </trkpt>
      <trkpt lat="46.8266" lon="0.43075">
        <ele>129.2</ele>
        <time>2022-10-16T08:37:16Z</time>
      </trkpt>
      <trkpt lat="46.82643" lon="0.43074">
        <ele>128.2</ele>
        <time>2022-10-16T08:37:18Z</time>
      </trkpt>
      <trkpt lat="46.82634" lon="0.43074">
        <ele>127.4</ele>
        <time>2022-10-16T08:37:19Z</time>
      </trkpt>
      <trkpt lat="46.82626" lon="0.43075">
        <ele>126.8</ele>
        <time>2022-10-16T08:37:20Z</time>
      </trkpt>
      <trkpt lat="46.82607" lon="0.43079">
        <ele>125.2</ele>
        <time>2022-10-16T08:37:22Z</time>
      </trkpt>
      <trkpt lat="46.82597" lon="0.43081">
        <ele>122.8</ele>
        <time>2022-10-16T08:37:23Z</time>
      </trkpt>
      <trkpt lat="46.82587" lon="0.43082">
        <ele>122.8</ele>
        <time>2022-10-16T08:37:24Z</time>
      </trkpt>
      <trkpt lat="46.82567" lon="0.43086">
        <ele>121.6</ele>
        <time>2022-10-16T08:37:26Z</time>
      </trkpt>
      <trkpt lat="46.82547" lon="0.43091">
        <ele>120.2</ele>
        <time>2022-10-16T08:37:28Z</time>
      </trkpt>
      <trkpt lat="46.82537" lon="0.43094">
        <ele>119.2</ele>
        <time>2022-10-16T08:37:29Z</time>
      </trkpt>
      <trkpt lat="46.82516" lon="0.43101">
        <ele>117</ele>
        <time>2022-10-16T08:37:31Z</time>
      </trkpt>
      <trkpt lat="46.82495" lon="0.43108">
        <ele>115.8</ele>
        <time>2022-10-16T08:37:33Z</time>
      </trkpt>
      <trkpt lat="46.82468" lon="0.43116">
        <ele>113.6</ele>
        <time>2022-10-16T08:37:36Z</time>
      </trkpt>
      <trkpt lat="46.82462" lon="0.43118">
        <ele>112</ele>
        <time>2022-10-16T08:37:37Z</time>
      </trkpt>
      <trkpt lat="46.82456" lon="0.4312">
        <ele>110.8</ele>
        <time>2022-10-16T08:37:38Z</time>
      </trkpt>
      <trkpt lat="46.82451" lon="0.43121">
        <ele>109.6</ele>
        <time>2022-10-16T08:37:39Z</time>
      </trkpt>
      <trkpt lat="46.82443" lon="0.43124">
        <ele>107.8</ele>
        <time>2022-10-16T08:37:41Z</time>
      </trkpt>
      <trkpt lat="46.82435" lon="0.43124">
        <ele>107</ele>
        <time>2022-10-16T08:37:43Z</time>
      </trkpt>
      <trkpt lat="46.82431" lon="0.43124">
        <ele>106.6</ele>
        <time>2022-10-16T08:37:44Z</time>
      </trkpt>
      <trkpt lat="46.82427" lon="0.43124">
        <ele>106.4</ele>
        <time>2022-10-16T08:37:45Z</time>
      </trkpt>
      <trkpt lat="46.82413" lon="0.4313">
        <ele>105.6</ele>
        <time>2022-10-16T08:37:49Z</time>
      </trkpt>
      <trkpt lat="46.82406" lon="0.43133">
        <ele>105.4</ele>
        <time>2022-10-16T08:37:51Z</time>
      </trkpt>
      <trkpt lat="46.82383" lon="0.43141">
        <ele>105</ele>
        <time>2022-10-16T08:37:57Z</time>
      </trkpt>
      <trkpt lat="46.82357" lon="0.43152">
        <ele>104.6</ele>
        <time>2022-10-16T08:38:02Z</time>
      </trkpt>
      <trkpt lat="46.82344" lon="0.43157">
        <ele>104.4</ele>
        <time>2022-10-16T08:38:04Z</time>
      </trkpt>
      <trkpt lat="46.82316" lon="0.43169">
        <ele>104</ele>
        <time>2022-10-16T08:38:08Z</time>
      </trkpt>
      <trkpt lat="46.8227" lon="0.43186">
        <ele>103.4</ele>
        <time>2022-10-16T08:38:14Z</time>
      </trkpt>
      <trkpt lat="46.82254" lon="0.43192">
        <ele>103.2</ele>
        <time>2022-10-16T08:38:16Z</time>
      </trkpt>
      <trkpt lat="46.82205" lon="0.43212">
        <ele>102.4</ele>
        <time>2022-10-16T08:38:23Z</time>
      </trkpt>
      <trkpt lat="46.82199" lon="0.43214">
        <ele>102.4</ele>
        <time>2022-10-16T08:38:24Z</time>
      </trkpt>
      <trkpt lat="46.82167" lon="0.43227">
        <ele>102</ele>
        <time>2022-10-16T08:38:29Z</time>
      </trkpt>
      <trkpt lat="46.82161" lon="0.43229">
        <ele>101.8</ele>
        <time>2022-10-16T08:38:30Z</time>
      </trkpt>
      <trkpt lat="46.82155" lon="0.43228">
        <ele>101.8</ele>
        <time>2022-10-16T08:38:31Z</time>
      </trkpt>
      <trkpt lat="46.82138" lon="0.43222">
        <ele>101.6</ele>
        <time>2022-10-16T08:38:34Z</time>
      </trkpt>
      <trkpt lat="46.82134" lon="0.43219">
        <ele>101.4</ele>
        <time>2022-10-16T08:38:35Z</time>
      </trkpt>
      <trkpt lat="46.82111" lon="0.43207">
        <ele>101.6</ele>
        <time>2022-10-16T08:38:40Z</time>
      </trkpt>
      <trkpt lat="46.82099" lon="0.432">
        <ele>102.4</ele>
        <time>2022-10-16T08:38:43Z</time>
      </trkpt>
      <trkpt lat="46.82093" lon="0.43196">
        <ele>102.6</ele>
        <time>2022-10-16T08:38:45Z</time>
      </trkpt>
      <trkpt lat="46.82087" lon="0.43192">
        <ele>103</ele>
        <time>2022-10-16T08:38:47Z</time>
      </trkpt>
      <trkpt lat="46.82078" lon="0.43186">
        <ele>103.4</ele>
        <time>2022-10-16T08:38:50Z</time>
      </trkpt>
      <trkpt lat="46.82075" lon="0.43184">
        <ele>103.6</ele>
        <time>2022-10-16T08:38:51Z</time>
      </trkpt>
      <trkpt lat="46.82066" lon="0.43174">
        <ele>104.6</ele>
        <time>2022-10-16T08:38:54Z</time>
      </trkpt>
      <trkpt lat="46.82054" lon="0.43159">
        <ele>105.6</ele>
        <time>2022-10-16T08:38:58Z</time>
      </trkpt>
      <trkpt lat="46.82044" lon="0.43149">
        <ele>106.6</ele>
        <time>2022-10-16T08:39:02Z</time>
      </trkpt>
      <trkpt lat="46.82038" lon="0.43144">
        <ele>106.8</ele>
        <time>2022-10-16T08:39:03Z</time>
      </trkpt>
      <trkpt lat="46.82015" lon="0.43132">
        <ele>108</ele>
        <time>2022-10-16T08:39:10Z</time>
      </trkpt>
      <trkpt lat="46.82012" lon="0.43131">
        <ele>108.2</ele>
        <time>2022-10-16T08:39:11Z</time>
      </trkpt>
      <trkpt lat="46.81996" lon="0.43124">
        <ele>109</ele>
        <time>2022-10-16T08:39:16Z</time>
      </trkpt>
      <trkpt lat="46.81986" lon="0.4312">
        <ele>109.4</ele>
        <time>2022-10-16T08:39:19Z</time>
      </trkpt>
      <trkpt lat="46.81971" lon="0.43112">
        <ele>110</ele>
        <time>2022-10-16T08:39:24Z</time>
      </trkpt>
      <trkpt lat="46.81959" lon="0.43104">
        <ele>110.6</ele>
        <time>2022-10-16T08:39:28Z</time>
      </trkpt>
      <trkpt lat="46.81957" lon="0.43103">
        <ele>110.6</ele>
        <time>2022-10-16T08:39:29Z</time>
      </trkpt>
      <trkpt lat="46.81954" lon="0.43107">
        <ele>110.8</ele>
        <time>2022-10-16T08:39:31Z</time>
      </trkpt>
      <trkpt lat="46.81953" lon="0.43116">
        <ele>111.2</ele>
        <time>2022-10-16T08:39:33Z</time>
      </trkpt>
      <trkpt lat="46.81951" lon="0.43133">
        <ele>111.2</ele>
        <time>2022-10-16T08:39:36Z</time>
      </trkpt>
      <trkpt lat="46.81941" lon="0.43191">
        <ele>111.4</ele>
        <time>2022-10-16T08:39:45Z</time>
      </trkpt>
      <trkpt lat="46.81933" lon="0.43232">
        <ele>111.2</ele>
        <time>2022-10-16T08:39:51Z</time>
      </trkpt>
      <trkpt lat="46.81928" lon="0.43254">
        <ele>111.2</ele>
        <time>2022-10-16T08:39:54Z</time>
      </trkpt>
      <trkpt lat="46.81914" lon="0.43316">
        <ele>110.8</ele>
        <time>2022-10-16T08:40:02Z</time>
      </trkpt>
      <trkpt lat="46.81903" lon="0.43375">
        <ele>110.4</ele>
        <time>2022-10-16T08:40:09Z</time>
      </trkpt>
      <trkpt lat="46.819" lon="0.43391">
        <ele>110</ele>
        <time>2022-10-16T08:40:11Z</time>
      </trkpt>
      <trkpt lat="46.8189" lon="0.43444">
        <ele>109.2</ele>
        <time>2022-10-16T08:40:17Z</time>
      </trkpt>
      <trkpt lat="46.81882" lon="0.43469">
        <ele>108.8</ele>
        <time>2022-10-16T08:40:20Z</time>
      </trkpt>
      <trkpt lat="46.81875" lon="0.43492">
        <ele>108.2</ele>
        <time>2022-10-16T08:40:23Z</time>
      </trkpt>
      <trkpt lat="46.81869" lon="0.43506">
        <ele>107.8</ele>
        <time>2022-10-16T08:40:25Z</time>
      </trkpt>
      <trkpt lat="46.81849" lon="0.43555">
        <ele>107.6</ele>
        <time>2022-10-16T08:40:32Z</time>
      </trkpt>
      <trkpt lat="46.81823" lon="0.43607">
        <ele>108</ele>
        <time>2022-10-16T08:40:40Z</time>
      </trkpt>
      <trkpt lat="46.81801" lon="0.43637">
        <ele>107.2</ele>
        <time>2022-10-16T08:40:46Z</time>
      </trkpt>
      <trkpt lat="46.81774" lon="0.43673">
        <ele>107.2</ele>
        <time>2022-10-16T08:40:53Z</time>
      </trkpt>
      <trkpt lat="46.81751" lon="0.43706">
        <ele>106.8</ele>
        <time>2022-10-16T08:40:59Z</time>
      </trkpt>
      <trkpt lat="46.81744" lon="0.43716">
        <ele>106.6</ele>
        <time>2022-10-16T08:41:01Z</time>
      </trkpt>
      <trkpt lat="46.8171" lon="0.43764">
        <ele>106.2</ele>
        <time>2022-10-16T08:41:10Z</time>
      </trkpt>
      <trkpt lat="46.81694" lon="0.43787">
        <ele>105.6</ele>
        <time>2022-10-16T08:41:14Z</time>
      </trkpt>
      <trkpt lat="46.81683" lon="0.43804">
        <ele>105</ele>
        <time>2022-10-16T08:41:17Z</time>
      </trkpt>
      <trkpt lat="46.81677" lon="0.43817">
        <ele>105</ele>
        <time>2022-10-16T08:41:19Z</time>
      </trkpt>
      <trkpt lat="46.81675" lon="0.43825">
        <ele>105</ele>
        <time>2022-10-16T08:41:20Z</time>
      </trkpt>
      <trkpt lat="46.81673" lon="0.43842">
        <ele>105</ele>
        <time>2022-10-16T08:41:22Z</time>
      </trkpt>
      <trkpt lat="46.81672" lon="0.4387">
        <ele>104.6</ele>
        <time>2022-10-16T08:41:25Z</time>
      </trkpt>
      <trkpt lat="46.81671" lon="0.43902">
        <ele>103.4</ele>
        <time>2022-10-16T08:41:29Z</time>
      </trkpt>
      <trkpt lat="46.81671" lon="0.43916">
        <ele>103</ele>
        <time>2022-10-16T08:41:31Z</time>
      </trkpt>
      <trkpt lat="46.81667" lon="0.43926">
        <ele>102.8</ele>
        <time>2022-10-16T08:41:33Z</time>
      </trkpt>
      <trkpt lat="46.81661" lon="0.43929">
        <ele>102.8</ele>
        <time>2022-10-16T08:41:35Z</time>
      </trkpt>
      <trkpt lat="46.81658" lon="0.43927">
        <ele>102.8</ele>
        <time>2022-10-16T08:41:36Z</time>
      </trkpt>
      <trkpt lat="46.81634" lon="0.43914">
        <ele>102.6</ele>
        <time>2022-10-16T08:41:41Z</time>
      </trkpt>
      <trkpt lat="46.81623" lon="0.43907">
        <ele>102.4</ele>
        <time>2022-10-16T08:41:43Z</time>
      </trkpt>
      <trkpt lat="46.81593" lon="0.4389">
        <ele>102</ele>
        <time>2022-10-16T08:41:48Z</time>
      </trkpt>
      <trkpt lat="46.81569" lon="0.43877">
        <ele>101.4</ele>
        <time>2022-10-16T08:41:52Z</time>
      </trkpt>
      <trkpt lat="46.81543" lon="0.43862">
        <ele>100</ele>
        <time>2022-10-16T08:41:56Z</time>
      </trkpt>
      <trkpt lat="46.81538" lon="0.43859">
        <ele>99.8</ele>
        <time>2022-10-16T08:41:57Z</time>
      </trkpt>
      <trkpt lat="46.8153" lon="0.43854">
        <ele>99</ele>
        <time>2022-10-16T08:42:00Z</time>
      </trkpt>
      <trkpt lat="46.81529" lon="0.43853">
        <ele>98.8</ele>
        <time>2022-10-16T08:42:01Z</time>
      </trkpt>
      <trkpt lat="46.81529" lon="0.43849">
        <ele>98.2</ele>
        <time>2022-10-16T08:42:03Z</time>
      </trkpt>
      <trkpt lat="46.8153" lon="0.43849">
        <ele>98</ele>
        <time>2022-10-16T08:42:05Z</time>
      </trkpt>
      <trkpt lat="46.81531" lon="0.43851">
        <ele>98</ele>
        <time>2022-10-16T08:42:06Z</time>
      </trkpt>
      <trkpt lat="46.81531" lon="0.43853">
        <ele>98</ele>
        <time>2022-10-16T08:42:07Z</time>
      </trkpt>
      <trkpt lat="46.8153" lon="0.43854">
        <ele>98</ele>
        <time>2022-10-16T08:42:09Z</time>
      </trkpt>
      <trkpt lat="46.81527" lon="0.43853">
        <ele>98.2</ele>
        <time>2022-10-16T08:42:11Z</time>
      </trkpt>
      <trkpt lat="46.81523" lon="0.43855">
        <ele>98.4</ele>
        <time>2022-10-16T08:42:13Z</time>
      </trkpt>
      <trkpt lat="46.81521" lon="0.43858">
        <ele>98.6</ele>
        <time>2022-10-16T08:42:14Z</time>
      </trkpt>
      <trkpt lat="46.8152" lon="0.43868">
        <ele>98.6</ele>
        <time>2022-10-16T08:42:16Z</time>
      </trkpt>
      <trkpt lat="46.81525" lon="0.43911">
        <ele>98.6</ele>
        <time>2022-10-16T08:42:23Z</time>
      </trkpt>
      <trkpt lat="46.81527" lon="0.43938">
        <ele>99</ele>
        <time>2022-10-16T08:42:27Z</time>
      </trkpt>
      <trkpt lat="46.81523" lon="0.43946">
        <ele>99.2</ele>
        <time>2022-10-16T08:42:29Z</time>
      </trkpt>
      <trkpt lat="46.81519" lon="0.43948">
        <ele>99.2</ele>
        <time>2022-10-16T08:42:30Z</time>
      </trkpt>
      <trkpt lat="46.81509" lon="0.43948">
        <ele>98.6</ele>
        <time>2022-10-16T08:42:32Z</time>
      </trkpt>
      <trkpt lat="46.81504" lon="0.43947">
        <ele>98.2</ele>
        <time>2022-10-16T08:42:33Z</time>
      </trkpt>
      <trkpt lat="46.81499" lon="0.43947">
        <ele>98</ele>
        <time>2022-10-16T08:42:34Z</time>
      </trkpt>
      <trkpt lat="46.81495" lon="0.43949">
        <ele>97.8</ele>
        <time>2022-10-16T08:42:35Z</time>
      </trkpt>
      <trkpt lat="46.81492" lon="0.43952">
        <ele>97.4</ele>
        <time>2022-10-16T08:42:36Z</time>
      </trkpt>
      <trkpt lat="46.8149" lon="0.43964">
        <ele>96.8</ele>
        <time>2022-10-16T08:42:38Z</time>
      </trkpt>
      <trkpt lat="46.8149" lon="0.43971">
        <ele>96.8</ele>
        <time>2022-10-16T08:42:39Z</time>
      </trkpt>
      <trkpt lat="46.81484" lon="0.44017">
        <ele>97.4</ele>
        <time>2022-10-16T08:42:45Z</time>
      </trkpt>
      <trkpt lat="46.8148" lon="0.44088">
        <ele>97.8</ele>
        <time>2022-10-16T08:42:53Z</time>
      </trkpt>
      <trkpt lat="46.81472" lon="0.4414">
        <ele>97.8</ele>
        <time>2022-10-16T08:42:59Z</time>
      </trkpt>
      <trkpt lat="46.81457" lon="0.44196">
        <ele>98</ele>
        <time>2022-10-16T08:43:06Z</time>
      </trkpt>
      <trkpt lat="46.8144" lon="0.44253">
        <ele>97.4</ele>
        <time>2022-10-16T08:43:13Z</time>
      </trkpt>
      <trkpt lat="46.81433" lon="0.44279">
        <ele>96.6</ele>
        <time>2022-10-16T08:43:16Z</time>
      </trkpt>
      <trkpt lat="46.81418" lon="0.44324">
        <ele>96</ele>
        <time>2022-10-16T08:43:21Z</time>
      </trkpt>
      <trkpt lat="46.81414" lon="0.4434">
        <ele>95.8</ele>
        <time>2022-10-16T08:43:23Z</time>
      </trkpt>
      <trkpt lat="46.81411" lon="0.44356">
        <ele>95.4</ele>
        <time>2022-10-16T08:43:25Z</time>
      </trkpt>
      <trkpt lat="46.8141" lon="0.44363">
        <ele>95.4</ele>
        <time>2022-10-16T08:43:26Z</time>
      </trkpt>
      <trkpt lat="46.81399" lon="0.44418">
        <ele>94.8</ele>
        <time>2022-10-16T08:43:33Z</time>
      </trkpt>
      <trkpt lat="46.81392" lon="0.44463">
        <ele>95.2</ele>
        <time>2022-10-16T08:43:39Z</time>
      </trkpt>
      <trkpt lat="46.8139" lon="0.4447">
        <ele>95.2</ele>
        <time>2022-10-16T08:43:40Z</time>
      </trkpt>
      <trkpt lat="46.81381" lon="0.44525">
        <ele>94.8</ele>
        <time>2022-10-16T08:43:48Z</time>
      </trkpt>
      <trkpt lat="46.81372" lon="0.44581">
        <ele>94.8</ele>
        <time>2022-10-16T08:43:55Z</time>
      </trkpt>
      <trkpt lat="46.8137" lon="0.44597">
        <ele>95</ele>
        <time>2022-10-16T08:43:57Z</time>
      </trkpt>
      <trkpt lat="46.81368" lon="0.44623">
        <ele>95.2</ele>
        <time>2022-10-16T08:44:00Z</time>
      </trkpt>
      <trkpt lat="46.81365" lon="0.44668">
        <ele>96</ele>
        <time>2022-10-16T08:44:05Z</time>
      </trkpt>
      <trkpt lat="46.81364" lon="0.44685">
        <ele>96</ele>
        <time>2022-10-16T08:44:07Z</time>
      </trkpt>
      <trkpt lat="46.81365" lon="0.44698">
        <ele>96.2</ele>
        <time>2022-10-16T08:44:09Z</time>
      </trkpt>
      <trkpt lat="46.81365" lon="0.44702">
        <ele>96.2</ele>
        <time>2022-10-16T08:44:10Z</time>
      </trkpt>
      <trkpt lat="46.81363" lon="0.44705">
        <ele>96.2</ele>
        <time>2022-10-16T08:44:11Z</time>
      </trkpt>
      <trkpt lat="46.81357" lon="0.44707">
        <ele>96.2</ele>
        <time>2022-10-16T08:44:13Z</time>
      </trkpt>
      <trkpt lat="46.81337" lon="0.44708">
        <ele>95.6</ele>
        <time>2022-10-16T08:44:18Z</time>
      </trkpt>
      <trkpt lat="46.81311" lon="0.4471">
        <ele>95</ele>
        <time>2022-10-16T08:44:23Z</time>
      </trkpt>
      <trkpt lat="46.81306" lon="0.44711">
        <ele>95</ele>
        <time>2022-10-16T08:44:24Z</time>
      </trkpt>
      <trkpt lat="46.813" lon="0.44712">
        <ele>94.8</ele>
        <time>2022-10-16T08:44:25Z</time>
      </trkpt>
      <trkpt lat="46.81294" lon="0.44711">
        <ele>94.4</ele>
        <time>2022-10-16T08:44:26Z</time>
      </trkpt>
      <trkpt lat="46.8128" lon="0.4471">
        <ele>93.4</ele>
        <time>2022-10-16T08:44:28Z</time>
      </trkpt>
      <trkpt lat="46.81273" lon="0.4471">
        <ele>92.8</ele>
        <time>2022-10-16T08:44:29Z</time>
      </trkpt>
      <trkpt lat="46.81257" lon="0.44711">
        <ele>91.6</ele>
        <time>2022-10-16T08:44:31Z</time>
      </trkpt>
      <trkpt lat="46.81241" lon="0.44709">
        <ele>90.6</ele>
        <time>2022-10-16T08:44:33Z</time>
      </trkpt>
      <trkpt lat="46.81226" lon="0.44708">
        <ele>89.4</ele>
        <time>2022-10-16T08:44:35Z</time>
      </trkpt>
      <trkpt lat="46.81212" lon="0.44707">
        <ele>88</ele>
        <time>2022-10-16T08:44:37Z</time>
      </trkpt>
      <trkpt lat="46.81206" lon="0.44707">
        <ele>87.6</ele>
        <time>2022-10-16T08:44:38Z</time>
      </trkpt>
      <trkpt lat="46.81195" lon="0.44709">
        <ele>86.4</ele>
        <time>2022-10-16T08:44:40Z</time>
      </trkpt>
      <trkpt lat="46.81185" lon="0.44707">
        <ele>85.6</ele>
        <time>2022-10-16T08:44:42Z</time>
      </trkpt>
      <trkpt lat="46.81179" lon="0.44705">
        <ele>85</ele>
        <time>2022-10-16T08:44:43Z</time>
      </trkpt>
      <trkpt lat="46.81173" lon="0.44704">
        <ele>84.8</ele>
        <time>2022-10-16T08:44:44Z</time>
      </trkpt>
      <trkpt lat="46.81161" lon="0.44703">
        <ele>84.4</ele>
        <time>2022-10-16T08:44:46Z</time>
      </trkpt>
      <trkpt lat="46.81148" lon="0.44704">
        <ele>83.8</ele>
        <time>2022-10-16T08:44:48Z</time>
      </trkpt>
      <trkpt lat="46.81126" lon="0.44705">
        <ele>83.2</ele>
        <time>2022-10-16T08:44:52Z</time>
      </trkpt>
      <trkpt lat="46.81109" lon="0.44705">
        <ele>82.4</ele>
        <time>2022-10-16T08:44:55Z</time>
      </trkpt>
      <trkpt lat="46.81095" lon="0.44705">
        <ele>81</ele>
        <time>2022-10-16T08:44:57Z</time>
      </trkpt>
      <trkpt lat="46.81075" lon="0.44706">
        <ele>79</ele>
        <time>2022-10-16T08:45:00Z</time>
      </trkpt>
      <trkpt lat="46.8107" lon="0.44706">
        <ele>77.8</ele>
        <time>2022-10-16T08:45:02Z</time>
      </trkpt>
      <trkpt lat="46.81058" lon="0.44709">
        <ele>76.6</ele>
        <time>2022-10-16T08:45:04Z</time>
      </trkpt>
      <trkpt lat="46.81056" lon="0.44711">
        <ele>76</ele>
        <time>2022-10-16T08:45:05Z</time>
      </trkpt>
      <trkpt lat="46.81054" lon="0.44715">
        <ele>75.8</ele>
        <time>2022-10-16T08:45:06Z</time>
      </trkpt>
      <trkpt lat="46.81051" lon="0.44726">
        <ele>75.6</ele>
        <time>2022-10-16T08:45:08Z</time>
      </trkpt>
      <trkpt lat="46.81049" lon="0.44732">
        <ele>75.8</ele>
        <time>2022-10-16T08:45:09Z</time>
      </trkpt>
      <trkpt lat="46.81038" lon="0.44786">
        <ele>76</ele>
        <time>2022-10-16T08:45:16Z</time>
      </trkpt>
      <trkpt lat="46.81024" lon="0.44836">
        <ele>76</ele>
        <time>2022-10-16T08:45:22Z</time>
      </trkpt>
      <trkpt lat="46.81016" lon="0.44874">
        <ele>75.6</ele>
        <time>2022-10-16T08:45:27Z</time>
      </trkpt>
      <trkpt lat="46.81015" lon="0.44883">
        <ele>75.4</ele>
        <time>2022-10-16T08:45:28Z</time>
      </trkpt>
      <trkpt lat="46.81005" lon="0.44936">
        <ele>75</ele>
        <time>2022-10-16T08:45:34Z</time>
      </trkpt>
      <trkpt lat="46.81" lon="0.44961">
        <ele>74.2</ele>
        <time>2022-10-16T08:45:37Z</time>
      </trkpt>
      <trkpt lat="46.80995" lon="0.44981">
        <ele>74</ele>
        <time>2022-10-16T08:45:39Z</time>
      </trkpt>
      <trkpt lat="46.80993" lon="0.44991">
        <ele>74</ele>
        <time>2022-10-16T08:45:40Z</time>
      </trkpt>
      <trkpt lat="46.8099" lon="0.44998">
        <ele>73.8</ele>
        <time>2022-10-16T08:45:41Z</time>
      </trkpt>
      <trkpt lat="46.80986" lon="0.45011">
        <ele>73.4</ele>
        <time>2022-10-16T08:45:43Z</time>
      </trkpt>
      <trkpt lat="46.80985" lon="0.45013">
        <ele>73.4</ele>
        <time>2022-10-16T08:45:44Z</time>
      </trkpt>
      <trkpt lat="46.80985" lon="0.45016">
        <ele>73.2</ele>
        <time>2022-10-16T08:45:45Z</time>
      </trkpt>
      <trkpt lat="46.80983" lon="0.45019">
        <ele>73.2</ele>
        <time>2022-10-16T08:45:48Z</time>
      </trkpt>
      <trkpt lat="46.80987" lon="0.45025">
        <ele>73.4</ele>
        <time>2022-10-16T08:45:53Z</time>
      </trkpt>
      <trkpt lat="46.80999" lon="0.45039">
        <ele>74</ele>
        <time>2022-10-16T08:46:00Z</time>
      </trkpt>
      <trkpt lat="46.81001" lon="0.45042">
        <ele>74.2</ele>
        <time>2022-10-16T08:46:01Z</time>
      </trkpt>
      <trkpt lat="46.81008" lon="0.45051">
        <ele>75.4</ele>
        <time>2022-10-16T08:46:05Z</time>
      </trkpt>
      <trkpt lat="46.81015" lon="0.45057">
        <ele>75.8</ele>
        <time>2022-10-16T08:46:08Z</time>
      </trkpt>
      <trkpt lat="46.81023" lon="0.45062">
        <ele>76.4</ele>
        <time>2022-10-16T08:46:11Z</time>
      </trkpt>
      <trkpt lat="46.81031" lon="0.45072">
        <ele>76.8</ele>
        <time>2022-10-16T08:46:15Z</time>
      </trkpt>
      <trkpt lat="46.81032" lon="0.45078">
        <ele>76.8</ele>
        <time>2022-10-16T08:46:17Z</time>
      </trkpt>
      <trkpt lat="46.81032" lon="0.45086">
        <ele>76.6</ele>
        <time>2022-10-16T08:46:20Z</time>
      </trkpt>
      <trkpt lat="46.8103" lon="0.45099">
        <ele>76.2</ele>
        <time>2022-10-16T08:46:24Z</time>
      </trkpt>
      <trkpt lat="46.81028" lon="0.45106">
        <ele>76</ele>
        <time>2022-10-16T08:46:26Z</time>
      </trkpt>
      <trkpt lat="46.81031" lon="0.45127">
        <ele>76.4</ele>
        <time>2022-10-16T08:46:31Z</time>
      </trkpt>
      <trkpt lat="46.81032" lon="0.45131">
        <ele>76.4</ele>
        <time>2022-10-16T08:46:32Z</time>
      </trkpt>
      <trkpt lat="46.81035" lon="0.45137">
        <ele>76.8</ele>
        <time>2022-10-16T08:46:34Z</time>
      </trkpt>
      <trkpt lat="46.81037" lon="0.45139">
        <ele>77</ele>
        <time>2022-10-16T08:46:35Z</time>
      </trkpt>
      <trkpt lat="46.81043" lon="0.45149">
        <ele>77.6</ele>
        <time>2022-10-16T08:46:39Z</time>
      </trkpt>
      <trkpt lat="46.81046" lon="0.45152">
        <ele>78.2</ele>
        <time>2022-10-16T08:46:41Z</time>
      </trkpt>
      <trkpt lat="46.81047" lon="0.45153">
        <ele>78.6</ele>
        <time>2022-10-16T08:46:42Z</time>
      </trkpt>
      <trkpt lat="46.81057" lon="0.45164">
        <ele>79.8</ele>
        <time>2022-10-16T08:46:48Z</time>
      </trkpt>
      <trkpt lat="46.81059" lon="0.45165">
        <ele>80.2</ele>
        <time>2022-10-16T08:46:49Z</time>
      </trkpt>
      <trkpt lat="46.81067" lon="0.45171">
        <ele>81</ele>
        <time>2022-10-16T08:46:53Z</time>
      </trkpt>
      <trkpt lat="46.81072" lon="0.45176">
        <ele>81.6</ele>
        <time>2022-10-16T08:46:55Z</time>
      </trkpt>
      <trkpt lat="46.81076" lon="0.45179">
        <ele>82.2</ele>
        <time>2022-10-16T08:46:57Z</time>
      </trkpt>
      <trkpt lat="46.81081" lon="0.45185">
        <ele>82.6</ele>
        <time>2022-10-16T08:47:00Z</time>
      </trkpt>
      <trkpt lat="46.81083" lon="0.45186">
        <ele>83</ele>
        <time>2022-10-16T08:47:01Z</time>
      </trkpt>
      <trkpt lat="46.81085" lon="0.45188">
        <ele>83.2</ele>
        <time>2022-10-16T08:47:02Z</time>
      </trkpt>
      <trkpt lat="46.81093" lon="0.45197">
        <ele>84.2</ele>
        <time>2022-10-16T08:47:08Z</time>
      </trkpt>
      <trkpt lat="46.81093" lon="0.45201">
        <ele>84.4</ele>
        <time>2022-10-16T08:47:10Z</time>
      </trkpt>
      <trkpt lat="46.81092" lon="0.45204">
        <ele>84.4</ele>
        <time>2022-10-16T08:47:12Z</time>
      </trkpt>
      <trkpt lat="46.81089" lon="0.45206">
        <ele>84</ele>
        <time>2022-10-16T08:47:15Z</time>
      </trkpt>
      <trkpt lat="46.81088" lon="0.45205">
        <ele>84</ele>
        <time>2022-10-16T08:47:16Z</time>
      </trkpt>
      <trkpt lat="46.81083" lon="0.45207">
        <ele>83.2</ele>
        <time>2022-10-16T08:47:19Z</time>
      </trkpt>
      <trkpt lat="46.81082" lon="0.45209">
        <ele>82.6</ele>
        <time>2022-10-16T08:47:20Z</time>
      </trkpt>
      <trkpt lat="46.81082" lon="0.45212">
        <ele>82.2</ele>
        <time>2022-10-16T08:47:22Z</time>
      </trkpt>
      <trkpt lat="46.81082" lon="0.45216">
        <ele>81.8</ele>
        <time>2022-10-16T08:47:25Z</time>
      </trkpt>
      <trkpt lat="46.81075" lon="0.45221">
        <ele>81.6</ele>
        <time>2022-10-16T08:47:29Z</time>
      </trkpt>
      <trkpt lat="46.81071" lon="0.45221">
        <ele>81</ele>
        <time>2022-10-16T08:47:31Z</time>
      </trkpt>
      <trkpt lat="46.81071" lon="0.45218">
        <ele>80.6</ele>
        <time>2022-10-16T08:47:33Z</time>
      </trkpt>
      <trkpt lat="46.81072" lon="0.45216">
        <ele>80.4</ele>
        <time>2022-10-16T08:47:34Z</time>
      </trkpt>
      <trkpt lat="46.81074" lon="0.45212">
        <ele>80.2</ele>
        <time>2022-10-16T08:47:38Z</time>
      </trkpt>
      <trkpt lat="46.81073" lon="0.45212">
        <ele>80.2</ele>
        <time>2022-10-16T08:47:39Z</time>
      </trkpt>
      <trkpt lat="46.81066" lon="0.45213">
        <ele>80.4</ele>
        <time>2022-10-16T08:47:42Z</time>
      </trkpt>
      <trkpt lat="46.8106" lon="0.45215">
        <ele>80</ele>
        <time>2022-10-16T08:47:44Z</time>
      </trkpt>
      <trkpt lat="46.81054" lon="0.45216">
        <ele>79</ele>
        <time>2022-10-16T08:47:46Z</time>
      </trkpt>
      <trkpt lat="46.81052" lon="0.45215">
        <ele>78.6</ele>
        <time>2022-10-16T08:47:47Z</time>
      </trkpt>
      <trkpt lat="46.81051" lon="0.45214">
        <ele>78.2</ele>
        <time>2022-10-16T08:47:48Z</time>
      </trkpt>
      <trkpt lat="46.81048" lon="0.45213">
        <ele>77.6</ele>
        <time>2022-10-16T08:47:50Z</time>
      </trkpt>
      <trkpt lat="46.81047" lon="0.45213">
        <ele>77.4</ele>
        <time>2022-10-16T08:47:51Z</time>
      </trkpt>
      <trkpt lat="46.81047" lon="0.45215">
        <ele>77.4</ele>
        <time>2022-10-16T08:47:52Z</time>
      </trkpt>
      <trkpt lat="46.81043" lon="0.45219">
        <ele>77.2</ele>
        <time>2022-10-16T08:47:55Z</time>
      </trkpt>
      <trkpt lat="46.8104" lon="0.45219">
        <ele>77</ele>
        <time>2022-10-16T08:47:57Z</time>
      </trkpt>
      <trkpt lat="46.81037" lon="0.45216">
        <ele>76.4</ele>
        <time>2022-10-16T08:47:59Z</time>
      </trkpt>
      <trkpt lat="46.81034" lon="0.45214">
        <ele>76.2</ele>
        <time>2022-10-16T08:48:01Z</time>
      </trkpt>
      <trkpt lat="46.81032" lon="0.45214">
        <ele>76</ele>
        <time>2022-10-16T08:48:02Z</time>
      </trkpt>
      <trkpt lat="46.8103" lon="0.45214">
        <ele>75.8</ele>
        <time>2022-10-16T08:48:03Z</time>
      </trkpt>
      <trkpt lat="46.81024" lon="0.45218">
        <ele>75.4</ele>
        <time>2022-10-16T08:48:07Z</time>
      </trkpt>
      <trkpt lat="46.81023" lon="0.45217">
        <ele>75.4</ele>
        <time>2022-10-16T08:48:08Z</time>
      </trkpt>
      <trkpt lat="46.81014" lon="0.4521">
        <ele>74.8</ele>
        <time>2022-10-16T08:48:12Z</time>
      </trkpt>
      <trkpt lat="46.81007" lon="0.45205">
        <ele>74.6</ele>
        <time>2022-10-16T08:48:15Z</time>
      </trkpt>
      <trkpt lat="46.81005" lon="0.45204">
        <ele>74</ele>
        <time>2022-10-16T08:48:16Z</time>
      </trkpt>
      <trkpt lat="46.80999" lon="0.452">
        <ele>73.2</ele>
        <time>2022-10-16T08:48:18Z</time>
      </trkpt>
      <trkpt lat="46.80993" lon="0.45195">
        <ele>72.4</ele>
        <time>2022-10-16T08:48:20Z</time>
      </trkpt>
      <trkpt lat="46.80988" lon="0.45196">
        <ele>71.8</ele>
        <time>2022-10-16T08:48:23Z</time>
      </trkpt>
      <trkpt lat="46.80986" lon="0.45197">
        <ele>71.8</ele>
        <time>2022-10-16T08:48:25Z</time>
      </trkpt>
      <trkpt lat="46.80981" lon="0.45197">
        <ele>72</ele>
        <time>2022-10-16T08:48:27Z</time>
      </trkpt>
      <trkpt lat="46.80977" lon="0.45198">
        <ele>71.4</ele>
        <time>2022-10-16T08:48:30Z</time>
      </trkpt>
      <trkpt lat="46.80975" lon="0.45201">
        <ele>71.4</ele>
        <time>2022-10-16T08:48:32Z</time>
      </trkpt>
      <trkpt lat="46.80974" lon="0.45203">
        <ele>71.4</ele>
        <time>2022-10-16T08:48:33Z</time>
      </trkpt>
      <trkpt lat="46.80973" lon="0.45205">
        <ele>71.6</ele>
        <time>2022-10-16T08:48:35Z</time>
      </trkpt>
      <trkpt lat="46.80973" lon="0.45208">
        <ele>71.6</ele>
        <time>2022-10-16T08:48:37Z</time>
      </trkpt>
      <trkpt lat="46.80972" lon="0.4521">
        <ele>71.8</ele>
        <time>2022-10-16T08:48:39Z</time>
      </trkpt>
      <trkpt lat="46.80974" lon="0.45215">
        <ele>71.8</ele>
        <time>2022-10-16T08:48:42Z</time>
      </trkpt>
      <trkpt lat="46.80977" lon="0.45221">
        <ele>72.6</ele>
        <time>2022-10-16T08:48:45Z</time>
      </trkpt>
      <trkpt lat="46.80973" lon="0.45227">
        <ele>72.6</ele>
        <time>2022-10-16T08:48:47Z</time>
      </trkpt>
      <trkpt lat="46.8097" lon="0.45228">
        <ele>72.4</ele>
        <time>2022-10-16T08:48:49Z</time>
      </trkpt>
      <trkpt lat="46.80966" lon="0.45227">
        <ele>72.2</ele>
        <time>2022-10-16T08:48:51Z</time>
      </trkpt>
      <trkpt lat="46.80963" lon="0.45227">
        <ele>72</ele>
        <time>2022-10-16T08:48:52Z</time>
      </trkpt>
      <trkpt lat="46.80956" lon="0.45231">
        <ele>71.6</ele>
        <time>2022-10-16T08:48:55Z</time>
      </trkpt>
      <trkpt lat="46.80953" lon="0.45231">
        <ele>71.4</ele>
        <time>2022-10-16T08:48:56Z</time>
      </trkpt>
      <trkpt lat="46.80951" lon="0.4523">
        <ele>71.4</ele>
        <time>2022-10-16T08:48:57Z</time>
      </trkpt>
      <trkpt lat="46.80949" lon="0.45225">
        <ele>71.2</ele>
        <time>2022-10-16T08:48:59Z</time>
      </trkpt>
      <trkpt lat="46.80952" lon="0.45198">
        <ele>71.6</ele>
        <time>2022-10-16T08:49:06Z</time>
      </trkpt>
      <trkpt lat="46.80954" lon="0.45177">
        <ele>71.8</ele>
        <time>2022-10-16T08:49:10Z</time>
      </trkpt>
      <trkpt lat="46.80957" lon="0.45165">
        <ele>72.2</ele>
        <time>2022-10-16T08:49:12Z</time>
      </trkpt>
      <trkpt lat="46.80962" lon="0.45141">
        <ele>72.4</ele>
        <time>2022-10-16T08:49:16Z</time>
      </trkpt>
      <trkpt lat="46.80967" lon="0.45114">
        <ele>72.6</ele>
        <time>2022-10-16T08:49:20Z</time>
      </trkpt>
      <trkpt lat="46.80969" lon="0.45094">
        <ele>73</ele>
        <time>2022-10-16T08:49:23Z</time>
      </trkpt>
      <trkpt lat="46.80974" lon="0.45067">
        <ele>73.2</ele>
        <time>2022-10-16T08:49:27Z</time>
      </trkpt>
      <trkpt lat="46.80974" lon="0.45056">
        <ele>73.2</ele>
        <time>2022-10-16T08:49:29Z</time>
      </trkpt>
      <trkpt lat="46.80971" lon="0.45045">
        <ele>73</ele>
        <time>2022-10-16T08:49:31Z</time>
      </trkpt>
      <trkpt lat="46.80958" lon="0.45031">
        <ele>73.6</ele>
        <time>2022-10-16T08:49:35Z</time>
      </trkpt>
      <trkpt lat="46.80949" lon="0.45026">
        <ele>73.6</ele>
        <time>2022-10-16T08:49:37Z</time>
      </trkpt>
      <trkpt lat="46.80938" lon="0.45019">
        <ele>73.4</ele>
        <time>2022-10-16T08:49:39Z</time>
      </trkpt>
      <trkpt lat="46.80926" lon="0.45009">
        <ele>72.4</ele>
        <time>2022-10-16T08:49:41Z</time>
      </trkpt>
      <trkpt lat="46.8091" lon="0.44995">
        <ele>71.4</ele>
        <time>2022-10-16T08:49:44Z</time>
      </trkpt>
      <trkpt lat="46.80908" lon="0.44992">
        <ele>70.8</ele>
        <time>2022-10-16T08:49:45Z</time>
      </trkpt>
      <trkpt lat="46.80904" lon="0.44993">
        <ele>70</ele>
        <time>2022-10-16T08:49:47Z</time>
      </trkpt>
      <trkpt lat="46.80902" lon="0.44996">
        <ele>69.6</ele>
        <time>2022-10-16T08:49:49Z</time>
      </trkpt>
      <trkpt lat="46.80899" lon="0.45012">
        <ele>69.4</ele>
        <time>2022-10-16T08:49:55Z</time>
      </trkpt>
      <trkpt lat="46.80896" lon="0.4502">
        <ele>69</ele>
        <time>2022-10-16T08:49:57Z</time>
      </trkpt>
      <trkpt lat="46.80896" lon="0.45024">
        <ele>69</ele>
        <time>2022-10-16T08:49:58Z</time>
      </trkpt>
      <trkpt lat="46.80894" lon="0.45035">
        <ele>68.4</ele>
        <time>2022-10-16T08:50:00Z</time>
      </trkpt>
      <trkpt lat="46.80891" lon="0.45045">
        <ele>68</ele>
        <time>2022-10-16T08:50:02Z</time>
      </trkpt>
      <trkpt lat="46.80884" lon="0.45069">
        <ele>68.4</ele>
        <time>2022-10-16T08:50:06Z</time>
      </trkpt>
      <trkpt lat="46.8088" lon="0.45081">
        <ele>68.4</ele>
        <time>2022-10-16T08:50:08Z</time>
      </trkpt>
      <trkpt lat="46.80872" lon="0.45105">
        <ele>68.4</ele>
        <time>2022-10-16T08:50:11Z</time>
      </trkpt>
      <trkpt lat="46.80867" lon="0.45122">
        <ele>67.6</ele>
        <time>2022-10-16T08:50:13Z</time>
      </trkpt>
      <trkpt lat="46.80864" lon="0.45149">
        <ele>67</ele>
        <time>2022-10-16T08:50:17Z</time>
      </trkpt>
      <trkpt lat="46.80864" lon="0.45155">
        <ele>66.8</ele>
        <time>2022-10-16T08:50:18Z</time>
      </trkpt>
      <trkpt lat="46.80863" lon="0.45164">
        <ele>66.8</ele>
        <time>2022-10-16T08:50:20Z</time>
      </trkpt>
      <trkpt lat="46.8086" lon="0.45174">
        <ele>66.8</ele>
        <time>2022-10-16T08:50:22Z</time>
      </trkpt>
      <trkpt lat="46.80857" lon="0.45183">
        <ele>66.6</ele>
        <time>2022-10-16T08:50:24Z</time>
      </trkpt>
      <trkpt lat="46.80856" lon="0.45189">
        <ele>66.4</ele>
        <time>2022-10-16T08:50:25Z</time>
      </trkpt>
      <trkpt lat="46.80853" lon="0.45205">
        <ele>65.8</ele>
        <time>2022-10-16T08:50:28Z</time>
      </trkpt>
      <trkpt lat="46.80852" lon="0.4521">
        <ele>65.8</ele>
        <time>2022-10-16T08:50:29Z</time>
      </trkpt>
      <trkpt lat="46.80848" lon="0.45223">
        <ele>65.4</ele>
        <time>2022-10-16T08:50:32Z</time>
      </trkpt>
      <trkpt lat="46.80845" lon="0.45232">
        <ele>65.4</ele>
        <time>2022-10-16T08:50:34Z</time>
      </trkpt>
      <trkpt lat="46.80843" lon="0.45238">
        <ele>65.4</ele>
        <time>2022-10-16T08:50:35Z</time>
      </trkpt>
      <trkpt lat="46.80837" lon="0.4525">
        <ele>65.2</ele>
        <time>2022-10-16T08:50:37Z</time>
      </trkpt>
      <trkpt lat="46.80827" lon="0.45264">
        <ele>65.2</ele>
        <time>2022-10-16T08:50:39Z</time>
      </trkpt>
      <trkpt lat="46.80821" lon="0.4527">
        <ele>65.2</ele>
        <time>2022-10-16T08:50:40Z</time>
      </trkpt>
      <trkpt lat="46.80813" lon="0.45278">
        <ele>65</ele>
        <time>2022-10-16T08:50:42Z</time>
      </trkpt>
      <trkpt lat="46.80808" lon="0.45285">
        <ele>65</ele>
        <time>2022-10-16T08:50:44Z</time>
      </trkpt>
      <trkpt lat="46.80806" lon="0.45293">
        <ele>65.2</ele>
        <time>2022-10-16T08:50:46Z</time>
      </trkpt>
      <trkpt lat="46.80806" lon="0.45302">
        <ele>64.6</ele>
        <time>2022-10-16T08:50:49Z</time>
      </trkpt>
      <trkpt lat="46.80809" lon="0.4532">
        <ele>64.6</ele>
        <time>2022-10-16T08:50:54Z</time>
      </trkpt>
      <trkpt lat="46.80811" lon="0.45325">
        <ele>64.6</ele>
        <time>2022-10-16T08:50:55Z</time>
      </trkpt>
      <trkpt lat="46.80825" lon="0.45356">
        <ele>66.2</ele>
        <time>2022-10-16T08:51:01Z</time>
      </trkpt>
      <trkpt lat="46.80837" lon="0.45369">
        <ele>66</ele>
        <time>2022-10-16T08:51:05Z</time>
      </trkpt>
      <trkpt lat="46.80843" lon="0.45372">
        <ele>66.2</ele>
        <time>2022-10-16T08:51:07Z</time>
      </trkpt>
      <trkpt lat="46.80852" lon="0.4538">
        <ele>66.6</ele>
        <time>2022-10-16T08:51:11Z</time>
      </trkpt>
      <trkpt lat="46.80856" lon="0.4538">
        <ele>66.6</ele>
        <time>2022-10-16T08:51:13Z</time>
      </trkpt>
      <trkpt lat="46.80863" lon="0.45382">
        <ele>67.2</ele>
        <time>2022-10-16T08:51:16Z</time>
      </trkpt>
      <trkpt lat="46.80871" lon="0.45389">
        <ele>67.8</ele>
        <time>2022-10-16T08:51:19Z</time>
      </trkpt>
      <trkpt lat="46.80873" lon="0.45394">
        <ele>68.2</ele>
        <time>2022-10-16T08:51:20Z</time>
      </trkpt>
      <trkpt lat="46.80881" lon="0.45402">
        <ele>69</ele>
        <time>2022-10-16T08:51:23Z</time>
      </trkpt>
      <trkpt lat="46.80883" lon="0.45406">
        <ele>69.4</ele>
        <time>2022-10-16T08:51:24Z</time>
      </trkpt>
      <trkpt lat="46.80886" lon="0.4543">
        <ele>69.8</ele>
        <time>2022-10-16T08:51:30Z</time>
      </trkpt>
      <trkpt lat="46.80884" lon="0.45457">
        <ele>70</ele>
        <time>2022-10-16T08:51:35Z</time>
      </trkpt>
      <trkpt lat="46.80883" lon="0.45462">
        <ele>70</ele>
        <time>2022-10-16T08:51:36Z</time>
      </trkpt>
      <trkpt lat="46.80883" lon="0.4547">
        <ele>70</ele>
        <time>2022-10-16T08:51:37Z</time>
      </trkpt>
      <trkpt lat="46.80879" lon="0.4551">
        <ele>70</ele>
        <time>2022-10-16T08:51:42Z</time>
      </trkpt>
      <trkpt lat="46.80865" lon="0.45566">
        <ele>69.6</ele>
        <time>2022-10-16T08:51:49Z</time>
      </trkpt>
      <trkpt lat="46.8086" lon="0.45584">
        <ele>69.2</ele>
        <time>2022-10-16T08:51:52Z</time>
      </trkpt>
      <trkpt lat="46.80853" lon="0.45601">
        <ele>69.2</ele>
        <time>2022-10-16T08:51:55Z</time>
      </trkpt>
      <trkpt lat="46.80849" lon="0.45611">
        <ele>68.8</ele>
        <time>2022-10-16T08:51:57Z</time>
      </trkpt>
      <trkpt lat="46.80841" lon="0.45632">
        <ele>68.6</ele>
        <time>2022-10-16T08:52:01Z</time>
      </trkpt>
      <trkpt lat="46.80833" lon="0.45639">
        <ele>68.2</ele>
        <time>2022-10-16T08:52:03Z</time>
      </trkpt>
      <trkpt lat="46.80828" lon="0.45643">
        <ele>68.2</ele>
        <time>2022-10-16T08:52:04Z</time>
      </trkpt>
      <trkpt lat="46.8082" lon="0.45651">
        <ele>68</ele>
        <time>2022-10-16T08:52:06Z</time>
      </trkpt>
      <trkpt lat="46.80813" lon="0.45662">
        <ele>67.6</ele>
        <time>2022-10-16T08:52:08Z</time>
      </trkpt>
      <trkpt lat="46.80792" lon="0.45707">
        <ele>67</ele>
        <time>2022-10-16T08:52:14Z</time>
      </trkpt>
      <trkpt lat="46.80777" lon="0.45737">
        <ele>66.4</ele>
        <time>2022-10-16T08:52:18Z</time>
      </trkpt>
      <trkpt lat="46.80768" lon="0.45756">
        <ele>66</ele>
        <time>2022-10-16T08:52:21Z</time>
      </trkpt>
      <trkpt lat="46.80765" lon="0.45762">
        <ele>66</ele>
        <time>2022-10-16T08:52:22Z</time>
      </trkpt>
      <trkpt lat="46.80759" lon="0.45778">
        <ele>65.8</ele>
        <time>2022-10-16T08:52:25Z</time>
      </trkpt>
      <trkpt lat="46.80755" lon="0.45785">
        <ele>66</ele>
        <time>2022-10-16T08:52:27Z</time>
      </trkpt>
      <trkpt lat="46.80746" lon="0.45802">
        <ele>65.6</ele>
        <time>2022-10-16T08:52:31Z</time>
      </trkpt>
      <trkpt lat="46.80744" lon="0.45806">
        <ele>65.2</ele>
        <time>2022-10-16T08:52:32Z</time>
      </trkpt>
      <trkpt lat="46.80722" lon="0.45842">
        <ele>65</ele>
        <time>2022-10-16T08:52:38Z</time>
      </trkpt>
      <trkpt lat="46.80708" lon="0.45866">
        <ele>65.2</ele>
        <time>2022-10-16T08:52:41Z</time>
      </trkpt>
      <trkpt lat="46.80705" lon="0.45874">
        <ele>65.2</ele>
        <time>2022-10-16T08:52:42Z</time>
      </trkpt>
      <trkpt lat="46.80702" lon="0.45881">
        <ele>65.4</ele>
        <time>2022-10-16T08:52:43Z</time>
      </trkpt>
      <trkpt lat="46.80699" lon="0.45895">
        <ele>65.4</ele>
        <time>2022-10-16T08:52:45Z</time>
      </trkpt>
      <trkpt lat="46.80696" lon="0.45901">
        <ele>65.6</ele>
        <time>2022-10-16T08:52:46Z</time>
      </trkpt>
      <trkpt lat="46.80692" lon="0.45907">
        <ele>65.6</ele>
        <time>2022-10-16T08:52:47Z</time>
      </trkpt>
      <trkpt lat="46.8068" lon="0.45915">
        <ele>65.6</ele>
        <time>2022-10-16T08:52:49Z</time>
      </trkpt>
      <trkpt lat="46.80639" lon="0.4594">
        <ele>64.8</ele>
        <time>2022-10-16T08:52:56Z</time>
      </trkpt>
      <trkpt lat="46.80594" lon="0.45962">
        <ele>64.6</ele>
        <time>2022-10-16T08:53:03Z</time>
      </trkpt>
      <trkpt lat="46.8058" lon="0.45968">
        <ele>64.2</ele>
        <time>2022-10-16T08:53:05Z</time>
      </trkpt>
      <trkpt lat="46.80554" lon="0.4598">
        <ele>63.8</ele>
        <time>2022-10-16T08:53:09Z</time>
      </trkpt>
      <trkpt lat="46.80525" lon="0.45995">
        <ele>63.4</ele>
        <time>2022-10-16T08:53:14Z</time>
      </trkpt>
      <trkpt lat="46.80521" lon="0.45993">
        <ele>63.2</ele>
        <time>2022-10-16T08:53:15Z</time>
      </trkpt>
      <trkpt lat="46.80518" lon="0.45989">
        <ele>63.2</ele>
        <time>2022-10-16T08:53:16Z</time>
      </trkpt>
      <trkpt lat="46.80516" lon="0.45983">
        <ele>63</ele>
        <time>2022-10-16T08:53:17Z</time>
      </trkpt>
      <trkpt lat="46.80516" lon="0.45976">
        <ele>63</ele>
        <time>2022-10-16T08:53:18Z</time>
      </trkpt>
      <trkpt lat="46.80519" lon="0.45934">
        <ele>62.6</ele>
        <time>2022-10-16T08:53:23Z</time>
      </trkpt>
      <trkpt lat="46.80524" lon="0.4589">
        <ele>62</ele>
        <time>2022-10-16T08:53:28Z</time>
      </trkpt>
      <trkpt lat="46.80526" lon="0.45873">
        <ele>61.8</ele>
        <time>2022-10-16T08:53:30Z</time>
      </trkpt>
      <trkpt lat="46.80531" lon="0.45821">
        <ele>61.4</ele>
        <time>2022-10-16T08:53:36Z</time>
      </trkpt>
      <trkpt lat="46.80532" lon="0.45777">
        <ele>61.2</ele>
        <time>2022-10-16T08:53:42Z</time>
      </trkpt>
      <trkpt lat="46.80533" lon="0.45762">
        <ele>61.4</ele>
        <time>2022-10-16T08:53:44Z</time>
      </trkpt>
      <trkpt lat="46.80534" lon="0.45739">
        <ele>61.2</ele>
        <time>2022-10-16T08:53:48Z</time>
      </trkpt>
      <trkpt lat="46.8054" lon="0.45708">
        <ele>61.4</ele>
        <time>2022-10-16T08:53:53Z</time>
      </trkpt>
      <trkpt lat="46.80541" lon="0.45702">
        <ele>61.8</ele>
        <time>2022-10-16T08:53:54Z</time>
      </trkpt>
      <trkpt lat="46.80552" lon="0.45652">
        <ele>61.4</ele>
        <time>2022-10-16T08:54:01Z</time>
      </trkpt>
      <trkpt lat="46.80555" lon="0.45636">
        <ele>61.6</ele>
        <time>2022-10-16T08:54:03Z</time>
      </trkpt>
      <trkpt lat="46.80558" lon="0.45607">
        <ele>61</ele>
        <time>2022-10-16T08:54:07Z</time>
      </trkpt>
      <trkpt lat="46.80559" lon="0.45602">
        <ele>61</ele>
        <time>2022-10-16T08:54:08Z</time>
      </trkpt>
      <trkpt lat="46.80558" lon="0.45596">
        <ele>60.8</ele>
        <time>2022-10-16T08:54:09Z</time>
      </trkpt>
      <trkpt lat="46.80557" lon="0.45591">
        <ele>60.8</ele>
        <time>2022-10-16T08:54:10Z</time>
      </trkpt>
      <trkpt lat="46.80555" lon="0.45586">
        <ele>60.8</ele>
        <time>2022-10-16T08:54:11Z</time>
      </trkpt>
      <trkpt lat="46.80553" lon="0.4558">
        <ele>60.8</ele>
        <time>2022-10-16T08:54:12Z</time>
      </trkpt>
      <trkpt lat="46.80545" lon="0.45562">
        <ele>61</ele>
        <time>2022-10-16T08:54:15Z</time>
      </trkpt>
      <trkpt lat="46.80541" lon="0.45554">
        <ele>61.2</ele>
        <time>2022-10-16T08:54:17Z</time>
      </trkpt>
      <trkpt lat="46.80523" lon="0.45528">
        <ele>61.4</ele>
        <time>2022-10-16T08:54:25Z</time>
      </trkpt>
      <trkpt lat="46.80518" lon="0.45519">
        <ele>61.4</ele>
        <time>2022-10-16T08:54:27Z</time>
      </trkpt>
      <trkpt lat="46.80509" lon="0.45507">
        <ele>61.4</ele>
        <time>2022-10-16T08:54:30Z</time>
      </trkpt>
      <trkpt lat="46.805" lon="0.45495">
        <ele>61.4</ele>
        <time>2022-10-16T08:54:33Z</time>
      </trkpt>
      <trkpt lat="46.80485" lon="0.45477">
        <ele>61.4</ele>
        <time>2022-10-16T08:54:38Z</time>
      </trkpt>
      <trkpt lat="46.80481" lon="0.45473">
        <ele>61.4</ele>
        <time>2022-10-16T08:54:39Z</time>
      </trkpt>
      <trkpt lat="46.80476" lon="0.45463">
        <ele>61.4</ele>
        <time>2022-10-16T08:54:41Z</time>
      </trkpt>
      <trkpt lat="46.80466" lon="0.45443">
        <ele>61.8</ele>
        <time>2022-10-16T08:54:44Z</time>
      </trkpt>
      <trkpt lat="46.80461" lon="0.4543">
        <ele>61.8</ele>
        <time>2022-10-16T08:54:46Z</time>
      </trkpt>
      <trkpt lat="46.80444" lon="0.45401">
        <ele>62.2</ele>
        <time>2022-10-16T08:54:51Z</time>
      </trkpt>
      <trkpt lat="46.80441" lon="0.45395">
        <ele>62.2</ele>
        <time>2022-10-16T08:54:52Z</time>
      </trkpt>
      <trkpt lat="46.80431" lon="0.4537">
        <ele>62.6</ele>
        <time>2022-10-16T08:54:56Z</time>
      </trkpt>
      <trkpt lat="46.80421" lon="0.45345">
        <ele>62.8</ele>
        <time>2022-10-16T08:55:00Z</time>
      </trkpt>
      <trkpt lat="46.8042" lon="0.45339">
        <ele>62.8</ele>
        <time>2022-10-16T08:55:01Z</time>
      </trkpt>
      <trkpt lat="46.80419" lon="0.45332">
        <ele>62.8</ele>
        <time>2022-10-16T08:55:02Z</time>
      </trkpt>
      <trkpt lat="46.8042" lon="0.45321">
        <ele>62.8</ele>
        <time>2022-10-16T08:55:04Z</time>
      </trkpt>
      <trkpt lat="46.80421" lon="0.45316">
        <ele>62.8</ele>
        <time>2022-10-16T08:55:05Z</time>
      </trkpt>
      <trkpt lat="46.80422" lon="0.45311">
        <ele>63</ele>
        <time>2022-10-16T08:55:06Z</time>
      </trkpt>
      <trkpt lat="46.80427" lon="0.45304">
        <ele>63.2</ele>
        <time>2022-10-16T08:55:08Z</time>
      </trkpt>
      <trkpt lat="46.80429" lon="0.45301">
        <ele>63.4</ele>
        <time>2022-10-16T08:55:09Z</time>
      </trkpt>
      <trkpt lat="46.80432" lon="0.45296">
        <ele>63.4</ele>
        <time>2022-10-16T08:55:11Z</time>
      </trkpt>
      <trkpt lat="46.8044" lon="0.45284">
        <ele>63.8</ele>
        <time>2022-10-16T08:55:15Z</time>
      </trkpt>
      <trkpt lat="46.80448" lon="0.45276">
        <ele>64.2</ele>
        <time>2022-10-16T08:55:18Z</time>
      </trkpt>
      <trkpt lat="46.80459" lon="0.45266">
        <ele>64.2</ele>
        <time>2022-10-16T08:55:22Z</time>
      </trkpt>
      <trkpt lat="46.80475" lon="0.45252">
        <ele>64.6</ele>
        <time>2022-10-16T08:55:28Z</time>
      </trkpt>
      <trkpt lat="46.80477" lon="0.4525">
        <ele>64.6</ele>
        <time>2022-10-16T08:55:29Z</time>
      </trkpt>
      <trkpt lat="46.80483" lon="0.45247">
        <ele>64.6</ele>
        <time>2022-10-16T08:55:31Z</time>
      </trkpt>
      <trkpt lat="46.80494" lon="0.45235">
        <ele>65.2</ele>
        <time>2022-10-16T08:55:35Z</time>
      </trkpt>
      <trkpt lat="46.80498" lon="0.45233">
        <ele>65.2</ele>
        <time>2022-10-16T08:55:36Z</time>
      </trkpt>
      <trkpt lat="46.80509" lon="0.45225">
        <ele>65.2</ele>
        <time>2022-10-16T08:55:39Z</time>
      </trkpt>
      <trkpt lat="46.80517" lon="0.45219">
        <ele>65.2</ele>
        <time>2022-10-16T08:55:41Z</time>
      </trkpt>
      <trkpt lat="46.80535" lon="0.45204">
        <ele>65.2</ele>
        <time>2022-10-16T08:55:45Z</time>
      </trkpt>
      <trkpt lat="46.80544" lon="0.45194">
        <ele>65</ele>
        <time>2022-10-16T08:55:47Z</time>
      </trkpt>
      <trkpt lat="46.80548" lon="0.45189">
        <ele>65.2</ele>
        <time>2022-10-16T08:55:48Z</time>
      </trkpt>
      <trkpt lat="46.8058" lon="0.45157">
        <ele>65</ele>
        <time>2022-10-16T08:55:55Z</time>
      </trkpt>
      <trkpt lat="46.80622" lon="0.45125">
        <ele>65.6</ele>
        <time>2022-10-16T08:56:02Z</time>
      </trkpt>
      <trkpt lat="46.80644" lon="0.45109">
        <ele>65.2</ele>
        <time>2022-10-16T08:56:06Z</time>
      </trkpt>
      <trkpt lat="46.80655" lon="0.451">
        <ele>65.2</ele>
        <time>2022-10-16T08:56:08Z</time>
      </trkpt>
      <trkpt lat="46.80661" lon="0.45095">
        <ele>65</ele>
        <time>2022-10-16T08:56:09Z</time>
      </trkpt>
      <trkpt lat="46.8068" lon="0.45081">
        <ele>64.6</ele>
        <time>2022-10-16T08:56:13Z</time>
      </trkpt>
      <trkpt lat="46.80708" lon="0.4506">
        <ele>65.4</ele>
        <time>2022-10-16T08:56:19Z</time>
      </trkpt>
      <trkpt lat="46.80741" lon="0.45033">
        <ele>65.4</ele>
        <time>2022-10-16T08:56:26Z</time>
      </trkpt>
      <trkpt lat="46.80747" lon="0.45025">
        <ele>65.8</ele>
        <time>2022-10-16T08:56:28Z</time>
      </trkpt>
      <trkpt lat="46.80753" lon="0.45014">
        <ele>65.8</ele>
        <time>2022-10-16T08:56:30Z</time>
      </trkpt>
      <trkpt lat="46.80756" lon="0.45008">
        <ele>65.6</ele>
        <time>2022-10-16T08:56:31Z</time>
      </trkpt>
      <trkpt lat="46.80767" lon="0.44971">
        <ele>65.6</ele>
        <time>2022-10-16T08:56:36Z</time>
      </trkpt>
      <trkpt lat="46.8077" lon="0.44958">
        <ele>65.4</ele>
        <time>2022-10-16T08:56:38Z</time>
      </trkpt>
      <trkpt lat="46.80776" lon="0.44944">
        <ele>65.4</ele>
        <time>2022-10-16T08:56:40Z</time>
      </trkpt>
      <trkpt lat="46.80781" lon="0.44932">
        <ele>65.4</ele>
        <time>2022-10-16T08:56:42Z</time>
      </trkpt>
      <trkpt lat="46.80782" lon="0.44927">
        <ele>65.6</ele>
        <time>2022-10-16T08:56:43Z</time>
      </trkpt>
      <trkpt lat="46.80773" lon="0.44915">
        <ele>66.2</ele>
        <time>2022-10-16T08:56:48Z</time>
      </trkpt>
      <trkpt lat="46.80769" lon="0.44913">
        <ele>66.4</ele>
        <time>2022-10-16T08:56:51Z</time>
      </trkpt>
      <trkpt lat="46.80761" lon="0.44908">
        <ele>66.6</ele>
        <time>2022-10-16T08:56:54Z</time>
      </trkpt>
      <trkpt lat="46.80729" lon="0.44896">
        <ele>67</ele>
        <time>2022-10-16T08:57:02Z</time>
      </trkpt>
      <trkpt lat="46.80705" lon="0.44891">
        <ele>67.4</ele>
        <time>2022-10-16T08:57:07Z</time>
      </trkpt>
      <trkpt lat="46.80699" lon="0.4489">
        <ele>67.4</ele>
        <time>2022-10-16T08:57:08Z</time>
      </trkpt>
      <trkpt lat="46.80668" lon="0.44878">
        <ele>67.6</ele>
        <time>2022-10-16T08:57:14Z</time>
      </trkpt>
      <trkpt lat="46.80646" lon="0.44873">
        <ele>67.6</ele>
        <time>2022-10-16T08:57:18Z</time>
      </trkpt>
      <trkpt lat="46.80634" lon="0.4487">
        <ele>68.4</ele>
        <time>2022-10-16T08:57:20Z</time>
      </trkpt>
      <trkpt lat="46.80629" lon="0.44869">
        <ele>68.4</ele>
        <time>2022-10-16T08:57:21Z</time>
      </trkpt>
      <trkpt lat="46.80603" lon="0.44862">
        <ele>68.8</ele>
        <time>2022-10-16T08:57:26Z</time>
      </trkpt>
      <trkpt lat="46.80562" lon="0.44853">
        <ele>69</ele>
        <time>2022-10-16T08:57:34Z</time>
      </trkpt>
      <trkpt lat="46.80546" lon="0.44852">
        <ele>69.2</ele>
        <time>2022-10-16T08:57:38Z</time>
      </trkpt>
      <trkpt lat="46.80541" lon="0.44851">
        <ele>69.2</ele>
        <time>2022-10-16T08:57:39Z</time>
      </trkpt>
      <trkpt lat="46.80502" lon="0.4484">
        <ele>68.8</ele>
        <time>2022-10-16T08:57:47Z</time>
      </trkpt>
      <trkpt lat="46.80466" lon="0.44829">
        <ele>68.8</ele>
        <time>2022-10-16T08:57:53Z</time>
      </trkpt>
      <trkpt lat="46.80423" lon="0.44811">
        <ele>68.8</ele>
        <time>2022-10-16T08:58:00Z</time>
      </trkpt>
      <trkpt lat="46.80385" lon="0.44803">
        <ele>69.2</ele>
        <time>2022-10-16T08:58:06Z</time>
      </trkpt>
      <trkpt lat="46.80349" lon="0.44798">
        <ele>68.8</ele>
        <time>2022-10-16T08:58:12Z</time>
      </trkpt>
      <trkpt lat="46.80338" lon="0.44798">
        <ele>68.4</ele>
        <time>2022-10-16T08:58:15Z</time>
      </trkpt>
      <trkpt lat="46.80335" lon="0.44796">
        <ele>68.2</ele>
        <time>2022-10-16T08:58:18Z</time>
      </trkpt>
      <trkpt lat="46.80334" lon="0.44795">
        <ele>68.2</ele>
        <time>2022-10-16T08:58:19Z</time>
      </trkpt>
      <trkpt lat="46.80333" lon="0.44792">
        <ele>68.4</ele>
        <time>2022-10-16T08:58:21Z</time>
      </trkpt>
      <trkpt lat="46.8033" lon="0.4478">
        <ele>68.8</ele>
        <time>2022-10-16T08:58:26Z</time>
      </trkpt>
      <trkpt lat="46.80324" lon="0.44767">
        <ele>69.2</ele>
        <time>2022-10-16T08:58:31Z</time>
      </trkpt>
      <trkpt lat="46.80322" lon="0.44762">
        <ele>69.6</ele>
        <time>2022-10-16T08:58:33Z</time>
      </trkpt>
      <trkpt lat="46.80322" lon="0.4476">
        <ele>69.6</ele>
        <time>2022-10-16T08:58:34Z</time>
      </trkpt>
      <trkpt lat="46.80321" lon="0.44752">
        <ele>70</ele>
        <time>2022-10-16T08:58:37Z</time>
      </trkpt>
      <trkpt lat="46.80318" lon="0.44741">
        <ele>70.6</ele>
        <time>2022-10-16T08:58:41Z</time>
      </trkpt>
      <trkpt lat="46.80316" lon="0.44737">
        <ele>70.8</ele>
        <time>2022-10-16T08:58:42Z</time>
      </trkpt>
      <trkpt lat="46.80313" lon="0.44731">
        <ele>70.8</ele>
        <time>2022-10-16T08:58:44Z</time>
      </trkpt>
      <trkpt lat="46.80301" lon="0.44722">
        <ele>71</ele>
        <time>2022-10-16T08:58:50Z</time>
      </trkpt>
      <trkpt lat="46.803" lon="0.4472">
        <ele>71</ele>
        <time>2022-10-16T08:58:51Z</time>
      </trkpt>
      <trkpt lat="46.80299" lon="0.44716">
        <ele>71</ele>
        <time>2022-10-16T08:58:53Z</time>
      </trkpt>
      <trkpt lat="46.80299" lon="0.44714">
        <ele>71</ele>
        <time>2022-10-16T08:58:54Z</time>
      </trkpt>
      <trkpt lat="46.80296" lon="0.44697">
        <ele>71.8</ele>
        <time>2022-10-16T08:59:00Z</time>
      </trkpt>
      <trkpt lat="46.8029" lon="0.44679">
        <ele>72.4</ele>
        <time>2022-10-16T08:59:06Z</time>
      </trkpt>
      <trkpt lat="46.80285" lon="0.44666">
        <ele>72.8</ele>
        <time>2022-10-16T08:59:10Z</time>
      </trkpt>
      <trkpt lat="46.8028" lon="0.44657">
        <ele>73.4</ele>
        <time>2022-10-16T08:59:13Z</time>
      </trkpt>
      <trkpt lat="46.80276" lon="0.44649">
        <ele>74</ele>
        <time>2022-10-16T08:59:16Z</time>
      </trkpt>
      <trkpt lat="46.80273" lon="0.44638">
        <ele>74.2</ele>
        <time>2022-10-16T08:59:19Z</time>
      </trkpt>
      <trkpt lat="46.8027" lon="0.44629">
        <ele>74.6</ele>
        <time>2022-10-16T08:59:22Z</time>
      </trkpt>
      <trkpt lat="46.80271" lon="0.44623">
        <ele>74.8</ele>
        <time>2022-10-16T08:59:24Z</time>
      </trkpt>
      <trkpt lat="46.80271" lon="0.44621">
        <ele>74.8</ele>
        <time>2022-10-16T08:59:25Z</time>
      </trkpt>
      <trkpt lat="46.80272" lon="0.44611">
        <ele>75</ele>
        <time>2022-10-16T08:59:29Z</time>
      </trkpt>
      <trkpt lat="46.80273" lon="0.44606">
        <ele>75</ele>
        <time>2022-10-16T08:59:31Z</time>
      </trkpt>
      <trkpt lat="46.80278" lon="0.44595">
        <ele>75</ele>
        <time>2022-10-16T08:59:36Z</time>
      </trkpt>
      <trkpt lat="46.8028" lon="0.4459">
        <ele>75</ele>
        <time>2022-10-16T08:59:38Z</time>
      </trkpt>
      <trkpt lat="46.8028" lon="0.44585">
        <ele>75.4</ele>
        <time>2022-10-16T08:59:40Z</time>
      </trkpt>
      <trkpt lat="46.8028" lon="0.44578">
        <ele>75.6</ele>
        <time>2022-10-16T08:59:43Z</time>
      </trkpt>
      <trkpt lat="46.80278" lon="0.44575">
        <ele>76.2</ele>
        <time>2022-10-16T08:59:45Z</time>
      </trkpt>
      <trkpt lat="46.80275" lon="0.44566">
        <ele>76.8</ele>
        <time>2022-10-16T08:59:48Z</time>
      </trkpt>
      <trkpt lat="46.80272" lon="0.4456">
        <ele>77.2</ele>
        <time>2022-10-16T08:59:51Z</time>
      </trkpt>
      <trkpt lat="46.80267" lon="0.44555">
        <ele>77.4</ele>
        <time>2022-10-16T08:59:53Z</time>
      </trkpt>
      <trkpt lat="46.80263" lon="0.44549">
        <ele>77.6</ele>
        <time>2022-10-16T08:59:55Z</time>
      </trkpt>
      <trkpt lat="46.80261" lon="0.44543">
        <ele>78</ele>
        <time>2022-10-16T08:59:57Z</time>
      </trkpt>
      <trkpt lat="46.8026" lon="0.44538">
        <ele>78.4</ele>
        <time>2022-10-16T08:59:59Z</time>
      </trkpt>
      <trkpt lat="46.80257" lon="0.44532">
        <ele>79</ele>
        <time>2022-10-16T09:00:01Z</time>
      </trkpt>
      <trkpt lat="46.80254" lon="0.44525">
        <ele>79.6</ele>
        <time>2022-10-16T09:00:04Z</time>
      </trkpt>
      <trkpt lat="46.80252" lon="0.44522">
        <ele>79.6</ele>
        <time>2022-10-16T09:00:05Z</time>
      </trkpt>
      <trkpt lat="46.80244" lon="0.44507">
        <ele>79.8</ele>
        <time>2022-10-16T09:00:10Z</time>
      </trkpt>
      <trkpt lat="46.80243" lon="0.44498">
        <ele>79.8</ele>
        <time>2022-10-16T09:00:12Z</time>
      </trkpt>
      <trkpt lat="46.80238" lon="0.44469">
        <ele>80.8</ele>
        <time>2022-10-16T09:00:19Z</time>
      </trkpt>
      <trkpt lat="46.80244" lon="0.44454">
        <ele>80.6</ele>
        <time>2022-10-16T09:00:25Z</time>
      </trkpt>
      <trkpt lat="46.80245" lon="0.44452">
        <ele>80.6</ele>
        <time>2022-10-16T09:00:26Z</time>
      </trkpt>
      <trkpt lat="46.80249" lon="0.44439">
        <ele>80.8</ele>
        <time>2022-10-16T09:00:30Z</time>
      </trkpt>
      <trkpt lat="46.80255" lon="0.44423">
        <ele>81.2</ele>
        <time>2022-10-16T09:00:35Z</time>
      </trkpt>
      <trkpt lat="46.80257" lon="0.44418">
        <ele>81.2</ele>
        <time>2022-10-16T09:00:36Z</time>
      </trkpt>
      <trkpt lat="46.80259" lon="0.44403">
        <ele>81.2</ele>
        <time>2022-10-16T09:00:39Z</time>
      </trkpt>
      <trkpt lat="46.80251" lon="0.44376">
        <ele>80.6</ele>
        <time>2022-10-16T09:00:43Z</time>
      </trkpt>
      <trkpt lat="46.80245" lon="0.44361">
        <ele>79.4</ele>
        <time>2022-10-16T09:00:45Z</time>
      </trkpt>
      <trkpt lat="46.80242" lon="0.44348">
        <ele>78.6</ele>
        <time>2022-10-16T09:00:47Z</time>
      </trkpt>
      <trkpt lat="46.80242" lon="0.44342">
        <ele>78.2</ele>
        <time>2022-10-16T09:00:48Z</time>
      </trkpt>
      <trkpt lat="46.80243" lon="0.44336">
        <ele>77.8</ele>
        <time>2022-10-16T09:00:49Z</time>
      </trkpt>
      <trkpt lat="46.80256" lon="0.44318">
        <ele>77</ele>
        <time>2022-10-16T09:00:52Z</time>
      </trkpt>
      <trkpt lat="46.80267" lon="0.44306">
        <ele>77</ele>
        <time>2022-10-16T09:00:54Z</time>
      </trkpt>
      <trkpt lat="46.80278" lon="0.44284">
        <ele>76.8</ele>
        <time>2022-10-16T09:00:57Z</time>
      </trkpt>
      <trkpt lat="46.80291" lon="0.44255">
        <ele>76.2</ele>
        <time>2022-10-16T09:01:02Z</time>
      </trkpt>
      <trkpt lat="46.80294" lon="0.44249">
        <ele>76</ele>
        <time>2022-10-16T09:01:03Z</time>
      </trkpt>
      <trkpt lat="46.8031" lon="0.44216">
        <ele>76</ele>
        <time>2022-10-16T09:01:09Z</time>
      </trkpt>
      <trkpt lat="46.80322" lon="0.44196">
        <ele>76</ele>
        <time>2022-10-16T09:01:12Z</time>
      </trkpt>
      <trkpt lat="46.80336" lon="0.44175">
        <ele>76.4</ele>
        <time>2022-10-16T09:01:15Z</time>
      </trkpt>
      <trkpt lat="46.80361" lon="0.44134">
        <ele>75.8</ele>
        <time>2022-10-16T09:01:20Z</time>
      </trkpt>
      <trkpt lat="46.80384" lon="0.44092">
        <ele>75.2</ele>
        <time>2022-10-16T09:01:26Z</time>
      </trkpt>
      <trkpt lat="46.80411" lon="0.44051">
        <ele>75.6</ele>
        <time>2022-10-16T09:01:33Z</time>
      </trkpt>
      <trkpt lat="46.80417" lon="0.44041">
        <ele>75.4</ele>
        <time>2022-10-16T09:01:35Z</time>
      </trkpt>
      <trkpt lat="46.80431" lon="0.44021">
        <ele>76</ele>
        <time>2022-10-16T09:01:39Z</time>
      </trkpt>
      <trkpt lat="46.80437" lon="0.44012">
        <ele>76.2</ele>
        <time>2022-10-16T09:01:41Z</time>
      </trkpt>
      <trkpt lat="46.80454" lon="0.43981">
        <ele>76.8</ele>
        <time>2022-10-16T09:01:47Z</time>
      </trkpt>
      <trkpt lat="46.80481" lon="0.43943">
        <ele>77</ele>
        <time>2022-10-16T09:01:54Z</time>
      </trkpt>
      <trkpt lat="46.80485" lon="0.43937">
        <ele>77</ele>
        <time>2022-10-16T09:01:55Z</time>
      </trkpt>
      <trkpt lat="46.80503" lon="0.43922">
        <ele>77.2</ele>
        <time>2022-10-16T09:01:58Z</time>
      </trkpt>
      <trkpt lat="46.80516" lon="0.43909">
        <ele>77.6</ele>
        <time>2022-10-16T09:02:01Z</time>
      </trkpt>
      <trkpt lat="46.8052" lon="0.43903">
        <ele>77.6</ele>
        <time>2022-10-16T09:02:02Z</time>
      </trkpt>
      <trkpt lat="46.80535" lon="0.43884">
        <ele>77.4</ele>
        <time>2022-10-16T09:02:08Z</time>
      </trkpt>
      <trkpt lat="46.80538" lon="0.4388">
        <ele>77.6</ele>
        <time>2022-10-16T09:02:09Z</time>
      </trkpt>
      <trkpt lat="46.80545" lon="0.4387">
        <ele>77.6</ele>
        <time>2022-10-16T09:02:11Z</time>
      </trkpt>
      <trkpt lat="46.80551" lon="0.43861">
        <ele>77.8</ele>
        <time>2022-10-16T09:02:13Z</time>
      </trkpt>
      <trkpt lat="46.80556" lon="0.43851">
        <ele>78.2</ele>
        <time>2022-10-16T09:02:15Z</time>
      </trkpt>
      <trkpt lat="46.80565" lon="0.43839">
        <ele>77.8</ele>
        <time>2022-10-16T09:02:17Z</time>
      </trkpt>
      <trkpt lat="46.80573" lon="0.43827">
        <ele>78</ele>
        <time>2022-10-16T09:02:19Z</time>
      </trkpt>
      <trkpt lat="46.80614" lon="0.43783">
        <ele>77.4</ele>
        <time>2022-10-16T09:02:24Z</time>
      </trkpt>
      <trkpt lat="46.80642" lon="0.43741">
        <ele>77.4</ele>
        <time>2022-10-16T09:02:30Z</time>
      </trkpt>
      <trkpt lat="46.8066" lon="0.43708">
        <ele>77.6</ele>
        <time>2022-10-16T09:02:35Z</time>
      </trkpt>
      <trkpt lat="46.80687" lon="0.43671">
        <ele>77.8</ele>
        <time>2022-10-16T09:02:41Z</time>
      </trkpt>
      <trkpt lat="46.8069" lon="0.43664">
        <ele>77.8</ele>
        <time>2022-10-16T09:02:42Z</time>
      </trkpt>
      <trkpt lat="46.80694" lon="0.43653">
        <ele>77.6</ele>
        <time>2022-10-16T09:02:44Z</time>
      </trkpt>
      <trkpt lat="46.80688" lon="0.43645">
        <ele>77.6</ele>
        <time>2022-10-16T09:02:48Z</time>
      </trkpt>
      <trkpt lat="46.80682" lon="0.43643">
        <ele>77.6</ele>
        <time>2022-10-16T09:02:50Z</time>
      </trkpt>
      <trkpt lat="46.80667" lon="0.4364">
        <ele>77.6</ele>
        <time>2022-10-16T09:02:54Z</time>
      </trkpt>
      <trkpt lat="46.80647" lon="0.43636">
        <ele>77.6</ele>
        <time>2022-10-16T09:03:00Z</time>
      </trkpt>
      <trkpt lat="46.80644" lon="0.43634">
        <ele>77.8</ele>
        <time>2022-10-16T09:03:01Z</time>
      </trkpt>
      <trkpt lat="46.80637" lon="0.43633">
        <ele>77.8</ele>
        <time>2022-10-16T09:03:03Z</time>
      </trkpt>
      <trkpt lat="46.8063" lon="0.43632">
        <ele>78.2</ele>
        <time>2022-10-16T09:03:05Z</time>
      </trkpt>
      <trkpt lat="46.80622" lon="0.43631">
        <ele>78.6</ele>
        <time>2022-10-16T09:03:07Z</time>
      </trkpt>
      <trkpt lat="46.80613" lon="0.4363">
        <ele>78.8</ele>
        <time>2022-10-16T09:03:09Z</time>
      </trkpt>
      <trkpt lat="46.80591" lon="0.4363">
        <ele>79.2</ele>
        <time>2022-10-16T09:03:14Z</time>
      </trkpt>
      <trkpt lat="46.80587" lon="0.4363">
        <ele>79.2</ele>
        <time>2022-10-16T09:03:15Z</time>
      </trkpt>
      <trkpt lat="46.80562" lon="0.43629">
        <ele>79</ele>
        <time>2022-10-16T09:03:20Z</time>
      </trkpt>
      <trkpt lat="46.80549" lon="0.43628">
        <ele>78</ele>
        <time>2022-10-16T09:03:23Z</time>
      </trkpt>
      <trkpt lat="46.80533" lon="0.43625">
        <ele>78</ele>
        <time>2022-10-16T09:03:26Z</time>
      </trkpt>
      <trkpt lat="46.80517" lon="0.43622">
        <ele>78.2</ele>
        <time>2022-10-16T09:03:29Z</time>
      </trkpt>
      <trkpt lat="46.80496" lon="0.4362">
        <ele>78</ele>
        <time>2022-10-16T09:03:33Z</time>
      </trkpt>
      <trkpt lat="46.80467" lon="0.43615">
        <ele>77.6</ele>
        <time>2022-10-16T09:03:39Z</time>
      </trkpt>
      <trkpt lat="46.80463" lon="0.4361">
        <ele>77.4</ele>
        <time>2022-10-16T09:03:41Z</time>
      </trkpt>
      <trkpt lat="46.80463" lon="0.43607">
        <ele>77</ele>
        <time>2022-10-16T09:03:42Z</time>
      </trkpt>
      <trkpt lat="46.80467" lon="0.43593">
        <ele>76.6</ele>
        <time>2022-10-16T09:03:46Z</time>
      </trkpt>
      <trkpt lat="46.80478" lon="0.43565">
        <ele>77.6</ele>
        <time>2022-10-16T09:03:52Z</time>
      </trkpt>
      <trkpt lat="46.80479" lon="0.4356">
        <ele>77.8</ele>
        <time>2022-10-16T09:03:53Z</time>
      </trkpt>
      <trkpt lat="46.80488" lon="0.43527">
        <ele>77.6</ele>
        <time>2022-10-16T09:04:00Z</time>
      </trkpt>
      <trkpt lat="46.8049" lon="0.43523">
        <ele>77.6</ele>
        <time>2022-10-16T09:04:01Z</time>
      </trkpt>
      <trkpt lat="46.80496" lon="0.43501">
        <ele>77.6</ele>
        <time>2022-10-16T09:04:05Z</time>
      </trkpt>
      <trkpt lat="46.805" lon="0.43495">
        <ele>77.6</ele>
        <time>2022-10-16T09:04:06Z</time>
      </trkpt>
      <trkpt lat="46.80502" lon="0.4349">
        <ele>77.8</ele>
        <time>2022-10-16T09:04:07Z</time>
      </trkpt>
      <trkpt lat="46.80513" lon="0.43468">
        <ele>77.6</ele>
        <time>2022-10-16T09:04:11Z</time>
      </trkpt>
      <trkpt lat="46.80521" lon="0.43451">
        <ele>77.2</ele>
        <time>2022-10-16T09:04:14Z</time>
      </trkpt>
      <trkpt lat="46.80526" lon="0.43437">
        <ele>76.8</ele>
        <time>2022-10-16T09:04:17Z</time>
      </trkpt>
      <trkpt lat="46.80527" lon="0.43429">
        <ele>76.8</ele>
        <time>2022-10-16T09:04:19Z</time>
      </trkpt>
      <trkpt lat="46.80526" lon="0.43416">
        <ele>76.8</ele>
        <time>2022-10-16T09:04:22Z</time>
      </trkpt>
      <trkpt lat="46.80526" lon="0.4341">
        <ele>76.6</ele>
        <time>2022-10-16T09:04:23Z</time>
      </trkpt>
      <trkpt lat="46.80521" lon="0.43386">
        <ele>76</ele>
        <time>2022-10-16T09:04:27Z</time>
      </trkpt>
      <trkpt lat="46.80521" lon="0.4338">
        <ele>75.6</ele>
        <time>2022-10-16T09:04:28Z</time>
      </trkpt>
      <trkpt lat="46.80519" lon="0.43367">
        <ele>75</ele>
        <time>2022-10-16T09:04:30Z</time>
      </trkpt>
      <trkpt lat="46.80518" lon="0.43361">
        <ele>74.8</ele>
        <time>2022-10-16T09:04:31Z</time>
      </trkpt>
      <trkpt lat="46.80518" lon="0.43356">
        <ele>74.6</ele>
        <time>2022-10-16T09:04:32Z</time>
      </trkpt>
      <trkpt lat="46.80516" lon="0.43344">
        <ele>74.4</ele>
        <time>2022-10-16T09:04:34Z</time>
      </trkpt>
      <trkpt lat="46.80505" lon="0.433">
        <ele>73.8</ele>
        <time>2022-10-16T09:04:42Z</time>
      </trkpt>
      <trkpt lat="46.80504" lon="0.43294">
        <ele>73.6</ele>
        <time>2022-10-16T09:04:43Z</time>
      </trkpt>
      <trkpt lat="46.805" lon="0.43282">
        <ele>73.4</ele>
        <time>2022-10-16T09:04:45Z</time>
      </trkpt>
      <trkpt lat="46.80498" lon="0.43272">
        <ele>73.4</ele>
        <time>2022-10-16T09:04:47Z</time>
      </trkpt>
      <trkpt lat="46.80495" lon="0.4326">
        <ele>73</ele>
        <time>2022-10-16T09:04:49Z</time>
      </trkpt>
      <trkpt lat="46.80492" lon="0.43247">
        <ele>72.6</ele>
        <time>2022-10-16T09:04:51Z</time>
      </trkpt>
      <trkpt lat="46.80489" lon="0.4324">
        <ele>72.6</ele>
        <time>2022-10-16T09:04:52Z</time>
      </trkpt>
      <trkpt lat="46.80487" lon="0.43229">
        <ele>72.4</ele>
        <time>2022-10-16T09:04:54Z</time>
      </trkpt>
      <trkpt lat="46.80476" lon="0.43192">
        <ele>72</ele>
        <time>2022-10-16T09:05:00Z</time>
      </trkpt>
      <trkpt lat="46.80472" lon="0.43177">
        <ele>71.8</ele>
        <time>2022-10-16T09:05:02Z</time>
      </trkpt>
      <trkpt lat="46.80468" lon="0.43163">
        <ele>71.6</ele>
        <time>2022-10-16T09:05:04Z</time>
      </trkpt>
      <trkpt lat="46.80462" lon="0.43145">
        <ele>71.4</ele>
        <time>2022-10-16T09:05:07Z</time>
      </trkpt>
      <trkpt lat="46.80446" lon="0.431">
        <ele>71</ele>
        <time>2022-10-16T09:05:14Z</time>
      </trkpt>
      <trkpt lat="46.80434" lon="0.43062">
        <ele>70.6</ele>
        <time>2022-10-16T09:05:20Z</time>
      </trkpt>
      <trkpt lat="46.80431" lon="0.43051">
        <ele>70.6</ele>
        <time>2022-10-16T09:05:22Z</time>
      </trkpt>
      <trkpt lat="46.80429" lon="0.43045">
        <ele>70.6</ele>
        <time>2022-10-16T09:05:23Z</time>
      </trkpt>
      <trkpt lat="46.80419" lon="0.43017">
        <ele>70.8</ele>
        <time>2022-10-16T09:05:28Z</time>
      </trkpt>
      <trkpt lat="46.80411" lon="0.42985">
        <ele>71.4</ele>
        <time>2022-10-16T09:05:34Z</time>
      </trkpt>
      <trkpt lat="46.80411" lon="0.4298">
        <ele>71.4</ele>
        <time>2022-10-16T09:05:35Z</time>
      </trkpt>
      <trkpt lat="46.80413" lon="0.42977">
        <ele>71.4</ele>
        <time>2022-10-16T09:05:36Z</time>
      </trkpt>
      <trkpt lat="46.80419" lon="0.42962">
        <ele>71.4</ele>
        <time>2022-10-16T09:05:40Z</time>
      </trkpt>
      <trkpt lat="46.80424" lon="0.42954">
        <ele>71.6</ele>
        <time>2022-10-16T09:05:42Z</time>
      </trkpt>
      <trkpt lat="46.80427" lon="0.42944">
        <ele>71.8</ele>
        <time>2022-10-16T09:05:44Z</time>
      </trkpt>
      <trkpt lat="46.80433" lon="0.42933">
        <ele>71.8</ele>
        <time>2022-10-16T09:05:46Z</time>
      </trkpt>
      <trkpt lat="46.80458" lon="0.429">
        <ele>72.2</ele>
        <time>2022-10-16T09:05:51Z</time>
      </trkpt>
      <trkpt lat="46.80481" lon="0.42875">
        <ele>72.8</ele>
        <time>2022-10-16T09:05:55Z</time>
      </trkpt>
      <trkpt lat="46.80492" lon="0.42863">
        <ele>73</ele>
        <time>2022-10-16T09:05:57Z</time>
      </trkpt>
      <trkpt lat="46.80532" lon="0.42817">
        <ele>73.6</ele>
        <time>2022-10-16T09:06:04Z</time>
      </trkpt>
      <trkpt lat="46.80545" lon="0.42804">
        <ele>73.8</ele>
        <time>2022-10-16T09:06:06Z</time>
      </trkpt>
      <trkpt lat="46.80571" lon="0.42774">
        <ele>74.2</ele>
        <time>2022-10-16T09:06:11Z</time>
      </trkpt>
      <trkpt lat="46.80601" lon="0.42741">
        <ele>74.4</ele>
        <time>2022-10-16T09:06:17Z</time>
      </trkpt>
      <trkpt lat="46.80613" lon="0.4273">
        <ele>74.8</ele>
        <time>2022-10-16T09:06:19Z</time>
      </trkpt>
      <trkpt lat="46.80633" lon="0.42709">
        <ele>75.2</ele>
        <time>2022-10-16T09:06:23Z</time>
      </trkpt>
      <trkpt lat="46.8065" lon="0.42693">
        <ele>75.8</ele>
        <time>2022-10-16T09:06:26Z</time>
      </trkpt>
      <trkpt lat="46.80665" lon="0.4268">
        <ele>76.4</ele>
        <time>2022-10-16T09:06:29Z</time>
      </trkpt>
      <trkpt lat="46.80697" lon="0.42648">
        <ele>76.8</ele>
        <time>2022-10-16T09:06:36Z</time>
      </trkpt>
      <trkpt lat="46.80712" lon="0.4263">
        <ele>76.6</ele>
        <time>2022-10-16T09:06:40Z</time>
      </trkpt>
      <trkpt lat="46.80715" lon="0.42618">
        <ele>76.6</ele>
        <time>2022-10-16T09:06:42Z</time>
      </trkpt>
      <trkpt lat="46.80713" lon="0.42604">
        <ele>76.6</ele>
        <time>2022-10-16T09:06:44Z</time>
      </trkpt>
      <trkpt lat="46.80711" lon="0.42589">
        <ele>76.6</ele>
        <time>2022-10-16T09:06:46Z</time>
      </trkpt>
      <trkpt lat="46.807" lon="0.42536">
        <ele>76.4</ele>
        <time>2022-10-16T09:06:53Z</time>
      </trkpt>
      <trkpt lat="46.80686" lon="0.42481">
        <ele>76.8</ele>
        <time>2022-10-16T09:07:00Z</time>
      </trkpt>
      <trkpt lat="46.80685" lon="0.42472">
        <ele>77</ele>
        <time>2022-10-16T09:07:01Z</time>
      </trkpt>
      <trkpt lat="46.80681" lon="0.42437">
        <ele>77</ele>
        <time>2022-10-16T09:07:05Z</time>
      </trkpt>
      <trkpt lat="46.80681" lon="0.42419">
        <ele>77</ele>
        <time>2022-10-16T09:07:07Z</time>
      </trkpt>
      <trkpt lat="46.8068" lon="0.42358">
        <ele>77.4</ele>
        <time>2022-10-16T09:07:14Z</time>
      </trkpt>
      <trkpt lat="46.8068" lon="0.42342">
        <ele>77.2</ele>
        <time>2022-10-16T09:07:18Z</time>
      </trkpt>
      <trkpt lat="46.80681" lon="0.42339">
        <ele>77.2</ele>
        <time>2022-10-16T09:07:20Z</time>
      </trkpt>
      <trkpt lat="46.8068" lon="0.42337">
        <ele>77.2</ele>
        <time>2022-10-16T09:07:22Z</time>
      </trkpt>
      <trkpt lat="46.80679" lon="0.42335">
        <ele>77.4</ele>
        <time>2022-10-16T09:07:23Z</time>
      </trkpt>
      <trkpt lat="46.80677" lon="0.42323">
        <ele>77.6</ele>
        <time>2022-10-16T09:07:27Z</time>
      </trkpt>
      <trkpt lat="46.80671" lon="0.42288">
        <ele>77.6</ele>
        <time>2022-10-16T09:07:33Z</time>
      </trkpt>
      <trkpt lat="46.80666" lon="0.42242">
        <ele>77.8</ele>
        <time>2022-10-16T09:07:41Z</time>
      </trkpt>
      <trkpt lat="46.80665" lon="0.42225">
        <ele>77.8</ele>
        <time>2022-10-16T09:07:44Z</time>
      </trkpt>
      <trkpt lat="46.80666" lon="0.42215">
        <ele>77.8</ele>
        <time>2022-10-16T09:07:46Z</time>
      </trkpt>
      <trkpt lat="46.80677" lon="0.42181">
        <ele>77.6</ele>
        <time>2022-10-16T09:07:51Z</time>
      </trkpt>
      <trkpt lat="46.80697" lon="0.42126">
        <ele>77.6</ele>
        <time>2022-10-16T09:07:57Z</time>
      </trkpt>
      <trkpt lat="46.80713" lon="0.42067">
        <ele>77.6</ele>
        <time>2022-10-16T09:08:03Z</time>
      </trkpt>
      <trkpt lat="46.80717" lon="0.42047">
        <ele>78</ele>
        <time>2022-10-16T09:08:05Z</time>
      </trkpt>
      <trkpt lat="46.80728" lon="0.41988">
        <ele>78.6</ele>
        <time>2022-10-16T09:08:11Z</time>
      </trkpt>
      <trkpt lat="46.80732" lon="0.41946">
        <ele>79</ele>
        <time>2022-10-16T09:08:15Z</time>
      </trkpt>
      <trkpt lat="46.80732" lon="0.41924">
        <ele>79.4</ele>
        <time>2022-10-16T09:08:17Z</time>
      </trkpt>
      <trkpt lat="46.80729" lon="0.41883">
        <ele>80</ele>
        <time>2022-10-16T09:08:21Z</time>
      </trkpt>
      <trkpt lat="46.80727" lon="0.4184">
        <ele>80.4</ele>
        <time>2022-10-16T09:08:25Z</time>
      </trkpt>
      <trkpt lat="46.80727" lon="0.41759">
        <ele>81.2</ele>
        <time>2022-10-16T09:08:33Z</time>
      </trkpt>
      <trkpt lat="46.80736" lon="0.41725">
        <ele>81.8</ele>
        <time>2022-10-16T09:08:37Z</time>
      </trkpt>
      <trkpt lat="46.80745" lon="0.41705">
        <ele>82.2</ele>
        <time>2022-10-16T09:08:40Z</time>
      </trkpt>
      <trkpt lat="46.80754" lon="0.41688">
        <ele>82.8</ele>
        <time>2022-10-16T09:08:43Z</time>
      </trkpt>
      <trkpt lat="46.80767" lon="0.41666">
        <ele>83.4</ele>
        <time>2022-10-16T09:08:47Z</time>
      </trkpt>
      <trkpt lat="46.80774" lon="0.41653">
        <ele>84</ele>
        <time>2022-10-16T09:08:50Z</time>
      </trkpt>
      <trkpt lat="46.80777" lon="0.41644">
        <ele>84.4</ele>
        <time>2022-10-16T09:08:53Z</time>
      </trkpt>
      <trkpt lat="46.80778" lon="0.4164">
        <ele>84.6</ele>
        <time>2022-10-16T09:08:54Z</time>
      </trkpt>
      <trkpt lat="46.80781" lon="0.41614">
        <ele>84.8</ele>
        <time>2022-10-16T09:08:59Z</time>
      </trkpt>
      <trkpt lat="46.80783" lon="0.41594">
        <ele>85</ele>
        <time>2022-10-16T09:09:02Z</time>
      </trkpt>
      <trkpt lat="46.80788" lon="0.41571">
        <ele>85</ele>
        <time>2022-10-16T09:09:05Z</time>
      </trkpt>
      <trkpt lat="46.80799" lon="0.41536">
        <ele>85.4</ele>
        <time>2022-10-16T09:09:10Z</time>
      </trkpt>
      <trkpt lat="46.80817" lon="0.41495">
        <ele>86</ele>
        <time>2022-10-16T09:09:16Z</time>
      </trkpt>
      <trkpt lat="46.80821" lon="0.41489">
        <ele>86.2</ele>
        <time>2022-10-16T09:09:17Z</time>
      </trkpt>
      <trkpt lat="46.80827" lon="0.41483">
        <ele>86.2</ele>
        <time>2022-10-16T09:09:18Z</time>
      </trkpt>
      <trkpt lat="46.80839" lon="0.41476">
        <ele>86.2</ele>
        <time>2022-10-16T09:09:20Z</time>
      </trkpt>
      <trkpt lat="46.80845" lon="0.41474">
        <ele>86.4</ele>
        <time>2022-10-16T09:09:21Z</time>
      </trkpt>
      <trkpt lat="46.80874" lon="0.41468">
        <ele>86.6</ele>
        <time>2022-10-16T09:09:25Z</time>
      </trkpt>
      <trkpt lat="46.8088" lon="0.41467">
        <ele>86.8</ele>
        <time>2022-10-16T09:09:26Z</time>
      </trkpt>
      <trkpt lat="46.80885" lon="0.41464">
        <ele>87</ele>
        <time>2022-10-16T09:09:27Z</time>
      </trkpt>
      <trkpt lat="46.80887" lon="0.41459">
        <ele>87.2</ele>
        <time>2022-10-16T09:09:28Z</time>
      </trkpt>
      <trkpt lat="46.80888" lon="0.41447">
        <ele>87.2</ele>
        <time>2022-10-16T09:09:30Z</time>
      </trkpt>
      <trkpt lat="46.80888" lon="0.41447">
        <ele>87.2</ele>
        <time>2022-10-16T09:09:31Z</time>
      </trkpt>
      <trkpt lat="46.80888" lon="0.41413">
        <ele>87.6</ele>
        <time>2022-10-16T09:09:36Z</time>
      </trkpt>
      <trkpt lat="46.8089" lon="0.4141">
        <ele>87.8</ele>
        <time>2022-10-16T09:09:37Z</time>
      </trkpt>
      <trkpt lat="46.80897" lon="0.41408">
        <ele>88.2</ele>
        <time>2022-10-16T09:09:39Z</time>
      </trkpt>
      <trkpt lat="46.80901" lon="0.41408">
        <ele>88.2</ele>
        <time>2022-10-16T09:09:40Z</time>
      </trkpt>
      <trkpt lat="46.80915" lon="0.41408">
        <ele>88.8</ele>
        <time>2022-10-16T09:09:43Z</time>
      </trkpt>
      <trkpt lat="46.80934" lon="0.41407">
        <ele>88.6</ele>
        <time>2022-10-16T09:09:47Z</time>
      </trkpt>
      <trkpt lat="46.80954" lon="0.41407">
        <ele>88.6</ele>
        <time>2022-10-16T09:09:53Z</time>
      </trkpt>
      <trkpt lat="46.80956" lon="0.41406">
        <ele>88.6</ele>
        <time>2022-10-16T09:09:55Z</time>
      </trkpt>
      <trkpt lat="46.80959" lon="0.41403">
        <ele>88.8</ele>
        <time>2022-10-16T09:09:57Z</time>
      </trkpt>
      <trkpt lat="46.80971" lon="0.41397">
        <ele>89.2</ele>
        <time>2022-10-16T09:10:02Z</time>
      </trkpt>
      <trkpt lat="46.80983" lon="0.41392">
        <ele>89.6</ele>
        <time>2022-10-16T09:10:05Z</time>
      </trkpt>
      <trkpt lat="46.80989" lon="0.41392">
        <ele>89.8</ele>
        <time>2022-10-16T09:10:06Z</time>
      </trkpt>
      <trkpt lat="46.80994" lon="0.41392">
        <ele>90</ele>
        <time>2022-10-16T09:10:07Z</time>
      </trkpt>
      <trkpt lat="46.81" lon="0.41391">
        <ele>90.2</ele>
        <time>2022-10-16T09:10:08Z</time>
      </trkpt>
      <trkpt lat="46.8101" lon="0.41386">
        <ele>90.8</ele>
        <time>2022-10-16T09:10:10Z</time>
      </trkpt>
      <trkpt lat="46.8102" lon="0.41369">
        <ele>91.2</ele>
        <time>2022-10-16T09:10:13Z</time>
      </trkpt>
      <trkpt lat="46.81021" lon="0.41366">
        <ele>91</ele>
        <time>2022-10-16T09:10:14Z</time>
      </trkpt>
      <trkpt lat="46.81022" lon="0.4136">
        <ele>90.8</ele>
        <time>2022-10-16T09:10:15Z</time>
      </trkpt>
      <trkpt lat="46.81025" lon="0.41332">
        <ele>90.2</ele>
        <time>2022-10-16T09:10:19Z</time>
      </trkpt>
      <trkpt lat="46.81026" lon="0.41325">
        <ele>90.2</ele>
        <time>2022-10-16T09:10:20Z</time>
      </trkpt>
      <trkpt lat="46.81031" lon="0.41314">
        <ele>90.6</ele>
        <time>2022-10-16T09:10:22Z</time>
      </trkpt>
      <trkpt lat="46.81035" lon="0.41311">
        <ele>90.6</ele>
        <time>2022-10-16T09:10:23Z</time>
      </trkpt>
      <trkpt lat="46.81039" lon="0.41309">
        <ele>90.6</ele>
        <time>2022-10-16T09:10:24Z</time>
      </trkpt>
      <trkpt lat="46.81044" lon="0.41302">
        <ele>90.6</ele>
        <time>2022-10-16T09:10:26Z</time>
      </trkpt>
      <trkpt lat="46.81046" lon="0.41298">
        <ele>90.4</ele>
        <time>2022-10-16T09:10:27Z</time>
      </trkpt>
      <trkpt lat="46.81048" lon="0.41278">
        <ele>90.2</ele>
        <time>2022-10-16T09:10:32Z</time>
      </trkpt>
      <trkpt lat="46.81047" lon="0.41262">
        <ele>90.6</ele>
        <time>2022-10-16T09:10:38Z</time>
      </trkpt>
      <trkpt lat="46.81047" lon="0.41261">
        <ele>90.6</ele>
        <time>2022-10-16T09:10:39Z</time>
      </trkpt>
    </trkseg>
  </trk>
</gpx>